<?xml version="1.0" encoding="UTF-8" standalone="no" ?>
<gpx xmlns="http://www.topografix.com/GPX/1/1" xmlns:xsi="http://www.w3.org/2001/XMLSchema-instance" xsi:schemaLocation="http://www.topografix.com/GPX/1/1 http://www.topografix.com/GPX/1/1/gpx.xsd" version="1.1" creator="VisuGPX - https://www.visugpx.com">
  <metadata>
    <name>Turckheim Tour 2017 Plus</name>
    <desc><![CDATA[Version longue avec passage sur les crêtes. Costaud.]]></desc>
  </metadata>
  <trk>
    <name><![CDATA[TT17 Plus]]></name>
    <trkseg>
      <trkpt lat="48.08612" lon="7.27048">
        <ele>248.9</ele>
        <time>2017-10-21T09:30:00.000+02:00</time>
      </trkpt>
      <trkpt lat="48.08604" lon="7.26958">
        <ele>250.3</ele>
        <time>2017-10-21T09:30:27.000+02:00</time>
      </trkpt>
      <trkpt lat="48.08597" lon="7.26831">
        <ele>250.6</ele>
        <time>2017-10-21T09:30:58.000+02:00</time>
      </trkpt>
      <trkpt lat="48.08601" lon="7.26797">
        <ele>250.4</ele>
        <time>2017-10-21T09:31:12.000+02:00</time>
      </trkpt>
      <trkpt lat="48.08617" lon="7.26737">
        <ele>252.2</ele>
        <time>2017-10-21T09:31:27.000+02:00</time>
      </trkpt>
      <trkpt lat="48.08621" lon="7.26707">
        <ele>252</ele>
        <time>2017-10-21T09:31:35.000+02:00</time>
      </trkpt>
      <trkpt lat="48.08621" lon="7.26691">
        <ele>251.3</ele>
        <time>2017-10-21T09:31:40.000+02:00</time>
      </trkpt>
      <trkpt lat="48.0862" lon="7.26674">
        <ele>250.3</ele>
        <time>2017-10-21T09:31:44.000+02:00</time>
      </trkpt>
      <trkpt lat="48.08614" lon="7.26637">
        <ele>248.8</ele>
        <time>2017-10-21T09:31:53.000+02:00</time>
      </trkpt>
      <trkpt lat="48.08615" lon="7.26508">
        <ele>249.4</ele>
        <time>2017-10-21T09:32:27.000+02:00</time>
      </trkpt>
      <trkpt lat="48.08611" lon="7.26457">
        <ele>249.5</ele>
        <time>2017-10-21T09:32:41.000+02:00</time>
      </trkpt>
      <trkpt lat="48.08609" lon="7.2642">
        <ele>249.7</ele>
        <time>2017-10-21T09:32:51.000+02:00</time>
      </trkpt>
      <trkpt lat="48.08615" lon="7.26377">
        <ele>251.5</ele>
        <time>2017-10-21T09:33:05.000+02:00</time>
      </trkpt>
      <trkpt lat="48.08621" lon="7.26346">
        <ele>253.1</ele>
        <time>2017-10-21T09:33:15.000+02:00</time>
      </trkpt>
      <trkpt lat="48.0863" lon="7.26312">
        <ele>255.1</ele>
        <time>2017-10-21T09:33:27.000+02:00</time>
      </trkpt>
      <trkpt lat="48.08632" lon="7.26292">
        <ele>255.8</ele>
        <time>2017-10-21T09:33:32.000+02:00</time>
      </trkpt>
      <trkpt lat="48.0863" lon="7.26273">
        <ele>255.8</ele>
        <time>2017-10-21T09:33:37.000+02:00</time>
      </trkpt>
      <trkpt lat="48.08616" lon="7.26202">
        <ele>255.8</ele>
        <time>2017-10-21T09:33:58.000+02:00</time>
      </trkpt>
      <trkpt lat="48.08582" lon="7.26093">
        <ele>259</ele>
        <time>2017-10-21T09:34:32.000+02:00</time>
      </trkpt>
      <trkpt lat="48.08582" lon="7.26092">
        <ele>259.1</ele>
        <time>2017-10-21T09:34:32.000+02:00</time>
      </trkpt>
      <trkpt lat="48.08573" lon="7.26059">
        <ele>261.3</ele>
        <time>2017-10-21T09:34:47.000+02:00</time>
      </trkpt>
      <trkpt lat="48.08564" lon="7.26015">
        <ele>263.7</ele>
        <time>2017-10-21T09:35:01.000+02:00</time>
      </trkpt>
      <trkpt lat="48.08557" lon="7.25967">
        <ele>265.2</ele>
        <time>2017-10-21T09:35:17.000+02:00</time>
      </trkpt>
      <trkpt lat="48.08552" lon="7.25875">
        <ele>266.9</ele>
        <time>2017-10-21T09:35:42.000+02:00</time>
      </trkpt>
      <trkpt lat="48.08539" lon="7.25755">
        <ele>267.8</ele>
        <time>2017-10-21T09:36:16.000+02:00</time>
      </trkpt>
      <trkpt lat="48.0854" lon="7.25702">
        <ele>269</ele>
        <time>2017-10-21T09:36:32.000+02:00</time>
      </trkpt>
      <trkpt lat="48.08549" lon="7.2559">
        <ele>271.3</ele>
        <time>2017-10-21T09:37:04.000+02:00</time>
      </trkpt>
      <trkpt lat="48.08556" lon="7.2553">
        <ele>273.2</ele>
        <time>2017-10-21T09:37:22.000+02:00</time>
      </trkpt>
      <trkpt lat="48.08561" lon="7.25446">
        <ele>276.3</ele>
        <time>2017-10-21T09:37:46.000+02:00</time>
      </trkpt>
      <trkpt lat="48.08571" lon="7.25313">
        <ele>283.7</ele>
        <time>2017-10-21T09:38:33.000+02:00</time>
      </trkpt>
      <trkpt lat="48.0858" lon="7.2518">
        <ele>290.9</ele>
        <time>2017-10-21T09:39:16.000+02:00</time>
      </trkpt>
      <trkpt lat="48.08577" lon="7.25134">
        <ele>294</ele>
        <time>2017-10-21T09:39:32.000+02:00</time>
      </trkpt>
      <trkpt lat="48.08567" lon="7.25062">
        <ele>298.3</ele>
        <time>2017-10-21T09:39:59.000+02:00</time>
      </trkpt>
      <trkpt lat="48.08557" lon="7.24991">
        <ele>302.2</ele>
        <time>2017-10-21T09:40:26.000+02:00</time>
      </trkpt>
      <trkpt lat="48.08545" lon="7.24859">
        <ele>307.5</ele>
        <time>2017-10-21T09:41:07.000+02:00</time>
      </trkpt>
      <trkpt lat="48.0854" lon="7.24827">
        <ele>308</ele>
        <time>2017-10-21T09:41:18.000+02:00</time>
      </trkpt>
      <trkpt lat="48.08531" lon="7.24804">
        <ele>307.4</ele>
        <time>2017-10-21T09:41:25.000+02:00</time>
      </trkpt>
      <trkpt lat="48.08521" lon="7.24775">
        <ele>307.4</ele>
        <time>2017-10-21T09:41:34.000+02:00</time>
      </trkpt>
      <trkpt lat="48.08516" lon="7.24754">
        <ele>308</ele>
        <time>2017-10-21T09:41:39.000+02:00</time>
      </trkpt>
      <trkpt lat="48.08517" lon="7.24735">
        <ele>309.1</ele>
        <time>2017-10-21T09:41:52.000+02:00</time>
      </trkpt>
      <trkpt lat="48.08528" lon="7.24702">
        <ele>312.5</ele>
        <time>2017-10-21T09:42:06.000+02:00</time>
      </trkpt>
      <trkpt lat="48.08517" lon="7.24644">
        <ele>313.3</ele>
        <time>2017-10-21T09:42:25.000+02:00</time>
      </trkpt>
      <trkpt lat="48.08514" lon="7.24583">
        <ele>315.4</ele>
        <time>2017-10-21T09:42:42.000+02:00</time>
      </trkpt>
      <trkpt lat="48.08504" lon="7.24502">
        <ele>316.9</ele>
        <time>2017-10-21T09:43:04.000+02:00</time>
      </trkpt>
      <trkpt lat="48.08508" lon="7.24471">
        <ele>319</ele>
        <time>2017-10-21T09:43:34.000+02:00</time>
      </trkpt>
      <trkpt lat="48.08513" lon="7.24442">
        <ele>321.3</ele>
        <time>2017-10-21T09:43:42.000+02:00</time>
      </trkpt>
      <trkpt lat="48.08517" lon="7.24364">
        <ele>325.3</ele>
        <time>2017-10-21T09:44:08.000+02:00</time>
      </trkpt>
      <trkpt lat="48.08517" lon="7.24281">
        <ele>330.8</ele>
        <time>2017-10-21T09:44:39.000+02:00</time>
      </trkpt>
      <trkpt lat="48.08525" lon="7.24215">
        <ele>336.6</ele>
        <time>2017-10-21T09:45:05.000+02:00</time>
      </trkpt>
      <trkpt lat="48.08525" lon="7.24216">
        <ele>336.5</ele>
        <time>2017-10-21T09:45:05.000+02:00</time>
      </trkpt>
      <trkpt lat="48.08534" lon="7.24165">
        <ele>340</ele>
        <time>2017-10-21T09:45:20.000+02:00</time>
      </trkpt>
      <trkpt lat="48.08541" lon="7.2414">
        <ele>341.2</ele>
        <time>2017-10-21T09:45:29.000+02:00</time>
      </trkpt>
      <trkpt lat="48.08578" lon="7.24063">
        <ele>344.4</ele>
        <time>2017-10-21T09:45:57.000+02:00</time>
      </trkpt>
      <trkpt lat="48.08602" lon="7.24018">
        <ele>348.4</ele>
        <time>2017-10-21T09:46:26.000+02:00</time>
      </trkpt>
      <trkpt lat="48.08609" lon="7.24006">
        <ele>349</ele>
        <time>2017-10-21T09:46:32.000+02:00</time>
      </trkpt>
      <trkpt lat="48.08583" lon="7.23988">
        <ele>344.7</ele>
        <time>2017-10-21T09:46:45.000+02:00</time>
      </trkpt>
      <trkpt lat="48.08571" lon="7.23981">
        <ele>346.3</ele>
        <time>2017-10-21T09:46:51.000+02:00</time>
      </trkpt>
      <trkpt lat="48.08563" lon="7.2398">
        <ele>347.1</ele>
        <time>2017-10-21T09:46:56.000+02:00</time>
      </trkpt>
      <trkpt lat="48.08552" lon="7.23982">
        <ele>347.9</ele>
        <time>2017-10-21T09:47:02.000+02:00</time>
      </trkpt>
      <trkpt lat="48.08544" lon="7.23976">
        <ele>349.3</ele>
        <time>2017-10-21T09:47:07.000+02:00</time>
      </trkpt>
      <trkpt lat="48.08497" lon="7.24042">
        <ele>342.4</ele>
        <time>2017-10-21T09:47:29.000+02:00</time>
      </trkpt>
      <trkpt lat="48.08468" lon="7.24079">
        <ele>340.1</ele>
        <time>2017-10-21T09:47:43.000+02:00</time>
      </trkpt>
      <trkpt lat="48.08464" lon="7.24077">
        <ele>341</ele>
        <time>2017-10-21T09:47:45.000+02:00</time>
      </trkpt>
      <trkpt lat="48.08459" lon="7.24078">
        <ele>341.5</ele>
        <time>2017-10-21T09:47:49.000+02:00</time>
      </trkpt>
      <trkpt lat="48.08446" lon="7.24095">
        <ele>340.9</ele>
        <time>2017-10-21T09:48:06.000+02:00</time>
      </trkpt>
      <trkpt lat="48.08421" lon="7.24138">
        <ele>338.5</ele>
        <time>2017-10-21T09:48:19.000+02:00</time>
      </trkpt>
      <trkpt lat="48.08405" lon="7.24161">
        <ele>338.3</ele>
        <time>2017-10-21T09:48:36.000+02:00</time>
      </trkpt>
      <trkpt lat="48.08382" lon="7.24195">
        <ele>340.1</ele>
        <time>2017-10-21T09:48:48.000+02:00</time>
      </trkpt>
      <trkpt lat="48.08351" lon="7.24235">
        <ele>343.4</ele>
        <time>2017-10-21T09:49:08.000+02:00</time>
      </trkpt>
      <trkpt lat="48.08322" lon="7.24343">
        <ele>342.1</ele>
        <time>2017-10-21T09:49:40.000+02:00</time>
      </trkpt>
      <trkpt lat="48.08305" lon="7.24473">
        <ele>338.8</ele>
        <time>2017-10-21T09:50:12.000+02:00</time>
      </trkpt>
      <trkpt lat="48.08283" lon="7.24573">
        <ele>340.2</ele>
        <time>2017-10-21T09:50:38.000+02:00</time>
      </trkpt>
      <trkpt lat="48.0826" lon="7.24673">
        <ele>341</ele>
        <time>2017-10-21T09:51:05.000+02:00</time>
      </trkpt>
      <trkpt lat="48.08254" lon="7.24694">
        <ele>342.2</ele>
        <time>2017-10-21T09:51:13.000+02:00</time>
      </trkpt>
      <trkpt lat="48.08247" lon="7.24702">
        <ele>343</ele>
        <time>2017-10-21T09:51:32.000+02:00</time>
      </trkpt>
      <trkpt lat="48.08235" lon="7.24705">
        <ele>342.4</ele>
        <time>2017-10-21T09:51:36.000+02:00</time>
      </trkpt>
      <trkpt lat="48.08228" lon="7.24699">
        <ele>342.4</ele>
        <time>2017-10-21T09:51:40.000+02:00</time>
      </trkpt>
      <trkpt lat="48.08219" lon="7.24684">
        <ele>343</ele>
        <time>2017-10-21T09:51:45.000+02:00</time>
      </trkpt>
      <trkpt lat="48.08212" lon="7.24666">
        <ele>344.1</ele>
        <time>2017-10-21T09:52:02.000+02:00</time>
      </trkpt>
      <trkpt lat="48.0821" lon="7.24656">
        <ele>344.8</ele>
        <time>2017-10-21T09:52:04.000+02:00</time>
      </trkpt>
      <trkpt lat="48.08194" lon="7.24617">
        <ele>348.2</ele>
        <time>2017-10-21T09:52:19.000+02:00</time>
      </trkpt>
      <trkpt lat="48.08188" lon="7.24596">
        <ele>350.1</ele>
        <time>2017-10-21T09:52:26.000+02:00</time>
      </trkpt>
      <trkpt lat="48.08183" lon="7.24502">
        <ele>357.3</ele>
        <time>2017-10-21T09:53:02.000+02:00</time>
      </trkpt>
      <trkpt lat="48.08172" lon="7.24428">
        <ele>363.7</ele>
        <time>2017-10-21T09:53:34.000+02:00</time>
      </trkpt>
      <trkpt lat="48.08161" lon="7.24354">
        <ele>370.3</ele>
        <time>2017-10-21T09:53:58.000+02:00</time>
      </trkpt>
      <trkpt lat="48.08161" lon="7.24355">
        <ele>370.2</ele>
        <time>2017-10-21T09:53:59.000+02:00</time>
      </trkpt>
      <trkpt lat="48.08158" lon="7.24334">
        <ele>371.8</ele>
        <time>2017-10-21T09:54:20.000+02:00</time>
      </trkpt>
      <trkpt lat="48.08148" lon="7.2429">
        <ele>374.4</ele>
        <time>2017-10-21T09:54:34.000+02:00</time>
      </trkpt>
      <trkpt lat="48.08145" lon="7.24252">
        <ele>377.8</ele>
        <time>2017-10-21T09:54:51.000+02:00</time>
      </trkpt>
      <trkpt lat="48.08147" lon="7.24217">
        <ele>379.3</ele>
        <time>2017-10-21T09:55:02.000+02:00</time>
      </trkpt>
      <trkpt lat="48.08153" lon="7.24178">
        <ele>382.1</ele>
        <time>2017-10-21T09:55:19.000+02:00</time>
      </trkpt>
      <trkpt lat="48.08163" lon="7.24141">
        <ele>385.2</ele>
        <time>2017-10-21T09:55:29.000+02:00</time>
      </trkpt>
      <trkpt lat="48.08177" lon="7.24111">
        <ele>386.3</ele>
        <time>2017-10-21T09:56:03.000+02:00</time>
      </trkpt>
      <trkpt lat="48.08187" lon="7.24077">
        <ele>388.2</ele>
        <time>2017-10-21T09:56:24.000+02:00</time>
      </trkpt>
      <trkpt lat="48.0819" lon="7.24038">
        <ele>395</ele>
        <time>2017-10-21T09:56:42.000+02:00</time>
      </trkpt>
      <trkpt lat="48.08189" lon="7.23991">
        <ele>402.7</ele>
        <time>2017-10-21T09:57:29.000+02:00</time>
      </trkpt>
      <trkpt lat="48.08186" lon="7.23979">
        <ele>404.3</ele>
        <time>2017-10-21T09:57:34.000+02:00</time>
      </trkpt>
      <trkpt lat="48.08171" lon="7.23943">
        <ele>407.5</ele>
        <time>2017-10-21T09:57:50.000+02:00</time>
      </trkpt>
      <trkpt lat="48.08163" lon="7.23928">
        <ele>407.8</ele>
        <time>2017-10-21T09:58:05.000+02:00</time>
      </trkpt>
      <trkpt lat="48.08152" lon="7.23913">
        <ele>406.2</ele>
        <time>2017-10-21T09:58:18.000+02:00</time>
      </trkpt>
      <trkpt lat="48.08142" lon="7.23884">
        <ele>406</ele>
        <time>2017-10-21T09:58:27.000+02:00</time>
      </trkpt>
      <trkpt lat="48.08136" lon="7.23812">
        <ele>411.9</ele>
        <time>2017-10-21T09:59:01.000+02:00</time>
      </trkpt>
      <trkpt lat="48.08134" lon="7.2375">
        <ele>418.3</ele>
        <time>2017-10-21T09:59:46.000+02:00</time>
      </trkpt>
      <trkpt lat="48.08137" lon="7.23688">
        <ele>429.2</ele>
        <time>2017-10-21T10:00:09.000+02:00</time>
      </trkpt>
      <trkpt lat="48.08137" lon="7.23651">
        <ele>437.6</ele>
        <time>2017-10-21T10:01:00.000+02:00</time>
      </trkpt>
      <trkpt lat="48.08126" lon="7.23629">
        <ele>442.2</ele>
        <time>2017-10-21T10:01:10.000+02:00</time>
      </trkpt>
      <trkpt lat="48.08127" lon="7.23631">
        <ele>441.7</ele>
        <time>2017-10-21T10:01:12.000+02:00</time>
      </trkpt>
      <trkpt lat="48.08112" lon="7.23617">
        <ele>443.1</ele>
        <time>2017-10-21T10:01:20.000+02:00</time>
      </trkpt>
      <trkpt lat="48.08098" lon="7.23613">
        <ele>441.4</ele>
        <time>2017-10-21T10:01:26.000+02:00</time>
      </trkpt>
      <trkpt lat="48.08075" lon="7.23615">
        <ele>436.6</ele>
        <time>2017-10-21T10:01:48.000+02:00</time>
      </trkpt>
      <trkpt lat="48.08062" lon="7.23614">
        <ele>435.5</ele>
        <time>2017-10-21T10:01:52.000+02:00</time>
      </trkpt>
      <trkpt lat="48.08027" lon="7.23584">
        <ele>440</ele>
        <time>2017-10-21T10:02:09.000+02:00</time>
      </trkpt>
      <trkpt lat="48.07993" lon="7.23562">
        <ele>437.5</ele>
        <time>2017-10-21T10:02:25.000+02:00</time>
      </trkpt>
      <trkpt lat="48.07985" lon="7.23552">
        <ele>437.2</ele>
        <time>2017-10-21T10:02:29.000+02:00</time>
      </trkpt>
      <trkpt lat="48.07979" lon="7.23535">
        <ele>438</ele>
        <time>2017-10-21T10:02:36.000+02:00</time>
      </trkpt>
      <trkpt lat="48.07974" lon="7.23517">
        <ele>438.9</ele>
        <time>2017-10-21T10:02:42.000+02:00</time>
      </trkpt>
      <trkpt lat="48.07969" lon="7.23482">
        <ele>439.7</ele>
        <time>2017-10-21T10:02:54.000+02:00</time>
      </trkpt>
      <trkpt lat="48.07968" lon="7.23468">
        <ele>439.6</ele>
        <time>2017-10-21T10:02:58.000+02:00</time>
      </trkpt>
      <trkpt lat="48.07969" lon="7.23442">
        <ele>440</ele>
        <time>2017-10-21T10:03:06.000+02:00</time>
      </trkpt>
      <trkpt lat="48.07979" lon="7.23406">
        <ele>442.1</ele>
        <time>2017-10-21T10:03:17.000+02:00</time>
      </trkpt>
      <trkpt lat="48.08016" lon="7.23291">
        <ele>445.9</ele>
        <time>2017-10-21T10:04:07.000+02:00</time>
      </trkpt>
      <trkpt lat="48.0805" lon="7.23239">
        <ele>451.2</ele>
        <time>2017-10-21T10:04:24.000+02:00</time>
      </trkpt>
      <trkpt lat="48.08084" lon="7.23186">
        <ele>451.6</ele>
        <time>2017-10-21T10:05:02.000+02:00</time>
      </trkpt>
      <trkpt lat="48.08095" lon="7.23176">
        <ele>452.4</ele>
        <time>2017-10-21T10:05:07.000+02:00</time>
      </trkpt>
      <trkpt lat="48.08109" lon="7.23177">
        <ele>455.8</ele>
        <time>2017-10-21T10:05:23.000+02:00</time>
      </trkpt>
      <trkpt lat="48.08124" lon="7.23171">
        <ele>458.1</ele>
        <time>2017-10-21T10:05:33.000+02:00</time>
      </trkpt>
      <trkpt lat="48.08145" lon="7.23166">
        <ele>461.9</ele>
        <time>2017-10-21T10:05:45.000+02:00</time>
      </trkpt>
      <trkpt lat="48.0823" lon="7.2317">
        <ele>477.5</ele>
        <time>2017-10-21T10:07:19.000+02:00</time>
      </trkpt>
      <trkpt lat="48.08276" lon="7.2317">
        <ele>484.4</ele>
        <time>2017-10-21T10:07:50.000+02:00</time>
      </trkpt>
      <trkpt lat="48.08288" lon="7.23175">
        <ele>486.6</ele>
        <time>2017-10-21T10:07:57.000+02:00</time>
      </trkpt>
      <trkpt lat="48.08299" lon="7.23184">
        <ele>488.7</ele>
        <time>2017-10-21T10:08:03.000+02:00</time>
      </trkpt>
      <trkpt lat="48.08314" lon="7.232">
        <ele>491</ele>
        <time>2017-10-21T10:08:11.000+02:00</time>
      </trkpt>
      <trkpt lat="48.0833" lon="7.23207">
        <ele>492.3</ele>
        <time>2017-10-21T10:08:19.000+02:00</time>
      </trkpt>
      <trkpt lat="48.08345" lon="7.23179">
        <ele>492.7</ele>
        <time>2017-10-21T10:08:29.000+02:00</time>
      </trkpt>
      <trkpt lat="48.0835" lon="7.23159">
        <ele>493.7</ele>
        <time>2017-10-21T10:08:42.000+02:00</time>
      </trkpt>
      <trkpt lat="48.08352" lon="7.23138">
        <ele>495.8</ele>
        <time>2017-10-21T10:08:51.000+02:00</time>
      </trkpt>
      <trkpt lat="48.08351" lon="7.23117">
        <ele>497.7</ele>
        <time>2017-10-21T10:08:58.000+02:00</time>
      </trkpt>
      <trkpt lat="48.08351" lon="7.23116">
        <ele>497.8</ele>
        <time>2017-10-21T10:08:58.000+02:00</time>
      </trkpt>
      <trkpt lat="48.08346" lon="7.23044">
        <ele>505.7</ele>
        <time>2017-10-21T10:09:40.000+02:00</time>
      </trkpt>
      <trkpt lat="48.08345" lon="7.22987">
        <ele>514.1</ele>
        <time>2017-10-21T10:10:22.000+02:00</time>
      </trkpt>
      <trkpt lat="48.08343" lon="7.22962">
        <ele>518.5</ele>
        <time>2017-10-21T10:10:42.000+02:00</time>
      </trkpt>
      <trkpt lat="48.08322" lon="7.22848">
        <ele>532</ele>
        <time>2017-10-21T10:11:17.000+02:00</time>
      </trkpt>
      <trkpt lat="48.08317" lon="7.22813">
        <ele>535.1</ele>
        <time>2017-10-21T10:11:42.000+02:00</time>
      </trkpt>
      <trkpt lat="48.08315" lon="7.22781">
        <ele>538.2</ele>
        <time>2017-10-21T10:11:51.000+02:00</time>
      </trkpt>
      <trkpt lat="48.08317" lon="7.22756">
        <ele>541.8</ele>
        <time>2017-10-21T10:12:12.000+02:00</time>
      </trkpt>
      <trkpt lat="48.0834" lon="7.22648">
        <ele>548.7</ele>
        <time>2017-10-21T10:13:15.000+02:00</time>
      </trkpt>
      <trkpt lat="48.08351" lon="7.22624">
        <ele>550.5</ele>
        <time>2017-10-21T10:13:26.000+02:00</time>
      </trkpt>
      <trkpt lat="48.08366" lon="7.22607">
        <ele>554.1</ele>
        <time>2017-10-21T10:13:34.000+02:00</time>
      </trkpt>
      <trkpt lat="48.08408" lon="7.22565">
        <ele>564.9</ele>
        <time>2017-10-21T10:14:00.000+02:00</time>
      </trkpt>
      <trkpt lat="48.08429" lon="7.22539">
        <ele>570.1</ele>
        <time>2017-10-21T10:14:55.000+02:00</time>
      </trkpt>
      <trkpt lat="48.08447" lon="7.22511">
        <ele>574.3</ele>
        <time>2017-10-21T10:15:06.000+02:00</time>
      </trkpt>
      <trkpt lat="48.08484" lon="7.22441">
        <ele>583.9</ele>
        <time>2017-10-21T10:15:35.000+02:00</time>
      </trkpt>
      <trkpt lat="48.08492" lon="7.22411">
        <ele>585.8</ele>
        <time>2017-10-21T10:15:48.000+02:00</time>
      </trkpt>
      <trkpt lat="48.08497" lon="7.22377">
        <ele>586.4</ele>
        <time>2017-10-21T10:16:02.000+02:00</time>
      </trkpt>
      <trkpt lat="48.08502" lon="7.22316">
        <ele>587.2</ele>
        <time>2017-10-21T10:17:23.000+02:00</time>
      </trkpt>
      <trkpt lat="48.08502" lon="7.22247">
        <ele>588.1</ele>
        <time>2017-10-21T10:17:41.000+02:00</time>
      </trkpt>
      <trkpt lat="48.08511" lon="7.22164">
        <ele>596.1</ele>
        <time>2017-10-21T10:18:23.000+02:00</time>
      </trkpt>
      <trkpt lat="48.08508" lon="7.22131">
        <ele>600.3</ele>
        <time>2017-10-21T10:19:07.000+02:00</time>
      </trkpt>
      <trkpt lat="48.08487" lon="7.2209">
        <ele>597.7</ele>
        <time>2017-10-21T10:19:46.000+02:00</time>
      </trkpt>
      <trkpt lat="48.08463" lon="7.22051">
        <ele>593.9</ele>
        <time>2017-10-21T10:20:02.000+02:00</time>
      </trkpt>
      <trkpt lat="48.08457" lon="7.22025">
        <ele>596.5</ele>
        <time>2017-10-21T10:20:10.000+02:00</time>
      </trkpt>
      <trkpt lat="48.08454" lon="7.21986">
        <ele>601.4</ele>
        <time>2017-10-21T10:20:43.000+02:00</time>
      </trkpt>
      <trkpt lat="48.08449" lon="7.2195">
        <ele>602.7</ele>
        <time>2017-10-21T10:20:54.000+02:00</time>
      </trkpt>
      <trkpt lat="48.08452" lon="7.21935">
        <ele>604.8</ele>
        <time>2017-10-21T10:21:00.000+02:00</time>
      </trkpt>
      <trkpt lat="48.08455" lon="7.2193">
        <ele>606.1</ele>
        <time>2017-10-21T10:21:02.000+02:00</time>
      </trkpt>
      <trkpt lat="48.08468" lon="7.21925">
        <ele>610.1</ele>
        <time>2017-10-21T10:21:14.000+02:00</time>
      </trkpt>
      <trkpt lat="48.08496" lon="7.21928">
        <ele>617.7</ele>
        <time>2017-10-21T10:21:40.000+02:00</time>
      </trkpt>
      <trkpt lat="48.08513" lon="7.21928">
        <ele>622.6</ele>
        <time>2017-10-21T10:22:15.000+02:00</time>
      </trkpt>
      <trkpt lat="48.08526" lon="7.21911">
        <ele>625.5</ele>
        <time>2017-10-21T10:22:21.000+02:00</time>
      </trkpt>
      <trkpt lat="48.08543" lon="7.21901">
        <ele>628.7</ele>
        <time>2017-10-21T10:22:34.000+02:00</time>
      </trkpt>
      <trkpt lat="48.0857" lon="7.21889">
        <ele>633.7</ele>
        <time>2017-10-21T10:22:50.000+02:00</time>
      </trkpt>
      <trkpt lat="48.08601" lon="7.21885">
        <ele>641.1</ele>
        <time>2017-10-21T10:23:51.000+02:00</time>
      </trkpt>
      <trkpt lat="48.08618" lon="7.21885">
        <ele>645.7</ele>
        <time>2017-10-21T10:24:01.000+02:00</time>
      </trkpt>
      <trkpt lat="48.08643" lon="7.21876">
        <ele>650.5</ele>
        <time>2017-10-21T10:24:14.000+02:00</time>
      </trkpt>
      <trkpt lat="48.08677" lon="7.2186">
        <ele>656.2</ele>
        <time>2017-10-21T10:25:14.000+02:00</time>
      </trkpt>
      <trkpt lat="48.08694" lon="7.21845">
        <ele>658.3</ele>
        <time>2017-10-21T10:25:23.000+02:00</time>
      </trkpt>
      <trkpt lat="48.08707" lon="7.21825">
        <ele>658.4</ele>
        <time>2017-10-21T10:25:43.000+02:00</time>
      </trkpt>
      <trkpt lat="48.08733" lon="7.21766">
        <ele>656.2</ele>
        <time>2017-10-21T10:26:02.000+02:00</time>
      </trkpt>
      <trkpt lat="48.0875" lon="7.21706">
        <ele>654.2</ele>
        <time>2017-10-21T10:26:29.000+02:00</time>
      </trkpt>
      <trkpt lat="48.08773" lon="7.21608">
        <ele>658.9</ele>
        <time>2017-10-21T10:27:52.000+02:00</time>
      </trkpt>
      <trkpt lat="48.08772" lon="7.21581">
        <ele>658.6</ele>
        <time>2017-10-21T10:27:58.000+02:00</time>
      </trkpt>
      <trkpt lat="48.08767" lon="7.21549">
        <ele>659.9</ele>
        <time>2017-10-21T10:28:15.000+02:00</time>
      </trkpt>
      <trkpt lat="48.08744" lon="7.21487">
        <ele>657.6</ele>
        <time>2017-10-21T10:28:43.000+02:00</time>
      </trkpt>
      <trkpt lat="48.08731" lon="7.21429">
        <ele>658.5</ele>
        <time>2017-10-21T10:29:00.000+02:00</time>
      </trkpt>
      <trkpt lat="48.0873" lon="7.21418">
        <ele>659.4</ele>
        <time>2017-10-21T10:29:03.000+02:00</time>
      </trkpt>
      <trkpt lat="48.08733" lon="7.21394">
        <ele>660.4</ele>
        <time>2017-10-21T10:29:13.000+02:00</time>
      </trkpt>
      <trkpt lat="48.08738" lon="7.21383">
        <ele>661.9</ele>
        <time>2017-10-21T10:29:16.000+02:00</time>
      </trkpt>
      <trkpt lat="48.0876" lon="7.21348">
        <ele>668.8</ele>
        <time>2017-10-21T10:30:20.000+02:00</time>
      </trkpt>
      <trkpt lat="48.0877" lon="7.21324">
        <ele>672.9</ele>
        <time>2017-10-21T10:30:33.000+02:00</time>
      </trkpt>
      <trkpt lat="48.08776" lon="7.21297">
        <ele>676.9</ele>
        <time>2017-10-21T10:30:50.000+02:00</time>
      </trkpt>
      <trkpt lat="48.08777" lon="7.21275">
        <ele>678.7</ele>
        <time>2017-10-21T10:30:56.000+02:00</time>
      </trkpt>
      <trkpt lat="48.08775" lon="7.21255">
        <ele>679.5</ele>
        <time>2017-10-21T10:31:02.000+02:00</time>
      </trkpt>
      <trkpt lat="48.08766" lon="7.21221">
        <ele>684</ele>
        <time>2017-10-21T10:31:40.000+02:00</time>
      </trkpt>
      <trkpt lat="48.08765" lon="7.21221">
        <ele>683.7</ele>
        <time>2017-10-21T10:31:40.000+02:00</time>
      </trkpt>
      <trkpt lat="48.08763" lon="7.2121">
        <ele>685.8</ele>
        <time>2017-10-21T10:31:49.000+02:00</time>
      </trkpt>
      <trkpt lat="48.08751" lon="7.21194">
        <ele>686.4</ele>
        <time>2017-10-21T10:31:56.000+02:00</time>
      </trkpt>
      <trkpt lat="48.08739" lon="7.21184">
        <ele>685.6</ele>
        <time>2017-10-21T10:32:14.000+02:00</time>
      </trkpt>
      <trkpt lat="48.08725" lon="7.21167">
        <ele>686</ele>
        <time>2017-10-21T10:32:20.000+02:00</time>
      </trkpt>
      <trkpt lat="48.08669" lon="7.21089">
        <ele>693</ele>
        <time>2017-10-21T10:33:23.000+02:00</time>
      </trkpt>
      <trkpt lat="48.08601" lon="7.21007">
        <ele>696</ele>
        <time>2017-10-21T10:33:58.000+02:00</time>
      </trkpt>
      <trkpt lat="48.08576" lon="7.20973">
        <ele>694.2</ele>
        <time>2017-10-21T10:34:11.000+02:00</time>
      </trkpt>
      <trkpt lat="48.08524" lon="7.20919">
        <ele>688.4</ele>
        <time>2017-10-21T10:34:32.000+02:00</time>
      </trkpt>
      <trkpt lat="48.08521" lon="7.20913">
        <ele>687.6</ele>
        <time>2017-10-21T10:34:36.000+02:00</time>
      </trkpt>
      <trkpt lat="48.08526" lon="7.20903">
        <ele>687.8</ele>
        <time>2017-10-21T10:34:41.000+02:00</time>
      </trkpt>
      <trkpt lat="48.08554" lon="7.20875">
        <ele>691.9</ele>
        <time>2017-10-21T10:34:57.000+02:00</time>
      </trkpt>
      <trkpt lat="48.08568" lon="7.20856">
        <ele>693.8</ele>
        <time>2017-10-21T10:35:05.000+02:00</time>
      </trkpt>
      <trkpt lat="48.08588" lon="7.20845">
        <ele>698</ele>
        <time>2017-10-21T10:35:48.000+02:00</time>
      </trkpt>
      <trkpt lat="48.08615" lon="7.20833">
        <ele>702.8</ele>
        <time>2017-10-21T10:35:58.000+02:00</time>
      </trkpt>
      <trkpt lat="48.08636" lon="7.20819">
        <ele>704.1</ele>
        <time>2017-10-21T10:36:09.000+02:00</time>
      </trkpt>
      <trkpt lat="48.08649" lon="7.20806">
        <ele>703.8</ele>
        <time>2017-10-21T10:36:16.000+02:00</time>
      </trkpt>
      <trkpt lat="48.08676" lon="7.20788">
        <ele>704.5</ele>
        <time>2017-10-21T10:36:49.000+02:00</time>
      </trkpt>
      <trkpt lat="48.08742" lon="7.20773">
        <ele>710.2</ele>
        <time>2017-10-21T10:37:16.000+02:00</time>
      </trkpt>
      <trkpt lat="48.08795" lon="7.20762">
        <ele>722.3</ele>
        <time>2017-10-21T10:38:23.000+02:00</time>
      </trkpt>
      <trkpt lat="48.08811" lon="7.20757">
        <ele>726.5</ele>
        <time>2017-10-21T10:38:35.000+02:00</time>
      </trkpt>
      <trkpt lat="48.0882" lon="7.20749">
        <ele>728.4</ele>
        <time>2017-10-21T10:38:45.000+02:00</time>
      </trkpt>
      <trkpt lat="48.08828" lon="7.20736">
        <ele>729.6</ele>
        <time>2017-10-21T10:38:50.000+02:00</time>
      </trkpt>
      <trkpt lat="48.08834" lon="7.20717">
        <ele>729.7</ele>
        <time>2017-10-21T10:39:24.000+02:00</time>
      </trkpt>
      <trkpt lat="48.08847" lon="7.20655">
        <ele>728.1</ele>
        <time>2017-10-21T10:39:44.000+02:00</time>
      </trkpt>
      <trkpt lat="48.08855" lon="7.20629">
        <ele>728.2</ele>
        <time>2017-10-21T10:39:55.000+02:00</time>
      </trkpt>
      <trkpt lat="48.08867" lon="7.20608">
        <ele>730.1</ele>
        <time>2017-10-21T10:40:02.000+02:00</time>
      </trkpt>
      <trkpt lat="48.08893" lon="7.20578">
        <ele>735.5</ele>
        <time>2017-10-21T10:40:14.000+02:00</time>
      </trkpt>
      <trkpt lat="48.08894" lon="7.20578">
        <ele>735.9</ele>
        <time>2017-10-21T10:40:14.000+02:00</time>
      </trkpt>
      <trkpt lat="48.089" lon="7.20572">
        <ele>737</ele>
        <time>2017-10-21T10:40:23.000+02:00</time>
      </trkpt>
      <trkpt lat="48.08929" lon="7.20549">
        <ele>740.5</ele>
        <time>2017-10-21T10:41:00.000+02:00</time>
      </trkpt>
      <trkpt lat="48.08935" lon="7.20548">
        <ele>741.2</ele>
        <time>2017-10-21T10:41:02.000+02:00</time>
      </trkpt>
      <trkpt lat="48.08959" lon="7.20571">
        <ele>748.8</ele>
        <time>2017-10-21T10:41:20.000+02:00</time>
      </trkpt>
      <trkpt lat="48.08981" lon="7.20589">
        <ele>754.9</ele>
        <time>2017-10-21T10:42:03.000+02:00</time>
      </trkpt>
      <trkpt lat="48.08989" lon="7.20593">
        <ele>756.4</ele>
        <time>2017-10-21T10:42:07.000+02:00</time>
      </trkpt>
      <trkpt lat="48.09003" lon="7.20596">
        <ele>758.7</ele>
        <time>2017-10-21T10:42:28.000+02:00</time>
      </trkpt>
      <trkpt lat="48.09015" lon="7.20596">
        <ele>760.5</ele>
        <time>2017-10-21T10:42:34.000+02:00</time>
      </trkpt>
      <trkpt lat="48.09026" lon="7.20592">
        <ele>761.9</ele>
        <time>2017-10-21T10:42:40.000+02:00</time>
      </trkpt>
      <trkpt lat="48.09035" lon="7.20585">
        <ele>763</ele>
        <time>2017-10-21T10:42:46.000+02:00</time>
      </trkpt>
      <trkpt lat="48.09056" lon="7.20558">
        <ele>762.6</ele>
        <time>2017-10-21T10:42:57.000+02:00</time>
      </trkpt>
      <trkpt lat="48.09062" lon="7.20554">
        <ele>763.1</ele>
        <time>2017-10-21T10:42:59.000+02:00</time>
      </trkpt>
      <trkpt lat="48.09082" lon="7.20558">
        <ele>767.4</ele>
        <time>2017-10-21T10:43:13.000+02:00</time>
      </trkpt>
      <trkpt lat="48.09091" lon="7.2056">
        <ele>769</ele>
        <time>2017-10-21T10:43:34.000+02:00</time>
      </trkpt>
      <trkpt lat="48.09102" lon="7.20569">
        <ele>771.5</ele>
        <time>2017-10-21T10:43:40.000+02:00</time>
      </trkpt>
      <trkpt lat="48.09107" lon="7.20577">
        <ele>773</ele>
        <time>2017-10-21T10:43:43.000+02:00</time>
      </trkpt>
      <trkpt lat="48.09119" lon="7.20586">
        <ele>774.8</ele>
        <time>2017-10-21T10:43:52.000+02:00</time>
      </trkpt>
      <trkpt lat="48.09128" lon="7.20596">
        <ele>775.3</ele>
        <time>2017-10-21T10:43:58.000+02:00</time>
      </trkpt>
      <trkpt lat="48.09137" lon="7.20602">
        <ele>776</ele>
        <time>2017-10-21T10:44:02.000+02:00</time>
      </trkpt>
      <trkpt lat="48.09141" lon="7.20597">
        <ele>776.6</ele>
        <time>2017-10-21T10:44:06.000+02:00</time>
      </trkpt>
      <trkpt lat="48.09137" lon="7.20579">
        <ele>776.6</ele>
        <time>2017-10-21T10:44:10.000+02:00</time>
      </trkpt>
      <trkpt lat="48.09136" lon="7.20557">
        <ele>775.4</ele>
        <time>2017-10-21T10:44:15.000+02:00</time>
      </trkpt>
      <trkpt lat="48.09136" lon="7.20558">
        <ele>775.5</ele>
        <time>2017-10-21T10:44:15.000+02:00</time>
      </trkpt>
      <trkpt lat="48.09153" lon="7.2047">
        <ele>773.8</ele>
        <time>2017-10-21T10:44:36.000+02:00</time>
      </trkpt>
      <trkpt lat="48.09165" lon="7.20436">
        <ele>774.1</ele>
        <time>2017-10-21T10:44:47.000+02:00</time>
      </trkpt>
      <trkpt lat="48.09174" lon="7.20419">
        <ele>773.9</ele>
        <time>2017-10-21T10:45:12.000+02:00</time>
      </trkpt>
      <trkpt lat="48.09185" lon="7.20404">
        <ele>774.7</ele>
        <time>2017-10-21T10:45:20.000+02:00</time>
      </trkpt>
      <trkpt lat="48.09192" lon="7.20384">
        <ele>775.4</ele>
        <time>2017-10-21T10:45:26.000+02:00</time>
      </trkpt>
      <trkpt lat="48.09198" lon="7.2037">
        <ele>776.1</ele>
        <time>2017-10-21T10:45:31.000+02:00</time>
      </trkpt>
      <trkpt lat="48.09198" lon="7.20366">
        <ele>776.1</ele>
        <time>2017-10-21T10:45:32.000+02:00</time>
      </trkpt>
      <trkpt lat="48.09185" lon="7.20337">
        <ele>774.4</ele>
        <time>2017-10-21T10:45:41.000+02:00</time>
      </trkpt>
      <trkpt lat="48.09121" lon="7.20245">
        <ele>763.7</ele>
        <time>2017-10-21T10:46:11.000+02:00</time>
      </trkpt>
      <trkpt lat="48.09096" lon="7.20177">
        <ele>764.4</ele>
        <time>2017-10-21T10:46:31.000+02:00</time>
      </trkpt>
      <trkpt lat="48.09087" lon="7.20146">
        <ele>764.6</ele>
        <time>2017-10-21T10:46:48.000+02:00</time>
      </trkpt>
      <trkpt lat="48.09078" lon="7.20087">
        <ele>765.4</ele>
        <time>2017-10-21T10:47:06.000+02:00</time>
      </trkpt>
      <trkpt lat="48.09074" lon="7.20025">
        <ele>765.5</ele>
        <time>2017-10-21T10:47:20.000+02:00</time>
      </trkpt>
      <trkpt lat="48.09074" lon="7.20024">
        <ele>765.5</ele>
        <time>2017-10-21T10:47:20.000+02:00</time>
      </trkpt>
      <trkpt lat="48.09069" lon="7.19948">
        <ele>767.4</ele>
        <time>2017-10-21T10:47:44.000+02:00</time>
      </trkpt>
      <trkpt lat="48.09054" lon="7.19901">
        <ele>765.8</ele>
        <time>2017-10-21T10:48:04.000+02:00</time>
      </trkpt>
      <trkpt lat="48.09044" lon="7.19891">
        <ele>763.4</ele>
        <time>2017-10-21T10:48:09.000+02:00</time>
      </trkpt>
      <trkpt lat="48.09025" lon="7.19879">
        <ele>758.4</ele>
        <time>2017-10-21T10:48:18.000+02:00</time>
      </trkpt>
      <trkpt lat="48.09018" lon="7.19864">
        <ele>757.6</ele>
        <time>2017-10-21T10:48:23.000+02:00</time>
      </trkpt>
      <trkpt lat="48.09015" lon="7.19854">
        <ele>757.6</ele>
        <time>2017-10-21T10:48:25.000+02:00</time>
      </trkpt>
      <trkpt lat="48.09" lon="7.19752">
        <ele>759.9</ele>
        <time>2017-10-21T10:48:54.000+02:00</time>
      </trkpt>
      <trkpt lat="48.08979" lon="7.19652">
        <ele>776.2</ele>
        <time>2017-10-21T10:50:02.000+02:00</time>
      </trkpt>
      <trkpt lat="48.08967" lon="7.19618">
        <ele>780</ele>
        <time>2017-10-21T10:50:15.000+02:00</time>
      </trkpt>
      <trkpt lat="48.08961" lon="7.19608">
        <ele>780.7</ele>
        <time>2017-10-21T10:50:18.000+02:00</time>
      </trkpt>
      <trkpt lat="48.08952" lon="7.19599">
        <ele>780.7</ele>
        <time>2017-10-21T10:50:23.000+02:00</time>
      </trkpt>
      <trkpt lat="48.08945" lon="7.19601">
        <ele>779.3</ele>
        <time>2017-10-21T10:50:25.000+02:00</time>
      </trkpt>
      <trkpt lat="48.08935" lon="7.19613">
        <ele>776.1</ele>
        <time>2017-10-21T10:50:30.000+02:00</time>
      </trkpt>
      <trkpt lat="48.08927" lon="7.19627">
        <ele>773.2</ele>
        <time>2017-10-21T10:50:34.000+02:00</time>
      </trkpt>
      <trkpt lat="48.08917" lon="7.19673">
        <ele>766.1</ele>
        <time>2017-10-21T10:50:57.000+02:00</time>
      </trkpt>
      <trkpt lat="48.08917" lon="7.19674">
        <ele>766</ele>
        <time>2017-10-21T10:50:58.000+02:00</time>
      </trkpt>
      <trkpt lat="48.08904" lon="7.1974">
        <ele>759.8</ele>
        <time>2017-10-21T10:51:13.000+02:00</time>
      </trkpt>
      <trkpt lat="48.08892" lon="7.19763">
        <ele>758.5</ele>
        <time>2017-10-21T10:51:27.000+02:00</time>
      </trkpt>
      <trkpt lat="48.0885" lon="7.19812">
        <ele>756.8</ele>
        <time>2017-10-21T10:51:47.000+02:00</time>
      </trkpt>
      <trkpt lat="48.08823" lon="7.19855">
        <ele>751.4</ele>
        <time>2017-10-21T10:52:01.000+02:00</time>
      </trkpt>
      <trkpt lat="48.08815" lon="7.1987">
        <ele>749.2</ele>
        <time>2017-10-21T10:52:06.000+02:00</time>
      </trkpt>
      <trkpt lat="48.08791" lon="7.19902">
        <ele>745.5</ele>
        <time>2017-10-21T10:52:17.000+02:00</time>
      </trkpt>
      <trkpt lat="48.08775" lon="7.19918">
        <ele>744.6</ele>
        <time>2017-10-21T10:52:36.000+02:00</time>
      </trkpt>
      <trkpt lat="48.0877" lon="7.19921">
        <ele>745</ele>
        <time>2017-10-21T10:52:41.000+02:00</time>
      </trkpt>
      <trkpt lat="48.08765" lon="7.1992">
        <ele>745.9</ele>
        <time>2017-10-21T10:52:45.000+02:00</time>
      </trkpt>
      <trkpt lat="48.08742" lon="7.19876">
        <ele>758</ele>
        <time>2017-10-21T10:53:44.000+02:00</time>
      </trkpt>
      <trkpt lat="48.08725" lon="7.19851">
        <ele>763.6</ele>
        <time>2017-10-21T10:54:02.000+02:00</time>
      </trkpt>
      <trkpt lat="48.08724" lon="7.19851">
        <ele>763.6</ele>
        <time>2017-10-21T10:54:02.000+02:00</time>
      </trkpt>
      <trkpt lat="48.08717" lon="7.19841">
        <ele>766</ele>
        <time>2017-10-21T10:54:06.000+02:00</time>
      </trkpt>
      <trkpt lat="48.08702" lon="7.19831">
        <ele>768.7</ele>
        <time>2017-10-21T10:54:45.000+02:00</time>
      </trkpt>
      <trkpt lat="48.08681" lon="7.19821">
        <ele>772.1</ele>
        <time>2017-10-21T10:54:52.000+02:00</time>
      </trkpt>
      <trkpt lat="48.08663" lon="7.19816">
        <ele>774.5</ele>
        <time>2017-10-21T10:55:09.000+02:00</time>
      </trkpt>
      <trkpt lat="48.0864" lon="7.19813">
        <ele>778.7</ele>
        <time>2017-10-21T10:55:26.000+02:00</time>
      </trkpt>
      <trkpt lat="48.08556" lon="7.19829">
        <ele>780.8</ele>
        <time>2017-10-21T10:56:07.000+02:00</time>
      </trkpt>
      <trkpt lat="48.08539" lon="7.19829">
        <ele>781.4</ele>
        <time>2017-10-21T10:56:17.000+02:00</time>
      </trkpt>
      <trkpt lat="48.08505" lon="7.1982">
        <ele>786.4</ele>
        <time>2017-10-21T10:56:29.000+02:00</time>
      </trkpt>
      <trkpt lat="48.08478" lon="7.19804">
        <ele>793.7</ele>
        <time>2017-10-21T10:57:02.000+02:00</time>
      </trkpt>
      <trkpt lat="48.08453" lon="7.19797">
        <ele>797.2</ele>
        <time>2017-10-21T10:57:15.000+02:00</time>
      </trkpt>
      <trkpt lat="48.08439" lon="7.19799">
        <ele>796.6</ele>
        <time>2017-10-21T10:57:20.000+02:00</time>
      </trkpt>
      <trkpt lat="48.08426" lon="7.19802">
        <ele>795.5</ele>
        <time>2017-10-21T10:57:26.000+02:00</time>
      </trkpt>
      <trkpt lat="48.08416" lon="7.19802">
        <ele>795.8</ele>
        <time>2017-10-21T10:57:46.000+02:00</time>
      </trkpt>
      <trkpt lat="48.08397" lon="7.19798">
        <ele>800.8</ele>
        <time>2017-10-21T10:57:59.000+02:00</time>
      </trkpt>
      <trkpt lat="48.08379" lon="7.19799">
        <ele>803.4</ele>
        <time>2017-10-21T10:58:07.000+02:00</time>
      </trkpt>
      <trkpt lat="48.08363" lon="7.19803">
        <ele>804.6</ele>
        <time>2017-10-21T10:58:15.000+02:00</time>
      </trkpt>
      <trkpt lat="48.08321" lon="7.19848">
        <ele>794.5</ele>
        <time>2017-10-21T10:58:49.000+02:00</time>
      </trkpt>
      <trkpt lat="48.08311" lon="7.19852">
        <ele>792.2</ele>
        <time>2017-10-21T10:58:54.000+02:00</time>
      </trkpt>
      <trkpt lat="48.08305" lon="7.19851">
        <ele>791.7</ele>
        <time>2017-10-21T10:58:57.000+02:00</time>
      </trkpt>
      <trkpt lat="48.08289" lon="7.19843">
        <ele>791.7</ele>
        <time>2017-10-21T10:59:02.000+02:00</time>
      </trkpt>
      <trkpt lat="48.08262" lon="7.19818">
        <ele>794.9</ele>
        <time>2017-10-21T10:59:54.000+02:00</time>
      </trkpt>
      <trkpt lat="48.08253" lon="7.19805">
        <ele>797.3</ele>
        <time>2017-10-21T11:00:02.000+02:00</time>
      </trkpt>
      <trkpt lat="48.0825" lon="7.19786">
        <ele>802.1</ele>
        <time>2017-10-21T11:00:24.000+02:00</time>
      </trkpt>
      <trkpt lat="48.08251" lon="7.19746">
        <ele>813.1</ele>
        <time>2017-10-21T11:01:03.000+02:00</time>
      </trkpt>
      <trkpt lat="48.08247" lon="7.19726">
        <ele>816.9</ele>
        <time>2017-10-21T11:01:10.000+02:00</time>
      </trkpt>
      <trkpt lat="48.08239" lon="7.197">
        <ele>821.1</ele>
        <time>2017-10-21T11:01:27.000+02:00</time>
      </trkpt>
      <trkpt lat="48.08231" lon="7.19674">
        <ele>825.6</ele>
        <time>2017-10-21T11:01:43.000+02:00</time>
      </trkpt>
      <trkpt lat="48.08207" lon="7.19616">
        <ele>828.1</ele>
        <time>2017-10-21T11:02:17.000+02:00</time>
      </trkpt>
      <trkpt lat="48.08202" lon="7.19598">
        <ele>829.1</ele>
        <time>2017-10-21T11:02:23.000+02:00</time>
      </trkpt>
      <trkpt lat="48.08198" lon="7.19572">
        <ele>829.5</ele>
        <time>2017-10-21T11:02:33.000+02:00</time>
      </trkpt>
      <trkpt lat="48.08198" lon="7.19558">
        <ele>829</ele>
        <time>2017-10-21T11:02:37.000+02:00</time>
      </trkpt>
      <trkpt lat="48.08202" lon="7.19529">
        <ele>829.5</ele>
        <time>2017-10-21T11:02:46.000+02:00</time>
      </trkpt>
      <trkpt lat="48.08211" lon="7.19485">
        <ele>832.9</ele>
        <time>2017-10-21T11:03:00.000+02:00</time>
      </trkpt>
      <trkpt lat="48.08212" lon="7.19482">
        <ele>833.4</ele>
        <time>2017-10-21T11:03:01.000+02:00</time>
      </trkpt>
      <trkpt lat="48.08212" lon="7.19471">
        <ele>833.6</ele>
        <time>2017-10-21T11:03:04.000+02:00</time>
      </trkpt>
      <trkpt lat="48.08216" lon="7.19432">
        <ele>836.3</ele>
        <time>2017-10-21T11:03:17.000+02:00</time>
      </trkpt>
      <trkpt lat="48.08219" lon="7.19408">
        <ele>838.7</ele>
        <time>2017-10-21T11:03:30.000+02:00</time>
      </trkpt>
      <trkpt lat="48.08218" lon="7.19392">
        <ele>839</ele>
        <time>2017-10-21T11:03:33.000+02:00</time>
      </trkpt>
      <trkpt lat="48.08195" lon="7.19298">
        <ele>834.3</ele>
        <time>2017-10-21T11:04:01.000+02:00</time>
      </trkpt>
      <trkpt lat="48.08195" lon="7.19299">
        <ele>834.2</ele>
        <time>2017-10-21T11:04:01.000+02:00</time>
      </trkpt>
      <trkpt lat="48.08184" lon="7.19253">
        <ele>835.1</ele>
        <time>2017-10-21T11:04:13.000+02:00</time>
      </trkpt>
      <trkpt lat="48.08181" lon="7.19204">
        <ele>836.6</ele>
        <time>2017-10-21T11:04:46.000+02:00</time>
      </trkpt>
      <trkpt lat="48.08183" lon="7.19132">
        <ele>836.9</ele>
        <time>2017-10-21T11:05:04.000+02:00</time>
      </trkpt>
      <trkpt lat="48.08187" lon="7.19118">
        <ele>837.4</ele>
        <time>2017-10-21T11:05:08.000+02:00</time>
      </trkpt>
      <trkpt lat="48.08199" lon="7.19092">
        <ele>840.4</ele>
        <time>2017-10-21T11:05:17.000+02:00</time>
      </trkpt>
      <trkpt lat="48.08198" lon="7.19093">
        <ele>840.1</ele>
        <time>2017-10-21T11:05:19.000+02:00</time>
      </trkpt>
      <trkpt lat="48.08236" lon="7.19028">
        <ele>843.2</ele>
        <time>2017-10-21T11:05:39.000+02:00</time>
      </trkpt>
      <trkpt lat="48.08245" lon="7.19015">
        <ele>844.1</ele>
        <time>2017-10-21T11:05:45.000+02:00</time>
      </trkpt>
      <trkpt lat="48.08266" lon="7.18993">
        <ele>846.8</ele>
        <time>2017-10-21T11:06:06.000+02:00</time>
      </trkpt>
      <trkpt lat="48.08272" lon="7.1899">
        <ele>848.1</ele>
        <time>2017-10-21T11:06:10.000+02:00</time>
      </trkpt>
      <trkpt lat="48.08276" lon="7.18992">
        <ele>850</ele>
        <time>2017-10-21T11:06:15.000+02:00</time>
      </trkpt>
      <trkpt lat="48.08283" lon="7.18987">
        <ele>851.2</ele>
        <time>2017-10-21T11:06:19.000+02:00</time>
      </trkpt>
      <trkpt lat="48.08296" lon="7.18975">
        <ele>852.7</ele>
        <time>2017-10-21T11:06:29.000+02:00</time>
      </trkpt>
      <trkpt lat="48.08336" lon="7.18945">
        <ele>859.7</ele>
        <time>2017-10-21T11:07:46.000+02:00</time>
      </trkpt>
      <trkpt lat="48.0837" lon="7.18926">
        <ele>867.6</ele>
        <time>2017-10-21T11:08:07.000+02:00</time>
      </trkpt>
      <trkpt lat="48.08385" lon="7.18913">
        <ele>870.9</ele>
        <time>2017-10-21T11:08:16.000+02:00</time>
      </trkpt>
      <trkpt lat="48.08389" lon="7.18898">
        <ele>871.2</ele>
        <time>2017-10-21T11:08:21.000+02:00</time>
      </trkpt>
      <trkpt lat="48.08397" lon="7.1877">
        <ele>866.1</ele>
        <time>2017-10-21T11:08:50.000+02:00</time>
      </trkpt>
      <trkpt lat="48.08402" lon="7.18755">
        <ele>867.6</ele>
        <time>2017-10-21T11:09:02.000+02:00</time>
      </trkpt>
      <trkpt lat="48.08432" lon="7.1871">
        <ele>880.7</ele>
        <time>2017-10-21T11:10:26.000+02:00</time>
      </trkpt>
      <trkpt lat="48.08443" lon="7.18687">
        <ele>884.7</ele>
        <time>2017-10-21T11:10:35.000+02:00</time>
      </trkpt>
      <trkpt lat="48.08466" lon="7.18617">
        <ele>893.2</ele>
        <time>2017-10-21T11:11:03.000+02:00</time>
      </trkpt>
      <trkpt lat="48.08474" lon="7.18603">
        <ele>895</ele>
        <time>2017-10-21T11:11:09.000+02:00</time>
      </trkpt>
      <trkpt lat="48.08482" lon="7.18581">
        <ele>896.4</ele>
        <time>2017-10-21T11:11:21.000+02:00</time>
      </trkpt>
      <trkpt lat="48.08473" lon="7.18538">
        <ele>895.2</ele>
        <time>2017-10-21T11:11:32.000+02:00</time>
      </trkpt>
      <trkpt lat="48.08456" lon="7.18496">
        <ele>895.1</ele>
        <time>2017-10-21T11:11:46.000+02:00</time>
      </trkpt>
      <trkpt lat="48.08439" lon="7.1847">
        <ele>896.8</ele>
        <time>2017-10-21T11:11:56.000+02:00</time>
      </trkpt>
      <trkpt lat="48.08429" lon="7.18441">
        <ele>899.9</ele>
        <time>2017-10-21T11:12:10.000+02:00</time>
      </trkpt>
      <trkpt lat="48.08417" lon="7.18394">
        <ele>904.5</ele>
        <time>2017-10-21T11:12:24.000+02:00</time>
      </trkpt>
      <trkpt lat="48.08417" lon="7.18393">
        <ele>904.5</ele>
        <time>2017-10-21T11:12:25.000+02:00</time>
      </trkpt>
      <trkpt lat="48.084" lon="7.18323">
        <ele>903.8</ele>
        <time>2017-10-21T11:12:50.000+02:00</time>
      </trkpt>
      <trkpt lat="48.08393" lon="7.18305">
        <ele>903.1</ele>
        <time>2017-10-21T11:12:54.000+02:00</time>
      </trkpt>
      <trkpt lat="48.08377" lon="7.18278">
        <ele>903.3</ele>
        <time>2017-10-21T11:13:04.000+02:00</time>
      </trkpt>
      <trkpt lat="48.08351" lon="7.18245">
        <ele>907</ele>
        <time>2017-10-21T11:13:24.000+02:00</time>
      </trkpt>
      <trkpt lat="48.08346" lon="7.18228">
        <ele>909.3</ele>
        <time>2017-10-21T11:13:30.000+02:00</time>
      </trkpt>
      <trkpt lat="48.08343" lon="7.18209">
        <ele>911.8</ele>
        <time>2017-10-21T11:13:37.000+02:00</time>
      </trkpt>
      <trkpt lat="48.08349" lon="7.18134">
        <ele>916.8</ele>
        <time>2017-10-21T11:14:02.000+02:00</time>
      </trkpt>
      <trkpt lat="48.08369" lon="7.18045">
        <ele>913.2</ele>
        <time>2017-10-21T11:14:26.000+02:00</time>
      </trkpt>
      <trkpt lat="48.08368" lon="7.17956">
        <ele>910.8</ele>
        <time>2017-10-21T11:14:46.000+02:00</time>
      </trkpt>
      <trkpt lat="48.08363" lon="7.17927">
        <ele>910.9</ele>
        <time>2017-10-21T11:14:57.000+02:00</time>
      </trkpt>
      <trkpt lat="48.08357" lon="7.17912">
        <ele>912.2</ele>
        <time>2017-10-21T11:15:07.000+02:00</time>
      </trkpt>
      <trkpt lat="48.08323" lon="7.1785">
        <ele>914.9</ele>
        <time>2017-10-21T11:15:58.000+02:00</time>
      </trkpt>
      <trkpt lat="48.08303" lon="7.17826">
        <ele>915.9</ele>
        <time>2017-10-21T11:16:12.000+02:00</time>
      </trkpt>
      <trkpt lat="48.08263" lon="7.17784">
        <ele>920.2</ele>
        <time>2017-10-21T11:16:35.000+02:00</time>
      </trkpt>
      <trkpt lat="48.08228" lon="7.17743">
        <ele>923.8</ele>
        <time>2017-10-21T11:17:05.000+02:00</time>
      </trkpt>
      <trkpt lat="48.08221" lon="7.1773">
        <ele>923.9</ele>
        <time>2017-10-21T11:17:11.000+02:00</time>
      </trkpt>
      <trkpt lat="48.0821" lon="7.17696">
        <ele>922.7</ele>
        <time>2017-10-21T11:17:21.000+02:00</time>
      </trkpt>
      <trkpt lat="48.08177" lon="7.17613">
        <ele>928.4</ele>
        <time>2017-10-21T11:17:45.000+02:00</time>
      </trkpt>
      <trkpt lat="48.0817" lon="7.17589">
        <ele>930.6</ele>
        <time>2017-10-21T11:18:10.000+02:00</time>
      </trkpt>
      <trkpt lat="48.08154" lon="7.17483">
        <ele>929.8</ele>
        <time>2017-10-21T11:18:41.000+02:00</time>
      </trkpt>
      <trkpt lat="48.08144" lon="7.17432">
        <ele>927.9</ele>
        <time>2017-10-21T11:18:54.000+02:00</time>
      </trkpt>
      <trkpt lat="48.08124" lon="7.17361">
        <ele>927.5</ele>
        <time>2017-10-21T11:19:14.000+02:00</time>
      </trkpt>
      <trkpt lat="48.08116" lon="7.17339">
        <ele>927.8</ele>
        <time>2017-10-21T11:19:21.000+02:00</time>
      </trkpt>
      <trkpt lat="48.08089" lon="7.17289">
        <ele>931.1</ele>
        <time>2017-10-21T11:19:38.000+02:00</time>
      </trkpt>
      <trkpt lat="48.08089" lon="7.17288">
        <ele>931.1</ele>
        <time>2017-10-21T11:19:38.000+02:00</time>
      </trkpt>
      <trkpt lat="48.08045" lon="7.17215">
        <ele>930.1</ele>
        <time>2017-10-21T11:20:06.000+02:00</time>
      </trkpt>
      <trkpt lat="48.08014" lon="7.17146">
        <ele>931.3</ele>
        <time>2017-10-21T11:20:28.000+02:00</time>
      </trkpt>
      <trkpt lat="48.07983" lon="7.17078">
        <ele>932.5</ele>
        <time>2017-10-21T11:20:52.000+02:00</time>
      </trkpt>
      <trkpt lat="48.07975" lon="7.17033">
        <ele>932.9</ele>
        <time>2017-10-21T11:21:05.000+02:00</time>
      </trkpt>
      <trkpt lat="48.07972" lon="7.16991">
        <ele>933.5</ele>
        <time>2017-10-21T11:21:18.000+02:00</time>
      </trkpt>
      <trkpt lat="48.07972" lon="7.16949">
        <ele>934.1</ele>
        <time>2017-10-21T11:21:30.000+02:00</time>
      </trkpt>
      <trkpt lat="48.07961" lon="7.16925">
        <ele>934</ele>
        <time>2017-10-21T11:21:37.000+02:00</time>
      </trkpt>
      <trkpt lat="48.07949" lon="7.16906">
        <ele>933.7</ele>
        <time>2017-10-21T11:21:44.000+02:00</time>
      </trkpt>
      <trkpt lat="48.07918" lon="7.16841">
        <ele>934.7</ele>
        <time>2017-10-21T11:22:07.000+02:00</time>
      </trkpt>
      <trkpt lat="48.07908" lon="7.16807">
        <ele>934.6</ele>
        <time>2017-10-21T11:22:17.000+02:00</time>
      </trkpt>
      <trkpt lat="48.07916" lon="7.16677">
        <ele>939.8</ele>
        <time>2017-10-21T11:22:59.000+02:00</time>
      </trkpt>
      <trkpt lat="48.07924" lon="7.16547">
        <ele>947.5</ele>
        <time>2017-10-21T11:23:50.000+02:00</time>
      </trkpt>
      <trkpt lat="48.07924" lon="7.16527">
        <ele>948.9</ele>
        <time>2017-10-21T11:23:56.000+02:00</time>
      </trkpt>
      <trkpt lat="48.07927" lon="7.16507">
        <ele>950.4</ele>
        <time>2017-10-21T11:24:05.000+02:00</time>
      </trkpt>
      <trkpt lat="48.07931" lon="7.16494">
        <ele>951.3</ele>
        <time>2017-10-21T11:24:14.000+02:00</time>
      </trkpt>
      <trkpt lat="48.0795" lon="7.16453">
        <ele>954.2</ele>
        <time>2017-10-21T11:24:29.000+02:00</time>
      </trkpt>
      <trkpt lat="48.07965" lon="7.16399">
        <ele>958.5</ele>
        <time>2017-10-21T11:24:53.000+02:00</time>
      </trkpt>
      <trkpt lat="48.07984" lon="7.16347">
        <ele>963.7</ele>
        <time>2017-10-21T11:25:15.000+02:00</time>
      </trkpt>
      <trkpt lat="48.07995" lon="7.16322">
        <ele>966.1</ele>
        <time>2017-10-21T11:25:26.000+02:00</time>
      </trkpt>
      <trkpt lat="48.07999" lon="7.16289">
        <ele>967.5</ele>
        <time>2017-10-21T11:25:35.000+02:00</time>
      </trkpt>
      <trkpt lat="48.07998" lon="7.1624">
        <ele>969.2</ele>
        <time>2017-10-21T11:25:51.000+02:00</time>
      </trkpt>
      <trkpt lat="48.08002" lon="7.16136">
        <ele>974.2</ele>
        <time>2017-10-21T11:26:26.000+02:00</time>
      </trkpt>
      <trkpt lat="48.08032" lon="7.16056">
        <ele>975.8</ele>
        <time>2017-10-21T11:26:52.000+02:00</time>
      </trkpt>
      <trkpt lat="48.08038" lon="7.16036">
        <ele>975.2</ele>
        <time>2017-10-21T11:26:58.000+02:00</time>
      </trkpt>
      <trkpt lat="48.08043" lon="7.16016">
        <ele>974.6</ele>
        <time>2017-10-21T11:27:04.000+02:00</time>
      </trkpt>
      <trkpt lat="48.08047" lon="7.15985">
        <ele>973.4</ele>
        <time>2017-10-21T11:27:11.000+02:00</time>
      </trkpt>
      <trkpt lat="48.08042" lon="7.15894">
        <ele>969.5</ele>
        <time>2017-10-21T11:27:32.000+02:00</time>
      </trkpt>
      <trkpt lat="48.08042" lon="7.15893">
        <ele>969.4</ele>
        <time>2017-10-21T11:27:32.000+02:00</time>
      </trkpt>
      <trkpt lat="48.08038" lon="7.15871">
        <ele>968.6</ele>
        <time>2017-10-21T11:27:37.000+02:00</time>
      </trkpt>
      <trkpt lat="48.08012" lon="7.15772">
        <ele>966.4</ele>
        <time>2017-10-21T11:28:01.000+02:00</time>
      </trkpt>
      <trkpt lat="48.07986" lon="7.15673">
        <ele>962.5</ele>
        <time>2017-10-21T11:28:28.000+02:00</time>
      </trkpt>
      <trkpt lat="48.07943" lon="7.15555">
        <ele>966.9</ele>
        <time>2017-10-21T11:29:08.000+02:00</time>
      </trkpt>
      <trkpt lat="48.07933" lon="7.15518">
        <ele>969.3</ele>
        <time>2017-10-21T11:29:21.000+02:00</time>
      </trkpt>
      <trkpt lat="48.07933" lon="7.15497">
        <ele>970.5</ele>
        <time>2017-10-21T11:29:34.000+02:00</time>
      </trkpt>
      <trkpt lat="48.07936" lon="7.15476">
        <ele>971.6</ele>
        <time>2017-10-21T11:29:40.000+02:00</time>
      </trkpt>
      <trkpt lat="48.07948" lon="7.15438">
        <ele>974.1</ele>
        <time>2017-10-21T11:29:53.000+02:00</time>
      </trkpt>
      <trkpt lat="48.07977" lon="7.15382">
        <ele>980.1</ele>
        <time>2017-10-21T11:30:22.000+02:00</time>
      </trkpt>
      <trkpt lat="48.07983" lon="7.1536">
        <ele>982.1</ele>
        <time>2017-10-21T11:30:30.000+02:00</time>
      </trkpt>
      <trkpt lat="48.07984" lon="7.15331">
        <ele>984.3</ele>
        <time>2017-10-21T11:30:46.000+02:00</time>
      </trkpt>
      <trkpt lat="48.07984" lon="7.1533">
        <ele>984.4</ele>
        <time>2017-10-21T11:30:47.000+02:00</time>
      </trkpt>
      <trkpt lat="48.07983" lon="7.15314">
        <ele>985</ele>
        <time>2017-10-21T11:30:51.000+02:00</time>
      </trkpt>
      <trkpt lat="48.0797" lon="7.15249">
        <ele>987.3</ele>
        <time>2017-10-21T11:31:11.000+02:00</time>
      </trkpt>
      <trkpt lat="48.07957" lon="7.15184">
        <ele>986.6</ele>
        <time>2017-10-21T11:31:29.000+02:00</time>
      </trkpt>
      <trkpt lat="48.07931" lon="7.15089">
        <ele>984.6</ele>
        <time>2017-10-21T11:31:54.000+02:00</time>
      </trkpt>
      <trkpt lat="48.07931" lon="7.15088">
        <ele>984.6</ele>
        <time>2017-10-21T11:31:55.000+02:00</time>
      </trkpt>
      <trkpt lat="48.07927" lon="7.1506">
        <ele>986</ele>
        <time>2017-10-21T11:32:05.000+02:00</time>
      </trkpt>
      <trkpt lat="48.07927" lon="7.15029">
        <ele>988.1</ele>
        <time>2017-10-21T11:32:14.000+02:00</time>
      </trkpt>
      <trkpt lat="48.07929" lon="7.15019">
        <ele>988.8</ele>
        <time>2017-10-21T11:32:19.000+02:00</time>
      </trkpt>
      <trkpt lat="48.07932" lon="7.15035">
        <ele>987.8</ele>
        <time>2017-10-21T11:32:23.000+02:00</time>
      </trkpt>
      <trkpt lat="48.0794" lon="7.15049">
        <ele>987.1</ele>
        <time>2017-10-21T11:32:27.000+02:00</time>
      </trkpt>
      <trkpt lat="48.07953" lon="7.15051">
        <ele>987.3</ele>
        <time>2017-10-21T11:32:33.000+02:00</time>
      </trkpt>
      <trkpt lat="48.07971" lon="7.15041">
        <ele>988.3</ele>
        <time>2017-10-21T11:32:41.000+02:00</time>
      </trkpt>
      <trkpt lat="48.08" lon="7.15028">
        <ele>989.7</ele>
        <time>2017-10-21T11:32:54.000+02:00</time>
      </trkpt>
      <trkpt lat="48.08015" lon="7.15032">
        <ele>988.9</ele>
        <time>2017-10-21T11:32:59.000+02:00</time>
      </trkpt>
      <trkpt lat="48.0804" lon="7.15045">
        <ele>987.1</ele>
        <time>2017-10-21T11:33:09.000+02:00</time>
      </trkpt>
      <trkpt lat="48.08094" lon="7.15047">
        <ele>984.4</ele>
        <time>2017-10-21T11:33:27.000+02:00</time>
      </trkpt>
      <trkpt lat="48.08138" lon="7.15052">
        <ele>981.2</ele>
        <time>2017-10-21T11:33:44.000+02:00</time>
      </trkpt>
      <trkpt lat="48.08172" lon="7.15079">
        <ele>976.2</ele>
        <time>2017-10-21T11:34:00.000+02:00</time>
      </trkpt>
      <trkpt lat="48.082" lon="7.15082">
        <ele>974.5</ele>
        <time>2017-10-21T11:34:12.000+02:00</time>
      </trkpt>
      <trkpt lat="48.08222" lon="7.15113">
        <ele>972.3</ele>
        <time>2017-10-21T11:34:23.000+02:00</time>
      </trkpt>
      <trkpt lat="48.08233" lon="7.15132">
        <ele>970.8</ele>
        <time>2017-10-21T11:34:29.000+02:00</time>
      </trkpt>
      <trkpt lat="48.08231" lon="7.15139">
        <ele>970.7</ele>
        <time>2017-10-21T11:34:31.000+02:00</time>
      </trkpt>
      <trkpt lat="48.08228" lon="7.15166">
        <ele>969.9</ele>
        <time>2017-10-21T11:34:37.000+02:00</time>
      </trkpt>
      <trkpt lat="48.08236" lon="7.152">
        <ele>968.2</ele>
        <time>2017-10-21T11:34:46.000+02:00</time>
      </trkpt>
      <trkpt lat="48.08264" lon="7.15257">
        <ele>963.1</ele>
        <time>2017-10-21T11:35:06.000+02:00</time>
      </trkpt>
      <trkpt lat="48.08292" lon="7.15315">
        <ele>959.5</ele>
        <time>2017-10-21T11:35:23.000+02:00</time>
      </trkpt>
      <trkpt lat="48.08292" lon="7.15314">
        <ele>959.5</ele>
        <time>2017-10-21T11:35:23.000+02:00</time>
      </trkpt>
      <trkpt lat="48.08295" lon="7.15321">
        <ele>959.1</ele>
        <time>2017-10-21T11:35:25.000+02:00</time>
      </trkpt>
      <trkpt lat="48.08298" lon="7.15344">
        <ele>958.6</ele>
        <time>2017-10-21T11:35:30.000+02:00</time>
      </trkpt>
      <trkpt lat="48.08296" lon="7.15359">
        <ele>958.4</ele>
        <time>2017-10-21T11:35:34.000+02:00</time>
      </trkpt>
      <trkpt lat="48.08288" lon="7.15371">
        <ele>959</ele>
        <time>2017-10-21T11:35:40.000+02:00</time>
      </trkpt>
      <trkpt lat="48.08269" lon="7.15391">
        <ele>960.6</ele>
        <time>2017-10-21T11:35:51.000+02:00</time>
      </trkpt>
      <trkpt lat="48.08263" lon="7.15394">
        <ele>961.1</ele>
        <time>2017-10-21T11:35:53.000+02:00</time>
      </trkpt>
      <trkpt lat="48.08297" lon="7.15388">
        <ele>957.6</ele>
        <time>2017-10-21T11:36:05.000+02:00</time>
      </trkpt>
      <trkpt lat="48.08332" lon="7.15385">
        <ele>953.9</ele>
        <time>2017-10-21T11:36:18.000+02:00</time>
      </trkpt>
      <trkpt lat="48.08369" lon="7.15395">
        <ele>950.6</ele>
        <time>2017-10-21T11:36:35.000+02:00</time>
      </trkpt>
      <trkpt lat="48.08449" lon="7.15452">
        <ele>940.9</ele>
        <time>2017-10-21T11:37:07.000+02:00</time>
      </trkpt>
      <trkpt lat="48.08499" lon="7.1546">
        <ele>937.5</ele>
        <time>2017-10-21T11:37:26.000+02:00</time>
      </trkpt>
      <trkpt lat="48.08498" lon="7.1546">
        <ele>937.5</ele>
        <time>2017-10-21T11:37:26.000+02:00</time>
      </trkpt>
      <trkpt lat="48.08558" lon="7.15472">
        <ele>938.1</ele>
        <time>2017-10-21T11:37:49.000+02:00</time>
      </trkpt>
      <trkpt lat="48.08593" lon="7.15483">
        <ele>937.7</ele>
        <time>2017-10-21T11:38:04.000+02:00</time>
      </trkpt>
      <trkpt lat="48.08631" lon="7.15473">
        <ele>937.3</ele>
        <time>2017-10-21T11:38:19.000+02:00</time>
      </trkpt>
      <trkpt lat="48.0867" lon="7.1545">
        <ele>937.8</ele>
        <time>2017-10-21T11:38:33.000+02:00</time>
      </trkpt>
      <trkpt lat="48.08689" lon="7.15448">
        <ele>936</ele>
        <time>2017-10-21T11:38:40.000+02:00</time>
      </trkpt>
      <trkpt lat="48.08705" lon="7.15444">
        <ele>934.9</ele>
        <time>2017-10-21T11:38:46.000+02:00</time>
      </trkpt>
      <trkpt lat="48.0873" lon="7.15428">
        <ele>935.2</ele>
        <time>2017-10-21T11:38:57.000+02:00</time>
      </trkpt>
      <trkpt lat="48.08763" lon="7.15389">
        <ele>935.8</ele>
        <time>2017-10-21T11:39:15.000+02:00</time>
      </trkpt>
      <trkpt lat="48.08817" lon="7.15355">
        <ele>936.3</ele>
        <time>2017-10-21T11:39:39.000+02:00</time>
      </trkpt>
      <trkpt lat="48.08849" lon="7.15344">
        <ele>936.3</ele>
        <time>2017-10-21T11:39:51.000+02:00</time>
      </trkpt>
      <trkpt lat="48.08882" lon="7.15327">
        <ele>936.5</ele>
        <time>2017-10-21T11:40:13.000+02:00</time>
      </trkpt>
      <trkpt lat="48.08905" lon="7.15309">
        <ele>937.3</ele>
        <time>2017-10-21T11:40:24.000+02:00</time>
      </trkpt>
      <trkpt lat="48.0892" lon="7.15302">
        <ele>937.5</ele>
        <time>2017-10-21T11:40:30.000+02:00</time>
      </trkpt>
      <trkpt lat="48.08938" lon="7.15297">
        <ele>936.3</ele>
        <time>2017-10-21T11:40:37.000+02:00</time>
      </trkpt>
      <trkpt lat="48.08969" lon="7.15275">
        <ele>937.9</ele>
        <time>2017-10-21T11:40:52.000+02:00</time>
      </trkpt>
      <trkpt lat="48.08992" lon="7.15253">
        <ele>941.6</ele>
        <time>2017-10-21T11:41:07.000+02:00</time>
      </trkpt>
      <trkpt lat="48.09022" lon="7.15233">
        <ele>941.2</ele>
        <time>2017-10-21T11:41:22.000+02:00</time>
      </trkpt>
      <trkpt lat="48.09056" lon="7.15214">
        <ele>940.6</ele>
        <time>2017-10-21T11:41:36.000+02:00</time>
      </trkpt>
      <trkpt lat="48.09094" lon="7.152">
        <ele>940.1</ele>
        <time>2017-10-21T11:41:49.000+02:00</time>
      </trkpt>
      <trkpt lat="48.09136" lon="7.15198">
        <ele>937.6</ele>
        <time>2017-10-21T11:42:05.000+02:00</time>
      </trkpt>
      <trkpt lat="48.09163" lon="7.15199">
        <ele>935.5</ele>
        <time>2017-10-21T11:42:16.000+02:00</time>
      </trkpt>
      <trkpt lat="48.09197" lon="7.15194">
        <ele>933.2</ele>
        <time>2017-10-21T11:42:31.000+02:00</time>
      </trkpt>
      <trkpt lat="48.09247" lon="7.15183">
        <ele>931.2</ele>
        <time>2017-10-21T11:42:52.000+02:00</time>
      </trkpt>
      <trkpt lat="48.09274" lon="7.15159">
        <ele>933.6</ele>
        <time>2017-10-21T11:43:09.000+02:00</time>
      </trkpt>
      <trkpt lat="48.09301" lon="7.15143">
        <ele>932.4</ele>
        <time>2017-10-21T11:43:19.000+02:00</time>
      </trkpt>
      <trkpt lat="48.09322" lon="7.15136">
        <ele>931.2</ele>
        <time>2017-10-21T11:43:27.000+02:00</time>
      </trkpt>
      <trkpt lat="48.09339" lon="7.15124">
        <ele>931.5</ele>
        <time>2017-10-21T11:43:36.000+02:00</time>
      </trkpt>
      <trkpt lat="48.09364" lon="7.15115">
        <ele>930</ele>
        <time>2017-10-21T11:43:45.000+02:00</time>
      </trkpt>
      <trkpt lat="48.09439" lon="7.15045">
        <ele>936</ele>
        <time>2017-10-21T11:44:32.000+02:00</time>
      </trkpt>
      <trkpt lat="48.09461" lon="7.15029">
        <ele>937.7</ele>
        <time>2017-10-21T11:44:42.000+02:00</time>
      </trkpt>
      <trkpt lat="48.09486" lon="7.15019">
        <ele>938.4</ele>
        <time>2017-10-21T11:44:54.000+02:00</time>
      </trkpt>
      <trkpt lat="48.09512" lon="7.15016">
        <ele>938.6</ele>
        <time>2017-10-21T11:45:04.000+02:00</time>
      </trkpt>
      <trkpt lat="48.09523" lon="7.15012">
        <ele>939.5</ele>
        <time>2017-10-21T11:45:09.000+02:00</time>
      </trkpt>
      <trkpt lat="48.09553" lon="7.15016">
        <ele>939.6</ele>
        <time>2017-10-21T11:45:21.000+02:00</time>
      </trkpt>
      <trkpt lat="48.0959" lon="7.15024">
        <ele>939.3</ele>
        <time>2017-10-21T11:45:37.000+02:00</time>
      </trkpt>
      <trkpt lat="48.09621" lon="7.15023">
        <ele>939.1</ele>
        <time>2017-10-21T11:45:48.000+02:00</time>
      </trkpt>
      <trkpt lat="48.0968" lon="7.15038">
        <ele>937.7</ele>
        <time>2017-10-21T11:46:12.000+02:00</time>
      </trkpt>
      <trkpt lat="48.09705" lon="7.15053">
        <ele>936.9</ele>
        <time>2017-10-21T11:46:21.000+02:00</time>
      </trkpt>
      <trkpt lat="48.09729" lon="7.1506">
        <ele>936.7</ele>
        <time>2017-10-21T11:46:31.000+02:00</time>
      </trkpt>
      <trkpt lat="48.09793" lon="7.15067">
        <ele>936</ele>
        <time>2017-10-21T11:46:56.000+02:00</time>
      </trkpt>
      <trkpt lat="48.09814" lon="7.15062">
        <ele>935.6</ele>
        <time>2017-10-21T11:47:04.000+02:00</time>
      </trkpt>
      <trkpt lat="48.09896" lon="7.15078">
        <ele>923.3</ele>
        <time>2017-10-21T11:47:39.000+02:00</time>
      </trkpt>
      <trkpt lat="48.09895" lon="7.15078">
        <ele>923.5</ele>
        <time>2017-10-21T11:47:39.000+02:00</time>
      </trkpt>
      <trkpt lat="48.0991" lon="7.15084">
        <ele>921.3</ele>
        <time>2017-10-21T11:47:44.000+02:00</time>
      </trkpt>
      <trkpt lat="48.09933" lon="7.15105">
        <ele>917.2</ele>
        <time>2017-10-21T11:47:59.000+02:00</time>
      </trkpt>
      <trkpt lat="48.09941" lon="7.15118">
        <ele>916.4</ele>
        <time>2017-10-21T11:48:03.000+02:00</time>
      </trkpt>
      <trkpt lat="48.09949" lon="7.15137">
        <ele>916.2</ele>
        <time>2017-10-21T11:48:09.000+02:00</time>
      </trkpt>
      <trkpt lat="48.09951" lon="7.15148">
        <ele>916.6</ele>
        <time>2017-10-21T11:48:12.000+02:00</time>
      </trkpt>
      <trkpt lat="48.09981" lon="7.1518">
        <ele>914.1</ele>
        <time>2017-10-21T11:48:25.000+02:00</time>
      </trkpt>
      <trkpt lat="48.10009" lon="7.15213">
        <ele>910.5</ele>
        <time>2017-10-21T11:48:39.000+02:00</time>
      </trkpt>
      <trkpt lat="48.10018" lon="7.15226">
        <ele>909.7</ele>
        <time>2017-10-21T11:48:44.000+02:00</time>
      </trkpt>
      <trkpt lat="48.10028" lon="7.15223">
        <ele>909</ele>
        <time>2017-10-21T11:48:48.000+02:00</time>
      </trkpt>
      <trkpt lat="48.10062" lon="7.15255">
        <ele>908.5</ele>
        <time>2017-10-21T11:49:01.000+02:00</time>
      </trkpt>
      <trkpt lat="48.10071" lon="7.15267">
        <ele>906.7</ele>
        <time>2017-10-21T11:49:06.000+02:00</time>
      </trkpt>
      <trkpt lat="48.10082" lon="7.15267">
        <ele>906.6</ele>
        <time>2017-10-21T11:49:11.000+02:00</time>
      </trkpt>
      <trkpt lat="48.1009" lon="7.15272">
        <ele>904.8</ele>
        <time>2017-10-21T11:49:21.000+02:00</time>
      </trkpt>
      <trkpt lat="48.10114" lon="7.15294">
        <ele>899.5</ele>
        <time>2017-10-21T11:49:31.000+02:00</time>
      </trkpt>
      <trkpt lat="48.1015" lon="7.15302">
        <ele>895.7</ele>
        <time>2017-10-21T11:49:43.000+02:00</time>
      </trkpt>
      <trkpt lat="48.10186" lon="7.15301">
        <ele>889.6</ele>
        <time>2017-10-21T11:50:09.000+02:00</time>
      </trkpt>
      <trkpt lat="48.10194" lon="7.15306">
        <ele>888</ele>
        <time>2017-10-21T11:50:12.000+02:00</time>
      </trkpt>
      <trkpt lat="48.10206" lon="7.15323">
        <ele>886.9</ele>
        <time>2017-10-21T11:50:18.000+02:00</time>
      </trkpt>
      <trkpt lat="48.10227" lon="7.15336">
        <ele>883.7</ele>
        <time>2017-10-21T11:50:28.000+02:00</time>
      </trkpt>
      <trkpt lat="48.10238" lon="7.15332">
        <ele>881.9</ele>
        <time>2017-10-21T11:50:32.000+02:00</time>
      </trkpt>
      <trkpt lat="48.10249" lon="7.15351">
        <ele>878.2</ele>
        <time>2017-10-21T11:50:38.000+02:00</time>
      </trkpt>
      <trkpt lat="48.10255" lon="7.15356">
        <ele>877</ele>
        <time>2017-10-21T11:50:47.000+02:00</time>
      </trkpt>
      <trkpt lat="48.10266" lon="7.15351">
        <ele>876.1</ele>
        <time>2017-10-21T11:50:51.000+02:00</time>
      </trkpt>
      <trkpt lat="48.10271" lon="7.15353">
        <ele>875.4</ele>
        <time>2017-10-21T11:50:53.000+02:00</time>
      </trkpt>
      <trkpt lat="48.10276" lon="7.15354">
        <ele>874.7</ele>
        <time>2017-10-21T11:50:56.000+02:00</time>
      </trkpt>
      <trkpt lat="48.10286" lon="7.15351">
        <ele>873.6</ele>
        <time>2017-10-21T11:50:59.000+02:00</time>
      </trkpt>
      <trkpt lat="48.10304" lon="7.15359">
        <ele>871.5</ele>
        <time>2017-10-21T11:51:06.000+02:00</time>
      </trkpt>
      <trkpt lat="48.10316" lon="7.15371">
        <ele>870.9</ele>
        <time>2017-10-21T11:51:12.000+02:00</time>
      </trkpt>
      <trkpt lat="48.10346" lon="7.15394">
        <ele>871.4</ele>
        <time>2017-10-21T11:51:23.000+02:00</time>
      </trkpt>
      <trkpt lat="48.10395" lon="7.15426">
        <ele>874</ele>
        <time>2017-10-21T11:51:46.000+02:00</time>
      </trkpt>
      <trkpt lat="48.10421" lon="7.15447">
        <ele>874.3</ele>
        <time>2017-10-21T11:52:03.000+02:00</time>
      </trkpt>
      <trkpt lat="48.10474" lon="7.15484">
        <ele>879.7</ele>
        <time>2017-10-21T11:52:29.000+02:00</time>
      </trkpt>
      <trkpt lat="48.10527" lon="7.15521">
        <ele>884.3</ele>
        <time>2017-10-21T11:53:01.000+02:00</time>
      </trkpt>
      <trkpt lat="48.10565" lon="7.15543">
        <ele>885.7</ele>
        <time>2017-10-21T11:53:18.000+02:00</time>
      </trkpt>
      <trkpt lat="48.10588" lon="7.1557">
        <ele>888</ele>
        <time>2017-10-21T11:53:32.000+02:00</time>
      </trkpt>
      <trkpt lat="48.10606" lon="7.15576">
        <ele>886.9</ele>
        <time>2017-10-21T11:53:39.000+02:00</time>
      </trkpt>
      <trkpt lat="48.10619" lon="7.15566">
        <ele>885.2</ele>
        <time>2017-10-21T11:53:44.000+02:00</time>
      </trkpt>
      <trkpt lat="48.10628" lon="7.15553">
        <ele>883.5</ele>
        <time>2017-10-21T11:53:48.000+02:00</time>
      </trkpt>
      <trkpt lat="48.10633" lon="7.15519">
        <ele>880.5</ele>
        <time>2017-10-21T11:53:56.000+02:00</time>
      </trkpt>
      <trkpt lat="48.10621" lon="7.1544">
        <ele>862.2</ele>
        <time>2017-10-21T11:54:36.000+02:00</time>
      </trkpt>
      <trkpt lat="48.10629" lon="7.15439">
        <ele>860.7</ele>
        <time>2017-10-21T11:54:39.000+02:00</time>
      </trkpt>
      <trkpt lat="48.10621" lon="7.15435">
        <ele>860.7</ele>
        <time>2017-10-21T11:54:43.000+02:00</time>
      </trkpt>
      <trkpt lat="48.10632" lon="7.15432">
        <ele>858.1</ele>
        <time>2017-10-21T11:54:47.000+02:00</time>
      </trkpt>
      <trkpt lat="48.10636" lon="7.15428">
        <ele>856.3</ele>
        <time>2017-10-21T11:54:49.000+02:00</time>
      </trkpt>
      <trkpt lat="48.10652" lon="7.15435">
        <ele>856.1</ele>
        <time>2017-10-21T11:54:55.000+02:00</time>
      </trkpt>
      <trkpt lat="48.10654" lon="7.15426">
        <ele>852.9</ele>
        <time>2017-10-21T11:55:02.000+02:00</time>
      </trkpt>
      <trkpt lat="48.10667" lon="7.15431">
        <ele>852.5</ele>
        <time>2017-10-21T11:55:19.000+02:00</time>
      </trkpt>
      <trkpt lat="48.10679" lon="7.15424">
        <ele>846.4</ele>
        <time>2017-10-21T11:55:23.000+02:00</time>
      </trkpt>
      <trkpt lat="48.10701" lon="7.15424">
        <ele>839.4</ele>
        <time>2017-10-21T11:55:32.000+02:00</time>
      </trkpt>
      <trkpt lat="48.10719" lon="7.15428">
        <ele>834.7</ele>
        <time>2017-10-21T11:55:41.000+02:00</time>
      </trkpt>
      <trkpt lat="48.10718" lon="7.15428">
        <ele>835.1</ele>
        <time>2017-10-21T11:55:44.000+02:00</time>
      </trkpt>
      <trkpt lat="48.10728" lon="7.15431">
        <ele>832.6</ele>
        <time>2017-10-21T11:55:51.000+02:00</time>
      </trkpt>
      <trkpt lat="48.10735" lon="7.15425">
        <ele>828.8</ele>
        <time>2017-10-21T11:56:00.000+02:00</time>
      </trkpt>
      <trkpt lat="48.10725" lon="7.15397">
        <ele>823.5</ele>
        <time>2017-10-21T11:56:25.000+02:00</time>
      </trkpt>
      <trkpt lat="48.10708" lon="7.15359">
        <ele>816.1</ele>
        <time>2017-10-21T11:56:36.000+02:00</time>
      </trkpt>
      <trkpt lat="48.10717" lon="7.15354">
        <ele>812</ele>
        <time>2017-10-21T11:56:43.000+02:00</time>
      </trkpt>
      <trkpt lat="48.10707" lon="7.15342">
        <ele>810.7</ele>
        <time>2017-10-21T11:56:49.000+02:00</time>
      </trkpt>
      <trkpt lat="48.10702" lon="7.1533">
        <ele>808</ele>
        <time>2017-10-21T11:57:08.000+02:00</time>
      </trkpt>
      <trkpt lat="48.10714" lon="7.15323">
        <ele>802.8</ele>
        <time>2017-10-21T11:57:14.000+02:00</time>
      </trkpt>
      <trkpt lat="48.10705" lon="7.15303">
        <ele>798.6</ele>
        <time>2017-10-21T11:57:20.000+02:00</time>
      </trkpt>
      <trkpt lat="48.10709" lon="7.15296">
        <ele>795.5</ele>
        <time>2017-10-21T11:57:22.000+02:00</time>
      </trkpt>
      <trkpt lat="48.10787" lon="7.15339">
        <ele>787.7</ele>
        <time>2017-10-21T11:57:52.000+02:00</time>
      </trkpt>
      <trkpt lat="48.10843" lon="7.15367">
        <ele>775.9</ele>
        <time>2017-10-21T11:58:45.000+02:00</time>
      </trkpt>
      <trkpt lat="48.1086" lon="7.15379">
        <ele>772.4</ele>
        <time>2017-10-21T11:58:52.000+02:00</time>
      </trkpt>
      <trkpt lat="48.10877" lon="7.15401">
        <ele>770.3</ele>
        <time>2017-10-21T11:59:00.000+02:00</time>
      </trkpt>
      <trkpt lat="48.10865" lon="7.15378">
        <ele>770.5</ele>
        <time>2017-10-21T11:59:09.000+02:00</time>
      </trkpt>
      <trkpt lat="48.10849" lon="7.15357">
        <ele>772.2</ele>
        <time>2017-10-21T11:59:18.000+02:00</time>
      </trkpt>
      <trkpt lat="48.10817" lon="7.15329">
        <ele>776.6</ele>
        <time>2017-10-21T11:59:41.000+02:00</time>
      </trkpt>
      <trkpt lat="48.10798" lon="7.15315">
        <ele>778.3</ele>
        <time>2017-10-21T11:59:52.000+02:00</time>
      </trkpt>
      <trkpt lat="48.10797" lon="7.15315">
        <ele>778.6</ele>
        <time>2017-10-21T11:59:52.000+02:00</time>
      </trkpt>
      <trkpt lat="48.10731" lon="7.15266">
        <ele>781.5</ele>
        <time>2017-10-21T12:00:39.000+02:00</time>
      </trkpt>
      <trkpt lat="48.1069" lon="7.15246">
        <ele>783.4</ele>
        <time>2017-10-21T12:00:59.000+02:00</time>
      </trkpt>
      <trkpt lat="48.1066" lon="7.15237">
        <ele>786.2</ele>
        <time>2017-10-21T12:01:32.000+02:00</time>
      </trkpt>
      <trkpt lat="48.10618" lon="7.15231">
        <ele>789.6</ele>
        <time>2017-10-21T12:01:49.000+02:00</time>
      </trkpt>
      <trkpt lat="48.10573" lon="7.15222">
        <ele>792.5</ele>
        <time>2017-10-21T12:02:19.000+02:00</time>
      </trkpt>
      <trkpt lat="48.10528" lon="7.15213">
        <ele>795.1</ele>
        <time>2017-10-21T12:02:38.000+02:00</time>
      </trkpt>
      <trkpt lat="48.10499" lon="7.15201">
        <ele>795.1</ele>
        <time>2017-10-21T12:03:04.000+02:00</time>
      </trkpt>
      <trkpt lat="48.10416" lon="7.15152">
        <ele>797.8</ele>
        <time>2017-10-21T12:03:39.000+02:00</time>
      </trkpt>
      <trkpt lat="48.10369" lon="7.15119">
        <ele>800.1</ele>
        <time>2017-10-21T12:04:00.000+02:00</time>
      </trkpt>
      <trkpt lat="48.10336" lon="7.15087">
        <ele>799.3</ele>
        <time>2017-10-21T12:04:15.000+02:00</time>
      </trkpt>
      <trkpt lat="48.1029" lon="7.15041">
        <ele>801</ele>
        <time>2017-10-21T12:04:39.000+02:00</time>
      </trkpt>
      <trkpt lat="48.10246" lon="7.14992">
        <ele>802.8</ele>
        <time>2017-10-21T12:05:04.000+02:00</time>
      </trkpt>
      <trkpt lat="48.10222" lon="7.14956">
        <ele>803.3</ele>
        <time>2017-10-21T12:05:18.000+02:00</time>
      </trkpt>
      <trkpt lat="48.10179" lon="7.14906">
        <ele>805.2</ele>
        <time>2017-10-21T12:05:37.000+02:00</time>
      </trkpt>
      <trkpt lat="48.10135" lon="7.14844">
        <ele>806.2</ele>
        <time>2017-10-21T12:06:14.000+02:00</time>
      </trkpt>
      <trkpt lat="48.10123" lon="7.14801">
        <ele>802.7</ele>
        <time>2017-10-21T12:06:33.000+02:00</time>
      </trkpt>
      <trkpt lat="48.10115" lon="7.14782">
        <ele>801.9</ele>
        <time>2017-10-21T12:06:38.000+02:00</time>
      </trkpt>
      <trkpt lat="48.10076" lon="7.14711">
        <ele>801.7</ele>
        <time>2017-10-21T12:07:09.000+02:00</time>
      </trkpt>
      <trkpt lat="48.10036" lon="7.14641">
        <ele>799.9</ele>
        <time>2017-10-21T12:07:32.000+02:00</time>
      </trkpt>
      <trkpt lat="48.10021" lon="7.14609">
        <ele>797.8</ele>
        <time>2017-10-21T12:07:42.000+02:00</time>
      </trkpt>
      <trkpt lat="48.10007" lon="7.14585">
        <ele>796.8</ele>
        <time>2017-10-21T12:07:50.000+02:00</time>
      </trkpt>
      <trkpt lat="48.09982" lon="7.14559">
        <ele>798.5</ele>
        <time>2017-10-21T12:08:07.000+02:00</time>
      </trkpt>
      <trkpt lat="48.09958" lon="7.14519">
        <ele>797.4</ele>
        <time>2017-10-21T12:08:20.000+02:00</time>
      </trkpt>
      <trkpt lat="48.09942" lon="7.14485">
        <ele>795.2</ele>
        <time>2017-10-21T12:08:36.000+02:00</time>
      </trkpt>
      <trkpt lat="48.09942" lon="7.14484">
        <ele>795</ele>
        <time>2017-10-21T12:08:36.000+02:00</time>
      </trkpt>
      <trkpt lat="48.09931" lon="7.1446">
        <ele>793.3</ele>
        <time>2017-10-21T12:08:43.000+02:00</time>
      </trkpt>
      <trkpt lat="48.09907" lon="7.14422">
        <ele>791.5</ele>
        <time>2017-10-21T12:09:01.000+02:00</time>
      </trkpt>
      <trkpt lat="48.0988" lon="7.14396">
        <ele>791.1</ele>
        <time>2017-10-21T12:09:14.000+02:00</time>
      </trkpt>
      <trkpt lat="48.09853" lon="7.14379">
        <ele>791.9</ele>
        <time>2017-10-21T12:09:27.000+02:00</time>
      </trkpt>
      <trkpt lat="48.09826" lon="7.14369">
        <ele>793</ele>
        <time>2017-10-21T12:09:45.000+02:00</time>
      </trkpt>
      <trkpt lat="48.09781" lon="7.14359">
        <ele>792.8</ele>
        <time>2017-10-21T12:10:03.000+02:00</time>
      </trkpt>
      <trkpt lat="48.09754" lon="7.14349">
        <ele>791.6</ele>
        <time>2017-10-21T12:10:13.000+02:00</time>
      </trkpt>
      <trkpt lat="48.09669" lon="7.14325">
        <ele>791.2</ele>
        <time>2017-10-21T12:10:45.000+02:00</time>
      </trkpt>
      <trkpt lat="48.09584" lon="7.14301">
        <ele>793</ele>
        <time>2017-10-21T12:11:20.000+02:00</time>
      </trkpt>
      <trkpt lat="48.09523" lon="7.14271">
        <ele>786.5</ele>
        <time>2017-10-21T12:11:44.000+02:00</time>
      </trkpt>
      <trkpt lat="48.09499" lon="7.14269">
        <ele>786</ele>
        <time>2017-10-21T12:11:52.000+02:00</time>
      </trkpt>
      <trkpt lat="48.09449" lon="7.14275">
        <ele>788.3</ele>
        <time>2017-10-21T12:12:15.000+02:00</time>
      </trkpt>
      <trkpt lat="48.09446" lon="7.14271">
        <ele>787.2</ele>
        <time>2017-10-21T12:12:18.000+02:00</time>
      </trkpt>
      <trkpt lat="48.09447" lon="7.14266">
        <ele>785.7</ele>
        <time>2017-10-21T12:12:20.000+02:00</time>
      </trkpt>
      <trkpt lat="48.09416" lon="7.14262">
        <ele>784.7</ele>
        <time>2017-10-21T12:12:31.000+02:00</time>
      </trkpt>
      <trkpt lat="48.0939" lon="7.14256">
        <ele>782.4</ele>
        <time>2017-10-21T12:12:44.000+02:00</time>
      </trkpt>
      <trkpt lat="48.09365" lon="7.14254">
        <ele>781.5</ele>
        <time>2017-10-21T12:12:54.000+02:00</time>
      </trkpt>
      <trkpt lat="48.09333" lon="7.14259">
        <ele>782.2</ele>
        <time>2017-10-21T12:13:09.000+02:00</time>
      </trkpt>
      <trkpt lat="48.09306" lon="7.14272">
        <ele>783.4</ele>
        <time>2017-10-21T12:13:25.000+02:00</time>
      </trkpt>
      <trkpt lat="48.0928" lon="7.14291">
        <ele>785.9</ele>
        <time>2017-10-21T12:13:37.000+02:00</time>
      </trkpt>
      <trkpt lat="48.09225" lon="7.14382">
        <ele>804.4</ele>
        <time>2017-10-21T12:14:54.000+02:00</time>
      </trkpt>
      <trkpt lat="48.09169" lon="7.14467">
        <ele>815.1</ele>
        <time>2017-10-21T12:15:50.000+02:00</time>
      </trkpt>
      <trkpt lat="48.09143" lon="7.14496">
        <ele>817.1</ele>
        <time>2017-10-21T12:16:01.000+02:00</time>
      </trkpt>
      <trkpt lat="48.09122" lon="7.14515">
        <ele>818.9</ele>
        <time>2017-10-21T12:16:35.000+02:00</time>
      </trkpt>
      <trkpt lat="48.09089" lon="7.14523">
        <ele>817.3</ele>
        <time>2017-10-21T12:16:47.000+02:00</time>
      </trkpt>
      <trkpt lat="48.09036" lon="7.14549">
        <ele>819.6</ele>
        <time>2017-10-21T12:17:08.000+02:00</time>
      </trkpt>
      <trkpt lat="48.09022" lon="7.14561">
        <ele>821.2</ele>
        <time>2017-10-21T12:17:15.000+02:00</time>
      </trkpt>
      <trkpt lat="48.08945" lon="7.14613">
        <ele>827.4</ele>
        <time>2017-10-21T12:18:03.000+02:00</time>
      </trkpt>
      <trkpt lat="48.08928" lon="7.14617">
        <ele>827.3</ele>
        <time>2017-10-21T12:18:09.000+02:00</time>
      </trkpt>
      <trkpt lat="48.08901" lon="7.14628">
        <ele>828.1</ele>
        <time>2017-10-21T12:18:20.000+02:00</time>
      </trkpt>
      <trkpt lat="48.08867" lon="7.14652">
        <ele>830.4</ele>
        <time>2017-10-21T12:18:36.000+02:00</time>
      </trkpt>
      <trkpt lat="48.08794" lon="7.14693">
        <ele>838.9</ele>
        <time>2017-10-21T12:19:26.000+02:00</time>
      </trkpt>
      <trkpt lat="48.08733" lon="7.14664">
        <ele>842.7</ele>
        <time>2017-10-21T12:19:55.000+02:00</time>
      </trkpt>
      <trkpt lat="48.08672" lon="7.14635">
        <ele>852.6</ele>
        <time>2017-10-21T12:20:29.000+02:00</time>
      </trkpt>
      <trkpt lat="48.08656" lon="7.14618">
        <ele>855.5</ele>
        <time>2017-10-21T12:21:08.000+02:00</time>
      </trkpt>
      <trkpt lat="48.08651" lon="7.14606">
        <ele>856.3</ele>
        <time>2017-10-21T12:21:12.000+02:00</time>
      </trkpt>
      <trkpt lat="48.08654" lon="7.14584">
        <ele>855.4</ele>
        <time>2017-10-21T12:21:17.000+02:00</time>
      </trkpt>
      <trkpt lat="48.08667" lon="7.14538">
        <ele>860</ele>
        <time>2017-10-21T12:21:30.000+02:00</time>
      </trkpt>
      <trkpt lat="48.08698" lon="7.14479">
        <ele>860.5</ele>
        <time>2017-10-21T12:22:04.000+02:00</time>
      </trkpt>
      <trkpt lat="48.08735" lon="7.14425">
        <ele>861.3</ele>
        <time>2017-10-21T12:22:25.000+02:00</time>
      </trkpt>
      <trkpt lat="48.08756" lon="7.14383">
        <ele>863</ele>
        <time>2017-10-21T12:22:38.000+02:00</time>
      </trkpt>
      <trkpt lat="48.08785" lon="7.14304">
        <ele>866.1</ele>
        <time>2017-10-21T12:23:18.000+02:00</time>
      </trkpt>
      <trkpt lat="48.08799" lon="7.14243">
        <ele>868.5</ele>
        <time>2017-10-21T12:23:45.000+02:00</time>
      </trkpt>
      <trkpt lat="48.08815" lon="7.14187">
        <ele>869.2</ele>
        <time>2017-10-21T12:24:02.000+02:00</time>
      </trkpt>
      <trkpt lat="48.0882" lon="7.14156">
        <ele>870.2</ele>
        <time>2017-10-21T12:24:13.000+02:00</time>
      </trkpt>
      <trkpt lat="48.08823" lon="7.14116">
        <ele>870.9</ele>
        <time>2017-10-21T12:24:31.000+02:00</time>
      </trkpt>
      <trkpt lat="48.08821" lon="7.14082">
        <ele>873.4</ele>
        <time>2017-10-21T12:24:40.000+02:00</time>
      </trkpt>
      <trkpt lat="48.08805" lon="7.14003">
        <ele>875.8</ele>
        <time>2017-10-21T12:25:05.000+02:00</time>
      </trkpt>
      <trkpt lat="48.08801" lon="7.13975">
        <ele>874.3</ele>
        <time>2017-10-21T12:25:13.000+02:00</time>
      </trkpt>
      <trkpt lat="48.0879" lon="7.1394">
        <ele>874.6</ele>
        <time>2017-10-21T12:25:24.000+02:00</time>
      </trkpt>
      <trkpt lat="48.08758" lon="7.13885">
        <ele>877.7</ele>
        <time>2017-10-21T12:25:42.000+02:00</time>
      </trkpt>
      <trkpt lat="48.08726" lon="7.1383">
        <ele>876.2</ele>
        <time>2017-10-21T12:26:07.000+02:00</time>
      </trkpt>
      <trkpt lat="48.08683" lon="7.13781">
        <ele>880.3</ele>
        <time>2017-10-21T12:26:31.000+02:00</time>
      </trkpt>
      <trkpt lat="48.08634" lon="7.13709">
        <ele>882.2</ele>
        <time>2017-10-21T12:27:09.000+02:00</time>
      </trkpt>
      <trkpt lat="48.08594" lon="7.13657">
        <ele>886.4</ele>
        <time>2017-10-21T12:27:28.000+02:00</time>
      </trkpt>
      <trkpt lat="48.08585" lon="7.13643">
        <ele>886.3</ele>
        <time>2017-10-21T12:27:35.000+02:00</time>
      </trkpt>
      <trkpt lat="48.08585" lon="7.13642">
        <ele>886.1</ele>
        <time>2017-10-21T12:27:36.000+02:00</time>
      </trkpt>
      <trkpt lat="48.08525" lon="7.13544">
        <ele>886.6</ele>
        <time>2017-10-21T12:28:19.000+02:00</time>
      </trkpt>
      <trkpt lat="48.08496" lon="7.13488">
        <ele>887.1</ele>
        <time>2017-10-21T12:28:47.000+02:00</time>
      </trkpt>
      <trkpt lat="48.08479" lon="7.13435">
        <ele>883.6</ele>
        <time>2017-10-21T12:29:01.000+02:00</time>
      </trkpt>
      <trkpt lat="48.08436" lon="7.13324">
        <ele>881.6</ele>
        <time>2017-10-21T12:29:31.000+02:00</time>
      </trkpt>
      <trkpt lat="48.08404" lon="7.13257">
        <ele>882.3</ele>
        <time>2017-10-21T12:30:02.000+02:00</time>
      </trkpt>
      <trkpt lat="48.08372" lon="7.13191">
        <ele>883.2</ele>
        <time>2017-10-21T12:30:22.000+02:00</time>
      </trkpt>
      <trkpt lat="48.08334" lon="7.13122">
        <ele>883.9</ele>
        <time>2017-10-21T12:30:44.000+02:00</time>
      </trkpt>
      <trkpt lat="48.08311" lon="7.13098">
        <ele>886</ele>
        <time>2017-10-21T12:31:31.000+02:00</time>
      </trkpt>
      <trkpt lat="48.08293" lon="7.13082">
        <ele>888.5</ele>
        <time>2017-10-21T12:31:40.000+02:00</time>
      </trkpt>
      <trkpt lat="48.08283" lon="7.13059">
        <ele>888</ele>
        <time>2017-10-21T12:31:49.000+02:00</time>
      </trkpt>
      <trkpt lat="48.08281" lon="7.13038">
        <ele>885.7</ele>
        <time>2017-10-21T12:31:54.000+02:00</time>
      </trkpt>
      <trkpt lat="48.08282" lon="7.13004">
        <ele>880.9</ele>
        <time>2017-10-21T12:32:01.000+02:00</time>
      </trkpt>
      <trkpt lat="48.08275" lon="7.12906">
        <ele>887.5</ele>
        <time>2017-10-21T12:32:38.000+02:00</time>
      </trkpt>
      <trkpt lat="48.08278" lon="7.12876">
        <ele>892.6</ele>
        <time>2017-10-21T12:32:49.000+02:00</time>
      </trkpt>
      <trkpt lat="48.08287" lon="7.12854">
        <ele>895.5</ele>
        <time>2017-10-21T12:32:57.000+02:00</time>
      </trkpt>
      <trkpt lat="48.08305" lon="7.12837">
        <ele>896.6</ele>
        <time>2017-10-21T12:33:06.000+02:00</time>
      </trkpt>
      <trkpt lat="48.0832" lon="7.1283">
        <ele>896.4</ele>
        <time>2017-10-21T12:33:37.000+02:00</time>
      </trkpt>
      <trkpt lat="48.08356" lon="7.12825">
        <ele>895.6</ele>
        <time>2017-10-21T12:33:50.000+02:00</time>
      </trkpt>
      <trkpt lat="48.08394" lon="7.12832">
        <ele>892.9</ele>
        <time>2017-10-21T12:34:04.000+02:00</time>
      </trkpt>
      <trkpt lat="48.08451" lon="7.12836">
        <ele>891.4</ele>
        <time>2017-10-21T12:34:33.000+02:00</time>
      </trkpt>
      <trkpt lat="48.08494" lon="7.12837">
        <ele>891.2</ele>
        <time>2017-10-21T12:34:56.000+02:00</time>
      </trkpt>
      <trkpt lat="48.08526" lon="7.12833">
        <ele>890.2</ele>
        <time>2017-10-21T12:35:15.000+02:00</time>
      </trkpt>
      <trkpt lat="48.0855" lon="7.12826">
        <ele>889.6</ele>
        <time>2017-10-21T12:35:24.000+02:00</time>
      </trkpt>
      <trkpt lat="48.08595" lon="7.1279">
        <ele>890.7</ele>
        <time>2017-10-21T12:35:42.000+02:00</time>
      </trkpt>
      <trkpt lat="48.08604" lon="7.12778">
        <ele>891.1</ele>
        <time>2017-10-21T12:35:48.000+02:00</time>
      </trkpt>
      <trkpt lat="48.08641" lon="7.12695">
        <ele>892.9</ele>
        <time>2017-10-21T12:36:20.000+02:00</time>
      </trkpt>
      <trkpt lat="48.08678" lon="7.12633">
        <ele>889.8</ele>
        <time>2017-10-21T12:36:44.000+02:00</time>
      </trkpt>
      <trkpt lat="48.08686" lon="7.12603">
        <ele>889.8</ele>
        <time>2017-10-21T12:36:55.000+02:00</time>
      </trkpt>
      <trkpt lat="48.08696" lon="7.1258">
        <ele>888.4</ele>
        <time>2017-10-21T12:37:06.000+02:00</time>
      </trkpt>
      <trkpt lat="48.08707" lon="7.12547">
        <ele>887.5</ele>
        <time>2017-10-21T12:37:15.000+02:00</time>
      </trkpt>
      <trkpt lat="48.08731" lon="7.12487">
        <ele>884.4</ele>
        <time>2017-10-21T12:37:32.000+02:00</time>
      </trkpt>
      <trkpt lat="48.08753" lon="7.1238">
        <ele>884</ele>
        <time>2017-10-21T12:38:00.000+02:00</time>
      </trkpt>
      <trkpt lat="48.08756" lon="7.1229">
        <ele>884.8</ele>
        <time>2017-10-21T12:38:25.000+02:00</time>
      </trkpt>
      <trkpt lat="48.08759" lon="7.122">
        <ele>884.2</ele>
        <time>2017-10-21T12:38:49.000+02:00</time>
      </trkpt>
      <trkpt lat="48.08755" lon="7.12142">
        <ele>885.8</ele>
        <time>2017-10-21T12:39:06.000+02:00</time>
      </trkpt>
      <trkpt lat="48.08749" lon="7.12096">
        <ele>887.2</ele>
        <time>2017-10-21T12:39:43.000+02:00</time>
      </trkpt>
      <trkpt lat="48.0875" lon="7.12056">
        <ele>887.7</ele>
        <time>2017-10-21T12:39:57.000+02:00</time>
      </trkpt>
      <trkpt lat="48.08755" lon="7.1201">
        <ele>888.1</ele>
        <time>2017-10-21T12:40:11.000+02:00</time>
      </trkpt>
      <trkpt lat="48.08762" lon="7.11994">
        <ele>887.8</ele>
        <time>2017-10-21T12:40:18.000+02:00</time>
      </trkpt>
      <trkpt lat="48.08773" lon="7.11981">
        <ele>886.9</ele>
        <time>2017-10-21T12:40:22.000+02:00</time>
      </trkpt>
      <trkpt lat="48.08778" lon="7.11975">
        <ele>886.6</ele>
        <time>2017-10-21T12:40:25.000+02:00</time>
      </trkpt>
      <trkpt lat="48.0879" lon="7.11952">
        <ele>885.9</ele>
        <time>2017-10-21T12:40:33.000+02:00</time>
      </trkpt>
      <trkpt lat="48.08923" lon="7.1179">
        <ele>886.7</ele>
        <time>2017-10-21T12:41:43.000+02:00</time>
      </trkpt>
      <trkpt lat="48.08807" lon="7.11705">
        <ele>888.7</ele>
        <time>2017-10-21T12:42:36.000+02:00</time>
      </trkpt>
      <trkpt lat="48.08779" lon="7.11629">
        <ele>888.5</ele>
        <time>2017-10-21T12:42:59.000+02:00</time>
      </trkpt>
      <trkpt lat="48.08796" lon="7.1158">
        <ele>889.5</ele>
        <time>2017-10-21T12:43:14.000+02:00</time>
      </trkpt>
      <trkpt lat="48.08799" lon="7.1157">
        <ele>889.6</ele>
        <time>2017-10-21T12:43:17.000+02:00</time>
      </trkpt>
      <trkpt lat="48.08919" lon="7.11288">
        <ele>914.2</ele>
        <time>2017-10-21T12:45:42.000+02:00</time>
      </trkpt>
      <trkpt lat="48.08921" lon="7.11275">
        <ele>915.8</ele>
        <time>2017-10-21T12:45:45.000+02:00</time>
      </trkpt>
      <trkpt lat="48.08827" lon="7.11112">
        <ele>909.3</ele>
        <time>2017-10-21T12:46:39.000+02:00</time>
      </trkpt>
      <trkpt lat="48.08842" lon="7.10855">
        <ele>923.3</ele>
        <time>2017-10-21T12:48:27.000+02:00</time>
      </trkpt>
      <trkpt lat="48.08848" lon="7.10741">
        <ele>919.7</ele>
        <time>2017-10-21T12:48:53.000+02:00</time>
      </trkpt>
      <trkpt lat="48.09002" lon="7.10567">
        <ele>915</ele>
        <time>2017-10-21T12:50:06.000+02:00</time>
      </trkpt>
      <trkpt lat="48.0885" lon="7.10536">
        <ele>901.4</ele>
        <time>2017-10-21T12:50:58.000+02:00</time>
      </trkpt>
      <trkpt lat="48.0889" lon="7.10496">
        <ele>899.5</ele>
        <time>2017-10-21T12:51:19.000+02:00</time>
      </trkpt>
      <trkpt lat="48.09136" lon="7.10367">
        <ele>894.2</ele>
        <time>2017-10-21T12:53:03.000+02:00</time>
      </trkpt>
      <trkpt lat="48.09319" lon="7.10138">
        <ele>866.8</ele>
        <time>2017-10-21T12:54:34.000+02:00</time>
      </trkpt>
      <trkpt lat="48.0929" lon="7.10025">
        <ele>859.1</ele>
        <time>2017-10-21T12:55:01.000+02:00</time>
      </trkpt>
      <trkpt lat="48.09319" lon="7.09849">
        <ele>877</ele>
        <time>2017-10-21T12:56:12.000+02:00</time>
      </trkpt>
      <trkpt lat="48.09213" lon="7.09574">
        <ele>890.8</ele>
        <time>2017-10-21T12:58:03.000+02:00</time>
      </trkpt>
      <trkpt lat="48.09183" lon="7.09393">
        <ele>902</ele>
        <time>2017-10-21T12:59:10.000+02:00</time>
      </trkpt>
      <trkpt lat="48.09" lon="7.094">
        <ele>890.6</ele>
        <time>2017-10-21T13:00:13.000+02:00</time>
      </trkpt>
      <trkpt lat="48.0918" lon="7.09282">
        <ele>905.2</ele>
        <time>2017-10-21T13:02:01.000+02:00</time>
      </trkpt>
      <trkpt lat="48.09327" lon="7.091">
        <ele>915.3</ele>
        <time>2017-10-21T13:03:21.000+02:00</time>
      </trkpt>
      <trkpt lat="48.09591" lon="7.08825">
        <ele>946.8</ele>
        <time>2017-10-21T13:06:26.000+02:00</time>
      </trkpt>
      <trkpt lat="48.09635" lon="7.08738">
        <ele>953.2</ele>
        <time>2017-10-21T13:06:58.000+02:00</time>
      </trkpt>
      <trkpt lat="48.0959" lon="7.08623">
        <ele>942.2</ele>
        <time>2017-10-21T13:07:29.000+02:00</time>
      </trkpt>
      <trkpt lat="48.09491" lon="7.08621">
        <ele>925.1</ele>
        <time>2017-10-21T13:08:23.000+02:00</time>
      </trkpt>
      <trkpt lat="48.0949" lon="7.08634">
        <ele>922.9</ele>
        <time>2017-10-21T13:08:28.000+02:00</time>
      </trkpt>
      <trkpt lat="48.09488" lon="7.08688">
        <ele>916.4</ele>
        <time>2017-10-21T13:08:43.000+02:00</time>
      </trkpt>
      <trkpt lat="48.09367" lon="7.08502">
        <ele>909</ele>
        <time>2017-10-21T13:09:47.000+02:00</time>
      </trkpt>
      <trkpt lat="48.09367" lon="7.08398">
        <ele>921.1</ele>
        <time>2017-10-21T13:10:54.000+02:00</time>
      </trkpt>
      <trkpt lat="48.09287" lon="7.08306">
        <ele>932</ele>
        <time>2017-10-21T13:11:49.000+02:00</time>
      </trkpt>
      <trkpt lat="48.09156" lon="7.08426">
        <ele>930.8</ele>
        <time>2017-10-21T13:12:47.000+02:00</time>
      </trkpt>
      <trkpt lat="48.08965" lon="7.08479">
        <ele>935.8</ele>
        <time>2017-10-21T13:14:12.000+02:00</time>
      </trkpt>
      <trkpt lat="48.08765" lon="7.08125">
        <ele>956.4</ele>
        <time>2017-10-21T13:16:40.000+02:00</time>
      </trkpt>
      <trkpt lat="48.08771" lon="7.08112">
        <ele>958.5</ele>
        <time>2017-10-21T13:16:46.000+02:00</time>
      </trkpt>
      <trkpt lat="48.08835" lon="7.07852">
        <ele>970.3</ele>
        <time>2017-10-21T13:18:17.000+02:00</time>
      </trkpt>
      <trkpt lat="48.08971" lon="7.0771">
        <ele>987</ele>
        <time>2017-10-21T13:19:35.000+02:00</time>
      </trkpt>
      <trkpt lat="48.08974" lon="7.07693">
        <ele>986.2</ele>
        <time>2017-10-21T13:19:40.000+02:00</time>
      </trkpt>
      <trkpt lat="48.09072" lon="7.07514">
        <ele>977.6</ele>
        <time>2017-10-21T13:20:34.000+02:00</time>
      </trkpt>
      <trkpt lat="48.09087" lon="7.07414">
        <ele>971.3</ele>
        <time>2017-10-21T13:20:58.000+02:00</time>
      </trkpt>
      <trkpt lat="48.08937" lon="7.0734">
        <ele>995.2</ele>
        <time>2017-10-21T13:22:31.000+02:00</time>
      </trkpt>
      <trkpt lat="48.08673" lon="7.0736">
        <ele>984.8</ele>
        <time>2017-10-21T13:24:12.000+02:00</time>
      </trkpt>
      <trkpt lat="48.08616" lon="7.07211">
        <ele>996.2</ele>
        <time>2017-10-21T13:25:14.000+02:00</time>
      </trkpt>
      <trkpt lat="48.08624" lon="7.0662">
        <ele>1042.4</ele>
        <time>2017-10-21T13:29:01.000+02:00</time>
      </trkpt>
      <trkpt lat="48.0864" lon="7.06554">
        <ele>1052.1</ele>
        <time>2017-10-21T13:29:39.000+02:00</time>
      </trkpt>
      <trkpt lat="48.08586" lon="7.06552">
        <ele>1037.2</ele>
        <time>2017-10-21T13:30:01.000+02:00</time>
      </trkpt>
      <trkpt lat="48.08583" lon="7.06411">
        <ele>1048</ele>
        <time>2017-10-21T13:30:40.000+02:00</time>
      </trkpt>
      <trkpt lat="48.08699" lon="7.06327">
        <ele>1056</ele>
        <time>2017-10-21T13:31:56.000+02:00</time>
      </trkpt>
      <trkpt lat="48.087" lon="7.06348">
        <ele>1055.4</ele>
        <time>2017-10-21T13:32:05.000+02:00</time>
      </trkpt>
      <trkpt lat="48.08774" lon="7.06589">
        <ele>1071.4</ele>
        <time>2017-10-21T13:33:43.000+02:00</time>
      </trkpt>
      <trkpt lat="48.08954" lon="7.06683">
        <ele>1099.8</ele>
        <time>2017-10-21T13:35:48.000+02:00</time>
      </trkpt>
      <trkpt lat="48.09085" lon="7.06631">
        <ele>1114.8</ele>
        <time>2017-10-21T13:37:18.000+02:00</time>
      </trkpt>
      <trkpt lat="48.09194" lon="7.06614">
        <ele>1144.6</ele>
        <time>2017-10-21T13:39:07.000+02:00</time>
      </trkpt>
      <trkpt lat="48.09202" lon="7.06507">
        <ele>1138.2</ele>
        <time>2017-10-21T13:39:34.000+02:00</time>
      </trkpt>
      <trkpt lat="48.09159" lon="7.06463">
        <ele>1135.5</ele>
        <time>2017-10-21T13:40:02.000+02:00</time>
      </trkpt>
      <trkpt lat="48.09241" lon="7.06453">
        <ele>1154</ele>
        <time>2017-10-21T13:41:41.000+02:00</time>
      </trkpt>
      <trkpt lat="48.09268" lon="7.0656">
        <ele>1162.3</ele>
        <time>2017-10-21T13:42:44.000+02:00</time>
      </trkpt>
      <trkpt lat="48.09172" lon="7.06713">
        <ele>1158.1</ele>
        <time>2017-10-21T13:43:38.000+02:00</time>
      </trkpt>
      <trkpt lat="48.09184" lon="7.06862">
        <ele>1167.7</ele>
        <time>2017-10-21T13:44:23.000+02:00</time>
      </trkpt>
      <trkpt lat="48.09257" lon="7.06673">
        <ele>1176.1</ele>
        <time>2017-10-21T13:45:35.000+02:00</time>
      </trkpt>
      <trkpt lat="48.09384" lon="7.0647">
        <ele>1203.3</ele>
        <time>2017-10-21T13:47:22.000+02:00</time>
      </trkpt>
      <trkpt lat="48.09392" lon="7.06376">
        <ele>1204.9</ele>
        <time>2017-10-21T13:47:48.000+02:00</time>
      </trkpt>
      <trkpt lat="48.09331" lon="7.06287">
        <ele>1204.6</ele>
        <time>2017-10-21T13:48:24.000+02:00</time>
      </trkpt>
      <trkpt lat="48.0925" lon="7.06229">
        <ele>1212.9</ele>
        <time>2017-10-21T13:49:03.000+02:00</time>
      </trkpt>
      <trkpt lat="48.09245" lon="7.06124">
        <ele>1222</ele>
        <time>2017-10-21T13:49:44.000+02:00</time>
      </trkpt>
      <trkpt lat="48.09251" lon="7.06083">
        <ele>1228</ele>
        <time>2017-10-21T13:50:40.000+02:00</time>
      </trkpt>
      <trkpt lat="48.09251" lon="7.0609">
        <ele>1227.3</ele>
        <time>2017-10-21T13:50:42.000+02:00</time>
      </trkpt>
      <trkpt lat="48.09253" lon="7.06096">
        <ele>1226.7</ele>
        <time>2017-10-21T13:50:44.000+02:00</time>
      </trkpt>
      <trkpt lat="48.09254" lon="7.06101">
        <ele>1226.2</ele>
        <time>2017-10-21T13:50:46.000+02:00</time>
      </trkpt>
      <trkpt lat="48.09257" lon="7.06106">
        <ele>1225.7</ele>
        <time>2017-10-21T13:50:48.000+02:00</time>
      </trkpt>
      <trkpt lat="48.09259" lon="7.0611">
        <ele>1225.4</ele>
        <time>2017-10-21T13:50:49.000+02:00</time>
      </trkpt>
      <trkpt lat="48.09262" lon="7.06112">
        <ele>1225.4</ele>
        <time>2017-10-21T13:50:50.000+02:00</time>
      </trkpt>
      <trkpt lat="48.09265" lon="7.06112">
        <ele>1225.5</ele>
        <time>2017-10-21T13:50:51.000+02:00</time>
      </trkpt>
      <trkpt lat="48.09268" lon="7.06112">
        <ele>1225.5</ele>
        <time>2017-10-21T13:50:52.000+02:00</time>
      </trkpt>
      <trkpt lat="48.0927" lon="7.06112">
        <ele>1225.6</ele>
        <time>2017-10-21T13:50:53.000+02:00</time>
      </trkpt>
      <trkpt lat="48.09272" lon="7.06113">
        <ele>1225.6</ele>
        <time>2017-10-21T13:50:54.000+02:00</time>
      </trkpt>
      <trkpt lat="48.09273" lon="7.06115">
        <ele>1225.5</ele>
        <time>2017-10-21T13:50:55.000+02:00</time>
      </trkpt>
      <trkpt lat="48.09274" lon="7.06116">
        <ele>1225.4</ele>
        <time>2017-10-21T13:50:55.000+02:00</time>
      </trkpt>
      <trkpt lat="48.09275" lon="7.06118">
        <ele>1225.3</ele>
        <time>2017-10-21T13:50:57.000+02:00</time>
      </trkpt>
      <trkpt lat="48.09277" lon="7.06119">
        <ele>1225.4</ele>
        <time>2017-10-21T13:50:58.000+02:00</time>
      </trkpt>
      <trkpt lat="48.09279" lon="7.0612">
        <ele>1225.3</ele>
        <time>2017-10-21T13:50:59.000+02:00</time>
      </trkpt>
      <trkpt lat="48.0928" lon="7.06122">
        <ele>1225.2</ele>
        <time>2017-10-21T13:51:00.000+02:00</time>
      </trkpt>
      <trkpt lat="48.09281" lon="7.06124">
        <ele>1225.1</ele>
        <time>2017-10-21T13:51:00.000+02:00</time>
      </trkpt>
      <trkpt lat="48.09283" lon="7.06126">
        <ele>1225</ele>
        <time>2017-10-21T13:51:01.000+02:00</time>
      </trkpt>
      <trkpt lat="48.09284" lon="7.0613">
        <ele>1224.8</ele>
        <time>2017-10-21T13:51:02.000+02:00</time>
      </trkpt>
      <trkpt lat="48.09286" lon="7.06133">
        <ele>1224.6</ele>
        <time>2017-10-21T13:51:04.000+02:00</time>
      </trkpt>
      <trkpt lat="48.09288" lon="7.06136">
        <ele>1224.5</ele>
        <time>2017-10-21T13:51:05.000+02:00</time>
      </trkpt>
      <trkpt lat="48.09289" lon="7.0614">
        <ele>1224.3</ele>
        <time>2017-10-21T13:51:06.000+02:00</time>
      </trkpt>
      <trkpt lat="48.09291" lon="7.06143">
        <ele>1224.2</ele>
        <time>2017-10-21T13:51:07.000+02:00</time>
      </trkpt>
      <trkpt lat="48.09294" lon="7.06147">
        <ele>1224.1</ele>
        <time>2017-10-21T13:51:09.000+02:00</time>
      </trkpt>
      <trkpt lat="48.09297" lon="7.06149">
        <ele>1224.1</ele>
        <time>2017-10-21T13:51:10.000+02:00</time>
      </trkpt>
      <trkpt lat="48.093" lon="7.0615">
        <ele>1224.3</ele>
        <time>2017-10-21T13:51:11.000+02:00</time>
      </trkpt>
      <trkpt lat="48.09303" lon="7.0615">
        <ele>1224.5</ele>
        <time>2017-10-21T13:51:12.000+02:00</time>
      </trkpt>
      <trkpt lat="48.09306" lon="7.0615">
        <ele>1224.7</ele>
        <time>2017-10-21T13:51:13.000+02:00</time>
      </trkpt>
      <trkpt lat="48.09309" lon="7.06149">
        <ele>1225</ele>
        <time>2017-10-21T13:51:15.000+02:00</time>
      </trkpt>
      <trkpt lat="48.09311" lon="7.06148">
        <ele>1225.2</ele>
        <time>2017-10-21T13:51:16.000+02:00</time>
      </trkpt>
      <trkpt lat="48.09314" lon="7.06147">
        <ele>1225.4</ele>
        <time>2017-10-21T13:51:20.000+02:00</time>
      </trkpt>
      <trkpt lat="48.09316" lon="7.06146">
        <ele>1225.6</ele>
        <time>2017-10-21T13:51:21.000+02:00</time>
      </trkpt>
      <trkpt lat="48.09319" lon="7.06145">
        <ele>1225.9</ele>
        <time>2017-10-21T13:51:22.000+02:00</time>
      </trkpt>
      <trkpt lat="48.09321" lon="7.06144">
        <ele>1226</ele>
        <time>2017-10-21T13:51:23.000+02:00</time>
      </trkpt>
      <trkpt lat="48.09324" lon="7.06144">
        <ele>1226.2</ele>
        <time>2017-10-21T13:51:24.000+02:00</time>
      </trkpt>
      <trkpt lat="48.09326" lon="7.06144">
        <ele>1226.4</ele>
        <time>2017-10-21T13:51:25.000+02:00</time>
      </trkpt>
      <trkpt lat="48.09329" lon="7.06144">
        <ele>1226.5</ele>
        <time>2017-10-21T13:51:26.000+02:00</time>
      </trkpt>
      <trkpt lat="48.09332" lon="7.06145">
        <ele>1226.7</ele>
        <time>2017-10-21T13:51:27.000+02:00</time>
      </trkpt>
      <trkpt lat="48.09334" lon="7.06145">
        <ele>1226.8</ele>
        <time>2017-10-21T13:51:31.000+02:00</time>
      </trkpt>
      <trkpt lat="48.09336" lon="7.06146">
        <ele>1226.8</ele>
        <time>2017-10-21T13:51:32.000+02:00</time>
      </trkpt>
      <trkpt lat="48.09339" lon="7.06147">
        <ele>1226.8</ele>
        <time>2017-10-21T13:51:33.000+02:00</time>
      </trkpt>
      <trkpt lat="48.09341" lon="7.06148">
        <ele>1226.9</ele>
        <time>2017-10-21T13:51:34.000+02:00</time>
      </trkpt>
      <trkpt lat="48.09343" lon="7.06149">
        <ele>1226.9</ele>
        <time>2017-10-21T13:51:35.000+02:00</time>
      </trkpt>
      <trkpt lat="48.09345" lon="7.06151">
        <ele>1226.9</ele>
        <time>2017-10-21T13:51:36.000+02:00</time>
      </trkpt>
      <trkpt lat="48.09346" lon="7.06152">
        <ele>1226.9</ele>
        <time>2017-10-21T13:51:37.000+02:00</time>
      </trkpt>
      <trkpt lat="48.09347" lon="7.06153">
        <ele>1226.9</ele>
        <time>2017-10-21T13:51:37.000+02:00</time>
      </trkpt>
      <trkpt lat="48.09347" lon="7.06153">
        <ele>1226.9</ele>
        <time>2017-10-21T13:51:37.000+02:00</time>
      </trkpt>
      <trkpt lat="48.09348" lon="7.06153">
        <ele>1226.9</ele>
        <time>2017-10-21T13:51:38.000+02:00</time>
      </trkpt>
      <trkpt lat="48.09349" lon="7.06153">
        <ele>1226.9</ele>
        <time>2017-10-21T13:51:38.000+02:00</time>
      </trkpt>
      <trkpt lat="48.09349" lon="7.06152">
        <ele>1227</ele>
        <time>2017-10-21T13:51:38.000+02:00</time>
      </trkpt>
      <trkpt lat="48.09349" lon="7.06151">
        <ele>1227</ele>
        <time>2017-10-21T13:51:39.000+02:00</time>
      </trkpt>
      <trkpt lat="48.09347" lon="7.06149">
        <ele>1227</ele>
        <time>2017-10-21T13:51:39.000+02:00</time>
      </trkpt>
      <trkpt lat="48.09345" lon="7.06147">
        <ele>1227</ele>
        <time>2017-10-21T13:51:40.000+02:00</time>
      </trkpt>
      <trkpt lat="48.09344" lon="7.06144">
        <ele>1227</ele>
        <time>2017-10-21T13:51:41.000+02:00</time>
      </trkpt>
      <trkpt lat="48.09342" lon="7.06141">
        <ele>1227.1</ele>
        <time>2017-10-21T13:51:42.000+02:00</time>
      </trkpt>
      <trkpt lat="48.09341" lon="7.06138">
        <ele>1227.2</ele>
        <time>2017-10-21T13:51:43.000+02:00</time>
      </trkpt>
      <trkpt lat="48.09341" lon="7.06137">
        <ele>1227.2</ele>
        <time>2017-10-21T13:51:46.000+02:00</time>
      </trkpt>
      <trkpt lat="48.09341" lon="7.06135">
        <ele>1227.3</ele>
        <time>2017-10-21T13:51:46.000+02:00</time>
      </trkpt>
      <trkpt lat="48.09341" lon="7.06135">
        <ele>1227.3</ele>
        <time>2017-10-21T13:51:46.000+02:00</time>
      </trkpt>
      <trkpt lat="48.09342" lon="7.06135">
        <ele>1227.3</ele>
        <time>2017-10-21T13:51:47.000+02:00</time>
      </trkpt>
      <trkpt lat="48.09342" lon="7.06135">
        <ele>1227.3</ele>
        <time>2017-10-21T13:51:47.000+02:00</time>
      </trkpt>
      <trkpt lat="48.09342" lon="7.06135">
        <ele>1227.3</ele>
        <time>2017-10-21T13:51:47.000+02:00</time>
      </trkpt>
      <trkpt lat="48.09342" lon="7.06135">
        <ele>1227.3</ele>
        <time>2017-10-21T13:51:47.000+02:00</time>
      </trkpt>
      <trkpt lat="48.09343" lon="7.06138">
        <ele>1227.2</ele>
        <time>2017-10-21T13:51:48.000+02:00</time>
      </trkpt>
      <trkpt lat="48.09343" lon="7.06142">
        <ele>1227.1</ele>
        <time>2017-10-21T13:51:50.000+02:00</time>
      </trkpt>
      <trkpt lat="48.09345" lon="7.06145">
        <ele>1227</ele>
        <time>2017-10-21T13:51:51.000+02:00</time>
      </trkpt>
      <trkpt lat="48.09347" lon="7.06149">
        <ele>1227</ele>
        <time>2017-10-21T13:51:53.000+02:00</time>
      </trkpt>
      <trkpt lat="48.09348" lon="7.06153">
        <ele>1226.9</ele>
        <time>2017-10-21T13:51:54.000+02:00</time>
      </trkpt>
      <trkpt lat="48.0935" lon="7.06156">
        <ele>1226.9</ele>
        <time>2017-10-21T13:51:55.000+02:00</time>
      </trkpt>
      <trkpt lat="48.09351" lon="7.06159">
        <ele>1226.8</ele>
        <time>2017-10-21T13:51:56.000+02:00</time>
      </trkpt>
      <trkpt lat="48.09353" lon="7.06161">
        <ele>1226.8</ele>
        <time>2017-10-21T13:51:57.000+02:00</time>
      </trkpt>
      <trkpt lat="48.09353" lon="7.06162">
        <ele>1226.8</ele>
        <time>2017-10-21T13:51:57.000+02:00</time>
      </trkpt>
      <trkpt lat="48.09353" lon="7.06162">
        <ele>1226.8</ele>
        <time>2017-10-21T13:51:57.000+02:00</time>
      </trkpt>
      <trkpt lat="48.09354" lon="7.06162">
        <ele>1226.9</ele>
        <time>2017-10-21T13:51:57.000+02:00</time>
      </trkpt>
      <trkpt lat="48.09354" lon="7.06162">
        <ele>1226.9</ele>
        <time>2017-10-21T13:51:57.000+02:00</time>
      </trkpt>
      <trkpt lat="48.09354" lon="7.06161">
        <ele>1226.9</ele>
        <time>2017-10-21T13:51:57.000+02:00</time>
      </trkpt>
      <trkpt lat="48.09354" lon="7.06161">
        <ele>1226.9</ele>
        <time>2017-10-21T13:51:57.000+02:00</time>
      </trkpt>
      <trkpt lat="48.09354" lon="7.06161">
        <ele>1226.9</ele>
        <time>2017-10-21T13:51:58.000+02:00</time>
      </trkpt>
      <trkpt lat="48.09354" lon="7.06161">
        <ele>1226.9</ele>
        <time>2017-10-21T13:51:58.000+02:00</time>
      </trkpt>
      <trkpt lat="48.09354" lon="7.06161">
        <ele>1226.9</ele>
        <time>2017-10-21T13:51:58.000+02:00</time>
      </trkpt>
      <trkpt lat="48.09353" lon="7.06159">
        <ele>1226.9</ele>
        <time>2017-10-21T13:51:58.000+02:00</time>
      </trkpt>
      <trkpt lat="48.09353" lon="7.06156">
        <ele>1227</ele>
        <time>2017-10-21T13:51:59.000+02:00</time>
      </trkpt>
      <trkpt lat="48.09355" lon="7.06154">
        <ele>1227.1</ele>
        <time>2017-10-21T13:52:00.000+02:00</time>
      </trkpt>
      <trkpt lat="48.09357" lon="7.06154">
        <ele>1227.1</ele>
        <time>2017-10-21T13:52:01.000+02:00</time>
      </trkpt>
      <trkpt lat="48.09359" lon="7.06154">
        <ele>1227.2</ele>
        <time>2017-10-21T13:52:01.000+02:00</time>
      </trkpt>
      <trkpt lat="48.09361" lon="7.06154">
        <ele>1227.3</ele>
        <time>2017-10-21T13:52:06.000+02:00</time>
      </trkpt>
      <trkpt lat="48.09363" lon="7.06154">
        <ele>1227.3</ele>
        <time>2017-10-21T13:52:06.000+02:00</time>
      </trkpt>
      <trkpt lat="48.09365" lon="7.06154">
        <ele>1227.4</ele>
        <time>2017-10-21T13:52:07.000+02:00</time>
      </trkpt>
      <trkpt lat="48.09367" lon="7.06155">
        <ele>1227.4</ele>
        <time>2017-10-21T13:52:08.000+02:00</time>
      </trkpt>
      <trkpt lat="48.09369" lon="7.06155">
        <ele>1227.5</ele>
        <time>2017-10-21T13:52:09.000+02:00</time>
      </trkpt>
      <trkpt lat="48.09371" lon="7.06156">
        <ele>1227.5</ele>
        <time>2017-10-21T13:52:10.000+02:00</time>
      </trkpt>
      <trkpt lat="48.09373" lon="7.06156">
        <ele>1227.6</ele>
        <time>2017-10-21T13:52:11.000+02:00</time>
      </trkpt>
      <trkpt lat="48.09376" lon="7.06156">
        <ele>1227.6</ele>
        <time>2017-10-21T13:52:11.000+02:00</time>
      </trkpt>
      <trkpt lat="48.09378" lon="7.06158">
        <ele>1227.7</ele>
        <time>2017-10-21T13:52:13.000+02:00</time>
      </trkpt>
      <trkpt lat="48.09381" lon="7.06159">
        <ele>1227.8</ele>
        <time>2017-10-21T13:52:14.000+02:00</time>
      </trkpt>
      <trkpt lat="48.09383" lon="7.06159">
        <ele>1227.8</ele>
        <time>2017-10-21T13:52:14.000+02:00</time>
      </trkpt>
      <trkpt lat="48.09385" lon="7.0616">
        <ele>1227.9</ele>
        <time>2017-10-21T13:52:15.000+02:00</time>
      </trkpt>
      <trkpt lat="48.09387" lon="7.06161">
        <ele>1228</ele>
        <time>2017-10-21T13:52:16.000+02:00</time>
      </trkpt>
      <trkpt lat="48.09389" lon="7.06162">
        <ele>1228</ele>
        <time>2017-10-21T13:52:17.000+02:00</time>
      </trkpt>
      <trkpt lat="48.09391" lon="7.06163">
        <ele>1228.1</ele>
        <time>2017-10-21T13:52:18.000+02:00</time>
      </trkpt>
      <trkpt lat="48.09392" lon="7.06163">
        <ele>1228.1</ele>
        <time>2017-10-21T13:52:18.000+02:00</time>
      </trkpt>
      <trkpt lat="48.09394" lon="7.06164">
        <ele>1228.2</ele>
        <time>2017-10-21T13:52:19.000+02:00</time>
      </trkpt>
      <trkpt lat="48.09395" lon="7.06165">
        <ele>1228.2</ele>
        <time>2017-10-21T13:52:20.000+02:00</time>
      </trkpt>
      <trkpt lat="48.09396" lon="7.06165">
        <ele>1228.3</ele>
        <time>2017-10-21T13:52:20.000+02:00</time>
      </trkpt>
      <trkpt lat="48.09398" lon="7.06166">
        <ele>1228.3</ele>
        <time>2017-10-21T13:52:21.000+02:00</time>
      </trkpt>
      <trkpt lat="48.09399" lon="7.06167">
        <ele>1228.4</ele>
        <time>2017-10-21T13:52:23.000+02:00</time>
      </trkpt>
      <trkpt lat="48.09401" lon="7.06168">
        <ele>1228.4</ele>
        <time>2017-10-21T13:52:23.000+02:00</time>
      </trkpt>
      <trkpt lat="48.09403" lon="7.06169">
        <ele>1228.4</ele>
        <time>2017-10-21T13:52:24.000+02:00</time>
      </trkpt>
      <trkpt lat="48.09404" lon="7.0617">
        <ele>1228.5</ele>
        <time>2017-10-21T13:52:28.000+02:00</time>
      </trkpt>
      <trkpt lat="48.09406" lon="7.06171">
        <ele>1228.5</ele>
        <time>2017-10-21T13:52:29.000+02:00</time>
      </trkpt>
      <trkpt lat="48.09407" lon="7.06171">
        <ele>1228.6</ele>
        <time>2017-10-21T13:52:29.000+02:00</time>
      </trkpt>
      <trkpt lat="48.09409" lon="7.06173">
        <ele>1228.6</ele>
        <time>2017-10-21T13:52:30.000+02:00</time>
      </trkpt>
      <trkpt lat="48.09411" lon="7.06174">
        <ele>1228.7</ele>
        <time>2017-10-21T13:52:31.000+02:00</time>
      </trkpt>
      <trkpt lat="48.09413" lon="7.06175">
        <ele>1228.7</ele>
        <time>2017-10-21T13:52:32.000+02:00</time>
      </trkpt>
      <trkpt lat="48.09415" lon="7.06177">
        <ele>1228.8</ele>
        <time>2017-10-21T13:52:32.000+02:00</time>
      </trkpt>
      <trkpt lat="48.09417" lon="7.06179">
        <ele>1228.9</ele>
        <time>2017-10-21T13:52:39.000+02:00</time>
      </trkpt>
      <trkpt lat="48.09419" lon="7.0618">
        <ele>1229.1</ele>
        <time>2017-10-21T13:52:40.000+02:00</time>
      </trkpt>
      <trkpt lat="48.0942" lon="7.06181">
        <ele>1229.2</ele>
        <time>2017-10-21T13:52:41.000+02:00</time>
      </trkpt>
      <trkpt lat="48.09422" lon="7.06182">
        <ele>1229.4</ele>
        <time>2017-10-21T13:52:41.000+02:00</time>
      </trkpt>
      <trkpt lat="48.09424" lon="7.06183">
        <ele>1229.7</ele>
        <time>2017-10-21T13:52:42.000+02:00</time>
      </trkpt>
      <trkpt lat="48.09426" lon="7.06184">
        <ele>1229.9</ele>
        <time>2017-10-21T13:52:43.000+02:00</time>
      </trkpt>
      <trkpt lat="48.09428" lon="7.06185">
        <ele>1230.1</ele>
        <time>2017-10-21T13:52:48.000+02:00</time>
      </trkpt>
      <trkpt lat="48.09431" lon="7.06185">
        <ele>1230.4</ele>
        <time>2017-10-21T13:52:49.000+02:00</time>
      </trkpt>
      <trkpt lat="48.09433" lon="7.06185">
        <ele>1230.7</ele>
        <time>2017-10-21T13:52:50.000+02:00</time>
      </trkpt>
      <trkpt lat="48.09436" lon="7.06186">
        <ele>1231</ele>
        <time>2017-10-21T13:52:50.000+02:00</time>
      </trkpt>
      <trkpt lat="48.09438" lon="7.06187">
        <ele>1231.2</ele>
        <time>2017-10-21T13:52:51.000+02:00</time>
      </trkpt>
      <trkpt lat="48.0944" lon="7.06188">
        <ele>1231.4</ele>
        <time>2017-10-21T13:52:52.000+02:00</time>
      </trkpt>
      <trkpt lat="48.09441" lon="7.06189">
        <ele>1231.6</ele>
        <time>2017-10-21T13:52:56.000+02:00</time>
      </trkpt>
      <trkpt lat="48.09443" lon="7.06189">
        <ele>1231.8</ele>
        <time>2017-10-21T13:52:57.000+02:00</time>
      </trkpt>
      <trkpt lat="48.09443" lon="7.0619">
        <ele>1231.9</ele>
        <time>2017-10-21T13:52:57.000+02:00</time>
      </trkpt>
      <trkpt lat="48.09445" lon="7.0619">
        <ele>1232</ele>
        <time>2017-10-21T13:52:57.000+02:00</time>
      </trkpt>
      <trkpt lat="48.09446" lon="7.06191">
        <ele>1232.1</ele>
        <time>2017-10-21T13:52:58.000+02:00</time>
      </trkpt>
      <trkpt lat="48.09446" lon="7.06191">
        <ele>1232.2</ele>
        <time>2017-10-21T13:52:58.000+02:00</time>
      </trkpt>
      <trkpt lat="48.09446" lon="7.06191">
        <ele>1232.2</ele>
        <time>2017-10-21T13:52:58.000+02:00</time>
      </trkpt>
      <trkpt lat="48.09447" lon="7.06192">
        <ele>1232.3</ele>
        <time>2017-10-21T13:52:59.000+02:00</time>
      </trkpt>
      <trkpt lat="48.09447" lon="7.06192">
        <ele>1232.3</ele>
        <time>2017-10-21T13:52:59.000+02:00</time>
      </trkpt>
      <trkpt lat="48.09448" lon="7.06192">
        <ele>1232.4</ele>
        <time>2017-10-21T13:52:59.000+02:00</time>
      </trkpt>
      <trkpt lat="48.09449" lon="7.06193">
        <ele>1232.5</ele>
        <time>2017-10-21T13:52:59.000+02:00</time>
      </trkpt>
      <trkpt lat="48.09449" lon="7.06194">
        <ele>1232.6</ele>
        <time>2017-10-21T13:53:00.000+02:00</time>
      </trkpt>
      <trkpt lat="48.0945" lon="7.06194">
        <ele>1232.7</ele>
        <time>2017-10-21T13:53:00.000+02:00</time>
      </trkpt>
      <trkpt lat="48.09451" lon="7.06195">
        <ele>1232.8</ele>
        <time>2017-10-21T13:53:00.000+02:00</time>
      </trkpt>
      <trkpt lat="48.09453" lon="7.06196">
        <ele>1233</ele>
        <time>2017-10-21T13:53:01.000+02:00</time>
      </trkpt>
      <trkpt lat="48.09455" lon="7.06198">
        <ele>1233.3</ele>
        <time>2017-10-21T13:53:05.000+02:00</time>
      </trkpt>
      <trkpt lat="48.09456" lon="7.06199">
        <ele>1233.5</ele>
        <time>2017-10-21T13:53:06.000+02:00</time>
      </trkpt>
      <trkpt lat="48.09457" lon="7.062">
        <ele>1233.6</ele>
        <time>2017-10-21T13:53:07.000+02:00</time>
      </trkpt>
      <trkpt lat="48.09459" lon="7.06201">
        <ele>1233.7</ele>
        <time>2017-10-21T13:53:07.000+02:00</time>
      </trkpt>
      <trkpt lat="48.0946" lon="7.06201">
        <ele>1233.9</ele>
        <time>2017-10-21T13:53:07.000+02:00</time>
      </trkpt>
      <trkpt lat="48.09461" lon="7.06202">
        <ele>1234.1</ele>
        <time>2017-10-21T13:53:08.000+02:00</time>
      </trkpt>
      <trkpt lat="48.09463" lon="7.06203">
        <ele>1234.2</ele>
        <time>2017-10-21T13:53:09.000+02:00</time>
      </trkpt>
      <trkpt lat="48.09464" lon="7.06204">
        <ele>1234.4</ele>
        <time>2017-10-21T13:53:09.000+02:00</time>
      </trkpt>
      <trkpt lat="48.09466" lon="7.06204">
        <ele>1234.6</ele>
        <time>2017-10-21T13:53:10.000+02:00</time>
      </trkpt>
      <trkpt lat="48.09467" lon="7.06204">
        <ele>1234.8</ele>
        <time>2017-10-21T13:53:11.000+02:00</time>
      </trkpt>
      <trkpt lat="48.09468" lon="7.06204">
        <ele>1234.9</ele>
        <time>2017-10-21T13:53:11.000+02:00</time>
      </trkpt>
      <trkpt lat="48.09469" lon="7.06204">
        <ele>1235.1</ele>
        <time>2017-10-21T13:53:11.000+02:00</time>
      </trkpt>
      <trkpt lat="48.0947" lon="7.06205">
        <ele>1235.2</ele>
        <time>2017-10-21T13:53:12.000+02:00</time>
      </trkpt>
      <trkpt lat="48.09471" lon="7.06206">
        <ele>1235.4</ele>
        <time>2017-10-21T13:53:15.000+02:00</time>
      </trkpt>
      <trkpt lat="48.09473" lon="7.06208">
        <ele>1235.5</ele>
        <time>2017-10-21T13:53:16.000+02:00</time>
      </trkpt>
      <trkpt lat="48.09474" lon="7.06209">
        <ele>1235.7</ele>
        <time>2017-10-21T13:53:16.000+02:00</time>
      </trkpt>
      <trkpt lat="48.09476" lon="7.0621">
        <ele>1236</ele>
        <time>2017-10-21T13:53:17.000+02:00</time>
      </trkpt>
      <trkpt lat="48.09478" lon="7.06211">
        <ele>1236.3</ele>
        <time>2017-10-21T13:53:18.000+02:00</time>
      </trkpt>
      <trkpt lat="48.0948" lon="7.06213">
        <ele>1236.5</ele>
        <time>2017-10-21T13:53:19.000+02:00</time>
      </trkpt>
      <trkpt lat="48.09481" lon="7.06214">
        <ele>1236.7</ele>
        <time>2017-10-21T13:53:19.000+02:00</time>
      </trkpt>
      <trkpt lat="48.09482" lon="7.06215">
        <ele>1236.9</ele>
        <time>2017-10-21T13:53:20.000+02:00</time>
      </trkpt>
      <trkpt lat="48.09484" lon="7.06215">
        <ele>1237.1</ele>
        <time>2017-10-21T13:53:20.000+02:00</time>
      </trkpt>
      <trkpt lat="48.09485" lon="7.06215">
        <ele>1237.2</ele>
        <time>2017-10-21T13:53:21.000+02:00</time>
      </trkpt>
      <trkpt lat="48.09487" lon="7.06216">
        <ele>1237.5</ele>
        <time>2017-10-21T13:53:25.000+02:00</time>
      </trkpt>
      <trkpt lat="48.09488" lon="7.06218">
        <ele>1237.7</ele>
        <time>2017-10-21T13:53:25.000+02:00</time>
      </trkpt>
      <trkpt lat="48.09489" lon="7.06219">
        <ele>1237.9</ele>
        <time>2017-10-21T13:53:26.000+02:00</time>
      </trkpt>
      <trkpt lat="48.0949" lon="7.06221">
        <ele>1238</ele>
        <time>2017-10-21T13:53:27.000+02:00</time>
      </trkpt>
      <trkpt lat="48.09492" lon="7.06221">
        <ele>1238.2</ele>
        <time>2017-10-21T13:53:27.000+02:00</time>
      </trkpt>
      <trkpt lat="48.09493" lon="7.06222">
        <ele>1238.5</ele>
        <time>2017-10-21T13:53:28.000+02:00</time>
      </trkpt>
      <trkpt lat="48.09495" lon="7.06222">
        <ele>1238.6</ele>
        <time>2017-10-21T13:53:28.000+02:00</time>
      </trkpt>
      <trkpt lat="48.09496" lon="7.06223">
        <ele>1238.8</ele>
        <time>2017-10-21T13:53:29.000+02:00</time>
      </trkpt>
      <trkpt lat="48.09497" lon="7.06224">
        <ele>1238.9</ele>
        <time>2017-10-21T13:53:29.000+02:00</time>
      </trkpt>
      <trkpt lat="48.09498" lon="7.06225">
        <ele>1239.1</ele>
        <time>2017-10-21T13:53:30.000+02:00</time>
      </trkpt>
      <trkpt lat="48.09499" lon="7.06226">
        <ele>1239.3</ele>
        <time>2017-10-21T13:53:30.000+02:00</time>
      </trkpt>
      <trkpt lat="48.095" lon="7.06226">
        <ele>1239.5</ele>
        <time>2017-10-21T13:53:39.000+02:00</time>
      </trkpt>
      <trkpt lat="48.09502" lon="7.06227">
        <ele>1239.6</ele>
        <time>2017-10-21T13:53:42.000+02:00</time>
      </trkpt>
      <trkpt lat="48.09504" lon="7.06226">
        <ele>1239.8</ele>
        <time>2017-10-21T13:53:43.000+02:00</time>
      </trkpt>
      <trkpt lat="48.09505" lon="7.06226">
        <ele>1239.9</ele>
        <time>2017-10-21T13:53:43.000+02:00</time>
      </trkpt>
      <trkpt lat="48.09507" lon="7.06225">
        <ele>1240.1</ele>
        <time>2017-10-21T13:53:44.000+02:00</time>
      </trkpt>
      <trkpt lat="48.09508" lon="7.06226">
        <ele>1240.2</ele>
        <time>2017-10-21T13:53:45.000+02:00</time>
      </trkpt>
      <trkpt lat="48.0951" lon="7.06226">
        <ele>1240.4</ele>
        <time>2017-10-21T13:53:45.000+02:00</time>
      </trkpt>
      <trkpt lat="48.09512" lon="7.06226">
        <ele>1240.7</ele>
        <time>2017-10-21T13:53:46.000+02:00</time>
      </trkpt>
      <trkpt lat="48.09514" lon="7.06227">
        <ele>1240.9</ele>
        <time>2017-10-21T13:53:47.000+02:00</time>
      </trkpt>
      <trkpt lat="48.09516" lon="7.06228">
        <ele>1241.1</ele>
        <time>2017-10-21T13:53:48.000+02:00</time>
      </trkpt>
      <trkpt lat="48.09517" lon="7.06228">
        <ele>1241.2</ele>
        <time>2017-10-21T13:53:48.000+02:00</time>
      </trkpt>
      <trkpt lat="48.09518" lon="7.06228">
        <ele>1241.4</ele>
        <time>2017-10-21T13:53:49.000+02:00</time>
      </trkpt>
      <trkpt lat="48.0952" lon="7.0623">
        <ele>1241.5</ele>
        <time>2017-10-21T13:53:49.000+02:00</time>
      </trkpt>
      <trkpt lat="48.09522" lon="7.06231">
        <ele>1241.8</ele>
        <time>2017-10-21T13:53:50.000+02:00</time>
      </trkpt>
      <trkpt lat="48.09523" lon="7.06233">
        <ele>1241.9</ele>
        <time>2017-10-21T13:53:51.000+02:00</time>
      </trkpt>
      <trkpt lat="48.09524" lon="7.06234">
        <ele>1242.1</ele>
        <time>2017-10-21T13:53:51.000+02:00</time>
      </trkpt>
      <trkpt lat="48.09525" lon="7.06235">
        <ele>1242.2</ele>
        <time>2017-10-21T13:53:52.000+02:00</time>
      </trkpt>
      <trkpt lat="48.09526" lon="7.06236">
        <ele>1242.4</ele>
        <time>2017-10-21T13:53:53.000+02:00</time>
      </trkpt>
      <trkpt lat="48.09528" lon="7.06237">
        <ele>1242.6</ele>
        <time>2017-10-21T13:53:56.000+02:00</time>
      </trkpt>
      <trkpt lat="48.09529" lon="7.06239">
        <ele>1242.8</ele>
        <time>2017-10-21T13:53:57.000+02:00</time>
      </trkpt>
      <trkpt lat="48.09531" lon="7.0624">
        <ele>1243</ele>
        <time>2017-10-21T13:53:57.000+02:00</time>
      </trkpt>
      <trkpt lat="48.09532" lon="7.0624">
        <ele>1243.1</ele>
        <time>2017-10-21T13:53:58.000+02:00</time>
      </trkpt>
      <trkpt lat="48.09533" lon="7.06241">
        <ele>1243.3</ele>
        <time>2017-10-21T13:53:59.000+02:00</time>
      </trkpt>
      <trkpt lat="48.09535" lon="7.06243">
        <ele>1243.5</ele>
        <time>2017-10-21T13:53:59.000+02:00</time>
      </trkpt>
      <trkpt lat="48.09536" lon="7.06245">
        <ele>1243.7</ele>
        <time>2017-10-21T13:54:00.000+02:00</time>
      </trkpt>
      <trkpt lat="48.09537" lon="7.06246">
        <ele>1243.8</ele>
        <time>2017-10-21T13:54:00.000+02:00</time>
      </trkpt>
      <trkpt lat="48.09538" lon="7.06247">
        <ele>1244</ele>
        <time>2017-10-21T13:54:01.000+02:00</time>
      </trkpt>
      <trkpt lat="48.09539" lon="7.06247">
        <ele>1244.1</ele>
        <time>2017-10-21T13:54:01.000+02:00</time>
      </trkpt>
      <trkpt lat="48.0954" lon="7.06248">
        <ele>1244.3</ele>
        <time>2017-10-21T13:54:02.000+02:00</time>
      </trkpt>
      <trkpt lat="48.09542" lon="7.06249">
        <ele>1244.5</ele>
        <time>2017-10-21T13:54:05.000+02:00</time>
      </trkpt>
      <trkpt lat="48.09543" lon="7.0625">
        <ele>1244.7</ele>
        <time>2017-10-21T13:54:10.000+02:00</time>
      </trkpt>
      <trkpt lat="48.09545" lon="7.06252">
        <ele>1244.9</ele>
        <time>2017-10-21T13:54:10.000+02:00</time>
      </trkpt>
      <trkpt lat="48.09547" lon="7.06253">
        <ele>1245.2</ele>
        <time>2017-10-21T13:54:11.000+02:00</time>
      </trkpt>
      <trkpt lat="48.09548" lon="7.06254">
        <ele>1245.5</ele>
        <time>2017-10-21T13:54:12.000+02:00</time>
      </trkpt>
      <trkpt lat="48.0955" lon="7.06255">
        <ele>1245.7</ele>
        <time>2017-10-21T13:54:16.000+02:00</time>
      </trkpt>
      <trkpt lat="48.09552" lon="7.06257">
        <ele>1246</ele>
        <time>2017-10-21T13:54:17.000+02:00</time>
      </trkpt>
      <trkpt lat="48.09553" lon="7.06257">
        <ele>1246.2</ele>
        <time>2017-10-21T13:54:17.000+02:00</time>
      </trkpt>
      <trkpt lat="48.09555" lon="7.06258">
        <ele>1246.4</ele>
        <time>2017-10-21T13:54:18.000+02:00</time>
      </trkpt>
      <trkpt lat="48.09556" lon="7.06259">
        <ele>1246.7</ele>
        <time>2017-10-21T13:54:18.000+02:00</time>
      </trkpt>
      <trkpt lat="48.09558" lon="7.0626">
        <ele>1246.9</ele>
        <time>2017-10-21T13:54:19.000+02:00</time>
      </trkpt>
      <trkpt lat="48.09559" lon="7.06261">
        <ele>1247.1</ele>
        <time>2017-10-21T13:54:20.000+02:00</time>
      </trkpt>
      <trkpt lat="48.0956" lon="7.06262">
        <ele>1247.4</ele>
        <time>2017-10-21T13:54:20.000+02:00</time>
      </trkpt>
      <trkpt lat="48.09562" lon="7.06263">
        <ele>1247.6</ele>
        <time>2017-10-21T13:54:21.000+02:00</time>
      </trkpt>
      <trkpt lat="48.09563" lon="7.06263">
        <ele>1247.8</ele>
        <time>2017-10-21T13:54:24.000+02:00</time>
      </trkpt>
      <trkpt lat="48.09564" lon="7.06264">
        <ele>1248.1</ele>
        <time>2017-10-21T13:54:25.000+02:00</time>
      </trkpt>
      <trkpt lat="48.09566" lon="7.06265">
        <ele>1248.2</ele>
        <time>2017-10-21T13:54:25.000+02:00</time>
      </trkpt>
      <trkpt lat="48.09566" lon="7.06266">
        <ele>1248.4</ele>
        <time>2017-10-21T13:54:26.000+02:00</time>
      </trkpt>
      <trkpt lat="48.09568" lon="7.06266">
        <ele>1248.6</ele>
        <time>2017-10-21T13:54:26.000+02:00</time>
      </trkpt>
      <trkpt lat="48.09569" lon="7.06267">
        <ele>1248.9</ele>
        <time>2017-10-21T13:54:27.000+02:00</time>
      </trkpt>
      <trkpt lat="48.0957" lon="7.06268">
        <ele>1249.1</ele>
        <time>2017-10-21T13:54:27.000+02:00</time>
      </trkpt>
      <trkpt lat="48.09571" lon="7.06269">
        <ele>1249.3</ele>
        <time>2017-10-21T13:54:28.000+02:00</time>
      </trkpt>
      <trkpt lat="48.09572" lon="7.06271">
        <ele>1249.5</ele>
        <time>2017-10-21T13:54:28.000+02:00</time>
      </trkpt>
      <trkpt lat="48.09572" lon="7.06273">
        <ele>1249.7</ele>
        <time>2017-10-21T13:54:29.000+02:00</time>
      </trkpt>
      <trkpt lat="48.09573" lon="7.06274">
        <ele>1250</ele>
        <time>2017-10-21T13:54:29.000+02:00</time>
      </trkpt>
      <trkpt lat="48.09575" lon="7.06275">
        <ele>1250.3</ele>
        <time>2017-10-21T13:54:30.000+02:00</time>
      </trkpt>
      <trkpt lat="48.09576" lon="7.06276">
        <ele>1250.5</ele>
        <time>2017-10-21T13:54:31.000+02:00</time>
      </trkpt>
      <trkpt lat="48.09577" lon="7.06276">
        <ele>1250.6</ele>
        <time>2017-10-21T13:54:31.000+02:00</time>
      </trkpt>
      <trkpt lat="48.09578" lon="7.06276">
        <ele>1250.8</ele>
        <time>2017-10-21T13:54:31.000+02:00</time>
      </trkpt>
      <trkpt lat="48.0958" lon="7.06277">
        <ele>1251</ele>
        <time>2017-10-21T13:54:32.000+02:00</time>
      </trkpt>
      <trkpt lat="48.09581" lon="7.06277">
        <ele>1251.3</ele>
        <time>2017-10-21T13:54:33.000+02:00</time>
      </trkpt>
      <trkpt lat="48.09583" lon="7.06278">
        <ele>1251.6</ele>
        <time>2017-10-21T13:54:33.000+02:00</time>
      </trkpt>
      <trkpt lat="48.09584" lon="7.06278">
        <ele>1251.8</ele>
        <time>2017-10-21T13:54:45.000+02:00</time>
      </trkpt>
      <trkpt lat="48.09585" lon="7.06279">
        <ele>1252</ele>
        <time>2017-10-21T13:54:46.000+02:00</time>
      </trkpt>
      <trkpt lat="48.09587" lon="7.06279">
        <ele>1252.2</ele>
        <time>2017-10-21T13:54:46.000+02:00</time>
      </trkpt>
      <trkpt lat="48.09589" lon="7.06279">
        <ele>1252.4</ele>
        <time>2017-10-21T13:54:47.000+02:00</time>
      </trkpt>
      <trkpt lat="48.09591" lon="7.06279">
        <ele>1252.6</ele>
        <time>2017-10-21T13:54:48.000+02:00</time>
      </trkpt>
      <trkpt lat="48.09592" lon="7.06279">
        <ele>1252.9</ele>
        <time>2017-10-21T13:54:48.000+02:00</time>
      </trkpt>
      <trkpt lat="48.09594" lon="7.06279">
        <ele>1253.1</ele>
        <time>2017-10-21T13:54:49.000+02:00</time>
      </trkpt>
      <trkpt lat="48.09595" lon="7.0628">
        <ele>1253.3</ele>
        <time>2017-10-21T13:54:52.000+02:00</time>
      </trkpt>
      <trkpt lat="48.09597" lon="7.06281">
        <ele>1253.6</ele>
        <time>2017-10-21T13:54:53.000+02:00</time>
      </trkpt>
      <trkpt lat="48.09598" lon="7.06281">
        <ele>1253.8</ele>
        <time>2017-10-21T13:54:53.000+02:00</time>
      </trkpt>
      <trkpt lat="48.096" lon="7.06281">
        <ele>1254</ele>
        <time>2017-10-21T13:54:54.000+02:00</time>
      </trkpt>
      <trkpt lat="48.09601" lon="7.06281">
        <ele>1254.2</ele>
        <time>2017-10-21T13:54:54.000+02:00</time>
      </trkpt>
      <trkpt lat="48.09602" lon="7.06282">
        <ele>1254.3</ele>
        <time>2017-10-21T13:54:55.000+02:00</time>
      </trkpt>
      <trkpt lat="48.09604" lon="7.06282">
        <ele>1254.6</ele>
        <time>2017-10-21T13:54:56.000+02:00</time>
      </trkpt>
      <trkpt lat="48.09605" lon="7.06283">
        <ele>1254.8</ele>
        <time>2017-10-21T13:54:56.000+02:00</time>
      </trkpt>
      <trkpt lat="48.09606" lon="7.06283">
        <ele>1255</ele>
        <time>2017-10-21T13:54:59.000+02:00</time>
      </trkpt>
      <trkpt lat="48.09607" lon="7.06284">
        <ele>1255.2</ele>
        <time>2017-10-21T13:54:59.000+02:00</time>
      </trkpt>
      <trkpt lat="48.09608" lon="7.06284">
        <ele>1255.4</ele>
        <time>2017-10-21T13:55:00.000+02:00</time>
      </trkpt>
      <trkpt lat="48.09609" lon="7.06284">
        <ele>1255.5</ele>
        <time>2017-10-21T13:55:00.000+02:00</time>
      </trkpt>
      <trkpt lat="48.0961" lon="7.06285">
        <ele>1255.7</ele>
        <time>2017-10-21T13:55:00.000+02:00</time>
      </trkpt>
      <trkpt lat="48.0961" lon="7.06284">
        <ele>1255.6</ele>
        <time>2017-10-21T13:55:01.000+02:00</time>
      </trkpt>
      <trkpt lat="48.0961" lon="7.06285">
        <ele>1255.7</ele>
        <time>2017-10-21T13:55:01.000+02:00</time>
      </trkpt>
      <trkpt lat="48.0961" lon="7.06285">
        <ele>1255.7</ele>
        <time>2017-10-21T13:55:01.000+02:00</time>
      </trkpt>
      <trkpt lat="48.0961" lon="7.06285">
        <ele>1255.7</ele>
        <time>2017-10-21T13:55:01.000+02:00</time>
      </trkpt>
      <trkpt lat="48.0961" lon="7.06285">
        <ele>1255.7</ele>
        <time>2017-10-21T13:55:01.000+02:00</time>
      </trkpt>
      <trkpt lat="48.09611" lon="7.06286">
        <ele>1255.9</ele>
        <time>2017-10-21T13:55:01.000+02:00</time>
      </trkpt>
      <trkpt lat="48.09612" lon="7.06286">
        <ele>1256</ele>
        <time>2017-10-21T13:55:02.000+02:00</time>
      </trkpt>
      <trkpt lat="48.09613" lon="7.06286">
        <ele>1256.2</ele>
        <time>2017-10-21T13:55:02.000+02:00</time>
      </trkpt>
      <trkpt lat="48.09613" lon="7.06287">
        <ele>1256.2</ele>
        <time>2017-10-21T13:55:02.000+02:00</time>
      </trkpt>
      <trkpt lat="48.09614" lon="7.06287">
        <ele>1256.3</ele>
        <time>2017-10-21T13:55:02.000+02:00</time>
      </trkpt>
      <trkpt lat="48.09614" lon="7.06287">
        <ele>1256.3</ele>
        <time>2017-10-21T13:55:02.000+02:00</time>
      </trkpt>
      <trkpt lat="48.09614" lon="7.06287">
        <ele>1256.4</ele>
        <time>2017-10-21T13:55:02.000+02:00</time>
      </trkpt>
      <trkpt lat="48.09614" lon="7.06288">
        <ele>1256.5</ele>
        <time>2017-10-21T13:55:03.000+02:00</time>
      </trkpt>
      <trkpt lat="48.09614" lon="7.06287">
        <ele>1256.5</ele>
        <time>2017-10-21T13:55:03.000+02:00</time>
      </trkpt>
      <trkpt lat="48.09615" lon="7.06288">
        <ele>1256.5</ele>
        <time>2017-10-21T13:55:03.000+02:00</time>
      </trkpt>
      <trkpt lat="48.09615" lon="7.06288">
        <ele>1256.6</ele>
        <time>2017-10-21T13:55:03.000+02:00</time>
      </trkpt>
      <trkpt lat="48.09615" lon="7.06288">
        <ele>1256.7</ele>
        <time>2017-10-21T13:55:03.000+02:00</time>
      </trkpt>
      <trkpt lat="48.09616" lon="7.06288">
        <ele>1256.8</ele>
        <time>2017-10-21T13:55:05.000+02:00</time>
      </trkpt>
      <trkpt lat="48.09617" lon="7.06289">
        <ele>1256.9</ele>
        <time>2017-10-21T13:55:06.000+02:00</time>
      </trkpt>
      <trkpt lat="48.09618" lon="7.06289">
        <ele>1257.1</ele>
        <time>2017-10-21T13:55:06.000+02:00</time>
      </trkpt>
      <trkpt lat="48.09619" lon="7.0629">
        <ele>1257.2</ele>
        <time>2017-10-21T13:55:06.000+02:00</time>
      </trkpt>
      <trkpt lat="48.09619" lon="7.0629">
        <ele>1257.4</ele>
        <time>2017-10-21T13:55:07.000+02:00</time>
      </trkpt>
      <trkpt lat="48.0962" lon="7.0629">
        <ele>1257.5</ele>
        <time>2017-10-21T13:55:07.000+02:00</time>
      </trkpt>
      <trkpt lat="48.09621" lon="7.06291">
        <ele>1257.6</ele>
        <time>2017-10-21T13:55:07.000+02:00</time>
      </trkpt>
      <trkpt lat="48.09622" lon="7.06292">
        <ele>1257.8</ele>
        <time>2017-10-21T13:55:08.000+02:00</time>
      </trkpt>
      <trkpt lat="48.09622" lon="7.06293">
        <ele>1258</ele>
        <time>2017-10-21T13:55:08.000+02:00</time>
      </trkpt>
      <trkpt lat="48.09623" lon="7.06293">
        <ele>1258.1</ele>
        <time>2017-10-21T13:55:08.000+02:00</time>
      </trkpt>
      <trkpt lat="48.09623" lon="7.06293">
        <ele>1258.2</ele>
        <time>2017-10-21T13:55:09.000+02:00</time>
      </trkpt>
      <trkpt lat="48.09624" lon="7.06294">
        <ele>1258.3</ele>
        <time>2017-10-21T13:55:09.000+02:00</time>
      </trkpt>
      <trkpt lat="48.09624" lon="7.06294">
        <ele>1258.4</ele>
        <time>2017-10-21T13:55:09.000+02:00</time>
      </trkpt>
      <trkpt lat="48.09625" lon="7.06295">
        <ele>1258.6</ele>
        <time>2017-10-21T13:55:09.000+02:00</time>
      </trkpt>
      <trkpt lat="48.09626" lon="7.06296">
        <ele>1258.9</ele>
        <time>2017-10-21T13:55:13.000+02:00</time>
      </trkpt>
      <trkpt lat="48.09627" lon="7.06297">
        <ele>1259.1</ele>
        <time>2017-10-21T13:55:13.000+02:00</time>
      </trkpt>
      <trkpt lat="48.09627" lon="7.06298">
        <ele>1259.2</ele>
        <time>2017-10-21T13:55:13.000+02:00</time>
      </trkpt>
      <trkpt lat="48.09628" lon="7.06299">
        <ele>1259.4</ele>
        <time>2017-10-21T13:55:13.000+02:00</time>
      </trkpt>
      <trkpt lat="48.09629" lon="7.063">
        <ele>1259.6</ele>
        <time>2017-10-21T13:55:14.000+02:00</time>
      </trkpt>
      <trkpt lat="48.09629" lon="7.06301">
        <ele>1259.7</ele>
        <time>2017-10-21T13:55:14.000+02:00</time>
      </trkpt>
      <trkpt lat="48.0963" lon="7.06302">
        <ele>1259.9</ele>
        <time>2017-10-21T13:55:15.000+02:00</time>
      </trkpt>
      <trkpt lat="48.0963" lon="7.06303">
        <ele>1260</ele>
        <time>2017-10-21T13:55:15.000+02:00</time>
      </trkpt>
      <trkpt lat="48.09631" lon="7.06303">
        <ele>1260.2</ele>
        <time>2017-10-21T13:55:15.000+02:00</time>
      </trkpt>
      <trkpt lat="48.09632" lon="7.06304">
        <ele>1260.4</ele>
        <time>2017-10-21T13:55:16.000+02:00</time>
      </trkpt>
      <trkpt lat="48.09633" lon="7.06305">
        <ele>1260.6</ele>
        <time>2017-10-21T13:55:16.000+02:00</time>
      </trkpt>
      <trkpt lat="48.09634" lon="7.06305">
        <ele>1260.7</ele>
        <time>2017-10-21T13:55:18.000+02:00</time>
      </trkpt>
      <trkpt lat="48.09634" lon="7.06306">
        <ele>1260.9</ele>
        <time>2017-10-21T13:55:19.000+02:00</time>
      </trkpt>
      <trkpt lat="48.09635" lon="7.06306">
        <ele>1261</ele>
        <time>2017-10-21T13:55:19.000+02:00</time>
      </trkpt>
      <trkpt lat="48.09636" lon="7.06307">
        <ele>1261.2</ele>
        <time>2017-10-21T13:55:19.000+02:00</time>
      </trkpt>
      <trkpt lat="48.09637" lon="7.06308">
        <ele>1261.4</ele>
        <time>2017-10-21T13:55:20.000+02:00</time>
      </trkpt>
      <trkpt lat="48.09638" lon="7.06309">
        <ele>1261.6</ele>
        <time>2017-10-21T13:55:20.000+02:00</time>
      </trkpt>
      <trkpt lat="48.09639" lon="7.06309">
        <ele>1261.8</ele>
        <time>2017-10-21T13:55:21.000+02:00</time>
      </trkpt>
      <trkpt lat="48.09639" lon="7.0631">
        <ele>1262</ele>
        <time>2017-10-21T13:55:21.000+02:00</time>
      </trkpt>
      <trkpt lat="48.0964" lon="7.06311">
        <ele>1262.1</ele>
        <time>2017-10-21T13:55:21.000+02:00</time>
      </trkpt>
      <trkpt lat="48.09641" lon="7.06312">
        <ele>1262.3</ele>
        <time>2017-10-21T13:55:23.000+02:00</time>
      </trkpt>
      <trkpt lat="48.09641" lon="7.06312">
        <ele>1262.4</ele>
        <time>2017-10-21T13:55:24.000+02:00</time>
      </trkpt>
      <trkpt lat="48.09642" lon="7.06312">
        <ele>1262.5</ele>
        <time>2017-10-21T13:55:24.000+02:00</time>
      </trkpt>
      <trkpt lat="48.09643" lon="7.06313">
        <ele>1262.7</ele>
        <time>2017-10-21T13:55:24.000+02:00</time>
      </trkpt>
      <trkpt lat="48.09643" lon="7.06314">
        <ele>1262.8</ele>
        <time>2017-10-21T13:55:25.000+02:00</time>
      </trkpt>
      <trkpt lat="48.09644" lon="7.06315">
        <ele>1263</ele>
        <time>2017-10-21T13:55:25.000+02:00</time>
      </trkpt>
      <trkpt lat="48.09644" lon="7.06315">
        <ele>1263.1</ele>
        <time>2017-10-21T13:55:25.000+02:00</time>
      </trkpt>
      <trkpt lat="48.09645" lon="7.06315">
        <ele>1263.2</ele>
        <time>2017-10-21T13:55:25.000+02:00</time>
      </trkpt>
      <trkpt lat="48.09645" lon="7.06316">
        <ele>1263.3</ele>
        <time>2017-10-21T13:55:26.000+02:00</time>
      </trkpt>
      <trkpt lat="48.09646" lon="7.06317">
        <ele>1263.5</ele>
        <time>2017-10-21T13:55:26.000+02:00</time>
      </trkpt>
      <trkpt lat="48.09646" lon="7.06317">
        <ele>1263.6</ele>
        <time>2017-10-21T13:55:28.000+02:00</time>
      </trkpt>
      <trkpt lat="48.09647" lon="7.06317">
        <ele>1263.7</ele>
        <time>2017-10-21T13:55:28.000+02:00</time>
      </trkpt>
      <trkpt lat="48.09647" lon="7.06318">
        <ele>1263.9</ele>
        <time>2017-10-21T13:55:28.000+02:00</time>
      </trkpt>
      <trkpt lat="48.09648" lon="7.06319">
        <ele>1264</ele>
        <time>2017-10-21T13:55:29.000+02:00</time>
      </trkpt>
      <trkpt lat="48.09649" lon="7.06319">
        <ele>1264.1</ele>
        <time>2017-10-21T13:55:29.000+02:00</time>
      </trkpt>
      <trkpt lat="48.0965" lon="7.0632">
        <ele>1264.3</ele>
        <time>2017-10-21T13:55:29.000+02:00</time>
      </trkpt>
      <trkpt lat="48.09651" lon="7.0632">
        <ele>1264.4</ele>
        <time>2017-10-21T13:55:30.000+02:00</time>
      </trkpt>
      <trkpt lat="48.09652" lon="7.0632">
        <ele>1264.6</ele>
        <time>2017-10-21T13:55:32.000+02:00</time>
      </trkpt>
      <trkpt lat="48.09652" lon="7.06321">
        <ele>1264.8</ele>
        <time>2017-10-21T13:55:33.000+02:00</time>
      </trkpt>
      <trkpt lat="48.09653" lon="7.06321">
        <ele>1264.9</ele>
        <time>2017-10-21T13:55:33.000+02:00</time>
      </trkpt>
      <trkpt lat="48.09654" lon="7.06321">
        <ele>1265</ele>
        <time>2017-10-21T13:55:33.000+02:00</time>
      </trkpt>
      <trkpt lat="48.09655" lon="7.06321">
        <ele>1265.1</ele>
        <time>2017-10-21T13:55:34.000+02:00</time>
      </trkpt>
      <trkpt lat="48.09656" lon="7.06321">
        <ele>1265.3</ele>
        <time>2017-10-21T13:55:34.000+02:00</time>
      </trkpt>
      <trkpt lat="48.09657" lon="7.06321">
        <ele>1265.4</ele>
        <time>2017-10-21T13:55:34.000+02:00</time>
      </trkpt>
      <trkpt lat="48.09658" lon="7.06321">
        <ele>1265.5</ele>
        <time>2017-10-21T13:55:37.000+02:00</time>
      </trkpt>
      <trkpt lat="48.09659" lon="7.06322">
        <ele>1265.7</ele>
        <time>2017-10-21T13:55:37.000+02:00</time>
      </trkpt>
      <trkpt lat="48.0966" lon="7.06321">
        <ele>1265.8</ele>
        <time>2017-10-21T13:55:37.000+02:00</time>
      </trkpt>
      <trkpt lat="48.0966" lon="7.06322">
        <ele>1265.9</ele>
        <time>2017-10-21T13:55:38.000+02:00</time>
      </trkpt>
      <trkpt lat="48.09661" lon="7.06322">
        <ele>1266</ele>
        <time>2017-10-21T13:55:38.000+02:00</time>
      </trkpt>
      <trkpt lat="48.09661" lon="7.06322">
        <ele>1265.9</ele>
        <time>2017-10-21T13:55:38.000+02:00</time>
      </trkpt>
      <trkpt lat="48.09661" lon="7.06322">
        <ele>1266.1</ele>
        <time>2017-10-21T13:55:38.000+02:00</time>
      </trkpt>
      <trkpt lat="48.09662" lon="7.06323">
        <ele>1266.2</ele>
        <time>2017-10-21T13:55:39.000+02:00</time>
      </trkpt>
      <trkpt lat="48.09663" lon="7.06324">
        <ele>1266.4</ele>
        <time>2017-10-21T13:55:41.000+02:00</time>
      </trkpt>
      <trkpt lat="48.09663" lon="7.06324">
        <ele>1266.6</ele>
        <time>2017-10-21T13:55:41.000+02:00</time>
      </trkpt>
      <trkpt lat="48.09664" lon="7.06325">
        <ele>1266.7</ele>
        <time>2017-10-21T13:55:42.000+02:00</time>
      </trkpt>
      <trkpt lat="48.09664" lon="7.06325">
        <ele>1266.8</ele>
        <time>2017-10-21T13:55:42.000+02:00</time>
      </trkpt>
      <trkpt lat="48.09665" lon="7.06326">
        <ele>1266.9</ele>
        <time>2017-10-21T13:55:42.000+02:00</time>
      </trkpt>
      <trkpt lat="48.09665" lon="7.06325">
        <ele>1266.9</ele>
        <time>2017-10-21T13:55:42.000+02:00</time>
      </trkpt>
      <trkpt lat="48.09665" lon="7.06326">
        <ele>1267</ele>
        <time>2017-10-21T13:55:43.000+02:00</time>
      </trkpt>
      <trkpt lat="48.09666" lon="7.06326">
        <ele>1267.1</ele>
        <time>2017-10-21T13:55:43.000+02:00</time>
      </trkpt>
      <trkpt lat="48.09667" lon="7.06325">
        <ele>1267.1</ele>
        <time>2017-10-21T13:55:48.000+02:00</time>
      </trkpt>
      <trkpt lat="48.09667" lon="7.06326">
        <ele>1267.3</ele>
        <time>2017-10-21T13:55:48.000+02:00</time>
      </trkpt>
      <trkpt lat="48.09668" lon="7.06326">
        <ele>1267.4</ele>
        <time>2017-10-21T13:55:48.000+02:00</time>
      </trkpt>
      <trkpt lat="48.09669" lon="7.06327">
        <ele>1267.5</ele>
        <time>2017-10-21T13:55:49.000+02:00</time>
      </trkpt>
      <trkpt lat="48.09669" lon="7.06327">
        <ele>1267.7</ele>
        <time>2017-10-21T13:55:49.000+02:00</time>
      </trkpt>
      <trkpt lat="48.0967" lon="7.06328">
        <ele>1267.8</ele>
        <time>2017-10-21T13:55:49.000+02:00</time>
      </trkpt>
      <trkpt lat="48.09671" lon="7.06328">
        <ele>1268</ele>
        <time>2017-10-21T13:55:50.000+02:00</time>
      </trkpt>
      <trkpt lat="48.09671" lon="7.06328">
        <ele>1268.1</ele>
        <time>2017-10-21T13:55:50.000+02:00</time>
      </trkpt>
      <trkpt lat="48.09672" lon="7.06328">
        <ele>1268.2</ele>
        <time>2017-10-21T13:55:50.000+02:00</time>
      </trkpt>
      <trkpt lat="48.09673" lon="7.06328">
        <ele>1268.3</ele>
        <time>2017-10-21T13:55:50.000+02:00</time>
      </trkpt>
      <trkpt lat="48.09673" lon="7.06329">
        <ele>1268.4</ele>
        <time>2017-10-21T13:55:51.000+02:00</time>
      </trkpt>
      <trkpt lat="48.09674" lon="7.06329">
        <ele>1268.6</ele>
        <time>2017-10-21T13:55:51.000+02:00</time>
      </trkpt>
      <trkpt lat="48.09675" lon="7.0633">
        <ele>1268.8</ele>
        <time>2017-10-21T13:55:51.000+02:00</time>
      </trkpt>
      <trkpt lat="48.09675" lon="7.06331">
        <ele>1268.9</ele>
        <time>2017-10-21T13:55:51.000+02:00</time>
      </trkpt>
      <trkpt lat="48.09675" lon="7.06331">
        <ele>1269</ele>
        <time>2017-10-21T13:55:52.000+02:00</time>
      </trkpt>
      <trkpt lat="48.09676" lon="7.06332">
        <ele>1269.2</ele>
        <time>2017-10-21T13:55:52.000+02:00</time>
      </trkpt>
      <trkpt lat="48.09677" lon="7.06332">
        <ele>1269.4</ele>
        <time>2017-10-21T13:55:54.000+02:00</time>
      </trkpt>
      <trkpt lat="48.09678" lon="7.06332">
        <ele>1269.5</ele>
        <time>2017-10-21T13:55:55.000+02:00</time>
      </trkpt>
      <trkpt lat="48.09678" lon="7.06332">
        <ele>1269.6</ele>
        <time>2017-10-21T13:55:55.000+02:00</time>
      </trkpt>
      <trkpt lat="48.09679" lon="7.06333">
        <ele>1269.7</ele>
        <time>2017-10-21T13:55:55.000+02:00</time>
      </trkpt>
      <trkpt lat="48.09679" lon="7.06333">
        <ele>1269.8</ele>
        <time>2017-10-21T13:55:55.000+02:00</time>
      </trkpt>
      <trkpt lat="48.0968" lon="7.06334">
        <ele>1270</ele>
        <time>2017-10-21T13:56:01.000+02:00</time>
      </trkpt>
      <trkpt lat="48.09681" lon="7.06335">
        <ele>1270.1</ele>
        <time>2017-10-21T13:56:01.000+02:00</time>
      </trkpt>
      <trkpt lat="48.09682" lon="7.06335">
        <ele>1270.3</ele>
        <time>2017-10-21T13:56:01.000+02:00</time>
      </trkpt>
      <trkpt lat="48.09682" lon="7.06336">
        <ele>1270.4</ele>
        <time>2017-10-21T13:56:02.000+02:00</time>
      </trkpt>
      <trkpt lat="48.09682" lon="7.06336">
        <ele>1270.4</ele>
        <time>2017-10-21T13:56:02.000+02:00</time>
      </trkpt>
      <trkpt lat="48.09683" lon="7.06337">
        <ele>1270.5</ele>
        <time>2017-10-21T13:56:02.000+02:00</time>
      </trkpt>
      <trkpt lat="48.09683" lon="7.06337">
        <ele>1270.7</ele>
        <time>2017-10-21T13:56:02.000+02:00</time>
      </trkpt>
      <trkpt lat="48.09684" lon="7.06337">
        <ele>1270.8</ele>
        <time>2017-10-21T13:56:04.000+02:00</time>
      </trkpt>
      <trkpt lat="48.09685" lon="7.06338">
        <ele>1270.9</ele>
        <time>2017-10-21T13:56:05.000+02:00</time>
      </trkpt>
      <trkpt lat="48.09685" lon="7.06338">
        <ele>1271.1</ele>
        <time>2017-10-21T13:56:05.000+02:00</time>
      </trkpt>
      <trkpt lat="48.09686" lon="7.06338">
        <ele>1271.2</ele>
        <time>2017-10-21T13:56:05.000+02:00</time>
      </trkpt>
      <trkpt lat="48.09687" lon="7.06338">
        <ele>1271.3</ele>
        <time>2017-10-21T13:56:05.000+02:00</time>
      </trkpt>
      <trkpt lat="48.09688" lon="7.06338">
        <ele>1271.4</ele>
        <time>2017-10-21T13:56:06.000+02:00</time>
      </trkpt>
      <trkpt lat="48.09689" lon="7.06339">
        <ele>1271.6</ele>
        <time>2017-10-21T13:56:06.000+02:00</time>
      </trkpt>
      <trkpt lat="48.0969" lon="7.06339">
        <ele>1271.8</ele>
        <time>2017-10-21T13:56:09.000+02:00</time>
      </trkpt>
      <trkpt lat="48.0969" lon="7.0634">
        <ele>1271.9</ele>
        <time>2017-10-21T13:56:09.000+02:00</time>
      </trkpt>
      <trkpt lat="48.09691" lon="7.06341">
        <ele>1272.1</ele>
        <time>2017-10-21T13:56:09.000+02:00</time>
      </trkpt>
      <trkpt lat="48.09692" lon="7.06342">
        <ele>1272.2</ele>
        <time>2017-10-21T13:56:10.000+02:00</time>
      </trkpt>
      <trkpt lat="48.09693" lon="7.06341">
        <ele>1272.3</ele>
        <time>2017-10-21T13:56:10.000+02:00</time>
      </trkpt>
      <trkpt lat="48.09693" lon="7.06341">
        <ele>1272.4</ele>
        <time>2017-10-21T13:56:10.000+02:00</time>
      </trkpt>
      <trkpt lat="48.09694" lon="7.06341">
        <ele>1272.5</ele>
        <time>2017-10-21T13:56:11.000+02:00</time>
      </trkpt>
      <trkpt lat="48.09695" lon="7.06341">
        <ele>1272.6</ele>
        <time>2017-10-21T13:56:11.000+02:00</time>
      </trkpt>
      <trkpt lat="48.09695" lon="7.06341">
        <ele>1272.7</ele>
        <time>2017-10-21T13:56:13.000+02:00</time>
      </trkpt>
      <trkpt lat="48.09696" lon="7.06342">
        <ele>1272.9</ele>
        <time>2017-10-21T13:56:13.000+02:00</time>
      </trkpt>
      <trkpt lat="48.09697" lon="7.06342">
        <ele>1273</ele>
        <time>2017-10-21T13:56:14.000+02:00</time>
      </trkpt>
      <trkpt lat="48.09698" lon="7.06342">
        <ele>1273.2</ele>
        <time>2017-10-21T13:56:14.000+02:00</time>
      </trkpt>
      <trkpt lat="48.09699" lon="7.06343">
        <ele>1273.3</ele>
        <time>2017-10-21T13:56:14.000+02:00</time>
      </trkpt>
      <trkpt lat="48.09699" lon="7.06344">
        <ele>1273.5</ele>
        <time>2017-10-21T13:56:15.000+02:00</time>
      </trkpt>
      <trkpt lat="48.097" lon="7.06344">
        <ele>1273.6</ele>
        <time>2017-10-21T13:56:15.000+02:00</time>
      </trkpt>
      <trkpt lat="48.09701" lon="7.06345">
        <ele>1273.8</ele>
        <time>2017-10-21T13:56:15.000+02:00</time>
      </trkpt>
      <trkpt lat="48.09702" lon="7.06346">
        <ele>1274</ele>
        <time>2017-10-21T13:56:16.000+02:00</time>
      </trkpt>
      <trkpt lat="48.09703" lon="7.06346">
        <ele>1274.1</ele>
        <time>2017-10-21T13:56:18.000+02:00</time>
      </trkpt>
      <trkpt lat="48.09702" lon="7.06346">
        <ele>1274.1</ele>
        <time>2017-10-21T13:56:19.000+02:00</time>
      </trkpt>
      <trkpt lat="48.09703" lon="7.06347">
        <ele>1274.2</ele>
        <time>2017-10-21T13:56:21.000+02:00</time>
      </trkpt>
      <trkpt lat="48.09704" lon="7.06347">
        <ele>1274.4</ele>
        <time>2017-10-21T13:56:22.000+02:00</time>
      </trkpt>
      <trkpt lat="48.09705" lon="7.06347">
        <ele>1274.6</ele>
        <time>2017-10-21T13:56:22.000+02:00</time>
      </trkpt>
      <trkpt lat="48.09706" lon="7.06348">
        <ele>1274.7</ele>
        <time>2017-10-21T13:56:22.000+02:00</time>
      </trkpt>
      <trkpt lat="48.09707" lon="7.06348">
        <ele>1274.8</ele>
        <time>2017-10-21T13:56:23.000+02:00</time>
      </trkpt>
      <trkpt lat="48.09707" lon="7.06349">
        <ele>1275</ele>
        <time>2017-10-21T13:56:23.000+02:00</time>
      </trkpt>
      <trkpt lat="48.09708" lon="7.06349">
        <ele>1275.1</ele>
        <time>2017-10-21T13:56:23.000+02:00</time>
      </trkpt>
      <trkpt lat="48.09709" lon="7.0635">
        <ele>1275.2</ele>
        <time>2017-10-21T13:56:24.000+02:00</time>
      </trkpt>
      <trkpt lat="48.09709" lon="7.06351">
        <ele>1275.4</ele>
        <time>2017-10-21T13:56:24.000+02:00</time>
      </trkpt>
      <trkpt lat="48.0971" lon="7.06351">
        <ele>1275.5</ele>
        <time>2017-10-21T13:56:24.000+02:00</time>
      </trkpt>
      <trkpt lat="48.09711" lon="7.06352">
        <ele>1275.7</ele>
        <time>2017-10-21T13:56:25.000+02:00</time>
      </trkpt>
      <trkpt lat="48.09711" lon="7.06352">
        <ele>1275.8</ele>
        <time>2017-10-21T13:56:25.000+02:00</time>
      </trkpt>
      <trkpt lat="48.09712" lon="7.06353">
        <ele>1275.9</ele>
        <time>2017-10-21T13:56:27.000+02:00</time>
      </trkpt>
      <trkpt lat="48.09713" lon="7.06354">
        <ele>1276.1</ele>
        <time>2017-10-21T13:56:27.000+02:00</time>
      </trkpt>
      <trkpt lat="48.09714" lon="7.06354">
        <ele>1276.2</ele>
        <time>2017-10-21T13:56:28.000+02:00</time>
      </trkpt>
      <trkpt lat="48.09714" lon="7.06355">
        <ele>1276.4</ele>
        <time>2017-10-21T13:56:28.000+02:00</time>
      </trkpt>
      <trkpt lat="48.09715" lon="7.06355">
        <ele>1276.5</ele>
        <time>2017-10-21T13:56:29.000+02:00</time>
      </trkpt>
      <trkpt lat="48.09716" lon="7.06356">
        <ele>1276.6</ele>
        <time>2017-10-21T13:56:29.000+02:00</time>
      </trkpt>
      <trkpt lat="48.09716" lon="7.06357">
        <ele>1276.8</ele>
        <time>2017-10-21T13:56:29.000+02:00</time>
      </trkpt>
      <trkpt lat="48.09717" lon="7.06357">
        <ele>1276.9</ele>
        <time>2017-10-21T13:56:30.000+02:00</time>
      </trkpt>
      <trkpt lat="48.09718" lon="7.06358">
        <ele>1277.1</ele>
        <time>2017-10-21T13:56:30.000+02:00</time>
      </trkpt>
      <trkpt lat="48.09719" lon="7.06358">
        <ele>1277.2</ele>
        <time>2017-10-21T13:56:30.000+02:00</time>
      </trkpt>
      <trkpt lat="48.0972" lon="7.06359">
        <ele>1277.4</ele>
        <time>2017-10-21T13:56:31.000+02:00</time>
      </trkpt>
      <trkpt lat="48.0972" lon="7.06359">
        <ele>1277.5</ele>
        <time>2017-10-21T13:56:31.000+02:00</time>
      </trkpt>
      <trkpt lat="48.09721" lon="7.0636">
        <ele>1277.7</ele>
        <time>2017-10-21T13:56:31.000+02:00</time>
      </trkpt>
      <trkpt lat="48.09723" lon="7.0636">
        <ele>1277.9</ele>
        <time>2017-10-21T13:56:34.000+02:00</time>
      </trkpt>
      <trkpt lat="48.09724" lon="7.06361">
        <ele>1278.1</ele>
        <time>2017-10-21T13:56:35.000+02:00</time>
      </trkpt>
      <trkpt lat="48.09725" lon="7.06361">
        <ele>1278.2</ele>
        <time>2017-10-21T13:56:35.000+02:00</time>
      </trkpt>
      <trkpt lat="48.09726" lon="7.06361">
        <ele>1278.4</ele>
        <time>2017-10-21T13:56:36.000+02:00</time>
      </trkpt>
      <trkpt lat="48.09727" lon="7.06362">
        <ele>1278.5</ele>
        <time>2017-10-21T13:56:36.000+02:00</time>
      </trkpt>
      <trkpt lat="48.09728" lon="7.06362">
        <ele>1278.7</ele>
        <time>2017-10-21T13:56:36.000+02:00</time>
      </trkpt>
      <trkpt lat="48.09729" lon="7.06362">
        <ele>1278.8</ele>
        <time>2017-10-21T13:56:37.000+02:00</time>
      </trkpt>
      <trkpt lat="48.09729" lon="7.06363">
        <ele>1279</ele>
        <time>2017-10-21T13:56:37.000+02:00</time>
      </trkpt>
      <trkpt lat="48.0973" lon="7.06363">
        <ele>1279.1</ele>
        <time>2017-10-21T13:56:37.000+02:00</time>
      </trkpt>
      <trkpt lat="48.09731" lon="7.06364">
        <ele>1279.2</ele>
        <time>2017-10-21T13:56:38.000+02:00</time>
      </trkpt>
      <trkpt lat="48.09731" lon="7.06364">
        <ele>1279.3</ele>
        <time>2017-10-21T13:56:38.000+02:00</time>
      </trkpt>
      <trkpt lat="48.09732" lon="7.06365">
        <ele>1279.5</ele>
        <time>2017-10-21T13:56:38.000+02:00</time>
      </trkpt>
      <trkpt lat="48.09732" lon="7.06365">
        <ele>1279.5</ele>
        <time>2017-10-21T13:56:39.000+02:00</time>
      </trkpt>
      <trkpt lat="48.09733" lon="7.06366">
        <ele>1279.7</ele>
        <time>2017-10-21T13:56:39.000+02:00</time>
      </trkpt>
      <trkpt lat="48.09734" lon="7.06366">
        <ele>1279.8</ele>
        <time>2017-10-21T13:56:39.000+02:00</time>
      </trkpt>
      <trkpt lat="48.09735" lon="7.06367">
        <ele>1280</ele>
        <time>2017-10-21T13:56:40.000+02:00</time>
      </trkpt>
      <trkpt lat="48.09736" lon="7.06367">
        <ele>1280.1</ele>
        <time>2017-10-21T13:56:40.000+02:00</time>
      </trkpt>
      <trkpt lat="48.09736" lon="7.06368">
        <ele>1280.2</ele>
        <time>2017-10-21T13:56:40.000+02:00</time>
      </trkpt>
      <trkpt lat="48.09737" lon="7.06368">
        <ele>1280.3</ele>
        <time>2017-10-21T13:56:40.000+02:00</time>
      </trkpt>
      <trkpt lat="48.09738" lon="7.06369">
        <ele>1280.5</ele>
        <time>2017-10-21T13:56:41.000+02:00</time>
      </trkpt>
      <trkpt lat="48.09738" lon="7.0637">
        <ele>1280.6</ele>
        <time>2017-10-21T13:56:43.000+02:00</time>
      </trkpt>
      <trkpt lat="48.09738" lon="7.0637">
        <ele>1280.7</ele>
        <time>2017-10-21T13:56:43.000+02:00</time>
      </trkpt>
      <trkpt lat="48.09739" lon="7.06371">
        <ele>1280.8</ele>
        <time>2017-10-21T13:56:43.000+02:00</time>
      </trkpt>
      <trkpt lat="48.0974" lon="7.06372">
        <ele>1280.9</ele>
        <time>2017-10-21T13:56:44.000+02:00</time>
      </trkpt>
      <trkpt lat="48.0974" lon="7.06372">
        <ele>1281</ele>
        <time>2017-10-21T13:56:44.000+02:00</time>
      </trkpt>
      <trkpt lat="48.09741" lon="7.06373">
        <ele>1281.2</ele>
        <time>2017-10-21T13:56:44.000+02:00</time>
      </trkpt>
      <trkpt lat="48.09742" lon="7.06374">
        <ele>1281.4</ele>
        <time>2017-10-21T13:56:45.000+02:00</time>
      </trkpt>
      <trkpt lat="48.09743" lon="7.06375">
        <ele>1281.5</ele>
        <time>2017-10-21T13:56:45.000+02:00</time>
      </trkpt>
      <trkpt lat="48.09743" lon="7.06375">
        <ele>1281.6</ele>
        <time>2017-10-21T13:56:45.000+02:00</time>
      </trkpt>
      <trkpt lat="48.09744" lon="7.06376">
        <ele>1281.8</ele>
        <time>2017-10-21T13:56:46.000+02:00</time>
      </trkpt>
      <trkpt lat="48.09745" lon="7.06376">
        <ele>1281.9</ele>
        <time>2017-10-21T13:56:46.000+02:00</time>
      </trkpt>
      <trkpt lat="48.09746" lon="7.06377">
        <ele>1282.1</ele>
        <time>2017-10-21T13:56:47.000+02:00</time>
      </trkpt>
      <trkpt lat="48.09746" lon="7.06378">
        <ele>1282.2</ele>
        <time>2017-10-21T13:56:47.000+02:00</time>
      </trkpt>
      <trkpt lat="48.09747" lon="7.06379">
        <ele>1282.3</ele>
        <time>2017-10-21T13:56:47.000+02:00</time>
      </trkpt>
      <trkpt lat="48.09748" lon="7.06379">
        <ele>1282.5</ele>
        <time>2017-10-21T13:56:48.000+02:00</time>
      </trkpt>
      <trkpt lat="48.09749" lon="7.0638">
        <ele>1282.6</ele>
        <time>2017-10-21T13:56:48.000+02:00</time>
      </trkpt>
      <trkpt lat="48.0975" lon="7.0638">
        <ele>1282.8</ele>
        <time>2017-10-21T13:56:48.000+02:00</time>
      </trkpt>
      <trkpt lat="48.0975" lon="7.06381">
        <ele>1282.9</ele>
        <time>2017-10-21T13:56:58.000+02:00</time>
      </trkpt>
      <trkpt lat="48.09751" lon="7.06381">
        <ele>1283</ele>
        <time>2017-10-21T13:56:59.000+02:00</time>
      </trkpt>
      <trkpt lat="48.09752" lon="7.06382">
        <ele>1283.1</ele>
        <time>2017-10-21T13:56:59.000+02:00</time>
      </trkpt>
      <trkpt lat="48.09753" lon="7.06383">
        <ele>1283.2</ele>
        <time>2017-10-21T13:56:59.000+02:00</time>
      </trkpt>
      <trkpt lat="48.09754" lon="7.06383">
        <ele>1283.3</ele>
        <time>2017-10-21T13:57:00.000+02:00</time>
      </trkpt>
      <trkpt lat="48.09755" lon="7.06384">
        <ele>1283.4</ele>
        <time>2017-10-21T13:57:00.000+02:00</time>
      </trkpt>
      <trkpt lat="48.09755" lon="7.06385">
        <ele>1283.5</ele>
        <time>2017-10-21T13:57:00.000+02:00</time>
      </trkpt>
      <trkpt lat="48.09756" lon="7.06386">
        <ele>1283.6</ele>
        <time>2017-10-21T13:57:01.000+02:00</time>
      </trkpt>
      <trkpt lat="48.09756" lon="7.06386">
        <ele>1283.6</ele>
        <time>2017-10-21T13:57:01.000+02:00</time>
      </trkpt>
      <trkpt lat="48.09757" lon="7.06386">
        <ele>1283.7</ele>
        <time>2017-10-21T13:57:01.000+02:00</time>
      </trkpt>
      <trkpt lat="48.09758" lon="7.06387">
        <ele>1283.8</ele>
        <time>2017-10-21T13:57:02.000+02:00</time>
      </trkpt>
      <trkpt lat="48.09758" lon="7.06388">
        <ele>1284</ele>
        <time>2017-10-21T13:57:02.000+02:00</time>
      </trkpt>
      <trkpt lat="48.09759" lon="7.06389">
        <ele>1284.1</ele>
        <time>2017-10-21T13:57:02.000+02:00</time>
      </trkpt>
      <trkpt lat="48.0976" lon="7.0639">
        <ele>1284.2</ele>
        <time>2017-10-21T13:57:03.000+02:00</time>
      </trkpt>
      <trkpt lat="48.09761" lon="7.0639">
        <ele>1284.3</ele>
        <time>2017-10-21T13:57:03.000+02:00</time>
      </trkpt>
      <trkpt lat="48.09762" lon="7.0639">
        <ele>1284.4</ele>
        <time>2017-10-21T13:57:04.000+02:00</time>
      </trkpt>
      <trkpt lat="48.09763" lon="7.06391">
        <ele>1284.5</ele>
        <time>2017-10-21T13:57:04.000+02:00</time>
      </trkpt>
      <trkpt lat="48.09764" lon="7.06391">
        <ele>1284.6</ele>
        <time>2017-10-21T13:57:04.000+02:00</time>
      </trkpt>
      <trkpt lat="48.09765" lon="7.06391">
        <ele>1284.7</ele>
        <time>2017-10-21T13:57:05.000+02:00</time>
      </trkpt>
      <trkpt lat="48.09766" lon="7.06392">
        <ele>1284.8</ele>
        <time>2017-10-21T13:57:05.000+02:00</time>
      </trkpt>
      <trkpt lat="48.09767" lon="7.06392">
        <ele>1285</ele>
        <time>2017-10-21T13:57:06.000+02:00</time>
      </trkpt>
      <trkpt lat="48.09767" lon="7.06393">
        <ele>1285.1</ele>
        <time>2017-10-21T13:57:06.000+02:00</time>
      </trkpt>
      <trkpt lat="48.09768" lon="7.06394">
        <ele>1285.2</ele>
        <time>2017-10-21T13:57:06.000+02:00</time>
      </trkpt>
      <trkpt lat="48.09768" lon="7.06393">
        <ele>1285.1</ele>
        <time>2017-10-21T13:57:06.000+02:00</time>
      </trkpt>
      <trkpt lat="48.09768" lon="7.06394">
        <ele>1285.2</ele>
        <time>2017-10-21T13:57:07.000+02:00</time>
      </trkpt>
      <trkpt lat="48.09769" lon="7.06395">
        <ele>1285.3</ele>
        <time>2017-10-21T13:57:09.000+02:00</time>
      </trkpt>
      <trkpt lat="48.0977" lon="7.06396">
        <ele>1285.5</ele>
        <time>2017-10-21T13:57:09.000+02:00</time>
      </trkpt>
      <trkpt lat="48.09771" lon="7.06397">
        <ele>1285.6</ele>
        <time>2017-10-21T13:57:10.000+02:00</time>
      </trkpt>
      <trkpt lat="48.09771" lon="7.06398">
        <ele>1285.7</ele>
        <time>2017-10-21T13:57:10.000+02:00</time>
      </trkpt>
      <trkpt lat="48.09772" lon="7.06399">
        <ele>1285.8</ele>
        <time>2017-10-21T13:57:10.000+02:00</time>
      </trkpt>
      <trkpt lat="48.09772" lon="7.064">
        <ele>1286</ele>
        <time>2017-10-21T13:57:11.000+02:00</time>
      </trkpt>
      <trkpt lat="48.09773" lon="7.06401">
        <ele>1286.1</ele>
        <time>2017-10-21T13:57:11.000+02:00</time>
      </trkpt>
      <trkpt lat="48.09773" lon="7.06402">
        <ele>1286.2</ele>
        <time>2017-10-21T13:57:11.000+02:00</time>
      </trkpt>
      <trkpt lat="48.09774" lon="7.06403">
        <ele>1286.3</ele>
        <time>2017-10-21T13:57:12.000+02:00</time>
      </trkpt>
      <trkpt lat="48.09774" lon="7.06404">
        <ele>1286.4</ele>
        <time>2017-10-21T13:57:12.000+02:00</time>
      </trkpt>
      <trkpt lat="48.09775" lon="7.06405">
        <ele>1286.5</ele>
        <time>2017-10-21T13:57:12.000+02:00</time>
      </trkpt>
      <trkpt lat="48.09775" lon="7.06405">
        <ele>1286.6</ele>
        <time>2017-10-21T13:57:13.000+02:00</time>
      </trkpt>
      <trkpt lat="48.09776" lon="7.06407">
        <ele>1286.8</ele>
        <time>2017-10-21T13:57:13.000+02:00</time>
      </trkpt>
      <trkpt lat="48.09777" lon="7.06407">
        <ele>1286.9</ele>
        <time>2017-10-21T13:57:13.000+02:00</time>
      </trkpt>
      <trkpt lat="48.09777" lon="7.06408">
        <ele>1287</ele>
        <time>2017-10-21T13:57:14.000+02:00</time>
      </trkpt>
      <trkpt lat="48.09778" lon="7.06409">
        <ele>1287.1</ele>
        <time>2017-10-21T13:57:14.000+02:00</time>
      </trkpt>
      <trkpt lat="48.09779" lon="7.0641">
        <ele>1287.3</ele>
        <time>2017-10-21T13:57:14.000+02:00</time>
      </trkpt>
      <trkpt lat="48.0978" lon="7.0641">
        <ele>1287.4</ele>
        <time>2017-10-21T13:57:15.000+02:00</time>
      </trkpt>
      <trkpt lat="48.09781" lon="7.06411">
        <ele>1287.5</ele>
        <time>2017-10-21T13:57:15.000+02:00</time>
      </trkpt>
      <trkpt lat="48.09782" lon="7.06412">
        <ele>1287.7</ele>
        <time>2017-10-21T13:57:16.000+02:00</time>
      </trkpt>
      <trkpt lat="48.09783" lon="7.06413">
        <ele>1287.9</ele>
        <time>2017-10-21T13:57:16.000+02:00</time>
      </trkpt>
      <trkpt lat="48.09784" lon="7.06413">
        <ele>1288</ele>
        <time>2017-10-21T13:57:17.000+02:00</time>
      </trkpt>
      <trkpt lat="48.09785" lon="7.06413">
        <ele>1288.1</ele>
        <time>2017-10-21T13:57:19.000+02:00</time>
      </trkpt>
      <trkpt lat="48.09786" lon="7.06414">
        <ele>1288.2</ele>
        <time>2017-10-21T13:57:19.000+02:00</time>
      </trkpt>
      <trkpt lat="48.09787" lon="7.06414">
        <ele>1288.3</ele>
        <time>2017-10-21T13:57:20.000+02:00</time>
      </trkpt>
      <trkpt lat="48.09788" lon="7.06415">
        <ele>1288.5</ele>
        <time>2017-10-21T13:57:20.000+02:00</time>
      </trkpt>
      <trkpt lat="48.09788" lon="7.06415">
        <ele>1288.6</ele>
        <time>2017-10-21T13:57:20.000+02:00</time>
      </trkpt>
      <trkpt lat="48.09789" lon="7.06415">
        <ele>1288.6</ele>
        <time>2017-10-21T13:57:21.000+02:00</time>
      </trkpt>
      <trkpt lat="48.0979" lon="7.06416">
        <ele>1288.7</ele>
        <time>2017-10-21T13:57:21.000+02:00</time>
      </trkpt>
      <trkpt lat="48.0979" lon="7.06416">
        <ele>1288.8</ele>
        <time>2017-10-21T13:57:21.000+02:00</time>
      </trkpt>
      <trkpt lat="48.09791" lon="7.06417">
        <ele>1289</ele>
        <time>2017-10-21T13:57:27.000+02:00</time>
      </trkpt>
      <trkpt lat="48.09792" lon="7.06418">
        <ele>1289.1</ele>
        <time>2017-10-21T13:57:27.000+02:00</time>
      </trkpt>
      <trkpt lat="48.09793" lon="7.06419">
        <ele>1289.2</ele>
        <time>2017-10-21T13:57:27.000+02:00</time>
      </trkpt>
      <trkpt lat="48.09795" lon="7.0642">
        <ele>1289.4</ele>
        <time>2017-10-21T13:57:28.000+02:00</time>
      </trkpt>
      <trkpt lat="48.09795" lon="7.0642">
        <ele>1289.5</ele>
        <time>2017-10-21T13:57:28.000+02:00</time>
      </trkpt>
      <trkpt lat="48.09796" lon="7.06421">
        <ele>1289.5</ele>
        <time>2017-10-21T13:57:29.000+02:00</time>
      </trkpt>
      <trkpt lat="48.09796" lon="7.0642">
        <ele>1289.5</ele>
        <time>2017-10-21T13:57:29.000+02:00</time>
      </trkpt>
      <trkpt lat="48.09796" lon="7.06421">
        <ele>1289.5</ele>
        <time>2017-10-21T13:57:29.000+02:00</time>
      </trkpt>
      <trkpt lat="48.09796" lon="7.06421">
        <ele>1289.6</ele>
        <time>2017-10-21T13:57:29.000+02:00</time>
      </trkpt>
      <trkpt lat="48.09797" lon="7.06421">
        <ele>1289.6</ele>
        <time>2017-10-21T13:57:29.000+02:00</time>
      </trkpt>
      <trkpt lat="48.09798" lon="7.06422">
        <ele>1289.8</ele>
        <time>2017-10-21T13:57:30.000+02:00</time>
      </trkpt>
      <trkpt lat="48.098" lon="7.06423">
        <ele>1290</ele>
        <time>2017-10-21T13:57:34.000+02:00</time>
      </trkpt>
      <trkpt lat="48.09802" lon="7.06425">
        <ele>1290.3</ele>
        <time>2017-10-21T13:57:35.000+02:00</time>
      </trkpt>
      <trkpt lat="48.09804" lon="7.06425">
        <ele>1290.4</ele>
        <time>2017-10-21T13:57:35.000+02:00</time>
      </trkpt>
      <trkpt lat="48.09805" lon="7.06426">
        <ele>1290.6</ele>
        <time>2017-10-21T13:57:36.000+02:00</time>
      </trkpt>
      <trkpt lat="48.09806" lon="7.06427">
        <ele>1290.7</ele>
        <time>2017-10-21T13:57:36.000+02:00</time>
      </trkpt>
      <trkpt lat="48.09807" lon="7.06428">
        <ele>1290.9</ele>
        <time>2017-10-21T13:57:37.000+02:00</time>
      </trkpt>
      <trkpt lat="48.09808" lon="7.06428">
        <ele>1291</ele>
        <time>2017-10-21T13:57:37.000+02:00</time>
      </trkpt>
      <trkpt lat="48.0981" lon="7.06429">
        <ele>1291.2</ele>
        <time>2017-10-21T13:57:38.000+02:00</time>
      </trkpt>
      <trkpt lat="48.09811" lon="7.06429">
        <ele>1291.3</ele>
        <time>2017-10-21T13:57:39.000+02:00</time>
      </trkpt>
      <trkpt lat="48.09812" lon="7.0643">
        <ele>1291.5</ele>
        <time>2017-10-21T13:57:39.000+02:00</time>
      </trkpt>
      <trkpt lat="48.09814" lon="7.06431">
        <ele>1291.6</ele>
        <time>2017-10-21T13:57:40.000+02:00</time>
      </trkpt>
      <trkpt lat="48.09815" lon="7.06432">
        <ele>1291.8</ele>
        <time>2017-10-21T13:57:40.000+02:00</time>
      </trkpt>
      <trkpt lat="48.09817" lon="7.06433">
        <ele>1292</ele>
        <time>2017-10-21T13:57:41.000+02:00</time>
      </trkpt>
      <trkpt lat="48.09818" lon="7.06434">
        <ele>1292.1</ele>
        <time>2017-10-21T13:57:44.000+02:00</time>
      </trkpt>
      <trkpt lat="48.09819" lon="7.06435">
        <ele>1292.3</ele>
        <time>2017-10-21T13:57:45.000+02:00</time>
      </trkpt>
      <trkpt lat="48.09821" lon="7.06437">
        <ele>1292.5</ele>
        <time>2017-10-21T13:57:46.000+02:00</time>
      </trkpt>
      <trkpt lat="48.09822" lon="7.06439">
        <ele>1292.7</ele>
        <time>2017-10-21T13:57:46.000+02:00</time>
      </trkpt>
      <trkpt lat="48.09823" lon="7.0644">
        <ele>1292.9</ele>
        <time>2017-10-21T13:57:47.000+02:00</time>
      </trkpt>
      <trkpt lat="48.09825" lon="7.06441">
        <ele>1293.1</ele>
        <time>2017-10-21T13:57:48.000+02:00</time>
      </trkpt>
      <trkpt lat="48.09826" lon="7.06442">
        <ele>1293.2</ele>
        <time>2017-10-21T13:57:48.000+02:00</time>
      </trkpt>
      <trkpt lat="48.09828" lon="7.06442">
        <ele>1293.4</ele>
        <time>2017-10-21T13:57:49.000+02:00</time>
      </trkpt>
      <trkpt lat="48.09829" lon="7.06443">
        <ele>1293.5</ele>
        <time>2017-10-21T13:57:49.000+02:00</time>
      </trkpt>
      <trkpt lat="48.0983" lon="7.06444">
        <ele>1293.7</ele>
        <time>2017-10-21T13:57:50.000+02:00</time>
      </trkpt>
      <trkpt lat="48.09832" lon="7.06445">
        <ele>1293.8</ele>
        <time>2017-10-21T13:57:51.000+02:00</time>
      </trkpt>
      <trkpt lat="48.09833" lon="7.06446">
        <ele>1294.1</ele>
        <time>2017-10-21T13:57:51.000+02:00</time>
      </trkpt>
      <trkpt lat="48.09835" lon="7.06447">
        <ele>1294.1</ele>
        <time>2017-10-21T13:57:56.000+02:00</time>
      </trkpt>
      <trkpt lat="48.09836" lon="7.06449">
        <ele>1294.1</ele>
        <time>2017-10-21T13:57:57.000+02:00</time>
      </trkpt>
      <trkpt lat="48.09837" lon="7.06449">
        <ele>1294.1</ele>
        <time>2017-10-21T13:57:57.000+02:00</time>
      </trkpt>
      <trkpt lat="48.09838" lon="7.0645">
        <ele>1294.1</ele>
        <time>2017-10-21T13:57:57.000+02:00</time>
      </trkpt>
      <trkpt lat="48.0984" lon="7.06451">
        <ele>1294.2</ele>
        <time>2017-10-21T13:57:58.000+02:00</time>
      </trkpt>
      <trkpt lat="48.09841" lon="7.06452">
        <ele>1294.2</ele>
        <time>2017-10-21T13:57:59.000+02:00</time>
      </trkpt>
      <trkpt lat="48.09843" lon="7.06454">
        <ele>1294.2</ele>
        <time>2017-10-21T13:58:00.000+02:00</time>
      </trkpt>
      <trkpt lat="48.09844" lon="7.06455">
        <ele>1294.2</ele>
        <time>2017-10-21T13:58:00.000+02:00</time>
      </trkpt>
      <trkpt lat="48.09846" lon="7.06457">
        <ele>1294.3</ele>
        <time>2017-10-21T13:58:01.000+02:00</time>
      </trkpt>
      <trkpt lat="48.09848" lon="7.06458">
        <ele>1294.3</ele>
        <time>2017-10-21T13:58:02.000+02:00</time>
      </trkpt>
      <trkpt lat="48.0985" lon="7.06459">
        <ele>1294.3</ele>
        <time>2017-10-21T13:58:03.000+02:00</time>
      </trkpt>
      <trkpt lat="48.09852" lon="7.06461">
        <ele>1294.4</ele>
        <time>2017-10-21T13:58:03.000+02:00</time>
      </trkpt>
      <trkpt lat="48.09853" lon="7.06462">
        <ele>1294.4</ele>
        <time>2017-10-21T13:58:04.000+02:00</time>
      </trkpt>
      <trkpt lat="48.09856" lon="7.06464">
        <ele>1294.5</ele>
        <time>2017-10-21T13:58:05.000+02:00</time>
      </trkpt>
      <trkpt lat="48.09858" lon="7.06465">
        <ele>1294.5</ele>
        <time>2017-10-21T13:58:06.000+02:00</time>
      </trkpt>
      <trkpt lat="48.09859" lon="7.06465">
        <ele>1294.5</ele>
        <time>2017-10-21T13:58:07.000+02:00</time>
      </trkpt>
      <trkpt lat="48.09861" lon="7.06466">
        <ele>1294.5</ele>
        <time>2017-10-21T13:58:07.000+02:00</time>
      </trkpt>
      <trkpt lat="48.09862" lon="7.06467">
        <ele>1294.5</ele>
        <time>2017-10-21T13:58:08.000+02:00</time>
      </trkpt>
      <trkpt lat="48.09864" lon="7.06468">
        <ele>1294.6</ele>
        <time>2017-10-21T13:58:09.000+02:00</time>
      </trkpt>
      <trkpt lat="48.09865" lon="7.06469">
        <ele>1294.6</ele>
        <time>2017-10-21T13:58:09.000+02:00</time>
      </trkpt>
      <trkpt lat="48.09867" lon="7.06469">
        <ele>1294.6</ele>
        <time>2017-10-21T13:58:10.000+02:00</time>
      </trkpt>
      <trkpt lat="48.09869" lon="7.06471">
        <ele>1294.6</ele>
        <time>2017-10-21T13:58:11.000+02:00</time>
      </trkpt>
      <trkpt lat="48.09871" lon="7.06472">
        <ele>1294.7</ele>
        <time>2017-10-21T13:58:12.000+02:00</time>
      </trkpt>
      <trkpt lat="48.09873" lon="7.06473">
        <ele>1294.7</ele>
        <time>2017-10-21T13:58:13.000+02:00</time>
      </trkpt>
      <trkpt lat="48.09875" lon="7.06474">
        <ele>1294.8</ele>
        <time>2017-10-21T13:58:13.000+02:00</time>
      </trkpt>
      <trkpt lat="48.09876" lon="7.06476">
        <ele>1294.8</ele>
        <time>2017-10-21T13:58:14.000+02:00</time>
      </trkpt>
      <trkpt lat="48.09877" lon="7.06478">
        <ele>1294.9</ele>
        <time>2017-10-21T13:58:15.000+02:00</time>
      </trkpt>
      <trkpt lat="48.09879" lon="7.06479">
        <ele>1295</ele>
        <time>2017-10-21T13:58:16.000+02:00</time>
      </trkpt>
      <trkpt lat="48.0988" lon="7.0648">
        <ele>1295</ele>
        <time>2017-10-21T13:58:16.000+02:00</time>
      </trkpt>
      <trkpt lat="48.09881" lon="7.06482">
        <ele>1295.1</ele>
        <time>2017-10-21T13:58:20.000+02:00</time>
      </trkpt>
      <trkpt lat="48.09883" lon="7.06485">
        <ele>1295.2</ele>
        <time>2017-10-21T13:58:21.000+02:00</time>
      </trkpt>
      <trkpt lat="48.09884" lon="7.06487">
        <ele>1295.4</ele>
        <time>2017-10-21T13:58:21.000+02:00</time>
      </trkpt>
      <trkpt lat="48.09885" lon="7.0649">
        <ele>1295.5</ele>
        <time>2017-10-21T13:58:22.000+02:00</time>
      </trkpt>
      <trkpt lat="48.09887" lon="7.06492">
        <ele>1295.6</ele>
        <time>2017-10-21T13:58:23.000+02:00</time>
      </trkpt>
      <trkpt lat="48.09889" lon="7.06494">
        <ele>1295.7</ele>
        <time>2017-10-21T13:58:24.000+02:00</time>
      </trkpt>
      <trkpt lat="48.09892" lon="7.06497">
        <ele>1295.8</ele>
        <time>2017-10-21T13:58:26.000+02:00</time>
      </trkpt>
      <trkpt lat="48.09894" lon="7.06499">
        <ele>1295.9</ele>
        <time>2017-10-21T13:58:27.000+02:00</time>
      </trkpt>
      <trkpt lat="48.09897" lon="7.06501">
        <ele>1295.9</ele>
        <time>2017-10-21T13:58:28.000+02:00</time>
      </trkpt>
      <trkpt lat="48.09899" lon="7.06504">
        <ele>1295.8</ele>
        <time>2017-10-21T13:58:29.000+02:00</time>
      </trkpt>
      <trkpt lat="48.09902" lon="7.06507">
        <ele>1295.6</ele>
        <time>2017-10-21T13:58:30.000+02:00</time>
      </trkpt>
      <trkpt lat="48.09905" lon="7.0651">
        <ele>1295.5</ele>
        <time>2017-10-21T13:58:32.000+02:00</time>
      </trkpt>
      <trkpt lat="48.09907" lon="7.06513">
        <ele>1295.3</ele>
        <time>2017-10-21T13:58:33.000+02:00</time>
      </trkpt>
      <trkpt lat="48.0991" lon="7.06515">
        <ele>1295.2</ele>
        <time>2017-10-21T13:58:34.000+02:00</time>
      </trkpt>
      <trkpt lat="48.09914" lon="7.06517">
        <ele>1295.2</ele>
        <time>2017-10-21T13:58:36.000+02:00</time>
      </trkpt>
      <trkpt lat="48.09917" lon="7.0652">
        <ele>1295</ele>
        <time>2017-10-21T13:58:38.000+02:00</time>
      </trkpt>
      <trkpt lat="48.09921" lon="7.06524">
        <ele>1294.6</ele>
        <time>2017-10-21T13:58:40.000+02:00</time>
      </trkpt>
      <trkpt lat="48.09924" lon="7.06528">
        <ele>1294.3</ele>
        <time>2017-10-21T13:58:42.000+02:00</time>
      </trkpt>
      <trkpt lat="48.09928" lon="7.06531">
        <ele>1294</ele>
        <time>2017-10-21T13:58:44.000+02:00</time>
      </trkpt>
      <trkpt lat="48.09932" lon="7.06534">
        <ele>1293.7</ele>
        <time>2017-10-21T13:58:46.000+02:00</time>
      </trkpt>
      <trkpt lat="48.09935" lon="7.06537">
        <ele>1293.5</ele>
        <time>2017-10-21T13:58:47.000+02:00</time>
      </trkpt>
      <trkpt lat="48.09938" lon="7.06541">
        <ele>1293.2</ele>
        <time>2017-10-21T13:58:49.000+02:00</time>
      </trkpt>
      <trkpt lat="48.09942" lon="7.06546">
        <ele>1293</ele>
        <time>2017-10-21T13:58:51.000+02:00</time>
      </trkpt>
      <trkpt lat="48.09946" lon="7.0655">
        <ele>1292.8</ele>
        <time>2017-10-21T13:58:53.000+02:00</time>
      </trkpt>
      <trkpt lat="48.09949" lon="7.06554">
        <ele>1292.7</ele>
        <time>2017-10-21T13:58:55.000+02:00</time>
      </trkpt>
      <trkpt lat="48.09953" lon="7.06558">
        <ele>1292.6</ele>
        <time>2017-10-21T13:58:56.000+02:00</time>
      </trkpt>
      <trkpt lat="48.09956" lon="7.06563">
        <ele>1292.5</ele>
        <time>2017-10-21T13:58:58.000+02:00</time>
      </trkpt>
      <trkpt lat="48.0996" lon="7.06568">
        <ele>1292.5</ele>
        <time>2017-10-21T13:59:01.000+02:00</time>
      </trkpt>
      <trkpt lat="48.09964" lon="7.06572">
        <ele>1292.5</ele>
        <time>2017-10-21T13:59:05.000+02:00</time>
      </trkpt>
      <trkpt lat="48.09968" lon="7.06575">
        <ele>1292.5</ele>
        <time>2017-10-21T13:59:07.000+02:00</time>
      </trkpt>
      <trkpt lat="48.09971" lon="7.06579">
        <ele>1292.6</ele>
        <time>2017-10-21T13:59:09.000+02:00</time>
      </trkpt>
      <trkpt lat="48.09975" lon="7.06584">
        <ele>1292.7</ele>
        <time>2017-10-21T13:59:14.000+02:00</time>
      </trkpt>
      <trkpt lat="48.09978" lon="7.06588">
        <ele>1292.5</ele>
        <time>2017-10-21T13:59:16.000+02:00</time>
      </trkpt>
      <trkpt lat="48.09982" lon="7.06591">
        <ele>1292.3</ele>
        <time>2017-10-21T13:59:20.000+02:00</time>
      </trkpt>
      <trkpt lat="48.09985" lon="7.06595">
        <ele>1292.2</ele>
        <time>2017-10-21T13:59:22.000+02:00</time>
      </trkpt>
      <trkpt lat="48.09988" lon="7.06598">
        <ele>1292.2</ele>
        <time>2017-10-21T13:59:23.000+02:00</time>
      </trkpt>
      <trkpt lat="48.0999" lon="7.06602">
        <ele>1292.2</ele>
        <time>2017-10-21T13:59:25.000+02:00</time>
      </trkpt>
      <trkpt lat="48.09993" lon="7.06605">
        <ele>1292.3</ele>
        <time>2017-10-21T13:59:27.000+02:00</time>
      </trkpt>
      <trkpt lat="48.09995" lon="7.06608">
        <ele>1292.4</ele>
        <time>2017-10-21T13:59:28.000+02:00</time>
      </trkpt>
      <trkpt lat="48.09998" lon="7.06612">
        <ele>1292.5</ele>
        <time>2017-10-21T13:59:29.000+02:00</time>
      </trkpt>
      <trkpt lat="48.1" lon="7.06615">
        <ele>1292.6</ele>
        <time>2017-10-21T13:59:36.000+02:00</time>
      </trkpt>
      <trkpt lat="48.10002" lon="7.06617">
        <ele>1292.6</ele>
        <time>2017-10-21T13:59:37.000+02:00</time>
      </trkpt>
      <trkpt lat="48.10004" lon="7.0662">
        <ele>1292.5</ele>
        <time>2017-10-21T13:59:38.000+02:00</time>
      </trkpt>
      <trkpt lat="48.10005" lon="7.06622">
        <ele>1292.5</ele>
        <time>2017-10-21T13:59:39.000+02:00</time>
      </trkpt>
      <trkpt lat="48.10007" lon="7.06624">
        <ele>1292.5</ele>
        <time>2017-10-21T13:59:39.000+02:00</time>
      </trkpt>
      <trkpt lat="48.10008" lon="7.06625">
        <ele>1292.5</ele>
        <time>2017-10-21T13:59:40.000+02:00</time>
      </trkpt>
      <trkpt lat="48.10009" lon="7.06626">
        <ele>1292.4</ele>
        <time>2017-10-21T13:59:41.000+02:00</time>
      </trkpt>
      <trkpt lat="48.10011" lon="7.06628">
        <ele>1292.4</ele>
        <time>2017-10-21T13:59:41.000+02:00</time>
      </trkpt>
      <trkpt lat="48.10012" lon="7.0663">
        <ele>1292.4</ele>
        <time>2017-10-21T13:59:42.000+02:00</time>
      </trkpt>
      <trkpt lat="48.10014" lon="7.06632">
        <ele>1292.4</ele>
        <time>2017-10-21T13:59:43.000+02:00</time>
      </trkpt>
      <trkpt lat="48.10016" lon="7.06634">
        <ele>1292.4</ele>
        <time>2017-10-21T13:59:44.000+02:00</time>
      </trkpt>
      <trkpt lat="48.10018" lon="7.06637">
        <ele>1292.5</ele>
        <time>2017-10-21T13:59:45.000+02:00</time>
      </trkpt>
      <trkpt lat="48.10021" lon="7.06639">
        <ele>1292.5</ele>
        <time>2017-10-21T13:59:46.000+02:00</time>
      </trkpt>
      <trkpt lat="48.10023" lon="7.06642">
        <ele>1292.6</ele>
        <time>2017-10-21T13:59:48.000+02:00</time>
      </trkpt>
      <trkpt lat="48.10025" lon="7.06645">
        <ele>1292.6</ele>
        <time>2017-10-21T13:59:49.000+02:00</time>
      </trkpt>
      <trkpt lat="48.10027" lon="7.06648">
        <ele>1292.7</ele>
        <time>2017-10-21T13:59:50.000+02:00</time>
      </trkpt>
      <trkpt lat="48.10029" lon="7.06651">
        <ele>1292.8</ele>
        <time>2017-10-21T13:59:51.000+02:00</time>
      </trkpt>
      <trkpt lat="48.10031" lon="7.06655">
        <ele>1292.9</ele>
        <time>2017-10-21T13:59:52.000+02:00</time>
      </trkpt>
      <trkpt lat="48.10033" lon="7.06658">
        <ele>1293</ele>
        <time>2017-10-21T13:59:57.000+02:00</time>
      </trkpt>
      <trkpt lat="48.10035" lon="7.06662">
        <ele>1293.2</ele>
        <time>2017-10-21T13:59:58.000+02:00</time>
      </trkpt>
      <trkpt lat="48.10037" lon="7.06665">
        <ele>1293.3</ele>
        <time>2017-10-21T13:59:59.000+02:00</time>
      </trkpt>
      <trkpt lat="48.10039" lon="7.06668">
        <ele>1293.3</ele>
        <time>2017-10-21T14:00:01.000+02:00</time>
      </trkpt>
      <trkpt lat="48.10041" lon="7.0667">
        <ele>1293.3</ele>
        <time>2017-10-21T14:00:02.000+02:00</time>
      </trkpt>
      <trkpt lat="48.10042" lon="7.06673">
        <ele>1293.2</ele>
        <time>2017-10-21T14:00:03.000+02:00</time>
      </trkpt>
      <trkpt lat="48.10043" lon="7.06676">
        <ele>1293.1</ele>
        <time>2017-10-21T14:00:04.000+02:00</time>
      </trkpt>
      <trkpt lat="48.10045" lon="7.06679">
        <ele>1293</ele>
        <time>2017-10-21T14:00:05.000+02:00</time>
      </trkpt>
      <trkpt lat="48.10046" lon="7.06681">
        <ele>1293</ele>
        <time>2017-10-21T14:00:06.000+02:00</time>
      </trkpt>
      <trkpt lat="48.10047" lon="7.06684">
        <ele>1292.9</ele>
        <time>2017-10-21T14:00:07.000+02:00</time>
      </trkpt>
      <trkpt lat="48.10049" lon="7.06686">
        <ele>1293</ele>
        <time>2017-10-21T14:00:08.000+02:00</time>
      </trkpt>
      <trkpt lat="48.1005" lon="7.06688">
        <ele>1293</ele>
        <time>2017-10-21T14:00:09.000+02:00</time>
      </trkpt>
      <trkpt lat="48.10052" lon="7.06689">
        <ele>1293.1</ele>
        <time>2017-10-21T14:00:09.000+02:00</time>
      </trkpt>
      <trkpt lat="48.10054" lon="7.0669">
        <ele>1293.2</ele>
        <time>2017-10-21T14:00:10.000+02:00</time>
      </trkpt>
      <trkpt lat="48.10056" lon="7.06692">
        <ele>1293.4</ele>
        <time>2017-10-21T14:00:11.000+02:00</time>
      </trkpt>
      <trkpt lat="48.10057" lon="7.06694">
        <ele>1293.4</ele>
        <time>2017-10-21T14:00:12.000+02:00</time>
      </trkpt>
      <trkpt lat="48.10058" lon="7.06697">
        <ele>1293.4</ele>
        <time>2017-10-21T14:00:13.000+02:00</time>
      </trkpt>
      <trkpt lat="48.1006" lon="7.067">
        <ele>1293.5</ele>
        <time>2017-10-21T14:00:14.000+02:00</time>
      </trkpt>
      <trkpt lat="48.10061" lon="7.06702">
        <ele>1293.6</ele>
        <time>2017-10-21T14:00:14.000+02:00</time>
      </trkpt>
      <trkpt lat="48.10062" lon="7.06704">
        <ele>1293.6</ele>
        <time>2017-10-21T14:00:15.000+02:00</time>
      </trkpt>
      <trkpt lat="48.10063" lon="7.06707">
        <ele>1293.7</ele>
        <time>2017-10-21T14:00:16.000+02:00</time>
      </trkpt>
      <trkpt lat="48.10065" lon="7.06709">
        <ele>1293.9</ele>
        <time>2017-10-21T14:00:17.000+02:00</time>
      </trkpt>
      <trkpt lat="48.10067" lon="7.06712">
        <ele>1294.1</ele>
        <time>2017-10-21T14:00:21.000+02:00</time>
      </trkpt>
      <trkpt lat="48.10068" lon="7.06714">
        <ele>1294.2</ele>
        <time>2017-10-21T14:00:22.000+02:00</time>
      </trkpt>
      <trkpt lat="48.1007" lon="7.06716">
        <ele>1294.4</ele>
        <time>2017-10-21T14:00:23.000+02:00</time>
      </trkpt>
      <trkpt lat="48.10071" lon="7.06718">
        <ele>1294.6</ele>
        <time>2017-10-21T14:00:24.000+02:00</time>
      </trkpt>
      <trkpt lat="48.10073" lon="7.06719">
        <ele>1294.8</ele>
        <time>2017-10-21T14:00:24.000+02:00</time>
      </trkpt>
      <trkpt lat="48.10074" lon="7.06721">
        <ele>1295</ele>
        <time>2017-10-21T14:00:25.000+02:00</time>
      </trkpt>
      <trkpt lat="48.10076" lon="7.06723">
        <ele>1295.3</ele>
        <time>2017-10-21T14:00:26.000+02:00</time>
      </trkpt>
      <trkpt lat="48.10077" lon="7.06725">
        <ele>1295.5</ele>
        <time>2017-10-21T14:00:27.000+02:00</time>
      </trkpt>
      <trkpt lat="48.10078" lon="7.06727">
        <ele>1295.7</ele>
        <time>2017-10-21T14:00:30.000+02:00</time>
      </trkpt>
      <trkpt lat="48.10079" lon="7.06729">
        <ele>1295.8</ele>
        <time>2017-10-21T14:00:31.000+02:00</time>
      </trkpt>
      <trkpt lat="48.1008" lon="7.06731">
        <ele>1296</ele>
        <time>2017-10-21T14:00:32.000+02:00</time>
      </trkpt>
      <trkpt lat="48.10081" lon="7.06733">
        <ele>1296.2</ele>
        <time>2017-10-21T14:00:32.000+02:00</time>
      </trkpt>
      <trkpt lat="48.10083" lon="7.06735">
        <ele>1296.5</ele>
        <time>2017-10-21T14:00:33.000+02:00</time>
      </trkpt>
      <trkpt lat="48.10084" lon="7.06738">
        <ele>1296.7</ele>
        <time>2017-10-21T14:00:39.000+02:00</time>
      </trkpt>
      <trkpt lat="48.10086" lon="7.06739">
        <ele>1296.7</ele>
        <time>2017-10-21T14:00:40.000+02:00</time>
      </trkpt>
      <trkpt lat="48.10087" lon="7.0674">
        <ele>1296.8</ele>
        <time>2017-10-21T14:00:41.000+02:00</time>
      </trkpt>
      <trkpt lat="48.10089" lon="7.06742">
        <ele>1296.8</ele>
        <time>2017-10-21T14:00:42.000+02:00</time>
      </trkpt>
      <trkpt lat="48.10091" lon="7.06744">
        <ele>1296.9</ele>
        <time>2017-10-21T14:00:42.000+02:00</time>
      </trkpt>
      <trkpt lat="48.10092" lon="7.06746">
        <ele>1297</ele>
        <time>2017-10-21T14:00:43.000+02:00</time>
      </trkpt>
      <trkpt lat="48.10092" lon="7.06748">
        <ele>1297.1</ele>
        <time>2017-10-21T14:00:44.000+02:00</time>
      </trkpt>
      <trkpt lat="48.10092" lon="7.06748">
        <ele>1297</ele>
        <time>2017-10-21T14:00:44.000+02:00</time>
      </trkpt>
      <trkpt lat="48.10092" lon="7.0675">
        <ele>1297.1</ele>
        <time>2017-10-21T14:00:45.000+02:00</time>
      </trkpt>
      <trkpt lat="48.10092" lon="7.0675">
        <ele>1297.1</ele>
        <time>2017-10-21T14:00:45.000+02:00</time>
      </trkpt>
      <trkpt lat="48.10092" lon="7.0675">
        <ele>1297.1</ele>
        <time>2017-10-21T14:00:45.000+02:00</time>
      </trkpt>
      <trkpt lat="48.10093" lon="7.0675">
        <ele>1297.1</ele>
        <time>2017-10-21T14:00:48.000+02:00</time>
      </trkpt>
      <trkpt lat="48.10094" lon="7.06751">
        <ele>1296.9</ele>
        <time>2017-10-21T14:00:48.000+02:00</time>
      </trkpt>
      <trkpt lat="48.10095" lon="7.06752">
        <ele>1296.5</ele>
        <time>2017-10-21T14:00:50.000+02:00</time>
      </trkpt>
      <trkpt lat="48.10096" lon="7.06753">
        <ele>1296.2</ele>
        <time>2017-10-21T14:00:50.000+02:00</time>
      </trkpt>
      <trkpt lat="48.10097" lon="7.06754">
        <ele>1296.1</ele>
        <time>2017-10-21T14:00:51.000+02:00</time>
      </trkpt>
      <trkpt lat="48.10097" lon="7.06754">
        <ele>1296</ele>
        <time>2017-10-21T14:00:51.000+02:00</time>
      </trkpt>
      <trkpt lat="48.10098" lon="7.06755">
        <ele>1295.7</ele>
        <time>2017-10-21T14:00:52.000+02:00</time>
      </trkpt>
      <trkpt lat="48.101" lon="7.06755">
        <ele>1295.5</ele>
        <time>2017-10-21T14:00:53.000+02:00</time>
      </trkpt>
      <trkpt lat="48.10101" lon="7.06756">
        <ele>1295.4</ele>
        <time>2017-10-21T14:00:54.000+02:00</time>
      </trkpt>
      <trkpt lat="48.10103" lon="7.06757">
        <ele>1295.2</ele>
        <time>2017-10-21T14:00:54.000+02:00</time>
      </trkpt>
      <trkpt lat="48.10104" lon="7.06758">
        <ele>1295</ele>
        <time>2017-10-21T14:00:55.000+02:00</time>
      </trkpt>
      <trkpt lat="48.10106" lon="7.06759">
        <ele>1294.8</ele>
        <time>2017-10-21T14:00:58.000+02:00</time>
      </trkpt>
      <trkpt lat="48.10108" lon="7.0676">
        <ele>1294.5</ele>
        <time>2017-10-21T14:00:58.000+02:00</time>
      </trkpt>
      <trkpt lat="48.1011" lon="7.06761">
        <ele>1294.3</ele>
        <time>2017-10-21T14:00:59.000+02:00</time>
      </trkpt>
      <trkpt lat="48.10112" lon="7.06762">
        <ele>1294.1</ele>
        <time>2017-10-21T14:01:00.000+02:00</time>
      </trkpt>
      <trkpt lat="48.10114" lon="7.06763">
        <ele>1293.8</ele>
        <time>2017-10-21T14:01:01.000+02:00</time>
      </trkpt>
      <trkpt lat="48.10115" lon="7.06764">
        <ele>1293.6</ele>
        <time>2017-10-21T14:01:03.000+02:00</time>
      </trkpt>
      <trkpt lat="48.10117" lon="7.06765">
        <ele>1293.4</ele>
        <time>2017-10-21T14:01:04.000+02:00</time>
      </trkpt>
      <trkpt lat="48.10119" lon="7.06767">
        <ele>1293.2</ele>
        <time>2017-10-21T14:01:05.000+02:00</time>
      </trkpt>
      <trkpt lat="48.10121" lon="7.06768">
        <ele>1292.9</ele>
        <time>2017-10-21T14:01:05.000+02:00</time>
      </trkpt>
      <trkpt lat="48.10123" lon="7.06769">
        <ele>1292.7</ele>
        <time>2017-10-21T14:01:06.000+02:00</time>
      </trkpt>
      <trkpt lat="48.10125" lon="7.06771">
        <ele>1292.4</ele>
        <time>2017-10-21T14:01:07.000+02:00</time>
      </trkpt>
      <trkpt lat="48.10127" lon="7.06774">
        <ele>1292</ele>
        <time>2017-10-21T14:01:08.000+02:00</time>
      </trkpt>
      <trkpt lat="48.1013" lon="7.06776">
        <ele>1291.6</ele>
        <time>2017-10-21T14:01:11.000+02:00</time>
      </trkpt>
      <trkpt lat="48.10132" lon="7.06779">
        <ele>1291.1</ele>
        <time>2017-10-21T14:01:12.000+02:00</time>
      </trkpt>
      <trkpt lat="48.10135" lon="7.06783">
        <ele>1290.6</ele>
        <time>2017-10-21T14:01:13.000+02:00</time>
      </trkpt>
      <trkpt lat="48.10136" lon="7.06785">
        <ele>1290.2</ele>
        <time>2017-10-21T14:01:14.000+02:00</time>
      </trkpt>
      <trkpt lat="48.10137" lon="7.06786">
        <ele>1290.1</ele>
        <time>2017-10-21T14:01:15.000+02:00</time>
      </trkpt>
      <trkpt lat="48.10137" lon="7.06786">
        <ele>1290.2</ele>
        <time>2017-10-21T14:01:15.000+02:00</time>
      </trkpt>
      <trkpt lat="48.10137" lon="7.06786">
        <ele>1290.1</ele>
        <time>2017-10-21T14:01:15.000+02:00</time>
      </trkpt>
      <trkpt lat="48.10138" lon="7.06786">
        <ele>1290.2</ele>
        <time>2017-10-21T14:01:15.000+02:00</time>
      </trkpt>
      <trkpt lat="48.1014" lon="7.06786">
        <ele>1290.4</ele>
        <time>2017-10-21T14:01:16.000+02:00</time>
      </trkpt>
      <trkpt lat="48.10143" lon="7.06786">
        <ele>1290.7</ele>
        <time>2017-10-21T14:01:17.000+02:00</time>
      </trkpt>
      <trkpt lat="48.10146" lon="7.06787">
        <ele>1290.8</ele>
        <time>2017-10-21T14:01:19.000+02:00</time>
      </trkpt>
      <trkpt lat="48.10149" lon="7.06789">
        <ele>1290.8</ele>
        <time>2017-10-21T14:01:20.000+02:00</time>
      </trkpt>
      <trkpt lat="48.10152" lon="7.06791">
        <ele>1290.9</ele>
        <time>2017-10-21T14:01:21.000+02:00</time>
      </trkpt>
      <trkpt lat="48.10156" lon="7.06793">
        <ele>1291</ele>
        <time>2017-10-21T14:01:23.000+02:00</time>
      </trkpt>
      <trkpt lat="48.10159" lon="7.06795">
        <ele>1291.1</ele>
        <time>2017-10-21T14:01:24.000+02:00</time>
      </trkpt>
      <trkpt lat="48.10163" lon="7.06798">
        <ele>1291.2</ele>
        <time>2017-10-21T14:01:26.000+02:00</time>
      </trkpt>
      <trkpt lat="48.10165" lon="7.068">
        <ele>1291.2</ele>
        <time>2017-10-21T14:01:27.000+02:00</time>
      </trkpt>
      <trkpt lat="48.10168" lon="7.06801">
        <ele>1291.3</ele>
        <time>2017-10-21T14:01:34.000+02:00</time>
      </trkpt>
      <trkpt lat="48.10171" lon="7.06803">
        <ele>1291.1</ele>
        <time>2017-10-21T14:01:35.000+02:00</time>
      </trkpt>
      <trkpt lat="48.10174" lon="7.06806">
        <ele>1290.9</ele>
        <time>2017-10-21T14:01:37.000+02:00</time>
      </trkpt>
      <trkpt lat="48.10177" lon="7.06808">
        <ele>1290.8</ele>
        <time>2017-10-21T14:01:38.000+02:00</time>
      </trkpt>
      <trkpt lat="48.1018" lon="7.0681">
        <ele>1290.7</ele>
        <time>2017-10-21T14:01:41.000+02:00</time>
      </trkpt>
      <trkpt lat="48.10183" lon="7.06812">
        <ele>1290.6</ele>
        <time>2017-10-21T14:01:42.000+02:00</time>
      </trkpt>
      <trkpt lat="48.10185" lon="7.06813">
        <ele>1290.6</ele>
        <time>2017-10-21T14:01:43.000+02:00</time>
      </trkpt>
      <trkpt lat="48.10187" lon="7.06815">
        <ele>1290.6</ele>
        <time>2017-10-21T14:01:44.000+02:00</time>
      </trkpt>
      <trkpt lat="48.1019" lon="7.06815">
        <ele>1290.6</ele>
        <time>2017-10-21T14:01:48.000+02:00</time>
      </trkpt>
      <trkpt lat="48.10192" lon="7.06816">
        <ele>1290.7</ele>
        <time>2017-10-21T14:01:49.000+02:00</time>
      </trkpt>
      <trkpt lat="48.10195" lon="7.06817">
        <ele>1290.8</ele>
        <time>2017-10-21T14:01:50.000+02:00</time>
      </trkpt>
      <trkpt lat="48.10198" lon="7.06818">
        <ele>1290.9</ele>
        <time>2017-10-21T14:01:51.000+02:00</time>
      </trkpt>
      <trkpt lat="48.10201" lon="7.06819">
        <ele>1291</ele>
        <time>2017-10-21T14:01:53.000+02:00</time>
      </trkpt>
      <trkpt lat="48.10204" lon="7.06818">
        <ele>1291.3</ele>
        <time>2017-10-21T14:01:54.000+02:00</time>
      </trkpt>
      <trkpt lat="48.10207" lon="7.06816">
        <ele>1291.6</ele>
        <time>2017-10-21T14:01:55.000+02:00</time>
      </trkpt>
      <trkpt lat="48.10211" lon="7.06816">
        <ele>1291.8</ele>
        <time>2017-10-21T14:02:00.000+02:00</time>
      </trkpt>
      <trkpt lat="48.10214" lon="7.06817">
        <ele>1291.9</ele>
        <time>2017-10-21T14:02:01.000+02:00</time>
      </trkpt>
      <trkpt lat="48.10217" lon="7.06818">
        <ele>1292</ele>
        <time>2017-10-21T14:02:02.000+02:00</time>
      </trkpt>
      <trkpt lat="48.1022" lon="7.0682">
        <ele>1292.1</ele>
        <time>2017-10-21T14:02:03.000+02:00</time>
      </trkpt>
      <trkpt lat="48.10223" lon="7.06821">
        <ele>1292.2</ele>
        <time>2017-10-21T14:02:05.000+02:00</time>
      </trkpt>
      <trkpt lat="48.10226" lon="7.06823">
        <ele>1292.4</ele>
        <time>2017-10-21T14:02:06.000+02:00</time>
      </trkpt>
      <trkpt lat="48.10229" lon="7.06825">
        <ele>1292.5</ele>
        <time>2017-10-21T14:02:07.000+02:00</time>
      </trkpt>
      <trkpt lat="48.10231" lon="7.06826">
        <ele>1292.6</ele>
        <time>2017-10-21T14:02:08.000+02:00</time>
      </trkpt>
      <trkpt lat="48.10234" lon="7.06827">
        <ele>1292.8</ele>
        <time>2017-10-21T14:02:09.000+02:00</time>
      </trkpt>
      <trkpt lat="48.10237" lon="7.06829">
        <ele>1293</ele>
        <time>2017-10-21T14:02:10.000+02:00</time>
      </trkpt>
      <trkpt lat="48.10239" lon="7.0683">
        <ele>1293.2</ele>
        <time>2017-10-21T14:02:15.000+02:00</time>
      </trkpt>
      <trkpt lat="48.10242" lon="7.06831">
        <ele>1293.4</ele>
        <time>2017-10-21T14:02:16.000+02:00</time>
      </trkpt>
      <trkpt lat="48.10246" lon="7.06831">
        <ele>1293.6</ele>
        <time>2017-10-21T14:02:17.000+02:00</time>
      </trkpt>
      <trkpt lat="48.10249" lon="7.06832">
        <ele>1293.9</ele>
        <time>2017-10-21T14:02:18.000+02:00</time>
      </trkpt>
      <trkpt lat="48.10252" lon="7.06832">
        <ele>1293.7</ele>
        <time>2017-10-21T14:02:20.000+02:00</time>
      </trkpt>
      <trkpt lat="48.10255" lon="7.06833">
        <ele>1293.3</ele>
        <time>2017-10-21T14:02:22.000+02:00</time>
      </trkpt>
      <trkpt lat="48.10257" lon="7.06835">
        <ele>1292.5</ele>
        <time>2017-10-21T14:02:27.000+02:00</time>
      </trkpt>
      <trkpt lat="48.10259" lon="7.06835">
        <ele>1292.1</ele>
        <time>2017-10-21T14:02:28.000+02:00</time>
      </trkpt>
      <trkpt lat="48.10258" lon="7.06835">
        <ele>1292.2</ele>
        <time>2017-10-21T14:02:28.000+02:00</time>
      </trkpt>
      <trkpt lat="48.1026" lon="7.06835">
        <ele>1291.9</ele>
        <time>2017-10-21T14:02:30.000+02:00</time>
      </trkpt>
      <trkpt lat="48.10261" lon="7.06835">
        <ele>1291.7</ele>
        <time>2017-10-21T14:02:32.000+02:00</time>
      </trkpt>
      <trkpt lat="48.10262" lon="7.06836">
        <ele>1291.2</ele>
        <time>2017-10-21T14:02:32.000+02:00</time>
      </trkpt>
      <trkpt lat="48.10264" lon="7.06837">
        <ele>1290.8</ele>
        <time>2017-10-21T14:02:34.000+02:00</time>
      </trkpt>
      <trkpt lat="48.10266" lon="7.06837">
        <ele>1290.4</ele>
        <time>2017-10-21T14:02:37.000+02:00</time>
      </trkpt>
      <trkpt lat="48.10268" lon="7.06837">
        <ele>1290.1</ele>
        <time>2017-10-21T14:02:39.000+02:00</time>
      </trkpt>
      <trkpt lat="48.1027" lon="7.06836">
        <ele>1290.4</ele>
        <time>2017-10-21T14:02:42.000+02:00</time>
      </trkpt>
      <trkpt lat="48.10272" lon="7.06835">
        <ele>1290.5</ele>
        <time>2017-10-21T14:02:43.000+02:00</time>
      </trkpt>
      <trkpt lat="48.10274" lon="7.06835">
        <ele>1290.3</ele>
        <time>2017-10-21T14:02:45.000+02:00</time>
      </trkpt>
      <trkpt lat="48.10277" lon="7.06834">
        <ele>1290.2</ele>
        <time>2017-10-21T14:02:46.000+02:00</time>
      </trkpt>
      <trkpt lat="48.10279" lon="7.06833">
        <ele>1290.1</ele>
        <time>2017-10-21T14:03:01.000+02:00</time>
      </trkpt>
      <trkpt lat="48.10282" lon="7.06833">
        <ele>1289.8</ele>
        <time>2017-10-21T14:03:03.000+02:00</time>
      </trkpt>
      <trkpt lat="48.10284" lon="7.06833">
        <ele>1289.5</ele>
        <time>2017-10-21T14:03:05.000+02:00</time>
      </trkpt>
      <trkpt lat="48.10286" lon="7.06834">
        <ele>1289</ele>
        <time>2017-10-21T14:03:15.000+02:00</time>
      </trkpt>
      <trkpt lat="48.10288" lon="7.06834">
        <ele>1288.7</ele>
        <time>2017-10-21T14:03:15.000+02:00</time>
      </trkpt>
      <trkpt lat="48.10287" lon="7.06834">
        <ele>1288.8</ele>
        <time>2017-10-21T14:03:16.000+02:00</time>
      </trkpt>
      <trkpt lat="48.10288" lon="7.06834">
        <ele>1288.6</ele>
        <time>2017-10-21T14:03:16.000+02:00</time>
      </trkpt>
      <trkpt lat="48.10288" lon="7.06835">
        <ele>1288.3</ele>
        <time>2017-10-21T14:03:16.000+02:00</time>
      </trkpt>
      <trkpt lat="48.1029" lon="7.06836">
        <ele>1287.8</ele>
        <time>2017-10-21T14:03:18.000+02:00</time>
      </trkpt>
      <trkpt lat="48.10292" lon="7.06836">
        <ele>1287.5</ele>
        <time>2017-10-21T14:03:19.000+02:00</time>
      </trkpt>
      <trkpt lat="48.10294" lon="7.06835">
        <ele>1287.8</ele>
        <time>2017-10-21T14:03:20.000+02:00</time>
      </trkpt>
      <trkpt lat="48.10295" lon="7.06832">
        <ele>1288.1</ele>
        <time>2017-10-21T14:03:37.000+02:00</time>
      </trkpt>
      <trkpt lat="48.10296" lon="7.0683">
        <ele>1288</ele>
        <time>2017-10-21T14:03:37.000+02:00</time>
      </trkpt>
      <trkpt lat="48.10298" lon="7.06829">
        <ele>1287.7</ele>
        <time>2017-10-21T14:03:38.000+02:00</time>
      </trkpt>
      <trkpt lat="48.10301" lon="7.06829">
        <ele>1287.3</ele>
        <time>2017-10-21T14:03:39.000+02:00</time>
      </trkpt>
      <trkpt lat="48.10305" lon="7.06828">
        <ele>1286.8</ele>
        <time>2017-10-21T14:03:41.000+02:00</time>
      </trkpt>
      <trkpt lat="48.10307" lon="7.06828">
        <ele>1286.5</ele>
        <time>2017-10-21T14:03:43.000+02:00</time>
      </trkpt>
      <trkpt lat="48.10311" lon="7.06827">
        <ele>1286.1</ele>
        <time>2017-10-21T14:03:44.000+02:00</time>
      </trkpt>
      <trkpt lat="48.10314" lon="7.06825">
        <ele>1285.6</ele>
        <time>2017-10-21T14:03:46.000+02:00</time>
      </trkpt>
      <trkpt lat="48.10317" lon="7.06823">
        <ele>1285.2</ele>
        <time>2017-10-21T14:03:48.000+02:00</time>
      </trkpt>
      <trkpt lat="48.10319" lon="7.06821">
        <ele>1285.1</ele>
        <time>2017-10-21T14:03:48.000+02:00</time>
      </trkpt>
      <trkpt lat="48.1032" lon="7.06821">
        <ele>1284.9</ele>
        <time>2017-10-21T14:03:49.000+02:00</time>
      </trkpt>
      <trkpt lat="48.10321" lon="7.0682">
        <ele>1284.8</ele>
        <time>2017-10-21T14:03:49.000+02:00</time>
      </trkpt>
      <trkpt lat="48.10323" lon="7.0682">
        <ele>1284.5</ele>
        <time>2017-10-21T14:03:50.000+02:00</time>
      </trkpt>
      <trkpt lat="48.10325" lon="7.06818">
        <ele>1284.3</ele>
        <time>2017-10-21T14:03:51.000+02:00</time>
      </trkpt>
      <trkpt lat="48.10328" lon="7.06817">
        <ele>1284</ele>
        <time>2017-10-21T14:03:52.000+02:00</time>
      </trkpt>
      <trkpt lat="48.1033" lon="7.06817">
        <ele>1283.7</ele>
        <time>2017-10-21T14:03:53.000+02:00</time>
      </trkpt>
      <trkpt lat="48.10332" lon="7.06818">
        <ele>1283.3</ele>
        <time>2017-10-21T14:03:55.000+02:00</time>
      </trkpt>
      <trkpt lat="48.10335" lon="7.06819">
        <ele>1283.1</ele>
        <time>2017-10-21T14:03:59.000+02:00</time>
      </trkpt>
      <trkpt lat="48.10337" lon="7.06819">
        <ele>1283</ele>
        <time>2017-10-21T14:04:00.000+02:00</time>
      </trkpt>
      <trkpt lat="48.1034" lon="7.06819">
        <ele>1282.9</ele>
        <time>2017-10-21T14:04:01.000+02:00</time>
      </trkpt>
      <trkpt lat="48.10343" lon="7.06819">
        <ele>1282.7</ele>
        <time>2017-10-21T14:04:02.000+02:00</time>
      </trkpt>
      <trkpt lat="48.10346" lon="7.06817">
        <ele>1282.6</ele>
        <time>2017-10-21T14:04:04.000+02:00</time>
      </trkpt>
      <trkpt lat="48.10349" lon="7.06816">
        <ele>1282.4</ele>
        <time>2017-10-21T14:04:05.000+02:00</time>
      </trkpt>
      <trkpt lat="48.10352" lon="7.06816">
        <ele>1282.3</ele>
        <time>2017-10-21T14:04:06.000+02:00</time>
      </trkpt>
      <trkpt lat="48.10356" lon="7.06816">
        <ele>1282.1</ele>
        <time>2017-10-21T14:04:08.000+02:00</time>
      </trkpt>
      <trkpt lat="48.1036" lon="7.06817">
        <ele>1281.9</ele>
        <time>2017-10-21T14:04:10.000+02:00</time>
      </trkpt>
      <trkpt lat="48.10363" lon="7.06817">
        <ele>1281.8</ele>
        <time>2017-10-21T14:04:11.000+02:00</time>
      </trkpt>
      <trkpt lat="48.10367" lon="7.06818">
        <ele>1281.6</ele>
        <time>2017-10-21T14:04:13.000+02:00</time>
      </trkpt>
      <trkpt lat="48.10371" lon="7.06819">
        <ele>1281.4</ele>
        <time>2017-10-21T14:04:14.000+02:00</time>
      </trkpt>
      <trkpt lat="48.10374" lon="7.0682">
        <ele>1281.3</ele>
        <time>2017-10-21T14:04:16.000+02:00</time>
      </trkpt>
      <trkpt lat="48.10377" lon="7.06821">
        <ele>1281.2</ele>
        <time>2017-10-21T14:04:17.000+02:00</time>
      </trkpt>
      <trkpt lat="48.10379" lon="7.06823">
        <ele>1281.1</ele>
        <time>2017-10-21T14:04:18.000+02:00</time>
      </trkpt>
      <trkpt lat="48.10382" lon="7.06824">
        <ele>1281</ele>
        <time>2017-10-21T14:04:19.000+02:00</time>
      </trkpt>
      <trkpt lat="48.10385" lon="7.06825">
        <ele>1280.9</ele>
        <time>2017-10-21T14:04:20.000+02:00</time>
      </trkpt>
      <trkpt lat="48.10388" lon="7.06827">
        <ele>1280.8</ele>
        <time>2017-10-21T14:04:22.000+02:00</time>
      </trkpt>
      <trkpt lat="48.10391" lon="7.06827">
        <ele>1280.7</ele>
        <time>2017-10-21T14:04:23.000+02:00</time>
      </trkpt>
      <trkpt lat="48.10393" lon="7.06828">
        <ele>1280.7</ele>
        <time>2017-10-21T14:04:24.000+02:00</time>
      </trkpt>
      <trkpt lat="48.10395" lon="7.06829">
        <ele>1280.6</ele>
        <time>2017-10-21T14:04:26.000+02:00</time>
      </trkpt>
      <trkpt lat="48.10398" lon="7.0683">
        <ele>1280.6</ele>
        <time>2017-10-21T14:04:27.000+02:00</time>
      </trkpt>
      <trkpt lat="48.10399" lon="7.06831">
        <ele>1280.5</ele>
        <time>2017-10-21T14:04:28.000+02:00</time>
      </trkpt>
      <trkpt lat="48.104" lon="7.06832">
        <ele>1280.5</ele>
        <time>2017-10-21T14:04:28.000+02:00</time>
      </trkpt>
      <trkpt lat="48.104" lon="7.06831">
        <ele>1280.5</ele>
        <time>2017-10-21T14:04:28.000+02:00</time>
      </trkpt>
      <trkpt lat="48.104" lon="7.06832">
        <ele>1280.5</ele>
        <time>2017-10-21T14:04:29.000+02:00</time>
      </trkpt>
      <trkpt lat="48.104" lon="7.06832">
        <ele>1280.5</ele>
        <time>2017-10-21T14:04:29.000+02:00</time>
      </trkpt>
      <trkpt lat="48.10401" lon="7.06833">
        <ele>1280.5</ele>
        <time>2017-10-21T14:04:29.000+02:00</time>
      </trkpt>
      <trkpt lat="48.10401" lon="7.06833">
        <ele>1280.6</ele>
        <time>2017-10-21T14:04:33.000+02:00</time>
      </trkpt>
      <trkpt lat="48.10401" lon="7.06833">
        <ele>1280.6</ele>
        <time>2017-10-21T14:04:39.000+02:00</time>
      </trkpt>
      <trkpt lat="48.10401" lon="7.06834">
        <ele>1280.5</ele>
        <time>2017-10-21T14:04:43.000+02:00</time>
      </trkpt>
      <trkpt lat="48.10401" lon="7.06833">
        <ele>1280.6</ele>
        <time>2017-10-21T14:04:43.000+02:00</time>
      </trkpt>
      <trkpt lat="48.10402" lon="7.06834">
        <ele>1280.4</ele>
        <time>2017-10-21T14:04:44.000+02:00</time>
      </trkpt>
      <trkpt lat="48.10402" lon="7.06834">
        <ele>1280.4</ele>
        <time>2017-10-21T14:04:44.000+02:00</time>
      </trkpt>
      <trkpt lat="48.10403" lon="7.06834">
        <ele>1280.4</ele>
        <time>2017-10-21T14:04:44.000+02:00</time>
      </trkpt>
      <trkpt lat="48.10404" lon="7.06834">
        <ele>1280.2</ele>
        <time>2017-10-21T14:04:45.000+02:00</time>
      </trkpt>
      <trkpt lat="48.10405" lon="7.06835">
        <ele>1280.1</ele>
        <time>2017-10-21T14:04:45.000+02:00</time>
      </trkpt>
      <trkpt lat="48.10406" lon="7.06835">
        <ele>1279.9</ele>
        <time>2017-10-21T14:04:47.000+02:00</time>
      </trkpt>
      <trkpt lat="48.10407" lon="7.06836">
        <ele>1279.7</ele>
        <time>2017-10-21T14:04:48.000+02:00</time>
      </trkpt>
      <trkpt lat="48.10407" lon="7.06837">
        <ele>1279.5</ele>
        <time>2017-10-21T14:04:48.000+02:00</time>
      </trkpt>
      <trkpt lat="48.10409" lon="7.06837">
        <ele>1279.3</ele>
        <time>2017-10-21T14:04:49.000+02:00</time>
      </trkpt>
      <trkpt lat="48.10409" lon="7.06838">
        <ele>1279.1</ele>
        <time>2017-10-21T14:04:49.000+02:00</time>
      </trkpt>
      <trkpt lat="48.1041" lon="7.06838">
        <ele>1279.1</ele>
        <time>2017-10-21T14:04:49.000+02:00</time>
      </trkpt>
      <trkpt lat="48.10411" lon="7.06838">
        <ele>1279.1</ele>
        <time>2017-10-21T14:04:50.000+02:00</time>
      </trkpt>
      <trkpt lat="48.10412" lon="7.06838">
        <ele>1279.2</ele>
        <time>2017-10-21T14:04:52.000+02:00</time>
      </trkpt>
      <trkpt lat="48.10413" lon="7.06838">
        <ele>1279</ele>
        <time>2017-10-21T14:04:53.000+02:00</time>
      </trkpt>
      <trkpt lat="48.10414" lon="7.06838">
        <ele>1279</ele>
        <time>2017-10-21T14:04:53.000+02:00</time>
      </trkpt>
      <trkpt lat="48.10415" lon="7.06838">
        <ele>1279</ele>
        <time>2017-10-21T14:04:54.000+02:00</time>
      </trkpt>
      <trkpt lat="48.10415" lon="7.06838">
        <ele>1279</ele>
        <time>2017-10-21T14:04:54.000+02:00</time>
      </trkpt>
      <trkpt lat="48.10416" lon="7.06838">
        <ele>1279</ele>
        <time>2017-10-21T14:04:55.000+02:00</time>
      </trkpt>
      <trkpt lat="48.10418" lon="7.06838">
        <ele>1278.9</ele>
        <time>2017-10-21T14:04:58.000+02:00</time>
      </trkpt>
      <trkpt lat="48.1042" lon="7.06839">
        <ele>1278.7</ele>
        <time>2017-10-21T14:04:59.000+02:00</time>
      </trkpt>
      <trkpt lat="48.10423" lon="7.06841">
        <ele>1278.3</ele>
        <time>2017-10-21T14:05:02.000+02:00</time>
      </trkpt>
      <trkpt lat="48.10425" lon="7.06843">
        <ele>1278.1</ele>
        <time>2017-10-21T14:05:02.000+02:00</time>
      </trkpt>
      <trkpt lat="48.10425" lon="7.06844">
        <ele>1277.9</ele>
        <time>2017-10-21T14:05:03.000+02:00</time>
      </trkpt>
      <trkpt lat="48.10426" lon="7.06845">
        <ele>1277.7</ele>
        <time>2017-10-21T14:05:05.000+02:00</time>
      </trkpt>
      <trkpt lat="48.10428" lon="7.06846">
        <ele>1277.4</ele>
        <time>2017-10-21T14:05:05.000+02:00</time>
      </trkpt>
      <trkpt lat="48.10429" lon="7.06847">
        <ele>1277.2</ele>
        <time>2017-10-21T14:05:06.000+02:00</time>
      </trkpt>
      <trkpt lat="48.10431" lon="7.06849">
        <ele>1277.1</ele>
        <time>2017-10-21T14:05:07.000+02:00</time>
      </trkpt>
      <trkpt lat="48.10433" lon="7.0685">
        <ele>1276.9</ele>
        <time>2017-10-21T14:05:09.000+02:00</time>
      </trkpt>
      <trkpt lat="48.10434" lon="7.06851">
        <ele>1276.7</ele>
        <time>2017-10-21T14:05:09.000+02:00</time>
      </trkpt>
      <trkpt lat="48.10434" lon="7.06853">
        <ele>1276.5</ele>
        <time>2017-10-21T14:05:10.000+02:00</time>
      </trkpt>
      <trkpt lat="48.10435" lon="7.06854">
        <ele>1276.3</ele>
        <time>2017-10-21T14:05:10.000+02:00</time>
      </trkpt>
      <trkpt lat="48.10436" lon="7.06855">
        <ele>1276</ele>
        <time>2017-10-21T14:05:11.000+02:00</time>
      </trkpt>
      <trkpt lat="48.10438" lon="7.06858">
        <ele>1275.7</ele>
        <time>2017-10-21T14:05:12.000+02:00</time>
      </trkpt>
      <trkpt lat="48.10439" lon="7.0686">
        <ele>1275.4</ele>
        <time>2017-10-21T14:05:14.000+02:00</time>
      </trkpt>
      <trkpt lat="48.10441" lon="7.06862">
        <ele>1275.2</ele>
        <time>2017-10-21T14:05:15.000+02:00</time>
      </trkpt>
      <trkpt lat="48.10443" lon="7.06863">
        <ele>1275.1</ele>
        <time>2017-10-21T14:05:16.000+02:00</time>
      </trkpt>
      <trkpt lat="48.10445" lon="7.06865">
        <ele>1274.9</ele>
        <time>2017-10-21T14:05:17.000+02:00</time>
      </trkpt>
      <trkpt lat="48.10447" lon="7.06867">
        <ele>1274.8</ele>
        <time>2017-10-21T14:05:17.000+02:00</time>
      </trkpt>
      <trkpt lat="48.10448" lon="7.06868">
        <ele>1274.7</ele>
        <time>2017-10-21T14:05:18.000+02:00</time>
      </trkpt>
      <trkpt lat="48.1045" lon="7.0687">
        <ele>1274.5</ele>
        <time>2017-10-21T14:05:19.000+02:00</time>
      </trkpt>
      <trkpt lat="48.10451" lon="7.06874">
        <ele>1274.3</ele>
        <time>2017-10-21T14:05:20.000+02:00</time>
      </trkpt>
      <trkpt lat="48.10453" lon="7.06877">
        <ele>1273.9</ele>
        <time>2017-10-21T14:05:23.000+02:00</time>
      </trkpt>
      <trkpt lat="48.10455" lon="7.0688">
        <ele>1273.8</ele>
        <time>2017-10-21T14:05:24.000+02:00</time>
      </trkpt>
      <trkpt lat="48.10458" lon="7.06882">
        <ele>1273.8</ele>
        <time>2017-10-21T14:05:25.000+02:00</time>
      </trkpt>
      <trkpt lat="48.1046" lon="7.06884">
        <ele>1273.9</ele>
        <time>2017-10-21T14:05:26.000+02:00</time>
      </trkpt>
      <trkpt lat="48.10463" lon="7.06886">
        <ele>1274</ele>
        <time>2017-10-21T14:05:27.000+02:00</time>
      </trkpt>
      <trkpt lat="48.10466" lon="7.06888">
        <ele>1274.1</ele>
        <time>2017-10-21T14:05:32.000+02:00</time>
      </trkpt>
      <trkpt lat="48.10469" lon="7.06891">
        <ele>1274.2</ele>
        <time>2017-10-21T14:05:33.000+02:00</time>
      </trkpt>
      <trkpt lat="48.10471" lon="7.06893">
        <ele>1274.3</ele>
        <time>2017-10-21T14:05:34.000+02:00</time>
      </trkpt>
      <trkpt lat="48.10474" lon="7.06895">
        <ele>1274.5</ele>
        <time>2017-10-21T14:05:35.000+02:00</time>
      </trkpt>
      <trkpt lat="48.10477" lon="7.06898">
        <ele>1274.7</ele>
        <time>2017-10-21T14:05:36.000+02:00</time>
      </trkpt>
      <trkpt lat="48.1048" lon="7.06901">
        <ele>1275</ele>
        <time>2017-10-21T14:05:38.000+02:00</time>
      </trkpt>
      <trkpt lat="48.10484" lon="7.06905">
        <ele>1275.4</ele>
        <time>2017-10-21T14:05:42.000+02:00</time>
      </trkpt>
      <trkpt lat="48.10488" lon="7.06908">
        <ele>1276</ele>
        <time>2017-10-21T14:05:44.000+02:00</time>
      </trkpt>
      <trkpt lat="48.10493" lon="7.06912">
        <ele>1276.7</ele>
        <time>2017-10-21T14:05:48.000+02:00</time>
      </trkpt>
      <trkpt lat="48.10498" lon="7.06915">
        <ele>1277.6</ele>
        <time>2017-10-21T14:05:53.000+02:00</time>
      </trkpt>
      <trkpt lat="48.10503" lon="7.06917">
        <ele>1278</ele>
        <time>2017-10-21T14:05:55.000+02:00</time>
      </trkpt>
      <trkpt lat="48.10507" lon="7.06921">
        <ele>1277</ele>
        <time>2017-10-21T14:05:58.000+02:00</time>
      </trkpt>
      <trkpt lat="48.10511" lon="7.06924">
        <ele>1276.5</ele>
        <time>2017-10-21T14:05:59.000+02:00</time>
      </trkpt>
      <trkpt lat="48.10515" lon="7.06927">
        <ele>1276.1</ele>
        <time>2017-10-21T14:06:02.000+02:00</time>
      </trkpt>
      <trkpt lat="48.10519" lon="7.0693">
        <ele>1275.9</ele>
        <time>2017-10-21T14:06:03.000+02:00</time>
      </trkpt>
      <trkpt lat="48.10523" lon="7.06932">
        <ele>1275.7</ele>
        <time>2017-10-21T14:06:06.000+02:00</time>
      </trkpt>
      <trkpt lat="48.10526" lon="7.06935">
        <ele>1275.4</ele>
        <time>2017-10-21T14:06:07.000+02:00</time>
      </trkpt>
      <trkpt lat="48.10529" lon="7.06939">
        <ele>1274.8</ele>
        <time>2017-10-21T14:06:09.000+02:00</time>
      </trkpt>
      <trkpt lat="48.10532" lon="7.06942">
        <ele>1274.7</ele>
        <time>2017-10-21T14:06:10.000+02:00</time>
      </trkpt>
      <trkpt lat="48.10535" lon="7.06943">
        <ele>1274.9</ele>
        <time>2017-10-21T14:06:11.000+02:00</time>
      </trkpt>
      <trkpt lat="48.10537" lon="7.06944">
        <ele>1275</ele>
        <time>2017-10-21T14:06:12.000+02:00</time>
      </trkpt>
      <trkpt lat="48.10539" lon="7.06946">
        <ele>1275.2</ele>
        <time>2017-10-21T14:06:14.000+02:00</time>
      </trkpt>
      <trkpt lat="48.10542" lon="7.06948">
        <ele>1275.3</ele>
        <time>2017-10-21T14:06:15.000+02:00</time>
      </trkpt>
      <trkpt lat="48.10543" lon="7.06949">
        <ele>1275.4</ele>
        <time>2017-10-21T14:06:15.000+02:00</time>
      </trkpt>
      <trkpt lat="48.10545" lon="7.06951">
        <ele>1275.5</ele>
        <time>2017-10-21T14:06:16.000+02:00</time>
      </trkpt>
      <trkpt lat="48.10547" lon="7.06952">
        <ele>1275.6</ele>
        <time>2017-10-21T14:06:17.000+02:00</time>
      </trkpt>
      <trkpt lat="48.10549" lon="7.06954">
        <ele>1275.7</ele>
        <time>2017-10-21T14:06:18.000+02:00</time>
      </trkpt>
      <trkpt lat="48.10551" lon="7.06956">
        <ele>1275.7</ele>
        <time>2017-10-21T14:06:19.000+02:00</time>
      </trkpt>
      <trkpt lat="48.10552" lon="7.06958">
        <ele>1275.8</ele>
        <time>2017-10-21T14:06:20.000+02:00</time>
      </trkpt>
      <trkpt lat="48.10554" lon="7.06961">
        <ele>1275.9</ele>
        <time>2017-10-21T14:06:21.000+02:00</time>
      </trkpt>
      <trkpt lat="48.10556" lon="7.06962">
        <ele>1276.1</ele>
        <time>2017-10-21T14:06:25.000+02:00</time>
      </trkpt>
      <trkpt lat="48.10558" lon="7.06964">
        <ele>1276.3</ele>
        <time>2017-10-21T14:06:26.000+02:00</time>
      </trkpt>
      <trkpt lat="48.10559" lon="7.06965">
        <ele>1276.7</ele>
        <time>2017-10-21T14:06:26.000+02:00</time>
      </trkpt>
      <trkpt lat="48.10561" lon="7.06967">
        <ele>1276.9</ele>
        <time>2017-10-21T14:06:27.000+02:00</time>
      </trkpt>
      <trkpt lat="48.10563" lon="7.06969">
        <ele>1277.2</ele>
        <time>2017-10-21T14:06:28.000+02:00</time>
      </trkpt>
      <trkpt lat="48.10564" lon="7.0697">
        <ele>1277.4</ele>
        <time>2017-10-21T14:06:29.000+02:00</time>
      </trkpt>
      <trkpt lat="48.10565" lon="7.06971">
        <ele>1277.7</ele>
        <time>2017-10-21T14:06:29.000+02:00</time>
      </trkpt>
      <trkpt lat="48.10567" lon="7.06972">
        <ele>1278</ele>
        <time>2017-10-21T14:06:32.000+02:00</time>
      </trkpt>
      <trkpt lat="48.10568" lon="7.06973">
        <ele>1278.3</ele>
        <time>2017-10-21T14:06:33.000+02:00</time>
      </trkpt>
      <trkpt lat="48.10569" lon="7.06974">
        <ele>1278.5</ele>
        <time>2017-10-21T14:06:33.000+02:00</time>
      </trkpt>
      <trkpt lat="48.10569" lon="7.06975">
        <ele>1278.6</ele>
        <time>2017-10-21T14:06:34.000+02:00</time>
      </trkpt>
      <trkpt lat="48.1057" lon="7.06976">
        <ele>1278.8</ele>
        <time>2017-10-21T14:06:34.000+02:00</time>
      </trkpt>
      <trkpt lat="48.10571" lon="7.06976">
        <ele>1279.1</ele>
        <time>2017-10-21T14:06:35.000+02:00</time>
      </trkpt>
      <trkpt lat="48.10572" lon="7.06977">
        <ele>1279.2</ele>
        <time>2017-10-21T14:06:35.000+02:00</time>
      </trkpt>
      <trkpt lat="48.10572" lon="7.06978">
        <ele>1279.1</ele>
        <time>2017-10-21T14:06:35.000+02:00</time>
      </trkpt>
      <trkpt lat="48.10572" lon="7.06979">
        <ele>1279.1</ele>
        <time>2017-10-21T14:06:35.000+02:00</time>
      </trkpt>
      <trkpt lat="48.10572" lon="7.06981">
        <ele>1279.1</ele>
        <time>2017-10-21T14:06:38.000+02:00</time>
      </trkpt>
      <trkpt lat="48.10574" lon="7.06983">
        <ele>1279.3</ele>
        <time>2017-10-21T14:06:39.000+02:00</time>
      </trkpt>
      <trkpt lat="48.10574" lon="7.06983">
        <ele>1279.5</ele>
        <time>2017-10-21T14:06:39.000+02:00</time>
      </trkpt>
      <trkpt lat="48.10576" lon="7.06984">
        <ele>1280</ele>
        <time>2017-10-21T14:06:40.000+02:00</time>
      </trkpt>
      <trkpt lat="48.10578" lon="7.06985">
        <ele>1280.7</ele>
        <time>2017-10-21T14:06:44.000+02:00</time>
      </trkpt>
      <trkpt lat="48.1058" lon="7.06986">
        <ele>1281.2</ele>
        <time>2017-10-21T14:06:45.000+02:00</time>
      </trkpt>
      <trkpt lat="48.10581" lon="7.06988">
        <ele>1281.7</ele>
        <time>2017-10-21T14:06:46.000+02:00</time>
      </trkpt>
      <trkpt lat="48.10583" lon="7.06988">
        <ele>1282.2</ele>
        <time>2017-10-21T14:06:49.000+02:00</time>
      </trkpt>
      <trkpt lat="48.10584" lon="7.06989">
        <ele>1282.6</ele>
        <time>2017-10-21T14:06:57.000+02:00</time>
      </trkpt>
      <trkpt lat="48.10585" lon="7.0699">
        <ele>1282.6</ele>
        <time>2017-10-21T14:06:59.000+02:00</time>
      </trkpt>
      <trkpt lat="48.10585" lon="7.0699">
        <ele>1282.7</ele>
        <time>2017-10-21T14:06:59.000+02:00</time>
      </trkpt>
      <trkpt lat="48.10587" lon="7.06991">
        <ele>1282.8</ele>
        <time>2017-10-21T14:07:00.000+02:00</time>
      </trkpt>
      <trkpt lat="48.10588" lon="7.06992">
        <ele>1282.9</ele>
        <time>2017-10-21T14:07:01.000+02:00</time>
      </trkpt>
      <trkpt lat="48.1059" lon="7.06993">
        <ele>1283</ele>
        <time>2017-10-21T14:07:01.000+02:00</time>
      </trkpt>
      <trkpt lat="48.10591" lon="7.06993">
        <ele>1283.1</ele>
        <time>2017-10-21T14:07:04.000+02:00</time>
      </trkpt>
      <trkpt lat="48.1059" lon="7.06993">
        <ele>1283.1</ele>
        <time>2017-10-21T14:07:05.000+02:00</time>
      </trkpt>
      <trkpt lat="48.10591" lon="7.06993">
        <ele>1283.2</ele>
        <time>2017-10-21T14:07:07.000+02:00</time>
      </trkpt>
      <trkpt lat="48.10591" lon="7.06993">
        <ele>1283.2</ele>
        <time>2017-10-21T14:07:07.000+02:00</time>
      </trkpt>
      <trkpt lat="48.10593" lon="7.06993">
        <ele>1283.3</ele>
        <time>2017-10-21T14:07:08.000+02:00</time>
      </trkpt>
      <trkpt lat="48.10593" lon="7.06993">
        <ele>1283.4</ele>
        <time>2017-10-21T14:07:08.000+02:00</time>
      </trkpt>
      <trkpt lat="48.10594" lon="7.06994">
        <ele>1283.4</ele>
        <time>2017-10-21T14:07:08.000+02:00</time>
      </trkpt>
      <trkpt lat="48.10595" lon="7.06995">
        <ele>1283.5</ele>
        <time>2017-10-21T14:07:09.000+02:00</time>
      </trkpt>
      <trkpt lat="48.10595" lon="7.06996">
        <ele>1283.5</ele>
        <time>2017-10-21T14:07:09.000+02:00</time>
      </trkpt>
      <trkpt lat="48.10596" lon="7.06997">
        <ele>1283.6</ele>
        <time>2017-10-21T14:07:09.000+02:00</time>
      </trkpt>
      <trkpt lat="48.10597" lon="7.06997">
        <ele>1283.7</ele>
        <time>2017-10-21T14:07:10.000+02:00</time>
      </trkpt>
      <trkpt lat="48.10598" lon="7.06998">
        <ele>1283.8</ele>
        <time>2017-10-21T14:07:10.000+02:00</time>
      </trkpt>
      <trkpt lat="48.10598" lon="7.06998">
        <ele>1283.8</ele>
        <time>2017-10-21T14:07:11.000+02:00</time>
      </trkpt>
      <trkpt lat="48.10598" lon="7.06998">
        <ele>1283.8</ele>
        <time>2017-10-21T14:07:11.000+02:00</time>
      </trkpt>
      <trkpt lat="48.10598" lon="7.06999">
        <ele>1283.8</ele>
        <time>2017-10-21T14:07:11.000+02:00</time>
      </trkpt>
      <trkpt lat="48.10599" lon="7.07">
        <ele>1283.9</ele>
        <time>2017-10-21T14:07:16.000+02:00</time>
      </trkpt>
      <trkpt lat="48.10601" lon="7.07002">
        <ele>1283.5</ele>
        <time>2017-10-21T14:07:18.000+02:00</time>
      </trkpt>
      <trkpt lat="48.10602" lon="7.07002">
        <ele>1283.5</ele>
        <time>2017-10-21T14:07:19.000+02:00</time>
      </trkpt>
      <trkpt lat="48.10603" lon="7.07002">
        <ele>1283.4</ele>
        <time>2017-10-21T14:07:19.000+02:00</time>
      </trkpt>
      <trkpt lat="48.10604" lon="7.07002">
        <ele>1283.5</ele>
        <time>2017-10-21T14:07:19.000+02:00</time>
      </trkpt>
      <trkpt lat="48.10605" lon="7.07004">
        <ele>1283.2</ele>
        <time>2017-10-21T14:07:20.000+02:00</time>
      </trkpt>
      <trkpt lat="48.10607" lon="7.07005">
        <ele>1282.9</ele>
        <time>2017-10-21T14:07:21.000+02:00</time>
      </trkpt>
      <trkpt lat="48.10608" lon="7.07006">
        <ele>1282.9</ele>
        <time>2017-10-21T14:07:21.000+02:00</time>
      </trkpt>
      <trkpt lat="48.1061" lon="7.07007">
        <ele>1282.8</ele>
        <time>2017-10-21T14:07:22.000+02:00</time>
      </trkpt>
      <trkpt lat="48.10611" lon="7.07007">
        <ele>1283</ele>
        <time>2017-10-21T14:07:23.000+02:00</time>
      </trkpt>
      <trkpt lat="48.10613" lon="7.07006">
        <ele>1283.3</ele>
        <time>2017-10-21T14:07:23.000+02:00</time>
      </trkpt>
      <trkpt lat="48.10614" lon="7.07006">
        <ele>1283.6</ele>
        <time>2017-10-21T14:07:24.000+02:00</time>
      </trkpt>
      <trkpt lat="48.10615" lon="7.07006">
        <ele>1283.7</ele>
        <time>2017-10-21T14:07:24.000+02:00</time>
      </trkpt>
      <trkpt lat="48.10616" lon="7.07007">
        <ele>1283.6</ele>
        <time>2017-10-21T14:07:25.000+02:00</time>
      </trkpt>
      <trkpt lat="48.10617" lon="7.07009">
        <ele>1283.2</ele>
        <time>2017-10-21T14:07:25.000+02:00</time>
      </trkpt>
      <trkpt lat="48.10618" lon="7.0701">
        <ele>1283</ele>
        <time>2017-10-21T14:07:26.000+02:00</time>
      </trkpt>
      <trkpt lat="48.10619" lon="7.07011">
        <ele>1282.9</ele>
        <time>2017-10-21T14:07:26.000+02:00</time>
      </trkpt>
      <trkpt lat="48.10621" lon="7.07011">
        <ele>1282.9</ele>
        <time>2017-10-21T14:07:27.000+02:00</time>
      </trkpt>
      <trkpt lat="48.10623" lon="7.07011">
        <ele>1283.2</ele>
        <time>2017-10-21T14:07:28.000+02:00</time>
      </trkpt>
      <trkpt lat="48.10625" lon="7.07011">
        <ele>1283.4</ele>
        <time>2017-10-21T14:07:28.000+02:00</time>
      </trkpt>
      <trkpt lat="48.10627" lon="7.07012">
        <ele>1283.8</ele>
        <time>2017-10-21T14:07:29.000+02:00</time>
      </trkpt>
      <trkpt lat="48.1063" lon="7.07013">
        <ele>1283.8</ele>
        <time>2017-10-21T14:07:34.000+02:00</time>
      </trkpt>
      <trkpt lat="48.10631" lon="7.07015">
        <ele>1283.6</ele>
        <time>2017-10-21T14:07:34.000+02:00</time>
      </trkpt>
      <trkpt lat="48.10633" lon="7.07016">
        <ele>1283.6</ele>
        <time>2017-10-21T14:07:35.000+02:00</time>
      </trkpt>
      <trkpt lat="48.10634" lon="7.07017">
        <ele>1283.5</ele>
        <time>2017-10-21T14:07:36.000+02:00</time>
      </trkpt>
      <trkpt lat="48.10636" lon="7.07018">
        <ele>1283.5</ele>
        <time>2017-10-21T14:07:36.000+02:00</time>
      </trkpt>
      <trkpt lat="48.10637" lon="7.07018">
        <ele>1283.7</ele>
        <time>2017-10-21T14:07:37.000+02:00</time>
      </trkpt>
      <trkpt lat="48.10639" lon="7.0702">
        <ele>1283.7</ele>
        <time>2017-10-21T14:07:38.000+02:00</time>
      </trkpt>
      <trkpt lat="48.10641" lon="7.07021">
        <ele>1283.8</ele>
        <time>2017-10-21T14:07:39.000+02:00</time>
      </trkpt>
      <trkpt lat="48.10642" lon="7.07022">
        <ele>1283.7</ele>
        <time>2017-10-21T14:07:39.000+02:00</time>
      </trkpt>
      <trkpt lat="48.10643" lon="7.07023">
        <ele>1283.9</ele>
        <time>2017-10-21T14:07:42.000+02:00</time>
      </trkpt>
      <trkpt lat="48.10644" lon="7.07023">
        <ele>1284</ele>
        <time>2017-10-21T14:07:43.000+02:00</time>
      </trkpt>
      <trkpt lat="48.10644" lon="7.07023">
        <ele>1284</ele>
        <time>2017-10-21T14:07:43.000+02:00</time>
      </trkpt>
      <trkpt lat="48.10645" lon="7.07023">
        <ele>1284.1</ele>
        <time>2017-10-21T14:07:43.000+02:00</time>
      </trkpt>
      <trkpt lat="48.10645" lon="7.07023">
        <ele>1284.1</ele>
        <time>2017-10-21T14:07:43.000+02:00</time>
      </trkpt>
      <trkpt lat="48.10644" lon="7.07023">
        <ele>1284.1</ele>
        <time>2017-10-21T14:07:43.000+02:00</time>
      </trkpt>
      <trkpt lat="48.10645" lon="7.07023">
        <ele>1284.2</ele>
        <time>2017-10-21T14:07:44.000+02:00</time>
      </trkpt>
      <trkpt lat="48.10645" lon="7.07023">
        <ele>1284.1</ele>
        <time>2017-10-21T14:07:44.000+02:00</time>
      </trkpt>
      <trkpt lat="48.10645" lon="7.07023">
        <ele>1284.1</ele>
        <time>2017-10-21T14:07:44.000+02:00</time>
      </trkpt>
      <trkpt lat="48.10646" lon="7.07024">
        <ele>1284.1</ele>
        <time>2017-10-21T14:07:44.000+02:00</time>
      </trkpt>
      <trkpt lat="48.10647" lon="7.07026">
        <ele>1284</ele>
        <time>2017-10-21T14:07:45.000+02:00</time>
      </trkpt>
      <trkpt lat="48.10649" lon="7.07026">
        <ele>1284.3</ele>
        <time>2017-10-21T14:07:46.000+02:00</time>
      </trkpt>
      <trkpt lat="48.10651" lon="7.07027">
        <ele>1284.5</ele>
        <time>2017-10-21T14:07:46.000+02:00</time>
      </trkpt>
      <trkpt lat="48.10652" lon="7.07028">
        <ele>1284.6</ele>
        <time>2017-10-21T14:07:47.000+02:00</time>
      </trkpt>
      <trkpt lat="48.10653" lon="7.07029">
        <ele>1284.7</ele>
        <time>2017-10-21T14:07:48.000+02:00</time>
      </trkpt>
      <trkpt lat="48.10655" lon="7.07031">
        <ele>1284.7</ele>
        <time>2017-10-21T14:07:48.000+02:00</time>
      </trkpt>
      <trkpt lat="48.10655" lon="7.07034">
        <ele>1284.3</ele>
        <time>2017-10-21T14:07:51.000+02:00</time>
      </trkpt>
      <trkpt lat="48.10657" lon="7.07037">
        <ele>1284</ele>
        <time>2017-10-21T14:07:52.000+02:00</time>
      </trkpt>
      <trkpt lat="48.10659" lon="7.0704">
        <ele>1284.2</ele>
        <time>2017-10-21T14:07:54.000+02:00</time>
      </trkpt>
      <trkpt lat="48.10662" lon="7.07043">
        <ele>1284.4</ele>
        <time>2017-10-21T14:07:55.000+02:00</time>
      </trkpt>
      <trkpt lat="48.10664" lon="7.07046">
        <ele>1284.6</ele>
        <time>2017-10-21T14:07:56.000+02:00</time>
      </trkpt>
      <trkpt lat="48.10665" lon="7.07049">
        <ele>1284.5</ele>
        <time>2017-10-21T14:07:58.000+02:00</time>
      </trkpt>
      <trkpt lat="48.10667" lon="7.07052">
        <ele>1284.6</ele>
        <time>2017-10-21T14:08:10.000+02:00</time>
      </trkpt>
      <trkpt lat="48.10668" lon="7.07054">
        <ele>1284.3</ele>
        <time>2017-10-21T14:08:11.000+02:00</time>
      </trkpt>
      <trkpt lat="48.1067" lon="7.07056">
        <ele>1284</ele>
        <time>2017-10-21T14:08:12.000+02:00</time>
      </trkpt>
      <trkpt lat="48.10672" lon="7.07058">
        <ele>1283.8</ele>
        <time>2017-10-21T14:08:14.000+02:00</time>
      </trkpt>
      <trkpt lat="48.10674" lon="7.07061">
        <ele>1283.5</ele>
        <time>2017-10-21T14:08:15.000+02:00</time>
      </trkpt>
      <trkpt lat="48.10676" lon="7.07063">
        <ele>1283.3</ele>
        <time>2017-10-21T14:08:16.000+02:00</time>
      </trkpt>
      <trkpt lat="48.10678" lon="7.07065">
        <ele>1283.2</ele>
        <time>2017-10-21T14:08:17.000+02:00</time>
      </trkpt>
      <trkpt lat="48.1068" lon="7.07068">
        <ele>1282.9</ele>
        <time>2017-10-21T14:08:18.000+02:00</time>
      </trkpt>
      <trkpt lat="48.10681" lon="7.0707">
        <ele>1282.7</ele>
        <time>2017-10-21T14:08:19.000+02:00</time>
      </trkpt>
      <trkpt lat="48.10683" lon="7.07073">
        <ele>1282.5</ele>
        <time>2017-10-21T14:08:22.000+02:00</time>
      </trkpt>
      <trkpt lat="48.10684" lon="7.07074">
        <ele>1282.5</ele>
        <time>2017-10-21T14:08:25.000+02:00</time>
      </trkpt>
      <trkpt lat="48.10686" lon="7.07076">
        <ele>1282.4</ele>
        <time>2017-10-21T14:08:26.000+02:00</time>
      </trkpt>
      <trkpt lat="48.10686" lon="7.07078">
        <ele>1282.2</ele>
        <time>2017-10-21T14:08:26.000+02:00</time>
      </trkpt>
      <trkpt lat="48.10688" lon="7.07079">
        <ele>1282.2</ele>
        <time>2017-10-21T14:08:27.000+02:00</time>
      </trkpt>
      <trkpt lat="48.1069" lon="7.07081">
        <ele>1282.1</ele>
        <time>2017-10-21T14:08:28.000+02:00</time>
      </trkpt>
      <trkpt lat="48.10691" lon="7.07084">
        <ele>1282</ele>
        <time>2017-10-21T14:08:36.000+02:00</time>
      </trkpt>
      <trkpt lat="48.10693" lon="7.07086">
        <ele>1281.4</ele>
        <time>2017-10-21T14:08:37.000+02:00</time>
      </trkpt>
      <trkpt lat="48.10695" lon="7.07088">
        <ele>1280.8</ele>
        <time>2017-10-21T14:08:38.000+02:00</time>
      </trkpt>
      <trkpt lat="48.10697" lon="7.0709">
        <ele>1280.5</ele>
        <time>2017-10-21T14:08:39.000+02:00</time>
      </trkpt>
      <trkpt lat="48.107" lon="7.07092">
        <ele>1280.4</ele>
        <time>2017-10-21T14:08:40.000+02:00</time>
      </trkpt>
      <trkpt lat="48.10704" lon="7.07093">
        <ele>1280.3</ele>
        <time>2017-10-21T14:08:41.000+02:00</time>
      </trkpt>
      <trkpt lat="48.10707" lon="7.07096">
        <ele>1279.9</ele>
        <time>2017-10-21T14:08:43.000+02:00</time>
      </trkpt>
      <trkpt lat="48.10711" lon="7.07099">
        <ele>1279.7</ele>
        <time>2017-10-21T14:08:45.000+02:00</time>
      </trkpt>
      <trkpt lat="48.10715" lon="7.07102">
        <ele>1279.4</ele>
        <time>2017-10-21T14:08:46.000+02:00</time>
      </trkpt>
      <trkpt lat="48.10718" lon="7.07105">
        <ele>1279.2</ele>
        <time>2017-10-21T14:08:48.000+02:00</time>
      </trkpt>
      <trkpt lat="48.10721" lon="7.07107">
        <ele>1279.5</ele>
        <time>2017-10-21T14:08:49.000+02:00</time>
      </trkpt>
      <trkpt lat="48.10724" lon="7.0711">
        <ele>1279.2</ele>
        <time>2017-10-21T14:08:51.000+02:00</time>
      </trkpt>
      <trkpt lat="48.10726" lon="7.07112">
        <ele>1279.2</ele>
        <time>2017-10-21T14:08:52.000+02:00</time>
      </trkpt>
      <trkpt lat="48.10729" lon="7.07115">
        <ele>1279.3</ele>
        <time>2017-10-21T14:08:53.000+02:00</time>
      </trkpt>
      <trkpt lat="48.10732" lon="7.07118">
        <ele>1279.4</ele>
        <time>2017-10-21T14:08:55.000+02:00</time>
      </trkpt>
      <trkpt lat="48.10735" lon="7.07121">
        <ele>1279.5</ele>
        <time>2017-10-21T14:08:56.000+02:00</time>
      </trkpt>
      <trkpt lat="48.10738" lon="7.07125">
        <ele>1279.6</ele>
        <time>2017-10-21T14:08:58.000+02:00</time>
      </trkpt>
      <trkpt lat="48.10741" lon="7.07129">
        <ele>1279.8</ele>
        <time>2017-10-21T14:09:00.000+02:00</time>
      </trkpt>
      <trkpt lat="48.10744" lon="7.07132">
        <ele>1280.1</ele>
        <time>2017-10-21T14:09:01.000+02:00</time>
      </trkpt>
      <trkpt lat="48.10746" lon="7.07135">
        <ele>1280.4</ele>
        <time>2017-10-21T14:09:03.000+02:00</time>
      </trkpt>
      <trkpt lat="48.10748" lon="7.07138">
        <ele>1280.4</ele>
        <time>2017-10-21T14:09:04.000+02:00</time>
      </trkpt>
      <trkpt lat="48.10748" lon="7.07141">
        <ele>1280.2</ele>
        <time>2017-10-21T14:09:04.000+02:00</time>
      </trkpt>
      <trkpt lat="48.10748" lon="7.07143">
        <ele>1280</ele>
        <time>2017-10-21T14:09:05.000+02:00</time>
      </trkpt>
      <trkpt lat="48.10748" lon="7.07145">
        <ele>1279.7</ele>
        <time>2017-10-21T14:09:06.000+02:00</time>
      </trkpt>
      <trkpt lat="48.10747" lon="7.07147">
        <ele>1279.2</ele>
        <time>2017-10-21T14:09:06.000+02:00</time>
      </trkpt>
      <trkpt lat="48.10746" lon="7.07149">
        <ele>1278.7</ele>
        <time>2017-10-21T14:09:07.000+02:00</time>
      </trkpt>
      <trkpt lat="48.10745" lon="7.0715">
        <ele>1278</ele>
        <time>2017-10-21T14:09:07.000+02:00</time>
      </trkpt>
      <trkpt lat="48.10744" lon="7.07152">
        <ele>1277.4</ele>
        <time>2017-10-21T14:09:08.000+02:00</time>
      </trkpt>
      <trkpt lat="48.10743" lon="7.07153">
        <ele>1276.9</ele>
        <time>2017-10-21T14:09:09.000+02:00</time>
      </trkpt>
      <trkpt lat="48.10742" lon="7.07152">
        <ele>1276.8</ele>
        <time>2017-10-21T14:09:09.000+02:00</time>
      </trkpt>
      <trkpt lat="48.10743" lon="7.07153">
        <ele>1276.9</ele>
        <time>2017-10-21T14:09:09.000+02:00</time>
      </trkpt>
      <trkpt lat="48.10742" lon="7.07152">
        <ele>1276.8</ele>
        <time>2017-10-21T14:09:09.000+02:00</time>
      </trkpt>
      <trkpt lat="48.10742" lon="7.07152">
        <ele>1276.8</ele>
        <time>2017-10-21T14:09:09.000+02:00</time>
      </trkpt>
      <trkpt lat="48.10742" lon="7.07153">
        <ele>1276.8</ele>
        <time>2017-10-21T14:09:10.000+02:00</time>
      </trkpt>
      <trkpt lat="48.10743" lon="7.07153">
        <ele>1276.9</ele>
        <time>2017-10-21T14:09:10.000+02:00</time>
      </trkpt>
      <trkpt lat="48.10743" lon="7.07153">
        <ele>1276.9</ele>
        <time>2017-10-21T14:09:10.000+02:00</time>
      </trkpt>
      <trkpt lat="48.10743" lon="7.07153">
        <ele>1277</ele>
        <time>2017-10-21T14:09:10.000+02:00</time>
      </trkpt>
      <trkpt lat="48.10744" lon="7.07152">
        <ele>1277.4</ele>
        <time>2017-10-21T14:09:10.000+02:00</time>
      </trkpt>
      <trkpt lat="48.10745" lon="7.07151">
        <ele>1278</ele>
        <time>2017-10-21T14:09:11.000+02:00</time>
      </trkpt>
      <trkpt lat="48.10746" lon="7.07149">
        <ele>1278.4</ele>
        <time>2017-10-21T14:09:11.000+02:00</time>
      </trkpt>
      <trkpt lat="48.10745" lon="7.0715">
        <ele>1278.2</ele>
        <time>2017-10-21T14:09:12.000+02:00</time>
      </trkpt>
      <trkpt lat="48.10746" lon="7.07149">
        <ele>1278.4</ele>
        <time>2017-10-21T14:09:12.000+02:00</time>
      </trkpt>
      <trkpt lat="48.10746" lon="7.07149">
        <ele>1278.6</ele>
        <time>2017-10-21T14:09:12.000+02:00</time>
      </trkpt>
      <trkpt lat="48.10747" lon="7.07147">
        <ele>1279.2</ele>
        <time>2017-10-21T14:09:13.000+02:00</time>
      </trkpt>
      <trkpt lat="48.10748" lon="7.07146">
        <ele>1279.5</ele>
        <time>2017-10-21T14:09:13.000+02:00</time>
      </trkpt>
      <trkpt lat="48.10749" lon="7.07144">
        <ele>1280</ele>
        <time>2017-10-21T14:09:14.000+02:00</time>
      </trkpt>
      <trkpt lat="48.10749" lon="7.07143">
        <ele>1280.3</ele>
        <time>2017-10-21T14:09:14.000+02:00</time>
      </trkpt>
      <trkpt lat="48.1075" lon="7.07142">
        <ele>1280.7</ele>
        <time>2017-10-21T14:09:22.000+02:00</time>
      </trkpt>
      <trkpt lat="48.10751" lon="7.0714">
        <ele>1280.8</ele>
        <time>2017-10-21T14:09:23.000+02:00</time>
      </trkpt>
      <trkpt lat="48.10752" lon="7.07139">
        <ele>1280.9</ele>
        <time>2017-10-21T14:09:24.000+02:00</time>
      </trkpt>
      <trkpt lat="48.10754" lon="7.07139">
        <ele>1280.9</ele>
        <time>2017-10-21T14:09:24.000+02:00</time>
      </trkpt>
      <trkpt lat="48.10756" lon="7.07139">
        <ele>1280.9</ele>
        <time>2017-10-21T14:09:25.000+02:00</time>
      </trkpt>
      <trkpt lat="48.10757" lon="7.07139">
        <ele>1280.8</ele>
        <time>2017-10-21T14:09:26.000+02:00</time>
      </trkpt>
      <trkpt lat="48.10759" lon="7.0714">
        <ele>1280.8</ele>
        <time>2017-10-21T14:09:26.000+02:00</time>
      </trkpt>
      <trkpt lat="48.1076" lon="7.07141">
        <ele>1280.6</ele>
        <time>2017-10-21T14:09:27.000+02:00</time>
      </trkpt>
      <trkpt lat="48.10761" lon="7.07142">
        <ele>1280.5</ele>
        <time>2017-10-21T14:09:27.000+02:00</time>
      </trkpt>
      <trkpt lat="48.10763" lon="7.07143">
        <ele>1280.4</ele>
        <time>2017-10-21T14:09:28.000+02:00</time>
      </trkpt>
      <trkpt lat="48.10764" lon="7.07143">
        <ele>1280.3</ele>
        <time>2017-10-21T14:09:29.000+02:00</time>
      </trkpt>
      <trkpt lat="48.10766" lon="7.07143">
        <ele>1280.3</ele>
        <time>2017-10-21T14:09:29.000+02:00</time>
      </trkpt>
      <trkpt lat="48.10768" lon="7.07144">
        <ele>1280.3</ele>
        <time>2017-10-21T14:09:30.000+02:00</time>
      </trkpt>
      <trkpt lat="48.10769" lon="7.07146">
        <ele>1280.1</ele>
        <time>2017-10-21T14:09:31.000+02:00</time>
      </trkpt>
      <trkpt lat="48.1077" lon="7.07148">
        <ele>1279.9</ele>
        <time>2017-10-21T14:09:32.000+02:00</time>
      </trkpt>
      <trkpt lat="48.10771" lon="7.0715">
        <ele>1279.7</ele>
        <time>2017-10-21T14:09:32.000+02:00</time>
      </trkpt>
      <trkpt lat="48.10771" lon="7.07152">
        <ele>1279.6</ele>
        <time>2017-10-21T14:09:33.000+02:00</time>
      </trkpt>
      <trkpt lat="48.10771" lon="7.07151">
        <ele>1279.7</ele>
        <time>2017-10-21T14:09:33.000+02:00</time>
      </trkpt>
      <trkpt lat="48.10771" lon="7.07152">
        <ele>1279.6</ele>
        <time>2017-10-21T14:09:33.000+02:00</time>
      </trkpt>
      <trkpt lat="48.10771" lon="7.07151">
        <ele>1279.6</ele>
        <time>2017-10-21T14:09:33.000+02:00</time>
      </trkpt>
      <trkpt lat="48.10771" lon="7.07152">
        <ele>1279.6</ele>
        <time>2017-10-21T14:09:34.000+02:00</time>
      </trkpt>
      <trkpt lat="48.10771" lon="7.07151">
        <ele>1279.7</ele>
        <time>2017-10-21T14:09:34.000+02:00</time>
      </trkpt>
      <trkpt lat="48.10771" lon="7.0715">
        <ele>1279.8</ele>
        <time>2017-10-21T14:09:34.000+02:00</time>
      </trkpt>
      <trkpt lat="48.1077" lon="7.07147">
        <ele>1279.9</ele>
        <time>2017-10-21T14:09:35.000+02:00</time>
      </trkpt>
      <trkpt lat="48.1077" lon="7.07146">
        <ele>1280.1</ele>
        <time>2017-10-21T14:09:35.000+02:00</time>
      </trkpt>
      <trkpt lat="48.10769" lon="7.07145">
        <ele>1280.2</ele>
        <time>2017-10-21T14:09:36.000+02:00</time>
      </trkpt>
      <trkpt lat="48.10768" lon="7.07144">
        <ele>1280.2</ele>
        <time>2017-10-21T14:09:36.000+02:00</time>
      </trkpt>
      <trkpt lat="48.10768" lon="7.07143">
        <ele>1280.3</ele>
        <time>2017-10-21T14:09:36.000+02:00</time>
      </trkpt>
      <trkpt lat="48.10767" lon="7.07141">
        <ele>1280.5</ele>
        <time>2017-10-21T14:09:37.000+02:00</time>
      </trkpt>
      <trkpt lat="48.10768" lon="7.07139">
        <ele>1280.6</ele>
        <time>2017-10-21T14:09:37.000+02:00</time>
      </trkpt>
      <trkpt lat="48.10767" lon="7.0714">
        <ele>1280.6</ele>
        <time>2017-10-21T14:09:38.000+02:00</time>
      </trkpt>
      <trkpt lat="48.10768" lon="7.07139">
        <ele>1280.6</ele>
        <time>2017-10-21T14:09:38.000+02:00</time>
      </trkpt>
      <trkpt lat="48.10768" lon="7.07138">
        <ele>1280.7</ele>
        <time>2017-10-21T14:09:40.000+02:00</time>
      </trkpt>
      <trkpt lat="48.10769" lon="7.07136">
        <ele>1280.8</ele>
        <time>2017-10-21T14:09:41.000+02:00</time>
      </trkpt>
      <trkpt lat="48.1077" lon="7.07134">
        <ele>1281</ele>
        <time>2017-10-21T14:09:41.000+02:00</time>
      </trkpt>
      <trkpt lat="48.10772" lon="7.07132">
        <ele>1281</ele>
        <time>2017-10-21T14:09:42.000+02:00</time>
      </trkpt>
      <trkpt lat="48.10774" lon="7.07132">
        <ele>1281</ele>
        <time>2017-10-21T14:09:43.000+02:00</time>
      </trkpt>
      <trkpt lat="48.10775" lon="7.07133">
        <ele>1280.9</ele>
        <time>2017-10-21T14:09:44.000+02:00</time>
      </trkpt>
      <trkpt lat="48.10776" lon="7.07133">
        <ele>1280.9</ele>
        <time>2017-10-21T14:09:44.000+02:00</time>
      </trkpt>
      <trkpt lat="48.10777" lon="7.07133">
        <ele>1280.9</ele>
        <time>2017-10-21T14:09:44.000+02:00</time>
      </trkpt>
      <trkpt lat="48.10777" lon="7.07133">
        <ele>1280.9</ele>
        <time>2017-10-21T14:09:44.000+02:00</time>
      </trkpt>
      <trkpt lat="48.10778" lon="7.07134">
        <ele>1280.8</ele>
        <time>2017-10-21T14:09:45.000+02:00</time>
      </trkpt>
      <trkpt lat="48.1078" lon="7.07134">
        <ele>1280.7</ele>
        <time>2017-10-21T14:09:45.000+02:00</time>
      </trkpt>
      <trkpt lat="48.10781" lon="7.07134">
        <ele>1280.6</ele>
        <time>2017-10-21T14:09:46.000+02:00</time>
      </trkpt>
      <trkpt lat="48.10783" lon="7.07135">
        <ele>1280.6</ele>
        <time>2017-10-21T14:09:47.000+02:00</time>
      </trkpt>
      <trkpt lat="48.10784" lon="7.07135">
        <ele>1280.5</ele>
        <time>2017-10-21T14:09:47.000+02:00</time>
      </trkpt>
      <trkpt lat="48.10785" lon="7.07135">
        <ele>1280.5</ele>
        <time>2017-10-21T14:09:48.000+02:00</time>
      </trkpt>
      <trkpt lat="48.10785" lon="7.07135">
        <ele>1280.5</ele>
        <time>2017-10-21T14:09:48.000+02:00</time>
      </trkpt>
      <trkpt lat="48.10785" lon="7.07135">
        <ele>1280.5</ele>
        <time>2017-10-21T14:09:48.000+02:00</time>
      </trkpt>
      <trkpt lat="48.10785" lon="7.07136">
        <ele>1280.5</ele>
        <time>2017-10-21T14:09:48.000+02:00</time>
      </trkpt>
      <trkpt lat="48.10785" lon="7.07135">
        <ele>1280.5</ele>
        <time>2017-10-21T14:09:48.000+02:00</time>
      </trkpt>
      <trkpt lat="48.10786" lon="7.07134">
        <ele>1280.5</ele>
        <time>2017-10-21T14:09:49.000+02:00</time>
      </trkpt>
      <trkpt lat="48.10787" lon="7.07134">
        <ele>1280.5</ele>
        <time>2017-10-21T14:09:49.000+02:00</time>
      </trkpt>
      <trkpt lat="48.10787" lon="7.07135">
        <ele>1280.5</ele>
        <time>2017-10-21T14:09:49.000+02:00</time>
      </trkpt>
      <trkpt lat="48.10787" lon="7.07134">
        <ele>1280.5</ele>
        <time>2017-10-21T14:09:49.000+02:00</time>
      </trkpt>
      <trkpt lat="48.10787" lon="7.07135">
        <ele>1280.5</ele>
        <time>2017-10-21T14:09:50.000+02:00</time>
      </trkpt>
      <trkpt lat="48.1079" lon="7.07137">
        <ele>1280.3</ele>
        <time>2017-10-21T14:09:51.000+02:00</time>
      </trkpt>
      <trkpt lat="48.10792" lon="7.07139">
        <ele>1280.2</ele>
        <time>2017-10-21T14:09:53.000+02:00</time>
      </trkpt>
      <trkpt lat="48.10794" lon="7.07141">
        <ele>1280</ele>
        <time>2017-10-21T14:09:54.000+02:00</time>
      </trkpt>
      <trkpt lat="48.10796" lon="7.07146">
        <ele>1279.8</ele>
        <time>2017-10-21T14:09:56.000+02:00</time>
      </trkpt>
      <trkpt lat="48.10799" lon="7.07151">
        <ele>1279.6</ele>
        <time>2017-10-21T14:09:57.000+02:00</time>
      </trkpt>
      <trkpt lat="48.108" lon="7.07158">
        <ele>1279.5</ele>
        <time>2017-10-21T14:09:59.000+02:00</time>
      </trkpt>
      <trkpt lat="48.108" lon="7.07164">
        <ele>1279.3</ele>
        <time>2017-10-21T14:10:01.000+02:00</time>
      </trkpt>
      <trkpt lat="48.10801" lon="7.0717">
        <ele>1278.6</ele>
        <time>2017-10-21T14:10:09.000+02:00</time>
      </trkpt>
      <trkpt lat="48.10803" lon="7.07175">
        <ele>1277.6</ele>
        <time>2017-10-21T14:10:10.000+02:00</time>
      </trkpt>
      <trkpt lat="48.10803" lon="7.07181">
        <ele>1276.6</ele>
        <time>2017-10-21T14:10:12.000+02:00</time>
      </trkpt>
      <trkpt lat="48.10804" lon="7.07186">
        <ele>1275.6</ele>
        <time>2017-10-21T14:10:13.000+02:00</time>
      </trkpt>
      <trkpt lat="48.10805" lon="7.07191">
        <ele>1274.9</ele>
        <time>2017-10-21T14:10:16.000+02:00</time>
      </trkpt>
      <trkpt lat="48.10806" lon="7.07196">
        <ele>1274</ele>
        <time>2017-10-21T14:10:17.000+02:00</time>
      </trkpt>
      <trkpt lat="48.10806" lon="7.072">
        <ele>1273.2</ele>
        <time>2017-10-21T14:10:19.000+02:00</time>
      </trkpt>
      <trkpt lat="48.10806" lon="7.07205">
        <ele>1272.3</ele>
        <time>2017-10-21T14:10:21.000+02:00</time>
      </trkpt>
      <trkpt lat="48.10806" lon="7.07209">
        <ele>1271.6</ele>
        <time>2017-10-21T14:10:23.000+02:00</time>
      </trkpt>
      <trkpt lat="48.10806" lon="7.07213">
        <ele>1270.9</ele>
        <time>2017-10-21T14:10:24.000+02:00</time>
      </trkpt>
      <trkpt lat="48.10806" lon="7.07217">
        <ele>1270.3</ele>
        <time>2017-10-21T14:10:25.000+02:00</time>
      </trkpt>
      <trkpt lat="48.10808" lon="7.0722">
        <ele>1269.9</ele>
        <time>2017-10-21T14:10:26.000+02:00</time>
      </trkpt>
      <trkpt lat="48.10809" lon="7.07225">
        <ele>1269.2</ele>
        <time>2017-10-21T14:10:29.000+02:00</time>
      </trkpt>
      <trkpt lat="48.10809" lon="7.0723">
        <ele>1268.6</ele>
        <time>2017-10-21T14:10:30.000+02:00</time>
      </trkpt>
      <trkpt lat="48.1081" lon="7.07232">
        <ele>1268.3</ele>
        <time>2017-10-21T14:10:30.000+02:00</time>
      </trkpt>
      <trkpt lat="48.1081" lon="7.07235">
        <ele>1267.9</ele>
        <time>2017-10-21T14:10:31.000+02:00</time>
      </trkpt>
      <trkpt lat="48.10811" lon="7.0724">
        <ele>1267.4</ele>
        <time>2017-10-21T14:10:32.000+02:00</time>
      </trkpt>
      <trkpt lat="48.10811" lon="7.07244">
        <ele>1266.8</ele>
        <time>2017-10-21T14:10:34.000+02:00</time>
      </trkpt>
      <trkpt lat="48.10813" lon="7.07248">
        <ele>1266.7</ele>
        <time>2017-10-21T14:10:38.000+02:00</time>
      </trkpt>
      <trkpt lat="48.10815" lon="7.07252">
        <ele>1266.8</ele>
        <time>2017-10-21T14:10:44.000+02:00</time>
      </trkpt>
      <trkpt lat="48.10816" lon="7.07256">
        <ele>1267.2</ele>
        <time>2017-10-21T14:10:46.000+02:00</time>
      </trkpt>
      <trkpt lat="48.10817" lon="7.07261">
        <ele>1267.3</ele>
        <time>2017-10-21T14:10:47.000+02:00</time>
      </trkpt>
      <trkpt lat="48.10818" lon="7.07266">
        <ele>1267.4</ele>
        <time>2017-10-21T14:10:49.000+02:00</time>
      </trkpt>
      <trkpt lat="48.10819" lon="7.07272">
        <ele>1267.3</ele>
        <time>2017-10-21T14:10:52.000+02:00</time>
      </trkpt>
      <trkpt lat="48.10819" lon="7.07277">
        <ele>1267.3</ele>
        <time>2017-10-21T14:10:53.000+02:00</time>
      </trkpt>
      <trkpt lat="48.10821" lon="7.07281">
        <ele>1267.7</ele>
        <time>2017-10-21T14:10:55.000+02:00</time>
      </trkpt>
      <trkpt lat="48.10821" lon="7.07287">
        <ele>1267.8</ele>
        <time>2017-10-21T14:10:57.000+02:00</time>
      </trkpt>
      <trkpt lat="48.10822" lon="7.07293">
        <ele>1268</ele>
        <time>2017-10-21T14:10:58.000+02:00</time>
      </trkpt>
      <trkpt lat="48.10823" lon="7.07298">
        <ele>1268.2</ele>
        <time>2017-10-21T14:11:00.000+02:00</time>
      </trkpt>
      <trkpt lat="48.10825" lon="7.07304">
        <ele>1268.6</ele>
        <time>2017-10-21T14:11:04.000+02:00</time>
      </trkpt>
      <trkpt lat="48.10826" lon="7.07309">
        <ele>1269.1</ele>
        <time>2017-10-21T14:11:06.000+02:00</time>
      </trkpt>
      <trkpt lat="48.10827" lon="7.07314">
        <ele>1269.5</ele>
        <time>2017-10-21T14:11:10.000+02:00</time>
      </trkpt>
      <trkpt lat="48.10829" lon="7.07319">
        <ele>1270.2</ele>
        <time>2017-10-21T14:11:17.000+02:00</time>
      </trkpt>
      <trkpt lat="48.10831" lon="7.07324">
        <ele>1270.8</ele>
        <time>2017-10-21T14:11:24.000+02:00</time>
      </trkpt>
      <trkpt lat="48.10832" lon="7.07329">
        <ele>1271.4</ele>
        <time>2017-10-21T14:11:31.000+02:00</time>
      </trkpt>
      <trkpt lat="48.10833" lon="7.07334">
        <ele>1271.8</ele>
        <time>2017-10-21T14:11:39.000+02:00</time>
      </trkpt>
      <trkpt lat="48.10834" lon="7.07339">
        <ele>1272.4</ele>
        <time>2017-10-21T14:11:41.000+02:00</time>
      </trkpt>
      <trkpt lat="48.10835" lon="7.07344">
        <ele>1272.7</ele>
        <time>2017-10-21T14:11:45.000+02:00</time>
      </trkpt>
      <trkpt lat="48.10835" lon="7.07349">
        <ele>1273.1</ele>
        <time>2017-10-21T14:11:46.000+02:00</time>
      </trkpt>
      <trkpt lat="48.10836" lon="7.07354">
        <ele>1273.5</ele>
        <time>2017-10-21T14:11:48.000+02:00</time>
      </trkpt>
      <trkpt lat="48.10837" lon="7.0736">
        <ele>1273.8</ele>
        <time>2017-10-21T14:11:52.000+02:00</time>
      </trkpt>
      <trkpt lat="48.10838" lon="7.07365">
        <ele>1274.2</ele>
        <time>2017-10-21T14:11:53.000+02:00</time>
      </trkpt>
      <trkpt lat="48.10839" lon="7.0737">
        <ele>1274.5</ele>
        <time>2017-10-21T14:11:55.000+02:00</time>
      </trkpt>
      <trkpt lat="48.1084" lon="7.07375">
        <ele>1274.9</ele>
        <time>2017-10-21T14:11:59.000+02:00</time>
      </trkpt>
      <trkpt lat="48.1084" lon="7.07381">
        <ele>1275.3</ele>
        <time>2017-10-21T14:12:00.000+02:00</time>
      </trkpt>
      <trkpt lat="48.10841" lon="7.07386">
        <ele>1275.6</ele>
        <time>2017-10-21T14:12:02.000+02:00</time>
      </trkpt>
      <trkpt lat="48.10842" lon="7.07392">
        <ele>1276</ele>
        <time>2017-10-21T14:12:03.000+02:00</time>
      </trkpt>
      <trkpt lat="48.10843" lon="7.07397">
        <ele>1276.3</ele>
        <time>2017-10-21T14:12:08.000+02:00</time>
      </trkpt>
      <trkpt lat="48.10843" lon="7.07403">
        <ele>1276.7</ele>
        <time>2017-10-21T14:12:09.000+02:00</time>
      </trkpt>
      <trkpt lat="48.10844" lon="7.07408">
        <ele>1277.1</ele>
        <time>2017-10-21T14:12:11.000+02:00</time>
      </trkpt>
      <trkpt lat="48.10844" lon="7.07414">
        <ele>1277.4</ele>
        <time>2017-10-21T14:12:15.000+02:00</time>
      </trkpt>
      <trkpt lat="48.10844" lon="7.07419">
        <ele>1277.7</ele>
        <time>2017-10-21T14:12:19.000+02:00</time>
      </trkpt>
      <trkpt lat="48.10844" lon="7.07423">
        <ele>1278</ele>
        <time>2017-10-21T14:12:23.000+02:00</time>
      </trkpt>
      <trkpt lat="48.10845" lon="7.07427">
        <ele>1278.2</ele>
        <time>2017-10-21T14:12:24.000+02:00</time>
      </trkpt>
      <trkpt lat="48.10844" lon="7.07431">
        <ele>1278.5</ele>
        <time>2017-10-21T14:12:25.000+02:00</time>
      </trkpt>
      <trkpt lat="48.10844" lon="7.07432">
        <ele>1278.6</ele>
        <time>2017-10-21T14:12:26.000+02:00</time>
      </trkpt>
      <trkpt lat="48.10844" lon="7.07434">
        <ele>1278.7</ele>
        <time>2017-10-21T14:12:26.000+02:00</time>
      </trkpt>
      <trkpt lat="48.10844" lon="7.07433">
        <ele>1278.6</ele>
        <time>2017-10-21T14:12:26.000+02:00</time>
      </trkpt>
      <trkpt lat="48.10844" lon="7.07433">
        <ele>1278.7</ele>
        <time>2017-10-21T14:12:26.000+02:00</time>
      </trkpt>
      <trkpt lat="48.10844" lon="7.07434">
        <ele>1278.7</ele>
        <time>2017-10-21T14:12:27.000+02:00</time>
      </trkpt>
      <trkpt lat="48.10844" lon="7.07433">
        <ele>1278.7</ele>
        <time>2017-10-21T14:12:27.000+02:00</time>
      </trkpt>
      <trkpt lat="48.10844" lon="7.07434">
        <ele>1278.7</ele>
        <time>2017-10-21T14:12:27.000+02:00</time>
      </trkpt>
      <trkpt lat="48.10844" lon="7.07433">
        <ele>1278.7</ele>
        <time>2017-10-21T14:12:27.000+02:00</time>
      </trkpt>
      <trkpt lat="48.10845" lon="7.07434">
        <ele>1278.7</ele>
        <time>2017-10-21T14:12:27.000+02:00</time>
      </trkpt>
      <trkpt lat="48.10845" lon="7.07433">
        <ele>1278.6</ele>
        <time>2017-10-21T14:12:27.000+02:00</time>
      </trkpt>
      <trkpt lat="48.10845" lon="7.07434">
        <ele>1278.7</ele>
        <time>2017-10-21T14:12:28.000+02:00</time>
      </trkpt>
      <trkpt lat="48.10845" lon="7.07435">
        <ele>1278.8</ele>
        <time>2017-10-21T14:12:28.000+02:00</time>
      </trkpt>
      <trkpt lat="48.10846" lon="7.07438">
        <ele>1278.9</ele>
        <time>2017-10-21T14:12:29.000+02:00</time>
      </trkpt>
      <trkpt lat="48.10846" lon="7.0744">
        <ele>1279</ele>
        <time>2017-10-21T14:12:29.000+02:00</time>
      </trkpt>
      <trkpt lat="48.10847" lon="7.07443">
        <ele>1279.2</ele>
        <time>2017-10-21T14:12:30.000+02:00</time>
      </trkpt>
      <trkpt lat="48.10847" lon="7.07446">
        <ele>1279.4</ele>
        <time>2017-10-21T14:12:31.000+02:00</time>
      </trkpt>
      <trkpt lat="48.10847" lon="7.0745">
        <ele>1279.6</ele>
        <time>2017-10-21T14:12:32.000+02:00</time>
      </trkpt>
      <trkpt lat="48.10848" lon="7.07454">
        <ele>1279.9</ele>
        <time>2017-10-21T14:12:36.000+02:00</time>
      </trkpt>
      <trkpt lat="48.10848" lon="7.07458">
        <ele>1280.1</ele>
        <time>2017-10-21T14:12:37.000+02:00</time>
      </trkpt>
      <trkpt lat="48.10849" lon="7.07461">
        <ele>1280.3</ele>
        <time>2017-10-21T14:12:38.000+02:00</time>
      </trkpt>
      <trkpt lat="48.10849" lon="7.07465">
        <ele>1280.5</ele>
        <time>2017-10-21T14:12:39.000+02:00</time>
      </trkpt>
      <trkpt lat="48.10849" lon="7.07469">
        <ele>1280.8</ele>
        <time>2017-10-21T14:12:40.000+02:00</time>
      </trkpt>
      <trkpt lat="48.10849" lon="7.07473">
        <ele>1281.1</ele>
        <time>2017-10-21T14:12:41.000+02:00</time>
      </trkpt>
      <trkpt lat="48.1085" lon="7.07477">
        <ele>1281.3</ele>
        <time>2017-10-21T14:12:46.000+02:00</time>
      </trkpt>
      <trkpt lat="48.1085" lon="7.07481">
        <ele>1281.5</ele>
        <time>2017-10-21T14:12:47.000+02:00</time>
      </trkpt>
      <trkpt lat="48.1085" lon="7.07484">
        <ele>1281.8</ele>
        <time>2017-10-21T14:12:48.000+02:00</time>
      </trkpt>
      <trkpt lat="48.10851" lon="7.07487">
        <ele>1282</ele>
        <time>2017-10-21T14:12:49.000+02:00</time>
      </trkpt>
      <trkpt lat="48.10851" lon="7.0749">
        <ele>1282.2</ele>
        <time>2017-10-21T14:12:49.000+02:00</time>
      </trkpt>
      <trkpt lat="48.10852" lon="7.07493">
        <ele>1282.3</ele>
        <time>2017-10-21T14:12:50.000+02:00</time>
      </trkpt>
      <trkpt lat="48.10852" lon="7.07496">
        <ele>1282.5</ele>
        <time>2017-10-21T14:12:51.000+02:00</time>
      </trkpt>
      <trkpt lat="48.10852" lon="7.07499">
        <ele>1282.7</ele>
        <time>2017-10-21T14:12:52.000+02:00</time>
      </trkpt>
      <trkpt lat="48.10852" lon="7.07503">
        <ele>1283.1</ele>
        <time>2017-10-21T14:13:00.000+02:00</time>
      </trkpt>
      <trkpt lat="48.10852" lon="7.07505">
        <ele>1283.4</ele>
        <time>2017-10-21T14:13:00.000+02:00</time>
      </trkpt>
      <trkpt lat="48.10851" lon="7.07508">
        <ele>1283.8</ele>
        <time>2017-10-21T14:13:01.000+02:00</time>
      </trkpt>
      <trkpt lat="48.10851" lon="7.07511">
        <ele>1284.2</ele>
        <time>2017-10-21T14:13:05.000+02:00</time>
      </trkpt>
      <trkpt lat="48.1085" lon="7.07513">
        <ele>1284.5</ele>
        <time>2017-10-21T14:13:06.000+02:00</time>
      </trkpt>
      <trkpt lat="48.1085" lon="7.07516">
        <ele>1284.9</ele>
        <time>2017-10-21T14:13:06.000+02:00</time>
      </trkpt>
      <trkpt lat="48.1085" lon="7.07518">
        <ele>1285.2</ele>
        <time>2017-10-21T14:13:07.000+02:00</time>
      </trkpt>
      <trkpt lat="48.10851" lon="7.0752">
        <ele>1285.4</ele>
        <time>2017-10-21T14:13:08.000+02:00</time>
      </trkpt>
      <trkpt lat="48.10851" lon="7.07523">
        <ele>1285.7</ele>
        <time>2017-10-21T14:13:08.000+02:00</time>
      </trkpt>
      <trkpt lat="48.10852" lon="7.07525">
        <ele>1286</ele>
        <time>2017-10-21T14:13:11.000+02:00</time>
      </trkpt>
      <trkpt lat="48.10852" lon="7.07527">
        <ele>1286.2</ele>
        <time>2017-10-21T14:13:12.000+02:00</time>
      </trkpt>
      <trkpt lat="48.10852" lon="7.07529">
        <ele>1286.5</ele>
        <time>2017-10-21T14:13:12.000+02:00</time>
      </trkpt>
      <trkpt lat="48.10852" lon="7.07531">
        <ele>1286.7</ele>
        <time>2017-10-21T14:13:13.000+02:00</time>
      </trkpt>
      <trkpt lat="48.10852" lon="7.07533">
        <ele>1287</ele>
        <time>2017-10-21T14:13:14.000+02:00</time>
      </trkpt>
      <trkpt lat="48.10852" lon="7.07532">
        <ele>1286.9</ele>
        <time>2017-10-21T14:13:14.000+02:00</time>
      </trkpt>
      <trkpt lat="48.10852" lon="7.07533">
        <ele>1287</ele>
        <time>2017-10-21T14:13:14.000+02:00</time>
      </trkpt>
      <trkpt lat="48.10852" lon="7.07533">
        <ele>1287.1</ele>
        <time>2017-10-21T14:13:14.000+02:00</time>
      </trkpt>
      <trkpt lat="48.10853" lon="7.07534">
        <ele>1287.2</ele>
        <time>2017-10-21T14:13:15.000+02:00</time>
      </trkpt>
      <trkpt lat="48.10853" lon="7.07535">
        <ele>1287.3</ele>
        <time>2017-10-21T14:13:15.000+02:00</time>
      </trkpt>
      <trkpt lat="48.10854" lon="7.07536">
        <ele>1287.4</ele>
        <time>2017-10-21T14:13:16.000+02:00</time>
      </trkpt>
      <trkpt lat="48.10854" lon="7.07538">
        <ele>1287.6</ele>
        <time>2017-10-21T14:13:18.000+02:00</time>
      </trkpt>
      <trkpt lat="48.10855" lon="7.07538">
        <ele>1287.7</ele>
        <time>2017-10-21T14:13:18.000+02:00</time>
      </trkpt>
      <trkpt lat="48.10856" lon="7.0754">
        <ele>1287.8</ele>
        <time>2017-10-21T14:13:19.000+02:00</time>
      </trkpt>
      <trkpt lat="48.10855" lon="7.07539">
        <ele>1287.7</ele>
        <time>2017-10-21T14:13:19.000+02:00</time>
      </trkpt>
      <trkpt lat="48.10855" lon="7.07539">
        <ele>1287.8</ele>
        <time>2017-10-21T14:13:19.000+02:00</time>
      </trkpt>
      <trkpt lat="48.10855" lon="7.0754">
        <ele>1287.8</ele>
        <time>2017-10-21T14:13:19.000+02:00</time>
      </trkpt>
      <trkpt lat="48.10855" lon="7.0754">
        <ele>1287.8</ele>
        <time>2017-10-21T14:13:19.000+02:00</time>
      </trkpt>
      <trkpt lat="48.10856" lon="7.0754">
        <ele>1287.9</ele>
        <time>2017-10-21T14:13:19.000+02:00</time>
      </trkpt>
      <trkpt lat="48.10856" lon="7.07542">
        <ele>1288.1</ele>
        <time>2017-10-21T14:13:20.000+02:00</time>
      </trkpt>
      <trkpt lat="48.10856" lon="7.07545">
        <ele>1288.5</ele>
        <time>2017-10-21T14:13:21.000+02:00</time>
      </trkpt>
      <trkpt lat="48.10856" lon="7.07547">
        <ele>1288.8</ele>
        <time>2017-10-21T14:13:21.000+02:00</time>
      </trkpt>
      <trkpt lat="48.10857" lon="7.0755">
        <ele>1289.1</ele>
        <time>2017-10-21T14:13:25.000+02:00</time>
      </trkpt>
      <trkpt lat="48.10857" lon="7.07552">
        <ele>1289.4</ele>
        <time>2017-10-21T14:13:26.000+02:00</time>
      </trkpt>
      <trkpt lat="48.10858" lon="7.07555">
        <ele>1289.8</ele>
        <time>2017-10-21T14:13:27.000+02:00</time>
      </trkpt>
      <trkpt lat="48.10857" lon="7.07558">
        <ele>1290.2</ele>
        <time>2017-10-21T14:13:27.000+02:00</time>
      </trkpt>
      <trkpt lat="48.10856" lon="7.07559">
        <ele>1290.3</ele>
        <time>2017-10-21T14:13:28.000+02:00</time>
      </trkpt>
      <trkpt lat="48.10855" lon="7.07561">
        <ele>1290.6</ele>
        <time>2017-10-21T14:13:29.000+02:00</time>
      </trkpt>
      <trkpt lat="48.10856" lon="7.07563">
        <ele>1290.8</ele>
        <time>2017-10-21T14:13:32.000+02:00</time>
      </trkpt>
      <trkpt lat="48.10856" lon="7.07564">
        <ele>1291</ele>
        <time>2017-10-21T14:13:32.000+02:00</time>
      </trkpt>
      <trkpt lat="48.10856" lon="7.07565">
        <ele>1291.1</ele>
        <time>2017-10-21T14:13:32.000+02:00</time>
      </trkpt>
      <trkpt lat="48.10856" lon="7.07565">
        <ele>1291</ele>
        <time>2017-10-21T14:13:33.000+02:00</time>
      </trkpt>
      <trkpt lat="48.10856" lon="7.07565">
        <ele>1291.1</ele>
        <time>2017-10-21T14:13:33.000+02:00</time>
      </trkpt>
      <trkpt lat="48.10856" lon="7.07567">
        <ele>1291.3</ele>
        <time>2017-10-21T14:13:33.000+02:00</time>
      </trkpt>
      <trkpt lat="48.10857" lon="7.07569">
        <ele>1291.6</ele>
        <time>2017-10-21T14:13:34.000+02:00</time>
      </trkpt>
      <trkpt lat="48.10858" lon="7.07571">
        <ele>1291.8</ele>
        <time>2017-10-21T14:13:34.000+02:00</time>
      </trkpt>
      <trkpt lat="48.10859" lon="7.07573">
        <ele>1292</ele>
        <time>2017-10-21T14:13:35.000+02:00</time>
      </trkpt>
      <trkpt lat="48.1086" lon="7.07575">
        <ele>1292.3</ele>
        <time>2017-10-21T14:13:36.000+02:00</time>
      </trkpt>
      <trkpt lat="48.1086" lon="7.07578">
        <ele>1292.6</ele>
        <time>2017-10-21T14:13:36.000+02:00</time>
      </trkpt>
      <trkpt lat="48.10861" lon="7.0758">
        <ele>1292.9</ele>
        <time>2017-10-21T14:13:37.000+02:00</time>
      </trkpt>
      <trkpt lat="48.10861" lon="7.07583">
        <ele>1293.3</ele>
        <time>2017-10-21T14:13:38.000+02:00</time>
      </trkpt>
      <trkpt lat="48.10861" lon="7.07585">
        <ele>1293.4</ele>
        <time>2017-10-21T14:13:45.000+02:00</time>
      </trkpt>
      <trkpt lat="48.10862" lon="7.07586">
        <ele>1293.5</ele>
        <time>2017-10-21T14:13:45.000+02:00</time>
      </trkpt>
      <trkpt lat="48.10862" lon="7.07589">
        <ele>1293.6</ele>
        <time>2017-10-21T14:13:46.000+02:00</time>
      </trkpt>
      <trkpt lat="48.10862" lon="7.07592">
        <ele>1293.7</ele>
        <time>2017-10-21T14:13:47.000+02:00</time>
      </trkpt>
      <trkpt lat="48.10862" lon="7.07594">
        <ele>1293.8</ele>
        <time>2017-10-21T14:13:47.000+02:00</time>
      </trkpt>
      <trkpt lat="48.10862" lon="7.07597">
        <ele>1293.9</ele>
        <time>2017-10-21T14:13:48.000+02:00</time>
      </trkpt>
      <trkpt lat="48.10863" lon="7.07599">
        <ele>1294</ele>
        <time>2017-10-21T14:13:49.000+02:00</time>
      </trkpt>
      <trkpt lat="48.10863" lon="7.07602">
        <ele>1294.1</ele>
        <time>2017-10-21T14:13:50.000+02:00</time>
      </trkpt>
      <trkpt lat="48.10864" lon="7.07604">
        <ele>1294.2</ele>
        <time>2017-10-21T14:13:50.000+02:00</time>
      </trkpt>
      <trkpt lat="48.10864" lon="7.07606">
        <ele>1294.3</ele>
        <time>2017-10-21T14:13:53.000+02:00</time>
      </trkpt>
      <trkpt lat="48.10864" lon="7.07608">
        <ele>1294.3</ele>
        <time>2017-10-21T14:13:54.000+02:00</time>
      </trkpt>
      <trkpt lat="48.10864" lon="7.07611">
        <ele>1294.5</ele>
        <time>2017-10-21T14:13:55.000+02:00</time>
      </trkpt>
      <trkpt lat="48.10864" lon="7.07614">
        <ele>1294.6</ele>
        <time>2017-10-21T14:13:56.000+02:00</time>
      </trkpt>
      <trkpt lat="48.10863" lon="7.07617">
        <ele>1294.7</ele>
        <time>2017-10-21T14:13:56.000+02:00</time>
      </trkpt>
      <trkpt lat="48.10863" lon="7.07619">
        <ele>1294.9</ele>
        <time>2017-10-21T14:13:57.000+02:00</time>
      </trkpt>
      <trkpt lat="48.10864" lon="7.07622">
        <ele>1294.9</ele>
        <time>2017-10-21T14:13:58.000+02:00</time>
      </trkpt>
      <trkpt lat="48.10863" lon="7.07624">
        <ele>1295</ele>
        <time>2017-10-21T14:13:58.000+02:00</time>
      </trkpt>
      <trkpt lat="48.10863" lon="7.07626">
        <ele>1295.1</ele>
        <time>2017-10-21T14:13:59.000+02:00</time>
      </trkpt>
      <trkpt lat="48.10864" lon="7.07628">
        <ele>1295.2</ele>
        <time>2017-10-21T14:13:59.000+02:00</time>
      </trkpt>
      <trkpt lat="48.10864" lon="7.07631">
        <ele>1295.3</ele>
        <time>2017-10-21T14:14:00.000+02:00</time>
      </trkpt>
      <trkpt lat="48.10865" lon="7.07634">
        <ele>1295.5</ele>
        <time>2017-10-21T14:14:01.000+02:00</time>
      </trkpt>
      <trkpt lat="48.10865" lon="7.07636">
        <ele>1295.5</ele>
        <time>2017-10-21T14:14:02.000+02:00</time>
      </trkpt>
      <trkpt lat="48.10866" lon="7.07638">
        <ele>1295.6</ele>
        <time>2017-10-21T14:14:02.000+02:00</time>
      </trkpt>
      <trkpt lat="48.10866" lon="7.0764">
        <ele>1295.7</ele>
        <time>2017-10-21T14:14:03.000+02:00</time>
      </trkpt>
      <trkpt lat="48.10866" lon="7.07642">
        <ele>1295.8</ele>
        <time>2017-10-21T14:14:03.000+02:00</time>
      </trkpt>
      <trkpt lat="48.10866" lon="7.07644">
        <ele>1295.8</ele>
        <time>2017-10-21T14:14:04.000+02:00</time>
      </trkpt>
      <trkpt lat="48.10866" lon="7.07646">
        <ele>1295.9</ele>
        <time>2017-10-21T14:14:04.000+02:00</time>
      </trkpt>
      <trkpt lat="48.10866" lon="7.07648">
        <ele>1296</ele>
        <time>2017-10-21T14:14:05.000+02:00</time>
      </trkpt>
      <trkpt lat="48.10866" lon="7.0765">
        <ele>1296.1</ele>
        <time>2017-10-21T14:14:05.000+02:00</time>
      </trkpt>
      <trkpt lat="48.10866" lon="7.07653">
        <ele>1296.2</ele>
        <time>2017-10-21T14:14:09.000+02:00</time>
      </trkpt>
      <trkpt lat="48.10866" lon="7.07656">
        <ele>1296.4</ele>
        <time>2017-10-21T14:14:10.000+02:00</time>
      </trkpt>
      <trkpt lat="48.10865" lon="7.07657">
        <ele>1296.5</ele>
        <time>2017-10-21T14:14:11.000+02:00</time>
      </trkpt>
      <trkpt lat="48.10864" lon="7.07659">
        <ele>1296.6</ele>
        <time>2017-10-21T14:14:11.000+02:00</time>
      </trkpt>
      <trkpt lat="48.10863" lon="7.07661">
        <ele>1296.7</ele>
        <time>2017-10-21T14:14:12.000+02:00</time>
      </trkpt>
      <trkpt lat="48.10862" lon="7.07663">
        <ele>1296.8</ele>
        <time>2017-10-21T14:14:13.000+02:00</time>
      </trkpt>
      <trkpt lat="48.10862" lon="7.07665">
        <ele>1296.9</ele>
        <time>2017-10-21T14:14:13.000+02:00</time>
      </trkpt>
      <trkpt lat="48.10861" lon="7.07667">
        <ele>1297</ele>
        <time>2017-10-21T14:14:14.000+02:00</time>
      </trkpt>
      <trkpt lat="48.10861" lon="7.07668">
        <ele>1297</ele>
        <time>2017-10-21T14:14:14.000+02:00</time>
      </trkpt>
      <trkpt lat="48.1086" lon="7.07669">
        <ele>1296.9</ele>
        <time>2017-10-21T14:14:14.000+02:00</time>
      </trkpt>
      <trkpt lat="48.1086" lon="7.0767">
        <ele>1296.9</ele>
        <time>2017-10-21T14:14:15.000+02:00</time>
      </trkpt>
      <trkpt lat="48.1086" lon="7.0767">
        <ele>1296.9</ele>
        <time>2017-10-21T14:14:15.000+02:00</time>
      </trkpt>
      <trkpt lat="48.1086" lon="7.0767">
        <ele>1296.9</ele>
        <time>2017-10-21T14:14:15.000+02:00</time>
      </trkpt>
      <trkpt lat="48.10859" lon="7.0767">
        <ele>1297</ele>
        <time>2017-10-21T14:14:15.000+02:00</time>
      </trkpt>
      <trkpt lat="48.1086" lon="7.0767">
        <ele>1297</ele>
        <time>2017-10-21T14:14:15.000+02:00</time>
      </trkpt>
      <trkpt lat="48.1086" lon="7.0767">
        <ele>1297</ele>
        <time>2017-10-21T14:14:15.000+02:00</time>
      </trkpt>
      <trkpt lat="48.1086" lon="7.07669">
        <ele>1297</ele>
        <time>2017-10-21T14:14:15.000+02:00</time>
      </trkpt>
      <trkpt lat="48.10859" lon="7.07669">
        <ele>1297</ele>
        <time>2017-10-21T14:14:16.000+02:00</time>
      </trkpt>
      <trkpt lat="48.10858" lon="7.07667">
        <ele>1297.1</ele>
        <time>2017-10-21T14:14:16.000+02:00</time>
      </trkpt>
      <trkpt lat="48.10857" lon="7.07666">
        <ele>1297.1</ele>
        <time>2017-10-21T14:14:17.000+02:00</time>
      </trkpt>
      <trkpt lat="48.10856" lon="7.07665">
        <ele>1297.1</ele>
        <time>2017-10-21T14:14:17.000+02:00</time>
      </trkpt>
      <trkpt lat="48.10855" lon="7.07665">
        <ele>1297.2</ele>
        <time>2017-10-21T14:14:18.000+02:00</time>
      </trkpt>
      <trkpt lat="48.10854" lon="7.07666">
        <ele>1297.2</ele>
        <time>2017-10-21T14:14:18.000+02:00</time>
      </trkpt>
      <trkpt lat="48.10853" lon="7.07668">
        <ele>1297.3</ele>
        <time>2017-10-21T14:14:19.000+02:00</time>
      </trkpt>
      <trkpt lat="48.10852" lon="7.07669">
        <ele>1297.2</ele>
        <time>2017-10-21T14:14:21.000+02:00</time>
      </trkpt>
      <trkpt lat="48.10852" lon="7.07671">
        <ele>1297.1</ele>
        <time>2017-10-21T14:14:23.000+02:00</time>
      </trkpt>
      <trkpt lat="48.10853" lon="7.07673">
        <ele>1297.1</ele>
        <time>2017-10-21T14:14:23.000+02:00</time>
      </trkpt>
      <trkpt lat="48.10853" lon="7.07674">
        <ele>1297</ele>
        <time>2017-10-21T14:14:24.000+02:00</time>
      </trkpt>
      <trkpt lat="48.10853" lon="7.07674">
        <ele>1297</ele>
        <time>2017-10-21T14:14:24.000+02:00</time>
      </trkpt>
      <trkpt lat="48.10854" lon="7.07676">
        <ele>1296.9</ele>
        <time>2017-10-21T14:14:24.000+02:00</time>
      </trkpt>
      <trkpt lat="48.10854" lon="7.07678">
        <ele>1296.8</ele>
        <time>2017-10-21T14:14:25.000+02:00</time>
      </trkpt>
      <trkpt lat="48.10853" lon="7.07679">
        <ele>1296.8</ele>
        <time>2017-10-21T14:14:25.000+02:00</time>
      </trkpt>
      <trkpt lat="48.10853" lon="7.07679">
        <ele>1296.8</ele>
        <time>2017-10-21T14:14:25.000+02:00</time>
      </trkpt>
      <trkpt lat="48.10853" lon="7.07681">
        <ele>1296.7</ele>
        <time>2017-10-21T14:14:26.000+02:00</time>
      </trkpt>
      <trkpt lat="48.10853" lon="7.07682">
        <ele>1296.7</ele>
        <time>2017-10-21T14:14:26.000+02:00</time>
      </trkpt>
      <trkpt lat="48.10853" lon="7.07683">
        <ele>1296.6</ele>
        <time>2017-10-21T14:14:27.000+02:00</time>
      </trkpt>
      <trkpt lat="48.10854" lon="7.07685">
        <ele>1296.5</ele>
        <time>2017-10-21T14:14:27.000+02:00</time>
      </trkpt>
      <trkpt lat="48.10855" lon="7.07686">
        <ele>1296.5</ele>
        <time>2017-10-21T14:14:28.000+02:00</time>
      </trkpt>
      <trkpt lat="48.10855" lon="7.07685">
        <ele>1296.5</ele>
        <time>2017-10-21T14:14:28.000+02:00</time>
      </trkpt>
      <trkpt lat="48.10855" lon="7.07686">
        <ele>1296.5</ele>
        <time>2017-10-21T14:14:28.000+02:00</time>
      </trkpt>
      <trkpt lat="48.10855" lon="7.07686">
        <ele>1296.5</ele>
        <time>2017-10-21T14:14:28.000+02:00</time>
      </trkpt>
      <trkpt lat="48.10855" lon="7.07686">
        <ele>1296.5</ele>
        <time>2017-10-21T14:14:29.000+02:00</time>
      </trkpt>
      <trkpt lat="48.10855" lon="7.07686">
        <ele>1296.5</ele>
        <time>2017-10-21T14:14:29.000+02:00</time>
      </trkpt>
      <trkpt lat="48.10855" lon="7.07686">
        <ele>1296.5</ele>
        <time>2017-10-21T14:14:29.000+02:00</time>
      </trkpt>
      <trkpt lat="48.10855" lon="7.07686">
        <ele>1296.5</ele>
        <time>2017-10-21T14:14:29.000+02:00</time>
      </trkpt>
      <trkpt lat="48.10855" lon="7.07687">
        <ele>1296.4</ele>
        <time>2017-10-21T14:14:29.000+02:00</time>
      </trkpt>
      <trkpt lat="48.10855" lon="7.07688">
        <ele>1296.4</ele>
        <time>2017-10-21T14:14:29.000+02:00</time>
      </trkpt>
      <trkpt lat="48.10855" lon="7.07689">
        <ele>1296.4</ele>
        <time>2017-10-21T14:14:30.000+02:00</time>
      </trkpt>
      <trkpt lat="48.10855" lon="7.0769">
        <ele>1296.3</ele>
        <time>2017-10-21T14:14:30.000+02:00</time>
      </trkpt>
      <trkpt lat="48.10855" lon="7.07691">
        <ele>1296.3</ele>
        <time>2017-10-21T14:14:30.000+02:00</time>
      </trkpt>
      <trkpt lat="48.10855" lon="7.07692">
        <ele>1296.2</ele>
        <time>2017-10-21T14:14:31.000+02:00</time>
      </trkpt>
      <trkpt lat="48.10855" lon="7.07694">
        <ele>1296.2</ele>
        <time>2017-10-21T14:14:31.000+02:00</time>
      </trkpt>
      <trkpt lat="48.10855" lon="7.07695">
        <ele>1296.1</ele>
        <time>2017-10-21T14:14:31.000+02:00</time>
      </trkpt>
      <trkpt lat="48.10855" lon="7.07697">
        <ele>1296.1</ele>
        <time>2017-10-21T14:14:32.000+02:00</time>
      </trkpt>
      <trkpt lat="48.10855" lon="7.07698">
        <ele>1296</ele>
        <time>2017-10-21T14:14:32.000+02:00</time>
      </trkpt>
      <trkpt lat="48.10855" lon="7.07697">
        <ele>1296.1</ele>
        <time>2017-10-21T14:14:32.000+02:00</time>
      </trkpt>
      <trkpt lat="48.10855" lon="7.07698">
        <ele>1296</ele>
        <time>2017-10-21T14:14:32.000+02:00</time>
      </trkpt>
      <trkpt lat="48.10855" lon="7.07698">
        <ele>1296</ele>
        <time>2017-10-21T14:14:33.000+02:00</time>
      </trkpt>
      <trkpt lat="48.10855" lon="7.07698">
        <ele>1296</ele>
        <time>2017-10-21T14:14:33.000+02:00</time>
      </trkpt>
      <trkpt lat="48.10856" lon="7.07701">
        <ele>1295.9</ele>
        <time>2017-10-21T14:14:34.000+02:00</time>
      </trkpt>
      <trkpt lat="48.10857" lon="7.07704">
        <ele>1295.7</ele>
        <time>2017-10-21T14:14:34.000+02:00</time>
      </trkpt>
      <trkpt lat="48.10859" lon="7.07707">
        <ele>1295.6</ele>
        <time>2017-10-21T14:14:37.000+02:00</time>
      </trkpt>
      <trkpt lat="48.1086" lon="7.07711">
        <ele>1295.4</ele>
        <time>2017-10-21T14:14:38.000+02:00</time>
      </trkpt>
      <trkpt lat="48.10861" lon="7.07715">
        <ele>1295.3</ele>
        <time>2017-10-21T14:14:39.000+02:00</time>
      </trkpt>
      <trkpt lat="48.10862" lon="7.07719">
        <ele>1295.1</ele>
        <time>2017-10-21T14:14:40.000+02:00</time>
      </trkpt>
      <trkpt lat="48.10863" lon="7.07723">
        <ele>1295</ele>
        <time>2017-10-21T14:14:42.000+02:00</time>
      </trkpt>
      <trkpt lat="48.10864" lon="7.07728">
        <ele>1294.8</ele>
        <time>2017-10-21T14:14:43.000+02:00</time>
      </trkpt>
      <trkpt lat="48.10866" lon="7.07733">
        <ele>1294.6</ele>
        <time>2017-10-21T14:14:45.000+02:00</time>
      </trkpt>
      <trkpt lat="48.10867" lon="7.07739">
        <ele>1294.4</ele>
        <time>2017-10-21T14:14:46.000+02:00</time>
      </trkpt>
      <trkpt lat="48.10869" lon="7.07744">
        <ele>1294.2</ele>
        <time>2017-10-21T14:14:48.000+02:00</time>
      </trkpt>
      <trkpt lat="48.1087" lon="7.07751">
        <ele>1294</ele>
        <time>2017-10-21T14:14:53.000+02:00</time>
      </trkpt>
      <trkpt lat="48.10872" lon="7.07757">
        <ele>1293.6</ele>
        <time>2017-10-21T14:14:55.000+02:00</time>
      </trkpt>
      <trkpt lat="48.10873" lon="7.07765">
        <ele>1293.2</ele>
        <time>2017-10-21T14:14:57.000+02:00</time>
      </trkpt>
      <trkpt lat="48.10875" lon="7.07772">
        <ele>1292.8</ele>
        <time>2017-10-21T14:14:59.000+02:00</time>
      </trkpt>
      <trkpt lat="48.10876" lon="7.07779">
        <ele>1292.5</ele>
        <time>2017-10-21T14:15:01.000+02:00</time>
      </trkpt>
      <trkpt lat="48.10878" lon="7.07785">
        <ele>1292.2</ele>
        <time>2017-10-21T14:15:03.000+02:00</time>
      </trkpt>
      <trkpt lat="48.1088" lon="7.07792">
        <ele>1291.9</ele>
        <time>2017-10-21T14:15:05.000+02:00</time>
      </trkpt>
      <trkpt lat="48.10882" lon="7.07799">
        <ele>1291.6</ele>
        <time>2017-10-21T14:15:07.000+02:00</time>
      </trkpt>
      <trkpt lat="48.10884" lon="7.07805">
        <ele>1291.4</ele>
        <time>2017-10-21T14:15:09.000+02:00</time>
      </trkpt>
      <trkpt lat="48.10886" lon="7.07812">
        <ele>1291.2</ele>
        <time>2017-10-21T14:15:11.000+02:00</time>
      </trkpt>
      <trkpt lat="48.10888" lon="7.07819">
        <ele>1290.9</ele>
        <time>2017-10-21T14:15:13.000+02:00</time>
      </trkpt>
      <trkpt lat="48.10889" lon="7.07823">
        <ele>1290.8</ele>
        <time>2017-10-21T14:15:14.000+02:00</time>
      </trkpt>
      <trkpt lat="48.10891" lon="7.07828">
        <ele>1290.7</ele>
        <time>2017-10-21T14:15:16.000+02:00</time>
      </trkpt>
      <trkpt lat="48.10892" lon="7.07832">
        <ele>1290.6</ele>
        <time>2017-10-21T14:15:17.000+02:00</time>
      </trkpt>
      <trkpt lat="48.10893" lon="7.07835">
        <ele>1290.5</ele>
        <time>2017-10-21T14:15:20.000+02:00</time>
      </trkpt>
      <trkpt lat="48.10894" lon="7.07838">
        <ele>1290.3</ele>
        <time>2017-10-21T14:15:21.000+02:00</time>
      </trkpt>
      <trkpt lat="48.10894" lon="7.07841">
        <ele>1290.2</ele>
        <time>2017-10-21T14:15:22.000+02:00</time>
      </trkpt>
      <trkpt lat="48.10895" lon="7.07846">
        <ele>1290</ele>
        <time>2017-10-21T14:15:23.000+02:00</time>
      </trkpt>
      <trkpt lat="48.10896" lon="7.0785">
        <ele>1289.9</ele>
        <time>2017-10-21T14:15:24.000+02:00</time>
      </trkpt>
      <trkpt lat="48.10897" lon="7.07854">
        <ele>1289.7</ele>
        <time>2017-10-21T14:15:26.000+02:00</time>
      </trkpt>
      <trkpt lat="48.10898" lon="7.07859">
        <ele>1289.5</ele>
        <time>2017-10-21T14:15:28.000+02:00</time>
      </trkpt>
      <trkpt lat="48.10899" lon="7.07864">
        <ele>1289.4</ele>
        <time>2017-10-21T14:15:29.000+02:00</time>
      </trkpt>
      <trkpt lat="48.10899" lon="7.07867">
        <ele>1289.2</ele>
        <time>2017-10-21T14:15:30.000+02:00</time>
      </trkpt>
      <trkpt lat="48.10899" lon="7.07871">
        <ele>1289</ele>
        <time>2017-10-21T14:15:31.000+02:00</time>
      </trkpt>
      <trkpt lat="48.109" lon="7.07874">
        <ele>1289</ele>
        <time>2017-10-21T14:15:32.000+02:00</time>
      </trkpt>
      <trkpt lat="48.10902" lon="7.07878">
        <ele>1288.9</ele>
        <time>2017-10-21T14:15:33.000+02:00</time>
      </trkpt>
      <trkpt lat="48.10902" lon="7.07881">
        <ele>1288.8</ele>
        <time>2017-10-21T14:15:36.000+02:00</time>
      </trkpt>
      <trkpt lat="48.10901" lon="7.07885">
        <ele>1288.5</ele>
        <time>2017-10-21T14:15:37.000+02:00</time>
      </trkpt>
      <trkpt lat="48.10901" lon="7.0789">
        <ele>1288.3</ele>
        <time>2017-10-21T14:15:38.000+02:00</time>
      </trkpt>
      <trkpt lat="48.10901" lon="7.07894">
        <ele>1288</ele>
        <time>2017-10-21T14:15:39.000+02:00</time>
      </trkpt>
      <trkpt lat="48.109" lon="7.07899">
        <ele>1287.7</ele>
        <time>2017-10-21T14:15:40.000+02:00</time>
      </trkpt>
      <trkpt lat="48.109" lon="7.07903">
        <ele>1287.5</ele>
        <time>2017-10-21T14:15:41.000+02:00</time>
      </trkpt>
      <trkpt lat="48.10899" lon="7.07907">
        <ele>1287.2</ele>
        <time>2017-10-21T14:15:43.000+02:00</time>
      </trkpt>
      <trkpt lat="48.10899" lon="7.07911">
        <ele>1287</ele>
        <time>2017-10-21T14:15:44.000+02:00</time>
      </trkpt>
      <trkpt lat="48.10898" lon="7.07915">
        <ele>1286.6</ele>
        <time>2017-10-21T14:15:45.000+02:00</time>
      </trkpt>
      <trkpt lat="48.10896" lon="7.07917">
        <ele>1286.3</ele>
        <time>2017-10-21T14:15:48.000+02:00</time>
      </trkpt>
      <trkpt lat="48.10895" lon="7.0792">
        <ele>1285.9</ele>
        <time>2017-10-21T14:15:51.000+02:00</time>
      </trkpt>
      <trkpt lat="48.10893" lon="7.07923">
        <ele>1285.4</ele>
        <time>2017-10-21T14:15:52.000+02:00</time>
      </trkpt>
      <trkpt lat="48.10891" lon="7.07927">
        <ele>1285</ele>
        <time>2017-10-21T14:15:53.000+02:00</time>
      </trkpt>
      <trkpt lat="48.1089" lon="7.07932">
        <ele>1284.5</ele>
        <time>2017-10-21T14:15:55.000+02:00</time>
      </trkpt>
      <trkpt lat="48.10888" lon="7.07938">
        <ele>1283.9</ele>
        <time>2017-10-21T14:15:57.000+02:00</time>
      </trkpt>
      <trkpt lat="48.10886" lon="7.07944">
        <ele>1283.4</ele>
        <time>2017-10-21T14:15:59.000+02:00</time>
      </trkpt>
      <trkpt lat="48.10883" lon="7.0795">
        <ele>1282.7</ele>
        <time>2017-10-21T14:16:01.000+02:00</time>
      </trkpt>
      <trkpt lat="48.10882" lon="7.07956">
        <ele>1282.2</ele>
        <time>2017-10-21T14:16:03.000+02:00</time>
      </trkpt>
      <trkpt lat="48.10881" lon="7.0796">
        <ele>1281.8</ele>
        <time>2017-10-21T14:16:04.000+02:00</time>
      </trkpt>
      <trkpt lat="48.1088" lon="7.07962">
        <ele>1281.6</ele>
        <time>2017-10-21T14:16:06.000+02:00</time>
      </trkpt>
      <trkpt lat="48.10879" lon="7.07965">
        <ele>1281.3</ele>
        <time>2017-10-21T14:16:07.000+02:00</time>
      </trkpt>
      <trkpt lat="48.10877" lon="7.07968">
        <ele>1280.9</ele>
        <time>2017-10-21T14:16:09.000+02:00</time>
      </trkpt>
      <trkpt lat="48.10874" lon="7.07973">
        <ele>1280.3</ele>
        <time>2017-10-21T14:16:10.000+02:00</time>
      </trkpt>
      <trkpt lat="48.10871" lon="7.07976">
        <ele>1279.9</ele>
        <time>2017-10-21T14:16:12.000+02:00</time>
      </trkpt>
      <trkpt lat="48.10868" lon="7.07979">
        <ele>1279.4</ele>
        <time>2017-10-21T14:16:14.000+02:00</time>
      </trkpt>
      <trkpt lat="48.10867" lon="7.07983">
        <ele>1279.1</ele>
        <time>2017-10-21T14:16:15.000+02:00</time>
      </trkpt>
      <trkpt lat="48.10866" lon="7.07988">
        <ele>1278.7</ele>
        <time>2017-10-21T14:16:16.000+02:00</time>
      </trkpt>
      <trkpt lat="48.10864" lon="7.07993">
        <ele>1278.3</ele>
        <time>2017-10-21T14:16:18.000+02:00</time>
      </trkpt>
      <trkpt lat="48.10864" lon="7.07998">
        <ele>1278.1</ele>
        <time>2017-10-21T14:16:19.000+02:00</time>
      </trkpt>
      <trkpt lat="48.10865" lon="7.08003">
        <ele>1277.9</ele>
        <time>2017-10-21T14:16:24.000+02:00</time>
      </trkpt>
      <trkpt lat="48.10864" lon="7.08007">
        <ele>1277.6</ele>
        <time>2017-10-21T14:16:25.000+02:00</time>
      </trkpt>
      <trkpt lat="48.10863" lon="7.08011">
        <ele>1277.3</ele>
        <time>2017-10-21T14:16:26.000+02:00</time>
      </trkpt>
      <trkpt lat="48.10861" lon="7.08014">
        <ele>1277</ele>
        <time>2017-10-21T14:16:27.000+02:00</time>
      </trkpt>
      <trkpt lat="48.10859" lon="7.08019">
        <ele>1276.6</ele>
        <time>2017-10-21T14:16:29.000+02:00</time>
      </trkpt>
      <trkpt lat="48.10858" lon="7.08025">
        <ele>1276.2</ele>
        <time>2017-10-21T14:16:30.000+02:00</time>
      </trkpt>
      <trkpt lat="48.10856" lon="7.08031">
        <ele>1275.7</ele>
        <time>2017-10-21T14:16:33.000+02:00</time>
      </trkpt>
      <trkpt lat="48.10855" lon="7.08038">
        <ele>1275.2</ele>
        <time>2017-10-21T14:16:35.000+02:00</time>
      </trkpt>
      <trkpt lat="48.10853" lon="7.08044">
        <ele>1274.7</ele>
        <time>2017-10-21T14:16:36.000+02:00</time>
      </trkpt>
      <trkpt lat="48.1085" lon="7.08048">
        <ele>1274.3</ele>
        <time>2017-10-21T14:16:38.000+02:00</time>
      </trkpt>
      <trkpt lat="48.10849" lon="7.08052">
        <ele>1274</ele>
        <time>2017-10-21T14:16:40.000+02:00</time>
      </trkpt>
      <trkpt lat="48.10848" lon="7.08056">
        <ele>1273.7</ele>
        <time>2017-10-21T14:16:41.000+02:00</time>
      </trkpt>
      <trkpt lat="48.10846" lon="7.08059">
        <ele>1273.4</ele>
        <time>2017-10-21T14:16:42.000+02:00</time>
      </trkpt>
      <trkpt lat="48.10845" lon="7.08064">
        <ele>1273.1</ele>
        <time>2017-10-21T14:16:44.000+02:00</time>
      </trkpt>
      <trkpt lat="48.10844" lon="7.08067">
        <ele>1272.8</ele>
        <time>2017-10-21T14:16:46.000+02:00</time>
      </trkpt>
      <trkpt lat="48.10841" lon="7.08071">
        <ele>1272.4</ele>
        <time>2017-10-21T14:16:47.000+02:00</time>
      </trkpt>
      <trkpt lat="48.10839" lon="7.08075">
        <ele>1271.9</ele>
        <time>2017-10-21T14:16:50.000+02:00</time>
      </trkpt>
      <trkpt lat="48.10837" lon="7.08081">
        <ele>1271.5</ele>
        <time>2017-10-21T14:16:52.000+02:00</time>
      </trkpt>
      <trkpt lat="48.10835" lon="7.08088">
        <ele>1271.2</ele>
        <time>2017-10-21T14:16:54.000+02:00</time>
      </trkpt>
      <trkpt lat="48.10833" lon="7.08095">
        <ele>1271</ele>
        <time>2017-10-21T14:16:59.000+02:00</time>
      </trkpt>
      <trkpt lat="48.10831" lon="7.08102">
        <ele>1270.7</ele>
        <time>2017-10-21T14:17:01.000+02:00</time>
      </trkpt>
      <trkpt lat="48.10828" lon="7.0811">
        <ele>1270.4</ele>
        <time>2017-10-21T14:17:04.000+02:00</time>
      </trkpt>
      <trkpt lat="48.10825" lon="7.08117">
        <ele>1270.1</ele>
        <time>2017-10-21T14:17:06.000+02:00</time>
      </trkpt>
      <trkpt lat="48.10822" lon="7.08125">
        <ele>1269.8</ele>
        <time>2017-10-21T14:17:09.000+02:00</time>
      </trkpt>
      <trkpt lat="48.10818" lon="7.08131">
        <ele>1269.5</ele>
        <time>2017-10-21T14:17:11.000+02:00</time>
      </trkpt>
      <trkpt lat="48.10814" lon="7.08136">
        <ele>1269.2</ele>
        <time>2017-10-21T14:17:13.000+02:00</time>
      </trkpt>
      <trkpt lat="48.1081" lon="7.08142">
        <ele>1268.9</ele>
        <time>2017-10-21T14:17:15.000+02:00</time>
      </trkpt>
      <trkpt lat="48.10806" lon="7.08148">
        <ele>1268.7</ele>
        <time>2017-10-21T14:17:17.000+02:00</time>
      </trkpt>
      <trkpt lat="48.10804" lon="7.08154">
        <ele>1268.6</ele>
        <time>2017-10-21T14:17:19.000+02:00</time>
      </trkpt>
      <trkpt lat="48.10802" lon="7.0816">
        <ele>1268.6</ele>
        <time>2017-10-21T14:17:21.000+02:00</time>
      </trkpt>
      <trkpt lat="48.10799" lon="7.08167">
        <ele>1268.5</ele>
        <time>2017-10-21T14:17:23.000+02:00</time>
      </trkpt>
      <trkpt lat="48.10796" lon="7.08172">
        <ele>1268.3</ele>
        <time>2017-10-21T14:17:25.000+02:00</time>
      </trkpt>
      <trkpt lat="48.10793" lon="7.08177">
        <ele>1268</ele>
        <time>2017-10-21T14:17:27.000+02:00</time>
      </trkpt>
      <trkpt lat="48.1079" lon="7.08182">
        <ele>1267.8</ele>
        <time>2017-10-21T14:17:29.000+02:00</time>
      </trkpt>
      <trkpt lat="48.10786" lon="7.08187">
        <ele>1267.6</ele>
        <time>2017-10-21T14:17:31.000+02:00</time>
      </trkpt>
      <trkpt lat="48.10783" lon="7.08192">
        <ele>1267.5</ele>
        <time>2017-10-21T14:17:33.000+02:00</time>
      </trkpt>
      <trkpt lat="48.10779" lon="7.08198">
        <ele>1267.4</ele>
        <time>2017-10-21T14:17:35.000+02:00</time>
      </trkpt>
      <trkpt lat="48.10776" lon="7.08203">
        <ele>1267.4</ele>
        <time>2017-10-21T14:17:37.000+02:00</time>
      </trkpt>
      <trkpt lat="48.10774" lon="7.08208">
        <ele>1267.4</ele>
        <time>2017-10-21T14:17:38.000+02:00</time>
      </trkpt>
      <trkpt lat="48.10771" lon="7.08213">
        <ele>1267.5</ele>
        <time>2017-10-21T14:17:40.000+02:00</time>
      </trkpt>
      <trkpt lat="48.10768" lon="7.08218">
        <ele>1267.6</ele>
        <time>2017-10-21T14:17:42.000+02:00</time>
      </trkpt>
      <trkpt lat="48.10766" lon="7.08222">
        <ele>1267.7</ele>
        <time>2017-10-21T14:17:43.000+02:00</time>
      </trkpt>
      <trkpt lat="48.10763" lon="7.08226">
        <ele>1267.8</ele>
        <time>2017-10-21T14:17:45.000+02:00</time>
      </trkpt>
      <trkpt lat="48.10761" lon="7.0823">
        <ele>1267.9</ele>
        <time>2017-10-21T14:17:46.000+02:00</time>
      </trkpt>
      <trkpt lat="48.10759" lon="7.08234">
        <ele>1268.1</ele>
        <time>2017-10-21T14:17:47.000+02:00</time>
      </trkpt>
      <trkpt lat="48.10756" lon="7.08237">
        <ele>1268.3</ele>
        <time>2017-10-21T14:17:49.000+02:00</time>
      </trkpt>
      <trkpt lat="48.10754" lon="7.08241">
        <ele>1268.5</ele>
        <time>2017-10-21T14:17:50.000+02:00</time>
      </trkpt>
      <trkpt lat="48.10752" lon="7.08244">
        <ele>1268.7</ele>
        <time>2017-10-21T14:17:54.000+02:00</time>
      </trkpt>
      <trkpt lat="48.10749" lon="7.08247">
        <ele>1268.8</ele>
        <time>2017-10-21T14:17:57.000+02:00</time>
      </trkpt>
      <trkpt lat="48.10747" lon="7.08249">
        <ele>1268.8</ele>
        <time>2017-10-21T14:17:58.000+02:00</time>
      </trkpt>
      <trkpt lat="48.10745" lon="7.08252">
        <ele>1268.8</ele>
        <time>2017-10-21T14:18:02.000+02:00</time>
      </trkpt>
      <trkpt lat="48.10743" lon="7.08255">
        <ele>1268.8</ele>
        <time>2017-10-21T14:18:03.000+02:00</time>
      </trkpt>
      <trkpt lat="48.10742" lon="7.08257">
        <ele>1268.7</ele>
        <time>2017-10-21T14:18:04.000+02:00</time>
      </trkpt>
      <trkpt lat="48.1074" lon="7.08259">
        <ele>1268.7</ele>
        <time>2017-10-21T14:18:05.000+02:00</time>
      </trkpt>
      <trkpt lat="48.10738" lon="7.08262">
        <ele>1268.6</ele>
        <time>2017-10-21T14:18:07.000+02:00</time>
      </trkpt>
      <trkpt lat="48.10737" lon="7.08264">
        <ele>1268.6</ele>
        <time>2017-10-21T14:18:08.000+02:00</time>
      </trkpt>
      <trkpt lat="48.10737" lon="7.08267">
        <ele>1268.6</ele>
        <time>2017-10-21T14:18:09.000+02:00</time>
      </trkpt>
      <trkpt lat="48.10735" lon="7.0827">
        <ele>1268.5</ele>
        <time>2017-10-21T14:18:10.000+02:00</time>
      </trkpt>
      <trkpt lat="48.10733" lon="7.08271">
        <ele>1268.5</ele>
        <time>2017-10-21T14:18:11.000+02:00</time>
      </trkpt>
      <trkpt lat="48.10731" lon="7.08273">
        <ele>1268.5</ele>
        <time>2017-10-21T14:18:11.000+02:00</time>
      </trkpt>
      <trkpt lat="48.1073" lon="7.08276">
        <ele>1268.4</ele>
        <time>2017-10-21T14:18:12.000+02:00</time>
      </trkpt>
      <trkpt lat="48.10729" lon="7.08279">
        <ele>1268.4</ele>
        <time>2017-10-21T14:18:13.000+02:00</time>
      </trkpt>
      <trkpt lat="48.10727" lon="7.08282">
        <ele>1268.4</ele>
        <time>2017-10-21T14:18:14.000+02:00</time>
      </trkpt>
      <trkpt lat="48.10726" lon="7.08284">
        <ele>1268.4</ele>
        <time>2017-10-21T14:18:15.000+02:00</time>
      </trkpt>
      <trkpt lat="48.10724" lon="7.08286">
        <ele>1268.3</ele>
        <time>2017-10-21T14:18:16.000+02:00</time>
      </trkpt>
      <trkpt lat="48.10723" lon="7.08289">
        <ele>1268.3</ele>
        <time>2017-10-21T14:18:17.000+02:00</time>
      </trkpt>
      <trkpt lat="48.10721" lon="7.08291">
        <ele>1268.3</ele>
        <time>2017-10-21T14:18:18.000+02:00</time>
      </trkpt>
      <trkpt lat="48.1072" lon="7.08294">
        <ele>1268.3</ele>
        <time>2017-10-21T14:18:19.000+02:00</time>
      </trkpt>
      <trkpt lat="48.10718" lon="7.08296">
        <ele>1268.3</ele>
        <time>2017-10-21T14:18:20.000+02:00</time>
      </trkpt>
      <trkpt lat="48.10717" lon="7.083">
        <ele>1268.3</ele>
        <time>2017-10-21T14:18:21.000+02:00</time>
      </trkpt>
      <trkpt lat="48.10716" lon="7.08303">
        <ele>1268.3</ele>
        <time>2017-10-21T14:18:22.000+02:00</time>
      </trkpt>
      <trkpt lat="48.10714" lon="7.08306">
        <ele>1268.3</ele>
        <time>2017-10-21T14:18:23.000+02:00</time>
      </trkpt>
      <trkpt lat="48.10713" lon="7.08309">
        <ele>1268.3</ele>
        <time>2017-10-21T14:18:24.000+02:00</time>
      </trkpt>
      <trkpt lat="48.10712" lon="7.08312">
        <ele>1268.3</ele>
        <time>2017-10-21T14:18:25.000+02:00</time>
      </trkpt>
      <trkpt lat="48.1071" lon="7.08314">
        <ele>1268.3</ele>
        <time>2017-10-21T14:18:26.000+02:00</time>
      </trkpt>
      <trkpt lat="48.10708" lon="7.08316">
        <ele>1268.3</ele>
        <time>2017-10-21T14:18:26.000+02:00</time>
      </trkpt>
      <trkpt lat="48.10706" lon="7.08318">
        <ele>1268.3</ele>
        <time>2017-10-21T14:18:27.000+02:00</time>
      </trkpt>
      <trkpt lat="48.10704" lon="7.08321">
        <ele>1268.3</ele>
        <time>2017-10-21T14:18:28.000+02:00</time>
      </trkpt>
      <trkpt lat="48.10702" lon="7.08322">
        <ele>1268.3</ele>
        <time>2017-10-21T14:18:29.000+02:00</time>
      </trkpt>
      <trkpt lat="48.10701" lon="7.08325">
        <ele>1268.3</ele>
        <time>2017-10-21T14:18:30.000+02:00</time>
      </trkpt>
      <trkpt lat="48.107" lon="7.08327">
        <ele>1268.3</ele>
        <time>2017-10-21T14:18:31.000+02:00</time>
      </trkpt>
      <trkpt lat="48.10699" lon="7.0833">
        <ele>1268.3</ele>
        <time>2017-10-21T14:18:32.000+02:00</time>
      </trkpt>
      <trkpt lat="48.10698" lon="7.08332">
        <ele>1268.4</ele>
        <time>2017-10-21T14:18:32.000+02:00</time>
      </trkpt>
      <trkpt lat="48.10697" lon="7.08335">
        <ele>1268.3</ele>
        <time>2017-10-21T14:18:35.000+02:00</time>
      </trkpt>
      <trkpt lat="48.10695" lon="7.08337">
        <ele>1268.1</ele>
        <time>2017-10-21T14:18:36.000+02:00</time>
      </trkpt>
      <trkpt lat="48.10693" lon="7.08341">
        <ele>1267.8</ele>
        <time>2017-10-21T14:18:37.000+02:00</time>
      </trkpt>
      <trkpt lat="48.10692" lon="7.08343">
        <ele>1267.7</ele>
        <time>2017-10-21T14:18:38.000+02:00</time>
      </trkpt>
      <trkpt lat="48.10691" lon="7.08346">
        <ele>1267.5</ele>
        <time>2017-10-21T14:18:39.000+02:00</time>
      </trkpt>
      <trkpt lat="48.1069" lon="7.08348">
        <ele>1267.3</ele>
        <time>2017-10-21T14:18:39.000+02:00</time>
      </trkpt>
      <trkpt lat="48.10688" lon="7.0835">
        <ele>1267.1</ele>
        <time>2017-10-21T14:18:40.000+02:00</time>
      </trkpt>
      <trkpt lat="48.10686" lon="7.08353">
        <ele>1267</ele>
        <time>2017-10-21T14:18:41.000+02:00</time>
      </trkpt>
      <trkpt lat="48.10685" lon="7.08355">
        <ele>1266.8</ele>
        <time>2017-10-21T14:18:42.000+02:00</time>
      </trkpt>
      <trkpt lat="48.10683" lon="7.08356">
        <ele>1266.6</ele>
        <time>2017-10-21T14:18:45.000+02:00</time>
      </trkpt>
      <trkpt lat="48.10681" lon="7.08358">
        <ele>1266.5</ele>
        <time>2017-10-21T14:18:46.000+02:00</time>
      </trkpt>
      <trkpt lat="48.10679" lon="7.0836">
        <ele>1266.3</ele>
        <time>2017-10-21T14:18:47.000+02:00</time>
      </trkpt>
      <trkpt lat="48.10677" lon="7.08364">
        <ele>1266</ele>
        <time>2017-10-21T14:18:48.000+02:00</time>
      </trkpt>
      <trkpt lat="48.10674" lon="7.08367">
        <ele>1265.8</ele>
        <time>2017-10-21T14:18:49.000+02:00</time>
      </trkpt>
      <trkpt lat="48.10672" lon="7.08368">
        <ele>1265.6</ele>
        <time>2017-10-21T14:18:50.000+02:00</time>
      </trkpt>
      <trkpt lat="48.1067" lon="7.08371">
        <ele>1265.4</ele>
        <time>2017-10-21T14:18:51.000+02:00</time>
      </trkpt>
      <trkpt lat="48.1067" lon="7.08375">
        <ele>1265.1</ele>
        <time>2017-10-21T14:18:52.000+02:00</time>
      </trkpt>
      <trkpt lat="48.10669" lon="7.08377">
        <ele>1264.9</ele>
        <time>2017-10-21T14:18:53.000+02:00</time>
      </trkpt>
      <trkpt lat="48.10668" lon="7.08378">
        <ele>1264.8</ele>
        <time>2017-10-21T14:18:54.000+02:00</time>
      </trkpt>
      <trkpt lat="48.10667" lon="7.0838">
        <ele>1264.6</ele>
        <time>2017-10-21T14:19:03.000+02:00</time>
      </trkpt>
      <trkpt lat="48.10666" lon="7.0838">
        <ele>1264.5</ele>
        <time>2017-10-21T14:19:03.000+02:00</time>
      </trkpt>
      <trkpt lat="48.10667" lon="7.0838">
        <ele>1264.7</ele>
        <time>2017-10-21T14:19:18.000+02:00</time>
      </trkpt>
      <trkpt lat="48.10667" lon="7.0838">
        <ele>1264.6</ele>
        <time>2017-10-21T14:19:27.000+02:00</time>
      </trkpt>
      <trkpt lat="48.10667" lon="7.0838">
        <ele>1264.6</ele>
        <time>2017-10-21T14:19:41.000+02:00</time>
      </trkpt>
      <trkpt lat="48.10666" lon="7.0838">
        <ele>1264.5</ele>
        <time>2017-10-21T14:19:50.000+02:00</time>
      </trkpt>
      <trkpt lat="48.10667" lon="7.0838">
        <ele>1264.7</ele>
        <time>2017-10-21T14:20:05.000+02:00</time>
      </trkpt>
      <trkpt lat="48.10667" lon="7.0838">
        <ele>1264.7</ele>
        <time>2017-10-21T14:20:05.000+02:00</time>
      </trkpt>
      <trkpt lat="48.10667" lon="7.0838">
        <ele>1264.6</ele>
        <time>2017-10-21T14:20:13.000+02:00</time>
      </trkpt>
      <trkpt lat="48.10667" lon="7.0838">
        <ele>1264.6</ele>
        <time>2017-10-21T14:20:13.000+02:00</time>
      </trkpt>
      <trkpt lat="48.10667" lon="7.0838">
        <ele>1264.6</ele>
        <time>2017-10-21T14:20:28.000+02:00</time>
      </trkpt>
      <trkpt lat="48.10666" lon="7.0838">
        <ele>1264.5</ele>
        <time>2017-10-21T14:20:37.000+02:00</time>
      </trkpt>
      <trkpt lat="48.10667" lon="7.0838">
        <ele>1264.6</ele>
        <time>2017-10-21T14:20:51.000+02:00</time>
      </trkpt>
      <trkpt lat="48.10667" lon="7.08379">
        <ele>1264.7</ele>
        <time>2017-10-21T14:20:52.000+02:00</time>
      </trkpt>
      <trkpt lat="48.10667" lon="7.08379">
        <ele>1264.8</ele>
        <time>2017-10-21T14:20:52.000+02:00</time>
      </trkpt>
      <trkpt lat="48.10668" lon="7.08377">
        <ele>1264.9</ele>
        <time>2017-10-21T14:20:55.000+02:00</time>
      </trkpt>
      <trkpt lat="48.10669" lon="7.08376">
        <ele>1265</ele>
        <time>2017-10-21T14:20:55.000+02:00</time>
      </trkpt>
      <trkpt lat="48.10669" lon="7.08375">
        <ele>1265.1</ele>
        <time>2017-10-21T14:20:55.000+02:00</time>
      </trkpt>
      <trkpt lat="48.1067" lon="7.08373">
        <ele>1265.2</ele>
        <time>2017-10-21T14:20:56.000+02:00</time>
      </trkpt>
      <trkpt lat="48.1067" lon="7.08371">
        <ele>1265.4</ele>
        <time>2017-10-21T14:20:56.000+02:00</time>
      </trkpt>
      <trkpt lat="48.10671" lon="7.08369">
        <ele>1265.5</ele>
        <time>2017-10-21T14:20:57.000+02:00</time>
      </trkpt>
      <trkpt lat="48.10672" lon="7.08368">
        <ele>1265.6</ele>
        <time>2017-10-21T14:20:58.000+02:00</time>
      </trkpt>
      <trkpt lat="48.10673" lon="7.08367">
        <ele>1265.7</ele>
        <time>2017-10-21T14:20:58.000+02:00</time>
      </trkpt>
      <trkpt lat="48.10673" lon="7.08366">
        <ele>1265.8</ele>
        <time>2017-10-21T14:20:58.000+02:00</time>
      </trkpt>
      <trkpt lat="48.10674" lon="7.08366">
        <ele>1265.8</ele>
        <time>2017-10-21T14:20:59.000+02:00</time>
      </trkpt>
      <trkpt lat="48.10675" lon="7.08365">
        <ele>1265.9</ele>
        <time>2017-10-21T14:20:59.000+02:00</time>
      </trkpt>
      <trkpt lat="48.10674" lon="7.08366">
        <ele>1265.8</ele>
        <time>2017-10-21T14:20:59.000+02:00</time>
      </trkpt>
      <trkpt lat="48.10675" lon="7.08365">
        <ele>1265.9</ele>
        <time>2017-10-21T14:20:59.000+02:00</time>
      </trkpt>
      <trkpt lat="48.10675" lon="7.08364">
        <ele>1265.9</ele>
        <time>2017-10-21T14:21:00.000+02:00</time>
      </trkpt>
      <trkpt lat="48.10676" lon="7.08363">
        <ele>1266.1</ele>
        <time>2017-10-21T14:21:00.000+02:00</time>
      </trkpt>
      <trkpt lat="48.10678" lon="7.0836">
        <ele>1266.3</ele>
        <time>2017-10-21T14:21:01.000+02:00</time>
      </trkpt>
      <trkpt lat="48.10679" lon="7.08358">
        <ele>1266.4</ele>
        <time>2017-10-21T14:21:02.000+02:00</time>
      </trkpt>
      <trkpt lat="48.10682" lon="7.08356">
        <ele>1266.6</ele>
        <time>2017-10-21T14:21:06.000+02:00</time>
      </trkpt>
      <trkpt lat="48.10684" lon="7.08355">
        <ele>1266.8</ele>
        <time>2017-10-21T14:21:07.000+02:00</time>
      </trkpt>
      <trkpt lat="48.10686" lon="7.08354">
        <ele>1266.9</ele>
        <time>2017-10-21T14:21:08.000+02:00</time>
      </trkpt>
      <trkpt lat="48.10688" lon="7.08351">
        <ele>1267.1</ele>
        <time>2017-10-21T14:21:09.000+02:00</time>
      </trkpt>
      <trkpt lat="48.10689" lon="7.08348">
        <ele>1267.3</ele>
        <time>2017-10-21T14:21:10.000+02:00</time>
      </trkpt>
      <trkpt lat="48.10691" lon="7.08345">
        <ele>1267.5</ele>
        <time>2017-10-21T14:21:11.000+02:00</time>
      </trkpt>
      <trkpt lat="48.10693" lon="7.08342">
        <ele>1267.8</ele>
        <time>2017-10-21T14:21:12.000+02:00</time>
      </trkpt>
      <trkpt lat="48.10694" lon="7.08337">
        <ele>1268.1</ele>
        <time>2017-10-21T14:21:14.000+02:00</time>
      </trkpt>
      <trkpt lat="48.10696" lon="7.08334">
        <ele>1268.3</ele>
        <time>2017-10-21T14:21:15.000+02:00</time>
      </trkpt>
      <trkpt lat="48.10699" lon="7.08333">
        <ele>1268.4</ele>
        <time>2017-10-21T14:21:19.000+02:00</time>
      </trkpt>
      <trkpt lat="48.10701" lon="7.08334">
        <ele>1268.4</ele>
        <time>2017-10-21T14:21:22.000+02:00</time>
      </trkpt>
      <trkpt lat="48.10705" lon="7.08337">
        <ele>1268.2</ele>
        <time>2017-10-21T14:21:23.000+02:00</time>
      </trkpt>
      <trkpt lat="48.10707" lon="7.08341">
        <ele>1268</ele>
        <time>2017-10-21T14:21:24.000+02:00</time>
      </trkpt>
      <trkpt lat="48.1071" lon="7.08343">
        <ele>1267.9</ele>
        <time>2017-10-21T14:21:26.000+02:00</time>
      </trkpt>
      <trkpt lat="48.10713" lon="7.08345">
        <ele>1267.9</ele>
        <time>2017-10-21T14:21:27.000+02:00</time>
      </trkpt>
      <trkpt lat="48.10716" lon="7.08347">
        <ele>1267.8</ele>
        <time>2017-10-21T14:21:29.000+02:00</time>
      </trkpt>
      <trkpt lat="48.10717" lon="7.08351">
        <ele>1267.6</ele>
        <time>2017-10-21T14:21:30.000+02:00</time>
      </trkpt>
      <trkpt lat="48.10719" lon="7.08353">
        <ele>1267.5</ele>
        <time>2017-10-21T14:21:31.000+02:00</time>
      </trkpt>
      <trkpt lat="48.10721" lon="7.08356">
        <ele>1267.4</ele>
        <time>2017-10-21T14:21:32.000+02:00</time>
      </trkpt>
      <trkpt lat="48.10724" lon="7.08359">
        <ele>1267.3</ele>
        <time>2017-10-21T14:21:33.000+02:00</time>
      </trkpt>
      <trkpt lat="48.10726" lon="7.08361">
        <ele>1267.2</ele>
        <time>2017-10-21T14:21:34.000+02:00</time>
      </trkpt>
      <trkpt lat="48.10727" lon="7.08364">
        <ele>1267</ele>
        <time>2017-10-21T14:21:35.000+02:00</time>
      </trkpt>
      <trkpt lat="48.10728" lon="7.08366">
        <ele>1266.9</ele>
        <time>2017-10-21T14:21:36.000+02:00</time>
      </trkpt>
      <trkpt lat="48.10728" lon="7.0837">
        <ele>1266.7</ele>
        <time>2017-10-21T14:21:38.000+02:00</time>
      </trkpt>
      <trkpt lat="48.10727" lon="7.08374">
        <ele>1266.5</ele>
        <time>2017-10-21T14:21:39.000+02:00</time>
      </trkpt>
      <trkpt lat="48.10728" lon="7.08377">
        <ele>1266.4</ele>
        <time>2017-10-21T14:21:40.000+02:00</time>
      </trkpt>
      <trkpt lat="48.10728" lon="7.08381">
        <ele>1266.2</ele>
        <time>2017-10-21T14:21:41.000+02:00</time>
      </trkpt>
      <trkpt lat="48.10728" lon="7.08384">
        <ele>1266</ele>
        <time>2017-10-21T14:21:42.000+02:00</time>
      </trkpt>
      <trkpt lat="48.10729" lon="7.08387">
        <ele>1265.9</ele>
        <time>2017-10-21T14:21:43.000+02:00</time>
      </trkpt>
      <trkpt lat="48.1073" lon="7.08391">
        <ele>1265.7</ele>
        <time>2017-10-21T14:21:44.000+02:00</time>
      </trkpt>
      <trkpt lat="48.10731" lon="7.08395">
        <ele>1265.5</ele>
        <time>2017-10-21T14:21:45.000+02:00</time>
      </trkpt>
      <trkpt lat="48.1073" lon="7.08399">
        <ele>1265.2</ele>
        <time>2017-10-21T14:21:46.000+02:00</time>
      </trkpt>
      <trkpt lat="48.10729" lon="7.08402">
        <ele>1265</ele>
        <time>2017-10-21T14:21:47.000+02:00</time>
      </trkpt>
      <trkpt lat="48.10728" lon="7.08406">
        <ele>1264.8</ele>
        <time>2017-10-21T14:21:50.000+02:00</time>
      </trkpt>
      <trkpt lat="48.10727" lon="7.08408">
        <ele>1264.6</ele>
        <time>2017-10-21T14:21:51.000+02:00</time>
      </trkpt>
      <trkpt lat="48.10725" lon="7.08412">
        <ele>1264.4</ele>
        <time>2017-10-21T14:21:52.000+02:00</time>
      </trkpt>
      <trkpt lat="48.10724" lon="7.08416">
        <ele>1264.1</ele>
        <time>2017-10-21T14:21:53.000+02:00</time>
      </trkpt>
      <trkpt lat="48.10723" lon="7.08419">
        <ele>1263.8</ele>
        <time>2017-10-21T14:21:57.000+02:00</time>
      </trkpt>
      <trkpt lat="48.10723" lon="7.08422">
        <ele>1263.4</ele>
        <time>2017-10-21T14:21:58.000+02:00</time>
      </trkpt>
      <trkpt lat="48.10723" lon="7.08425">
        <ele>1262.9</ele>
        <time>2017-10-21T14:22:01.000+02:00</time>
      </trkpt>
      <trkpt lat="48.10723" lon="7.0843">
        <ele>1262.4</ele>
        <time>2017-10-21T14:22:02.000+02:00</time>
      </trkpt>
      <trkpt lat="48.10723" lon="7.08435">
        <ele>1261.8</ele>
        <time>2017-10-21T14:22:03.000+02:00</time>
      </trkpt>
      <trkpt lat="48.10724" lon="7.0844">
        <ele>1261.2</ele>
        <time>2017-10-21T14:22:05.000+02:00</time>
      </trkpt>
      <trkpt lat="48.10725" lon="7.08445">
        <ele>1260.7</ele>
        <time>2017-10-21T14:22:07.000+02:00</time>
      </trkpt>
      <trkpt lat="48.10726" lon="7.08448">
        <ele>1260.3</ele>
        <time>2017-10-21T14:22:08.000+02:00</time>
      </trkpt>
      <trkpt lat="48.10726" lon="7.08452">
        <ele>1260</ele>
        <time>2017-10-21T14:22:09.000+02:00</time>
      </trkpt>
      <trkpt lat="48.10726" lon="7.08455">
        <ele>1259.5</ele>
        <time>2017-10-21T14:22:10.000+02:00</time>
      </trkpt>
      <trkpt lat="48.10726" lon="7.08459">
        <ele>1259.1</ele>
        <time>2017-10-21T14:22:12.000+02:00</time>
      </trkpt>
      <trkpt lat="48.10727" lon="7.08462">
        <ele>1258.7</ele>
        <time>2017-10-21T14:22:13.000+02:00</time>
      </trkpt>
      <trkpt lat="48.10728" lon="7.08466">
        <ele>1258.4</ele>
        <time>2017-10-21T14:22:14.000+02:00</time>
      </trkpt>
      <trkpt lat="48.10728" lon="7.08469">
        <ele>1258</ele>
        <time>2017-10-21T14:22:15.000+02:00</time>
      </trkpt>
      <trkpt lat="48.10728" lon="7.08473">
        <ele>1257.6</ele>
        <time>2017-10-21T14:22:16.000+02:00</time>
      </trkpt>
      <trkpt lat="48.10729" lon="7.08476">
        <ele>1257.3</ele>
        <time>2017-10-21T14:22:19.000+02:00</time>
      </trkpt>
      <trkpt lat="48.1073" lon="7.08482">
        <ele>1256.7</ele>
        <time>2017-10-21T14:22:20.000+02:00</time>
      </trkpt>
      <trkpt lat="48.1073" lon="7.08486">
        <ele>1256.3</ele>
        <time>2017-10-21T14:22:21.000+02:00</time>
      </trkpt>
      <trkpt lat="48.1073" lon="7.0849">
        <ele>1255.8</ele>
        <time>2017-10-21T14:22:22.000+02:00</time>
      </trkpt>
      <trkpt lat="48.1073" lon="7.08494">
        <ele>1255.3</ele>
        <time>2017-10-21T14:22:24.000+02:00</time>
      </trkpt>
      <trkpt lat="48.1073" lon="7.08498">
        <ele>1254.8</ele>
        <time>2017-10-21T14:22:25.000+02:00</time>
      </trkpt>
      <trkpt lat="48.10731" lon="7.08502">
        <ele>1254.3</ele>
        <time>2017-10-21T14:22:31.000+02:00</time>
      </trkpt>
      <trkpt lat="48.10731" lon="7.08506">
        <ele>1253.9</ele>
        <time>2017-10-21T14:22:32.000+02:00</time>
      </trkpt>
      <trkpt lat="48.10732" lon="7.08509">
        <ele>1253.5</ele>
        <time>2017-10-21T14:22:33.000+02:00</time>
      </trkpt>
      <trkpt lat="48.10733" lon="7.08512">
        <ele>1253.2</ele>
        <time>2017-10-21T14:22:34.000+02:00</time>
      </trkpt>
      <trkpt lat="48.10734" lon="7.08515">
        <ele>1252.9</ele>
        <time>2017-10-21T14:22:35.000+02:00</time>
      </trkpt>
      <trkpt lat="48.10736" lon="7.0852">
        <ele>1252.4</ele>
        <time>2017-10-21T14:22:37.000+02:00</time>
      </trkpt>
      <trkpt lat="48.10737" lon="7.08525">
        <ele>1251.8</ele>
        <time>2017-10-21T14:22:40.000+02:00</time>
      </trkpt>
      <trkpt lat="48.10737" lon="7.08529">
        <ele>1251.2</ele>
        <time>2017-10-21T14:22:41.000+02:00</time>
      </trkpt>
      <trkpt lat="48.10737" lon="7.08532">
        <ele>1250.7</ele>
        <time>2017-10-21T14:22:41.000+02:00</time>
      </trkpt>
      <trkpt lat="48.10737" lon="7.08536">
        <ele>1250.3</ele>
        <time>2017-10-21T14:22:44.000+02:00</time>
      </trkpt>
      <trkpt lat="48.10738" lon="7.08539">
        <ele>1249.9</ele>
        <time>2017-10-21T14:22:45.000+02:00</time>
      </trkpt>
      <trkpt lat="48.10739" lon="7.08543">
        <ele>1249.4</ele>
        <time>2017-10-21T14:22:47.000+02:00</time>
      </trkpt>
      <trkpt lat="48.1074" lon="7.08547">
        <ele>1249</ele>
        <time>2017-10-21T14:22:48.000+02:00</time>
      </trkpt>
      <trkpt lat="48.10741" lon="7.08549">
        <ele>1248.8</ele>
        <time>2017-10-21T14:22:49.000+02:00</time>
      </trkpt>
      <trkpt lat="48.10743" lon="7.08551">
        <ele>1248.8</ele>
        <time>2017-10-21T14:22:50.000+02:00</time>
      </trkpt>
      <trkpt lat="48.10744" lon="7.08554">
        <ele>1248.6</ele>
        <time>2017-10-21T14:22:51.000+02:00</time>
      </trkpt>
      <trkpt lat="48.10745" lon="7.08556">
        <ele>1248.3</ele>
        <time>2017-10-21T14:22:53.000+02:00</time>
      </trkpt>
      <trkpt lat="48.10746" lon="7.0856">
        <ele>1247.9</ele>
        <time>2017-10-21T14:22:54.000+02:00</time>
      </trkpt>
      <trkpt lat="48.10747" lon="7.08563">
        <ele>1247.6</ele>
        <time>2017-10-21T14:22:55.000+02:00</time>
      </trkpt>
      <trkpt lat="48.10748" lon="7.08565">
        <ele>1247.3</ele>
        <time>2017-10-21T14:22:56.000+02:00</time>
      </trkpt>
      <trkpt lat="48.10749" lon="7.08568">
        <ele>1247.2</ele>
        <time>2017-10-21T14:22:57.000+02:00</time>
      </trkpt>
      <trkpt lat="48.10749" lon="7.08567">
        <ele>1247.3</ele>
        <time>2017-10-21T14:22:57.000+02:00</time>
      </trkpt>
      <trkpt lat="48.10751" lon="7.0857">
        <ele>1246.9</ele>
        <time>2017-10-21T14:22:58.000+02:00</time>
      </trkpt>
      <trkpt lat="48.10751" lon="7.08571">
        <ele>1246.7</ele>
        <time>2017-10-21T14:22:58.000+02:00</time>
      </trkpt>
      <trkpt lat="48.10751" lon="7.08572">
        <ele>1246.5</ele>
        <time>2017-10-21T14:22:59.000+02:00</time>
      </trkpt>
      <trkpt lat="48.10752" lon="7.08573">
        <ele>1246.2</ele>
        <time>2017-10-21T14:23:00.000+02:00</time>
      </trkpt>
      <trkpt lat="48.10753" lon="7.08576">
        <ele>1245.7</ele>
        <time>2017-10-21T14:23:01.000+02:00</time>
      </trkpt>
      <trkpt lat="48.10754" lon="7.08579">
        <ele>1245.1</ele>
        <time>2017-10-21T14:23:02.000+02:00</time>
      </trkpt>
      <trkpt lat="48.10755" lon="7.08581">
        <ele>1244.7</ele>
        <time>2017-10-21T14:23:03.000+02:00</time>
      </trkpt>
      <trkpt lat="48.10755" lon="7.08584">
        <ele>1244.3</ele>
        <time>2017-10-21T14:23:05.000+02:00</time>
      </trkpt>
      <trkpt lat="48.10755" lon="7.08586">
        <ele>1244</ele>
        <time>2017-10-21T14:23:06.000+02:00</time>
      </trkpt>
      <trkpt lat="48.10756" lon="7.08589">
        <ele>1243.6</ele>
        <time>2017-10-21T14:23:08.000+02:00</time>
      </trkpt>
      <trkpt lat="48.10756" lon="7.08592">
        <ele>1243.3</ele>
        <time>2017-10-21T14:23:09.000+02:00</time>
      </trkpt>
      <trkpt lat="48.10757" lon="7.08594">
        <ele>1242.9</ele>
        <time>2017-10-21T14:23:11.000+02:00</time>
      </trkpt>
      <trkpt lat="48.10757" lon="7.08597">
        <ele>1242.4</ele>
        <time>2017-10-21T14:23:14.000+02:00</time>
      </trkpt>
      <trkpt lat="48.10758" lon="7.086">
        <ele>1242</ele>
        <time>2017-10-21T14:23:15.000+02:00</time>
      </trkpt>
      <trkpt lat="48.10758" lon="7.08604">
        <ele>1241.6</ele>
        <time>2017-10-21T14:23:17.000+02:00</time>
      </trkpt>
      <trkpt lat="48.10759" lon="7.08606">
        <ele>1241.2</ele>
        <time>2017-10-21T14:23:18.000+02:00</time>
      </trkpt>
      <trkpt lat="48.10759" lon="7.08605">
        <ele>1241.4</ele>
        <time>2017-10-21T14:23:18.000+02:00</time>
      </trkpt>
      <trkpt lat="48.10759" lon="7.08606">
        <ele>1241.2</ele>
        <time>2017-10-21T14:23:19.000+02:00</time>
      </trkpt>
      <trkpt lat="48.10759" lon="7.08607">
        <ele>1241</ele>
        <time>2017-10-21T14:23:19.000+02:00</time>
      </trkpt>
      <trkpt lat="48.10759" lon="7.08608">
        <ele>1240.9</ele>
        <time>2017-10-21T14:23:19.000+02:00</time>
      </trkpt>
      <trkpt lat="48.10759" lon="7.08607">
        <ele>1241</ele>
        <time>2017-10-21T14:23:19.000+02:00</time>
      </trkpt>
      <trkpt lat="48.1076" lon="7.0861">
        <ele>1240.6</ele>
        <time>2017-10-21T14:23:22.000+02:00</time>
      </trkpt>
      <trkpt lat="48.1076" lon="7.08611">
        <ele>1240.5</ele>
        <time>2017-10-21T14:23:22.000+02:00</time>
      </trkpt>
      <trkpt lat="48.1076" lon="7.08612">
        <ele>1240.3</ele>
        <time>2017-10-21T14:23:22.000+02:00</time>
      </trkpt>
      <trkpt lat="48.1076" lon="7.08614">
        <ele>1240.2</ele>
        <time>2017-10-21T14:23:23.000+02:00</time>
      </trkpt>
      <trkpt lat="48.1076" lon="7.08614">
        <ele>1240.1</ele>
        <time>2017-10-21T14:23:23.000+02:00</time>
      </trkpt>
      <trkpt lat="48.1076" lon="7.08616">
        <ele>1239.9</ele>
        <time>2017-10-21T14:23:23.000+02:00</time>
      </trkpt>
      <trkpt lat="48.1076" lon="7.0862">
        <ele>1239.4</ele>
        <time>2017-10-21T14:23:26.000+02:00</time>
      </trkpt>
      <trkpt lat="48.10761" lon="7.08622">
        <ele>1239</ele>
        <time>2017-10-21T14:23:26.000+02:00</time>
      </trkpt>
      <trkpt lat="48.10761" lon="7.08625">
        <ele>1238.6</ele>
        <time>2017-10-21T14:23:27.000+02:00</time>
      </trkpt>
      <trkpt lat="48.10762" lon="7.08628">
        <ele>1238.3</ele>
        <time>2017-10-21T14:23:29.000+02:00</time>
      </trkpt>
      <trkpt lat="48.10763" lon="7.08631">
        <ele>1237.8</ele>
        <time>2017-10-21T14:23:30.000+02:00</time>
      </trkpt>
      <trkpt lat="48.10764" lon="7.08634">
        <ele>1237.2</ele>
        <time>2017-10-21T14:23:31.000+02:00</time>
      </trkpt>
      <trkpt lat="48.10766" lon="7.08639">
        <ele>1236.4</ele>
        <time>2017-10-21T14:23:34.000+02:00</time>
      </trkpt>
      <trkpt lat="48.10767" lon="7.08643">
        <ele>1235.8</ele>
        <time>2017-10-21T14:23:35.000+02:00</time>
      </trkpt>
      <trkpt lat="48.10767" lon="7.08648">
        <ele>1235.1</ele>
        <time>2017-10-21T14:23:36.000+02:00</time>
      </trkpt>
      <trkpt lat="48.10769" lon="7.08651">
        <ele>1234.6</ele>
        <time>2017-10-21T14:23:37.000+02:00</time>
      </trkpt>
      <trkpt lat="48.1077" lon="7.08655">
        <ele>1234</ele>
        <time>2017-10-21T14:23:38.000+02:00</time>
      </trkpt>
      <trkpt lat="48.1077" lon="7.0866">
        <ele>1233.4</ele>
        <time>2017-10-21T14:23:39.000+02:00</time>
      </trkpt>
      <trkpt lat="48.10772" lon="7.08665">
        <ele>1232.7</ele>
        <time>2017-10-21T14:23:42.000+02:00</time>
      </trkpt>
      <trkpt lat="48.10772" lon="7.08669">
        <ele>1232.1</ele>
        <time>2017-10-21T14:23:47.000+02:00</time>
      </trkpt>
      <trkpt lat="48.10771" lon="7.08672">
        <ele>1231.7</ele>
        <time>2017-10-21T14:23:48.000+02:00</time>
      </trkpt>
      <trkpt lat="48.1077" lon="7.08677">
        <ele>1231.2</ele>
        <time>2017-10-21T14:23:50.000+02:00</time>
      </trkpt>
      <trkpt lat="48.10769" lon="7.08682">
        <ele>1230.8</ele>
        <time>2017-10-21T14:23:52.000+02:00</time>
      </trkpt>
      <trkpt lat="48.10768" lon="7.08686">
        <ele>1230.4</ele>
        <time>2017-10-21T14:23:53.000+02:00</time>
      </trkpt>
      <trkpt lat="48.10766" lon="7.08692">
        <ele>1229.9</ele>
        <time>2017-10-21T14:23:55.000+02:00</time>
      </trkpt>
      <trkpt lat="48.10764" lon="7.08697">
        <ele>1229.4</ele>
        <time>2017-10-21T14:23:57.000+02:00</time>
      </trkpt>
      <trkpt lat="48.10763" lon="7.08703">
        <ele>1228.9</ele>
        <time>2017-10-21T14:24:00.000+02:00</time>
      </trkpt>
      <trkpt lat="48.1076" lon="7.08708">
        <ele>1228.7</ele>
        <time>2017-10-21T14:24:01.000+02:00</time>
      </trkpt>
      <trkpt lat="48.10757" lon="7.08714">
        <ele>1228.3</ele>
        <time>2017-10-21T14:24:03.000+02:00</time>
      </trkpt>
      <trkpt lat="48.10755" lon="7.0872">
        <ele>1227.9</ele>
        <time>2017-10-21T14:24:06.000+02:00</time>
      </trkpt>
      <trkpt lat="48.10752" lon="7.08726">
        <ele>1227.5</ele>
        <time>2017-10-21T14:24:07.000+02:00</time>
      </trkpt>
      <trkpt lat="48.10749" lon="7.08732">
        <ele>1227.1</ele>
        <time>2017-10-21T14:24:16.000+02:00</time>
      </trkpt>
      <trkpt lat="48.10746" lon="7.08737">
        <ele>1226.5</ele>
        <time>2017-10-21T14:24:18.000+02:00</time>
      </trkpt>
      <trkpt lat="48.10742" lon="7.08741">
        <ele>1225.9</ele>
        <time>2017-10-21T14:24:20.000+02:00</time>
      </trkpt>
      <trkpt lat="48.10738" lon="7.08745">
        <ele>1225.4</ele>
        <time>2017-10-21T14:24:22.000+02:00</time>
      </trkpt>
      <trkpt lat="48.10733" lon="7.08748">
        <ele>1225</ele>
        <time>2017-10-21T14:24:24.000+02:00</time>
      </trkpt>
      <trkpt lat="48.10729" lon="7.08751">
        <ele>1224.6</ele>
        <time>2017-10-21T14:24:30.000+02:00</time>
      </trkpt>
      <trkpt lat="48.10725" lon="7.08754">
        <ele>1224.2</ele>
        <time>2017-10-21T14:24:32.000+02:00</time>
      </trkpt>
      <trkpt lat="48.1072" lon="7.08756">
        <ele>1224</ele>
        <time>2017-10-21T14:24:34.000+02:00</time>
      </trkpt>
      <trkpt lat="48.10715" lon="7.08758">
        <ele>1223.8</ele>
        <time>2017-10-21T14:24:36.000+02:00</time>
      </trkpt>
      <trkpt lat="48.10711" lon="7.0876">
        <ele>1223.5</ele>
        <time>2017-10-21T14:24:38.000+02:00</time>
      </trkpt>
      <trkpt lat="48.10707" lon="7.08761">
        <ele>1223.3</ele>
        <time>2017-10-21T14:24:40.000+02:00</time>
      </trkpt>
      <trkpt lat="48.10704" lon="7.08763">
        <ele>1223.2</ele>
        <time>2017-10-21T14:24:41.000+02:00</time>
      </trkpt>
      <trkpt lat="48.107" lon="7.08764">
        <ele>1223</ele>
        <time>2017-10-21T14:24:42.000+02:00</time>
      </trkpt>
      <trkpt lat="48.10697" lon="7.08766">
        <ele>1222.9</ele>
        <time>2017-10-21T14:24:44.000+02:00</time>
      </trkpt>
      <trkpt lat="48.10694" lon="7.08768">
        <ele>1222.6</ele>
        <time>2017-10-21T14:24:46.000+02:00</time>
      </trkpt>
      <trkpt lat="48.10692" lon="7.0877">
        <ele>1222.4</ele>
        <time>2017-10-21T14:24:47.000+02:00</time>
      </trkpt>
      <trkpt lat="48.10689" lon="7.08772">
        <ele>1222.3</ele>
        <time>2017-10-21T14:24:48.000+02:00</time>
      </trkpt>
      <trkpt lat="48.10686" lon="7.08774">
        <ele>1222</ele>
        <time>2017-10-21T14:24:50.000+02:00</time>
      </trkpt>
      <trkpt lat="48.10683" lon="7.08776">
        <ele>1221.8</ele>
        <time>2017-10-21T14:24:51.000+02:00</time>
      </trkpt>
      <trkpt lat="48.1068" lon="7.08778">
        <ele>1221.7</ele>
        <time>2017-10-21T14:24:52.000+02:00</time>
      </trkpt>
      <trkpt lat="48.10678" lon="7.0878">
        <ele>1221.5</ele>
        <time>2017-10-21T14:24:53.000+02:00</time>
      </trkpt>
      <trkpt lat="48.10676" lon="7.08783">
        <ele>1221.2</ele>
        <time>2017-10-21T14:24:55.000+02:00</time>
      </trkpt>
      <trkpt lat="48.10673" lon="7.08785">
        <ele>1221.1</ele>
        <time>2017-10-21T14:24:56.000+02:00</time>
      </trkpt>
      <trkpt lat="48.10669" lon="7.08787">
        <ele>1220.9</ele>
        <time>2017-10-21T14:24:57.000+02:00</time>
      </trkpt>
      <trkpt lat="48.10666" lon="7.0879">
        <ele>1220.5</ele>
        <time>2017-10-21T14:25:04.000+02:00</time>
      </trkpt>
      <trkpt lat="48.10663" lon="7.08792">
        <ele>1219.8</ele>
        <time>2017-10-21T14:25:05.000+02:00</time>
      </trkpt>
      <trkpt lat="48.1066" lon="7.08795">
        <ele>1219.2</ele>
        <time>2017-10-21T14:25:06.000+02:00</time>
      </trkpt>
      <trkpt lat="48.10658" lon="7.08797">
        <ele>1218.7</ele>
        <time>2017-10-21T14:25:07.000+02:00</time>
      </trkpt>
      <trkpt lat="48.10656" lon="7.08799">
        <ele>1218.3</ele>
        <time>2017-10-21T14:25:08.000+02:00</time>
      </trkpt>
      <trkpt lat="48.10654" lon="7.08801">
        <ele>1217.7</ele>
        <time>2017-10-21T14:25:11.000+02:00</time>
      </trkpt>
      <trkpt lat="48.1065" lon="7.08803">
        <ele>1217.1</ele>
        <time>2017-10-21T14:25:12.000+02:00</time>
      </trkpt>
      <trkpt lat="48.10647" lon="7.08805">
        <ele>1216.5</ele>
        <time>2017-10-21T14:25:13.000+02:00</time>
      </trkpt>
      <trkpt lat="48.10644" lon="7.08808">
        <ele>1215.9</ele>
        <time>2017-10-21T14:25:15.000+02:00</time>
      </trkpt>
      <trkpt lat="48.10641" lon="7.08812">
        <ele>1215.2</ele>
        <time>2017-10-21T14:25:16.000+02:00</time>
      </trkpt>
      <trkpt lat="48.10638" lon="7.08815">
        <ele>1214.5</ele>
        <time>2017-10-21T14:25:19.000+02:00</time>
      </trkpt>
      <trkpt lat="48.10635" lon="7.08818">
        <ele>1214</ele>
        <time>2017-10-21T14:25:20.000+02:00</time>
      </trkpt>
      <trkpt lat="48.10631" lon="7.08822">
        <ele>1213.2</ele>
        <time>2017-10-21T14:25:22.000+02:00</time>
      </trkpt>
      <trkpt lat="48.10627" lon="7.08825">
        <ele>1212.6</ele>
        <time>2017-10-21T14:25:24.000+02:00</time>
      </trkpt>
      <trkpt lat="48.10623" lon="7.08828">
        <ele>1212</ele>
        <time>2017-10-21T14:25:26.000+02:00</time>
      </trkpt>
      <trkpt lat="48.1062" lon="7.08832">
        <ele>1211.5</ele>
        <time>2017-10-21T14:25:28.000+02:00</time>
      </trkpt>
      <trkpt lat="48.10617" lon="7.08835">
        <ele>1211</ele>
        <time>2017-10-21T14:25:33.000+02:00</time>
      </trkpt>
      <trkpt lat="48.10613" lon="7.08838">
        <ele>1210.4</ele>
        <time>2017-10-21T14:25:34.000+02:00</time>
      </trkpt>
      <trkpt lat="48.1061" lon="7.0884">
        <ele>1209.9</ele>
        <time>2017-10-21T14:25:36.000+02:00</time>
      </trkpt>
      <trkpt lat="48.10608" lon="7.08843">
        <ele>1209.5</ele>
        <time>2017-10-21T14:25:38.000+02:00</time>
      </trkpt>
      <trkpt lat="48.10604" lon="7.08846">
        <ele>1209</ele>
        <time>2017-10-21T14:25:40.000+02:00</time>
      </trkpt>
      <trkpt lat="48.10599" lon="7.08849">
        <ele>1208.3</ele>
        <time>2017-10-21T14:25:42.000+02:00</time>
      </trkpt>
      <trkpt lat="48.10595" lon="7.08852">
        <ele>1207.7</ele>
        <time>2017-10-21T14:25:44.000+02:00</time>
      </trkpt>
      <trkpt lat="48.10591" lon="7.08854">
        <ele>1207.1</ele>
        <time>2017-10-21T14:25:46.000+02:00</time>
      </trkpt>
      <trkpt lat="48.10586" lon="7.08856">
        <ele>1206.4</ele>
        <time>2017-10-21T14:25:48.000+02:00</time>
      </trkpt>
      <trkpt lat="48.10581" lon="7.0886">
        <ele>1205.4</ele>
        <time>2017-10-21T14:25:58.000+02:00</time>
      </trkpt>
      <trkpt lat="48.10576" lon="7.08864">
        <ele>1204.1</ele>
        <time>2017-10-21T14:26:00.000+02:00</time>
      </trkpt>
      <trkpt lat="48.10572" lon="7.08867">
        <ele>1202.9</ele>
        <time>2017-10-21T14:26:03.000+02:00</time>
      </trkpt>
      <trkpt lat="48.10568" lon="7.0887">
        <ele>1201.9</ele>
        <time>2017-10-21T14:26:05.000+02:00</time>
      </trkpt>
      <trkpt lat="48.10564" lon="7.08873">
        <ele>1201</ele>
        <time>2017-10-21T14:26:07.000+02:00</time>
      </trkpt>
      <trkpt lat="48.10561" lon="7.08877">
        <ele>1200.1</ele>
        <time>2017-10-21T14:26:08.000+02:00</time>
      </trkpt>
      <trkpt lat="48.10558" lon="7.0888">
        <ele>1199.2</ele>
        <time>2017-10-21T14:26:11.000+02:00</time>
      </trkpt>
      <trkpt lat="48.10553" lon="7.08884">
        <ele>1198</ele>
        <time>2017-10-21T14:26:13.000+02:00</time>
      </trkpt>
      <trkpt lat="48.1055" lon="7.08889">
        <ele>1197</ele>
        <time>2017-10-21T14:26:15.000+02:00</time>
      </trkpt>
      <trkpt lat="48.10547" lon="7.08895">
        <ele>1196.3</ele>
        <time>2017-10-21T14:26:17.000+02:00</time>
      </trkpt>
      <trkpt lat="48.10543" lon="7.08898">
        <ele>1195.3</ele>
        <time>2017-10-21T14:26:19.000+02:00</time>
      </trkpt>
      <trkpt lat="48.1054" lon="7.089">
        <ele>1194.5</ele>
        <time>2017-10-21T14:26:21.000+02:00</time>
      </trkpt>
      <trkpt lat="48.10536" lon="7.08902">
        <ele>1193.6</ele>
        <time>2017-10-21T14:26:23.000+02:00</time>
      </trkpt>
      <trkpt lat="48.10533" lon="7.08904">
        <ele>1192.8</ele>
        <time>2017-10-21T14:26:24.000+02:00</time>
      </trkpt>
      <trkpt lat="48.1053" lon="7.08907">
        <ele>1191.9</ele>
        <time>2017-10-21T14:26:27.000+02:00</time>
      </trkpt>
      <trkpt lat="48.10526" lon="7.0891">
        <ele>1191</ele>
        <time>2017-10-21T14:26:29.000+02:00</time>
      </trkpt>
      <trkpt lat="48.10522" lon="7.08913">
        <ele>1190.1</ele>
        <time>2017-10-21T14:26:31.000+02:00</time>
      </trkpt>
      <trkpt lat="48.10518" lon="7.08916">
        <ele>1189.2</ele>
        <time>2017-10-21T14:26:33.000+02:00</time>
      </trkpt>
      <trkpt lat="48.10515" lon="7.08918">
        <ele>1188.4</ele>
        <time>2017-10-21T14:26:38.000+02:00</time>
      </trkpt>
      <trkpt lat="48.10512" lon="7.08921">
        <ele>1187.5</ele>
        <time>2017-10-21T14:26:39.000+02:00</time>
      </trkpt>
      <trkpt lat="48.10508" lon="7.08924">
        <ele>1186.5</ele>
        <time>2017-10-21T14:26:42.000+02:00</time>
      </trkpt>
      <trkpt lat="48.10504" lon="7.08926">
        <ele>1185.5</ele>
        <time>2017-10-21T14:26:43.000+02:00</time>
      </trkpt>
      <trkpt lat="48.105" lon="7.08929">
        <ele>1184.4</ele>
        <time>2017-10-21T14:26:51.000+02:00</time>
      </trkpt>
      <trkpt lat="48.10496" lon="7.0893">
        <ele>1183.5</ele>
        <time>2017-10-21T14:26:53.000+02:00</time>
      </trkpt>
      <trkpt lat="48.10493" lon="7.08932">
        <ele>1182.7</ele>
        <time>2017-10-21T14:26:55.000+02:00</time>
      </trkpt>
      <trkpt lat="48.1049" lon="7.08935">
        <ele>1181.8</ele>
        <time>2017-10-21T14:26:57.000+02:00</time>
      </trkpt>
      <trkpt lat="48.10486" lon="7.08937">
        <ele>1181</ele>
        <time>2017-10-21T14:26:59.000+02:00</time>
      </trkpt>
      <trkpt lat="48.10483" lon="7.08938">
        <ele>1180.2</ele>
        <time>2017-10-21T14:27:02.000+02:00</time>
      </trkpt>
      <trkpt lat="48.1048" lon="7.0894">
        <ele>1179.4</ele>
        <time>2017-10-21T14:27:03.000+02:00</time>
      </trkpt>
      <trkpt lat="48.10477" lon="7.08942">
        <ele>1178.6</ele>
        <time>2017-10-21T14:27:05.000+02:00</time>
      </trkpt>
      <trkpt lat="48.10473" lon="7.08943">
        <ele>1177.7</ele>
        <time>2017-10-21T14:27:07.000+02:00</time>
      </trkpt>
      <trkpt lat="48.10469" lon="7.08944">
        <ele>1176.7</ele>
        <time>2017-10-21T14:27:09.000+02:00</time>
      </trkpt>
      <trkpt lat="48.10466" lon="7.08947">
        <ele>1175.8</ele>
        <time>2017-10-21T14:27:11.000+02:00</time>
      </trkpt>
      <trkpt lat="48.10462" lon="7.0895">
        <ele>1174.9</ele>
        <time>2017-10-21T14:27:13.000+02:00</time>
      </trkpt>
      <trkpt lat="48.1046" lon="7.08952">
        <ele>1174.2</ele>
        <time>2017-10-21T14:27:15.000+02:00</time>
      </trkpt>
      <trkpt lat="48.10457" lon="7.08955">
        <ele>1173.4</ele>
        <time>2017-10-21T14:27:17.000+02:00</time>
      </trkpt>
      <trkpt lat="48.10454" lon="7.08959">
        <ele>1172.4</ele>
        <time>2017-10-21T14:27:18.000+02:00</time>
      </trkpt>
      <trkpt lat="48.10451" lon="7.08963">
        <ele>1171.6</ele>
        <time>2017-10-21T14:27:20.000+02:00</time>
      </trkpt>
      <trkpt lat="48.1045" lon="7.08968">
        <ele>1170.9</ele>
        <time>2017-10-21T14:27:22.000+02:00</time>
      </trkpt>
      <trkpt lat="48.10449" lon="7.08973">
        <ele>1170.4</ele>
        <time>2017-10-21T14:27:24.000+02:00</time>
      </trkpt>
      <trkpt lat="48.10449" lon="7.08979">
        <ele>1170.2</ele>
        <time>2017-10-21T14:27:25.000+02:00</time>
      </trkpt>
      <trkpt lat="48.1045" lon="7.08984">
        <ele>1170.1</ele>
        <time>2017-10-21T14:27:27.000+02:00</time>
      </trkpt>
      <trkpt lat="48.1045" lon="7.08988">
        <ele>1169.8</ele>
        <time>2017-10-21T14:27:29.000+02:00</time>
      </trkpt>
      <trkpt lat="48.1045" lon="7.08992">
        <ele>1169.5</ele>
        <time>2017-10-21T14:27:30.000+02:00</time>
      </trkpt>
      <trkpt lat="48.1045" lon="7.08996">
        <ele>1169.2</ele>
        <time>2017-10-21T14:27:31.000+02:00</time>
      </trkpt>
      <trkpt lat="48.1045" lon="7.08999">
        <ele>1169</ele>
        <time>2017-10-21T14:27:32.000+02:00</time>
      </trkpt>
      <trkpt lat="48.10449" lon="7.09002">
        <ele>1168.6</ele>
        <time>2017-10-21T14:27:36.000+02:00</time>
      </trkpt>
      <trkpt lat="48.1045" lon="7.09008">
        <ele>1168.1</ele>
        <time>2017-10-21T14:27:38.000+02:00</time>
      </trkpt>
      <trkpt lat="48.1045" lon="7.09015">
        <ele>1167.5</ele>
        <time>2017-10-21T14:27:40.000+02:00</time>
      </trkpt>
      <trkpt lat="48.10449" lon="7.0902">
        <ele>1166.7</ele>
        <time>2017-10-21T14:27:42.000+02:00</time>
      </trkpt>
      <trkpt lat="48.10449" lon="7.09026">
        <ele>1166.2</ele>
        <time>2017-10-21T14:27:43.000+02:00</time>
      </trkpt>
      <trkpt lat="48.1045" lon="7.09031">
        <ele>1165.9</ele>
        <time>2017-10-21T14:27:45.000+02:00</time>
      </trkpt>
      <trkpt lat="48.10449" lon="7.09036">
        <ele>1165.3</ele>
        <time>2017-10-21T14:27:46.000+02:00</time>
      </trkpt>
      <trkpt lat="48.10449" lon="7.09042">
        <ele>1164.7</ele>
        <time>2017-10-21T14:27:48.000+02:00</time>
      </trkpt>
      <trkpt lat="48.10449" lon="7.09048">
        <ele>1164.1</ele>
        <time>2017-10-21T14:27:50.000+02:00</time>
      </trkpt>
      <trkpt lat="48.10449" lon="7.09055">
        <ele>1163.4</ele>
        <time>2017-10-21T14:27:52.000+02:00</time>
      </trkpt>
      <trkpt lat="48.10448" lon="7.0906">
        <ele>1162.7</ele>
        <time>2017-10-21T14:27:54.000+02:00</time>
      </trkpt>
      <trkpt lat="48.10445" lon="7.09063">
        <ele>1161.7</ele>
        <time>2017-10-21T14:27:56.000+02:00</time>
      </trkpt>
      <trkpt lat="48.10443" lon="7.09067">
        <ele>1160.8</ele>
        <time>2017-10-21T14:27:58.000+02:00</time>
      </trkpt>
      <trkpt lat="48.10441" lon="7.09073">
        <ele>1160</ele>
        <time>2017-10-21T14:28:00.000+02:00</time>
      </trkpt>
      <trkpt lat="48.10439" lon="7.09077">
        <ele>1159.1</ele>
        <time>2017-10-21T14:28:02.000+02:00</time>
      </trkpt>
      <trkpt lat="48.10437" lon="7.0908">
        <ele>1158.5</ele>
        <time>2017-10-21T14:28:04.000+02:00</time>
      </trkpt>
      <trkpt lat="48.10435" lon="7.09082">
        <ele>1157.8</ele>
        <time>2017-10-21T14:28:05.000+02:00</time>
      </trkpt>
      <trkpt lat="48.10433" lon="7.09085">
        <ele>1157.2</ele>
        <time>2017-10-21T14:28:10.000+02:00</time>
      </trkpt>
      <trkpt lat="48.10431" lon="7.09089">
        <ele>1156.6</ele>
        <time>2017-10-21T14:28:11.000+02:00</time>
      </trkpt>
      <trkpt lat="48.1043" lon="7.09093">
        <ele>1156</ele>
        <time>2017-10-21T14:28:13.000+02:00</time>
      </trkpt>
      <trkpt lat="48.10427" lon="7.09096">
        <ele>1155.3</ele>
        <time>2017-10-21T14:28:14.000+02:00</time>
      </trkpt>
      <trkpt lat="48.10425" lon="7.09102">
        <ele>1154.6</ele>
        <time>2017-10-21T14:28:16.000+02:00</time>
      </trkpt>
      <trkpt lat="48.10423" lon="7.09106">
        <ele>1153.8</ele>
        <time>2017-10-21T14:28:17.000+02:00</time>
      </trkpt>
      <trkpt lat="48.10421" lon="7.0911">
        <ele>1153.2</ele>
        <time>2017-10-21T14:28:18.000+02:00</time>
      </trkpt>
      <trkpt lat="48.1042" lon="7.09114">
        <ele>1152.8</ele>
        <time>2017-10-21T14:28:20.000+02:00</time>
      </trkpt>
      <trkpt lat="48.10419" lon="7.09119">
        <ele>1152.3</ele>
        <time>2017-10-21T14:28:21.000+02:00</time>
      </trkpt>
      <trkpt lat="48.10416" lon="7.09125">
        <ele>1151.4</ele>
        <time>2017-10-21T14:28:32.000+02:00</time>
      </trkpt>
      <trkpt lat="48.10413" lon="7.09131">
        <ele>1150.5</ele>
        <time>2017-10-21T14:28:34.000+02:00</time>
      </trkpt>
      <trkpt lat="48.10412" lon="7.09136">
        <ele>1150</ele>
        <time>2017-10-21T14:28:36.000+02:00</time>
      </trkpt>
      <trkpt lat="48.10411" lon="7.09143">
        <ele>1149.3</ele>
        <time>2017-10-21T14:28:38.000+02:00</time>
      </trkpt>
      <trkpt lat="48.1041" lon="7.09149">
        <ele>1148.9</ele>
        <time>2017-10-21T14:28:39.000+02:00</time>
      </trkpt>
      <trkpt lat="48.10409" lon="7.09154">
        <ele>1148.2</ele>
        <time>2017-10-21T14:28:43.000+02:00</time>
      </trkpt>
      <trkpt lat="48.10407" lon="7.09158">
        <ele>1147.6</ele>
        <time>2017-10-21T14:28:45.000+02:00</time>
      </trkpt>
      <trkpt lat="48.10405" lon="7.09162">
        <ele>1146.9</ele>
        <time>2017-10-21T14:28:46.000+02:00</time>
      </trkpt>
      <trkpt lat="48.10403" lon="7.09166">
        <ele>1146.4</ele>
        <time>2017-10-21T14:28:47.000+02:00</time>
      </trkpt>
      <trkpt lat="48.10403" lon="7.09171">
        <ele>1146.1</ele>
        <time>2017-10-21T14:28:52.000+02:00</time>
      </trkpt>
      <trkpt lat="48.10402" lon="7.09175">
        <ele>1145.6</ele>
        <time>2017-10-21T14:28:53.000+02:00</time>
      </trkpt>
      <trkpt lat="48.10401" lon="7.0918">
        <ele>1145.1</ele>
        <time>2017-10-21T14:28:55.000+02:00</time>
      </trkpt>
      <trkpt lat="48.104" lon="7.09186">
        <ele>1144.4</ele>
        <time>2017-10-21T14:28:58.000+02:00</time>
      </trkpt>
      <trkpt lat="48.104" lon="7.09193">
        <ele>1143.9</ele>
        <time>2017-10-21T14:29:00.000+02:00</time>
      </trkpt>
      <trkpt lat="48.10399" lon="7.09199">
        <ele>1143.4</ele>
        <time>2017-10-21T14:29:01.000+02:00</time>
      </trkpt>
      <trkpt lat="48.10398" lon="7.09204">
        <ele>1142.8</ele>
        <time>2017-10-21T14:29:04.000+02:00</time>
      </trkpt>
      <trkpt lat="48.10396" lon="7.09208">
        <ele>1142.1</ele>
        <time>2017-10-21T14:29:05.000+02:00</time>
      </trkpt>
      <trkpt lat="48.10394" lon="7.09211">
        <ele>1141.6</ele>
        <time>2017-10-21T14:29:06.000+02:00</time>
      </trkpt>
      <trkpt lat="48.10394" lon="7.09217">
        <ele>1141.1</ele>
        <time>2017-10-21T14:29:08.000+02:00</time>
      </trkpt>
      <trkpt lat="48.10393" lon="7.09222">
        <ele>1140.6</ele>
        <time>2017-10-21T14:29:10.000+02:00</time>
      </trkpt>
      <trkpt lat="48.10392" lon="7.09226">
        <ele>1140.2</ele>
        <time>2017-10-21T14:29:11.000+02:00</time>
      </trkpt>
      <trkpt lat="48.10391" lon="7.09232">
        <ele>1139.7</ele>
        <time>2017-10-21T14:29:13.000+02:00</time>
      </trkpt>
      <trkpt lat="48.1039" lon="7.09237">
        <ele>1139.1</ele>
        <time>2017-10-21T14:29:14.000+02:00</time>
      </trkpt>
      <trkpt lat="48.1039" lon="7.09243">
        <ele>1138.6</ele>
        <time>2017-10-21T14:29:16.000+02:00</time>
      </trkpt>
      <trkpt lat="48.10388" lon="7.0925">
        <ele>1137.9</ele>
        <time>2017-10-21T14:29:18.000+02:00</time>
      </trkpt>
      <trkpt lat="48.10389" lon="7.09255">
        <ele>1137.6</ele>
        <time>2017-10-21T14:29:23.000+02:00</time>
      </trkpt>
      <trkpt lat="48.10389" lon="7.09261">
        <ele>1137</ele>
        <time>2017-10-21T14:29:25.000+02:00</time>
      </trkpt>
      <trkpt lat="48.10387" lon="7.09267">
        <ele>1136.1</ele>
        <time>2017-10-21T14:29:27.000+02:00</time>
      </trkpt>
      <trkpt lat="48.10385" lon="7.09273">
        <ele>1135.2</ele>
        <time>2017-10-21T14:29:29.000+02:00</time>
      </trkpt>
      <trkpt lat="48.10383" lon="7.09279">
        <ele>1134.5</ele>
        <time>2017-10-21T14:29:31.000+02:00</time>
      </trkpt>
      <trkpt lat="48.10382" lon="7.09284">
        <ele>1133.9</ele>
        <time>2017-10-21T14:29:33.000+02:00</time>
      </trkpt>
      <trkpt lat="48.1038" lon="7.09288">
        <ele>1133.2</ele>
        <time>2017-10-21T14:29:34.000+02:00</time>
      </trkpt>
      <trkpt lat="48.10379" lon="7.09294">
        <ele>1132.5</ele>
        <time>2017-10-21T14:29:36.000+02:00</time>
      </trkpt>
      <trkpt lat="48.10378" lon="7.093">
        <ele>1131.7</ele>
        <time>2017-10-21T14:29:38.000+02:00</time>
      </trkpt>
      <trkpt lat="48.10376" lon="7.09307">
        <ele>1130.8</ele>
        <time>2017-10-21T14:29:40.000+02:00</time>
      </trkpt>
      <trkpt lat="48.10375" lon="7.09313">
        <ele>1130.1</ele>
        <time>2017-10-21T14:29:42.000+02:00</time>
      </trkpt>
      <trkpt lat="48.10373" lon="7.0932">
        <ele>1129.4</ele>
        <time>2017-10-21T14:29:44.000+02:00</time>
      </trkpt>
      <trkpt lat="48.10373" lon="7.09325">
        <ele>1128.8</ele>
        <time>2017-10-21T14:29:45.000+02:00</time>
      </trkpt>
      <trkpt lat="48.10372" lon="7.09331">
        <ele>1128.2</ele>
        <time>2017-10-21T14:29:48.000+02:00</time>
      </trkpt>
      <trkpt lat="48.10371" lon="7.09337">
        <ele>1127.7</ele>
        <time>2017-10-21T14:29:53.000+02:00</time>
      </trkpt>
      <trkpt lat="48.10371" lon="7.09342">
        <ele>1127.3</ele>
        <time>2017-10-21T14:29:55.000+02:00</time>
      </trkpt>
      <trkpt lat="48.1037" lon="7.09346">
        <ele>1126.9</ele>
        <time>2017-10-21T14:29:56.000+02:00</time>
      </trkpt>
      <trkpt lat="48.10369" lon="7.0935">
        <ele>1126.5</ele>
        <time>2017-10-21T14:29:57.000+02:00</time>
      </trkpt>
      <trkpt lat="48.10369" lon="7.09354">
        <ele>1126.1</ele>
        <time>2017-10-21T14:29:58.000+02:00</time>
      </trkpt>
      <trkpt lat="48.10368" lon="7.09358">
        <ele>1125.8</ele>
        <time>2017-10-21T14:29:59.000+02:00</time>
      </trkpt>
      <trkpt lat="48.10367" lon="7.09361">
        <ele>1125.5</ele>
        <time>2017-10-21T14:30:01.000+02:00</time>
      </trkpt>
      <trkpt lat="48.10366" lon="7.09367">
        <ele>1125</ele>
        <time>2017-10-21T14:30:03.000+02:00</time>
      </trkpt>
      <trkpt lat="48.10365" lon="7.09372">
        <ele>1124.5</ele>
        <time>2017-10-21T14:30:04.000+02:00</time>
      </trkpt>
      <trkpt lat="48.10364" lon="7.09377">
        <ele>1124</ele>
        <time>2017-10-21T14:30:06.000+02:00</time>
      </trkpt>
      <trkpt lat="48.10363" lon="7.0938">
        <ele>1123.7</ele>
        <time>2017-10-21T14:30:07.000+02:00</time>
      </trkpt>
      <trkpt lat="48.10362" lon="7.09382">
        <ele>1123.5</ele>
        <time>2017-10-21T14:30:09.000+02:00</time>
      </trkpt>
      <trkpt lat="48.10361" lon="7.09385">
        <ele>1123.2</ele>
        <time>2017-10-21T14:30:10.000+02:00</time>
      </trkpt>
      <trkpt lat="48.10361" lon="7.09389">
        <ele>1123</ele>
        <time>2017-10-21T14:30:11.000+02:00</time>
      </trkpt>
      <trkpt lat="48.10362" lon="7.09393">
        <ele>1122.9</ele>
        <time>2017-10-21T14:30:12.000+02:00</time>
      </trkpt>
      <trkpt lat="48.10361" lon="7.09396">
        <ele>1122.6</ele>
        <time>2017-10-21T14:30:13.000+02:00</time>
      </trkpt>
      <trkpt lat="48.1036" lon="7.09398">
        <ele>1122.4</ele>
        <time>2017-10-21T14:30:13.000+02:00</time>
      </trkpt>
      <trkpt lat="48.1036" lon="7.09399">
        <ele>1122.3</ele>
        <time>2017-10-21T14:30:14.000+02:00</time>
      </trkpt>
      <trkpt lat="48.1036" lon="7.09398">
        <ele>1122.4</ele>
        <time>2017-10-21T14:30:14.000+02:00</time>
      </trkpt>
      <trkpt lat="48.1036" lon="7.09398">
        <ele>1122.3</ele>
        <time>2017-10-21T14:30:14.000+02:00</time>
      </trkpt>
      <trkpt lat="48.10359" lon="7.09402">
        <ele>1122.1</ele>
        <time>2017-10-21T14:30:15.000+02:00</time>
      </trkpt>
      <trkpt lat="48.10358" lon="7.09405">
        <ele>1121.8</ele>
        <time>2017-10-21T14:30:17.000+02:00</time>
      </trkpt>
      <trkpt lat="48.10357" lon="7.09409">
        <ele>1121.4</ele>
        <time>2017-10-21T14:30:19.000+02:00</time>
      </trkpt>
      <trkpt lat="48.10355" lon="7.09414">
        <ele>1120.9</ele>
        <time>2017-10-21T14:30:20.000+02:00</time>
      </trkpt>
      <trkpt lat="48.10354" lon="7.0942">
        <ele>1120.5</ele>
        <time>2017-10-21T14:30:25.000+02:00</time>
      </trkpt>
      <trkpt lat="48.10352" lon="7.09427">
        <ele>1120.1</ele>
        <time>2017-10-21T14:30:27.000+02:00</time>
      </trkpt>
      <trkpt lat="48.10349" lon="7.09433">
        <ele>1119.6</ele>
        <time>2017-10-21T14:30:29.000+02:00</time>
      </trkpt>
      <trkpt lat="48.10347" lon="7.0944">
        <ele>1119.1</ele>
        <time>2017-10-21T14:30:31.000+02:00</time>
      </trkpt>
      <trkpt lat="48.10345" lon="7.09447">
        <ele>1118.7</ele>
        <time>2017-10-21T14:30:34.000+02:00</time>
      </trkpt>
      <trkpt lat="48.10343" lon="7.09454">
        <ele>1118.2</ele>
        <time>2017-10-21T14:30:36.000+02:00</time>
      </trkpt>
      <trkpt lat="48.10341" lon="7.0946">
        <ele>1117.9</ele>
        <time>2017-10-21T14:30:38.000+02:00</time>
      </trkpt>
      <trkpt lat="48.10339" lon="7.09467">
        <ele>1117.5</ele>
        <time>2017-10-21T14:30:40.000+02:00</time>
      </trkpt>
      <trkpt lat="48.10339" lon="7.09474">
        <ele>1117.2</ele>
        <time>2017-10-21T14:30:41.000+02:00</time>
      </trkpt>
      <trkpt lat="48.10337" lon="7.0948">
        <ele>1116.9</ele>
        <time>2017-10-21T14:30:44.000+02:00</time>
      </trkpt>
      <trkpt lat="48.10335" lon="7.09486">
        <ele>1116.6</ele>
        <time>2017-10-21T14:30:45.000+02:00</time>
      </trkpt>
      <trkpt lat="48.10333" lon="7.09491">
        <ele>1116.3</ele>
        <time>2017-10-21T14:30:51.000+02:00</time>
      </trkpt>
      <trkpt lat="48.10331" lon="7.09496">
        <ele>1116</ele>
        <time>2017-10-21T14:30:55.000+02:00</time>
      </trkpt>
      <trkpt lat="48.10329" lon="7.09501">
        <ele>1115.8</ele>
        <time>2017-10-21T14:30:56.000+02:00</time>
      </trkpt>
      <trkpt lat="48.10328" lon="7.09505">
        <ele>1115.6</ele>
        <time>2017-10-21T14:30:59.000+02:00</time>
      </trkpt>
      <trkpt lat="48.10328" lon="7.09508">
        <ele>1115.6</ele>
        <time>2017-10-21T14:30:59.000+02:00</time>
      </trkpt>
      <trkpt lat="48.10328" lon="7.09508">
        <ele>1115.6</ele>
        <time>2017-10-21T14:30:59.000+02:00</time>
      </trkpt>
      <trkpt lat="48.10327" lon="7.09508">
        <ele>1115.6</ele>
        <time>2017-10-21T14:31:00.000+02:00</time>
      </trkpt>
      <trkpt lat="48.10328" lon="7.09508">
        <ele>1115.6</ele>
        <time>2017-10-21T14:31:00.000+02:00</time>
      </trkpt>
      <trkpt lat="48.10327" lon="7.09508">
        <ele>1115.6</ele>
        <time>2017-10-21T14:31:00.000+02:00</time>
      </trkpt>
      <trkpt lat="48.10327" lon="7.09509">
        <ele>1115.6</ele>
        <time>2017-10-21T14:31:00.000+02:00</time>
      </trkpt>
      <trkpt lat="48.10327" lon="7.09509">
        <ele>1115.5</ele>
        <time>2017-10-21T14:31:00.000+02:00</time>
      </trkpt>
      <trkpt lat="48.10327" lon="7.09509">
        <ele>1115.5</ele>
        <time>2017-10-21T14:31:00.000+02:00</time>
      </trkpt>
      <trkpt lat="48.10326" lon="7.09511">
        <ele>1115.5</ele>
        <time>2017-10-21T14:31:01.000+02:00</time>
      </trkpt>
      <trkpt lat="48.10327" lon="7.09511">
        <ele>1115.5</ele>
        <time>2017-10-21T14:31:01.000+02:00</time>
      </trkpt>
      <trkpt lat="48.10326" lon="7.09514">
        <ele>1115.5</ele>
        <time>2017-10-21T14:31:02.000+02:00</time>
      </trkpt>
      <trkpt lat="48.10325" lon="7.09517">
        <ele>1115.4</ele>
        <time>2017-10-21T14:31:03.000+02:00</time>
      </trkpt>
      <trkpt lat="48.10324" lon="7.09521">
        <ele>1115.3</ele>
        <time>2017-10-21T14:31:04.000+02:00</time>
      </trkpt>
      <trkpt lat="48.10324" lon="7.09524">
        <ele>1115.3</ele>
        <time>2017-10-21T14:31:05.000+02:00</time>
      </trkpt>
      <trkpt lat="48.10323" lon="7.09528">
        <ele>1115.2</ele>
        <time>2017-10-21T14:31:06.000+02:00</time>
      </trkpt>
      <trkpt lat="48.10323" lon="7.09533">
        <ele>1115.2</ele>
        <time>2017-10-21T14:31:07.000+02:00</time>
      </trkpt>
      <trkpt lat="48.10321" lon="7.09536">
        <ele>1115.2</ele>
        <time>2017-10-21T14:31:08.000+02:00</time>
      </trkpt>
      <trkpt lat="48.1032" lon="7.0954">
        <ele>1115.1</ele>
        <time>2017-10-21T14:31:09.000+02:00</time>
      </trkpt>
      <trkpt lat="48.10318" lon="7.09543">
        <ele>1115</ele>
        <time>2017-10-21T14:31:10.000+02:00</time>
      </trkpt>
      <trkpt lat="48.10316" lon="7.09546">
        <ele>1115</ele>
        <time>2017-10-21T14:31:12.000+02:00</time>
      </trkpt>
      <trkpt lat="48.10314" lon="7.09549">
        <ele>1114.9</ele>
        <time>2017-10-21T14:31:13.000+02:00</time>
      </trkpt>
      <trkpt lat="48.10312" lon="7.09551">
        <ele>1114.9</ele>
        <time>2017-10-21T14:31:14.000+02:00</time>
      </trkpt>
      <trkpt lat="48.10311" lon="7.09553">
        <ele>1114.9</ele>
        <time>2017-10-21T14:31:14.000+02:00</time>
      </trkpt>
      <trkpt lat="48.1031" lon="7.09556">
        <ele>1114.9</ele>
        <time>2017-10-21T14:31:15.000+02:00</time>
      </trkpt>
      <trkpt lat="48.10309" lon="7.09559">
        <ele>1114.9</ele>
        <time>2017-10-21T14:31:16.000+02:00</time>
      </trkpt>
      <trkpt lat="48.10308" lon="7.09562">
        <ele>1114.9</ele>
        <time>2017-10-21T14:31:17.000+02:00</time>
      </trkpt>
      <trkpt lat="48.10306" lon="7.09564">
        <ele>1114.9</ele>
        <time>2017-10-21T14:31:18.000+02:00</time>
      </trkpt>
      <trkpt lat="48.10305" lon="7.09568">
        <ele>1114.9</ele>
        <time>2017-10-21T14:31:19.000+02:00</time>
      </trkpt>
      <trkpt lat="48.10305" lon="7.0957">
        <ele>1114.9</ele>
        <time>2017-10-21T14:31:20.000+02:00</time>
      </trkpt>
      <trkpt lat="48.10304" lon="7.09572">
        <ele>1114.9</ele>
        <time>2017-10-21T14:31:20.000+02:00</time>
      </trkpt>
      <trkpt lat="48.10304" lon="7.09575">
        <ele>1114.9</ele>
        <time>2017-10-21T14:31:21.000+02:00</time>
      </trkpt>
      <trkpt lat="48.10304" lon="7.09578">
        <ele>1114.9</ele>
        <time>2017-10-21T14:31:22.000+02:00</time>
      </trkpt>
      <trkpt lat="48.10303" lon="7.09581">
        <ele>1115</ele>
        <time>2017-10-21T14:31:23.000+02:00</time>
      </trkpt>
      <trkpt lat="48.10301" lon="7.09583">
        <ele>1115</ele>
        <time>2017-10-21T14:31:23.000+02:00</time>
      </trkpt>
      <trkpt lat="48.10301" lon="7.09585">
        <ele>1115</ele>
        <time>2017-10-21T14:31:24.000+02:00</time>
      </trkpt>
      <trkpt lat="48.10299" lon="7.09588">
        <ele>1115.1</ele>
        <time>2017-10-21T14:31:25.000+02:00</time>
      </trkpt>
      <trkpt lat="48.10299" lon="7.09591">
        <ele>1115.1</ele>
        <time>2017-10-21T14:31:26.000+02:00</time>
      </trkpt>
      <trkpt lat="48.10297" lon="7.09595">
        <ele>1115.2</ele>
        <time>2017-10-21T14:31:27.000+02:00</time>
      </trkpt>
      <trkpt lat="48.10296" lon="7.09596">
        <ele>1115.2</ele>
        <time>2017-10-21T14:31:31.000+02:00</time>
      </trkpt>
      <trkpt lat="48.10294" lon="7.096">
        <ele>1115.3</ele>
        <time>2017-10-21T14:31:32.000+02:00</time>
      </trkpt>
      <trkpt lat="48.10294" lon="7.09603">
        <ele>1115.3</ele>
        <time>2017-10-21T14:31:33.000+02:00</time>
      </trkpt>
      <trkpt lat="48.10294" lon="7.09606">
        <ele>1115.4</ele>
        <time>2017-10-21T14:31:34.000+02:00</time>
      </trkpt>
      <trkpt lat="48.10293" lon="7.09609">
        <ele>1115.4</ele>
        <time>2017-10-21T14:31:34.000+02:00</time>
      </trkpt>
      <trkpt lat="48.10293" lon="7.09612">
        <ele>1115.5</ele>
        <time>2017-10-21T14:31:35.000+02:00</time>
      </trkpt>
      <trkpt lat="48.10293" lon="7.09617">
        <ele>1115.6</ele>
        <time>2017-10-21T14:31:37.000+02:00</time>
      </trkpt>
      <trkpt lat="48.10293" lon="7.09621">
        <ele>1115.6</ele>
        <time>2017-10-21T14:31:38.000+02:00</time>
      </trkpt>
      <trkpt lat="48.10293" lon="7.09625">
        <ele>1115.7</ele>
        <time>2017-10-21T14:31:39.000+02:00</time>
      </trkpt>
      <trkpt lat="48.10292" lon="7.0963">
        <ele>1115.8</ele>
        <time>2017-10-21T14:31:40.000+02:00</time>
      </trkpt>
      <trkpt lat="48.10291" lon="7.09634">
        <ele>1115.9</ele>
        <time>2017-10-21T14:31:41.000+02:00</time>
      </trkpt>
      <trkpt lat="48.1029" lon="7.09639">
        <ele>1116</ele>
        <time>2017-10-21T14:31:43.000+02:00</time>
      </trkpt>
      <trkpt lat="48.1029" lon="7.09644">
        <ele>1116.1</ele>
        <time>2017-10-21T14:31:44.000+02:00</time>
      </trkpt>
      <trkpt lat="48.10289" lon="7.09648">
        <ele>1116.2</ele>
        <time>2017-10-21T14:31:45.000+02:00</time>
      </trkpt>
      <trkpt lat="48.10289" lon="7.09653">
        <ele>1116.3</ele>
        <time>2017-10-21T14:31:46.000+02:00</time>
      </trkpt>
      <trkpt lat="48.10288" lon="7.09656">
        <ele>1116.4</ele>
        <time>2017-10-21T14:31:47.000+02:00</time>
      </trkpt>
      <trkpt lat="48.10288" lon="7.09657">
        <ele>1116.5</ele>
        <time>2017-10-21T14:31:48.000+02:00</time>
      </trkpt>
      <trkpt lat="48.10286" lon="7.09659">
        <ele>1116.5</ele>
        <time>2017-10-21T14:31:48.000+02:00</time>
      </trkpt>
      <trkpt lat="48.10286" lon="7.09662">
        <ele>1116.6</ele>
        <time>2017-10-21T14:31:49.000+02:00</time>
      </trkpt>
      <trkpt lat="48.10284" lon="7.09664">
        <ele>1116.7</ele>
        <time>2017-10-21T14:31:50.000+02:00</time>
      </trkpt>
      <trkpt lat="48.10283" lon="7.09666">
        <ele>1116.8</ele>
        <time>2017-10-21T14:31:51.000+02:00</time>
      </trkpt>
      <trkpt lat="48.10282" lon="7.09669">
        <ele>1116.8</ele>
        <time>2017-10-21T14:31:52.000+02:00</time>
      </trkpt>
      <trkpt lat="48.1028" lon="7.09672">
        <ele>1116.8</ele>
        <time>2017-10-21T14:31:53.000+02:00</time>
      </trkpt>
      <trkpt lat="48.10279" lon="7.09673">
        <ele>1116.8</ele>
        <time>2017-10-21T14:31:53.000+02:00</time>
      </trkpt>
      <trkpt lat="48.10277" lon="7.09675">
        <ele>1116.8</ele>
        <time>2017-10-21T14:31:54.000+02:00</time>
      </trkpt>
      <trkpt lat="48.10275" lon="7.09675">
        <ele>1116.9</ele>
        <time>2017-10-21T14:31:55.000+02:00</time>
      </trkpt>
      <trkpt lat="48.10272" lon="7.09677">
        <ele>1116.9</ele>
        <time>2017-10-21T14:31:56.000+02:00</time>
      </trkpt>
      <trkpt lat="48.1027" lon="7.09678">
        <ele>1117</ele>
        <time>2017-10-21T14:31:57.000+02:00</time>
      </trkpt>
      <trkpt lat="48.10267" lon="7.0968">
        <ele>1117</ele>
        <time>2017-10-21T14:31:58.000+02:00</time>
      </trkpt>
      <trkpt lat="48.10265" lon="7.09682">
        <ele>1117.1</ele>
        <time>2017-10-21T14:32:00.000+02:00</time>
      </trkpt>
      <trkpt lat="48.10264" lon="7.09686">
        <ele>1117</ele>
        <time>2017-10-21T14:32:01.000+02:00</time>
      </trkpt>
      <trkpt lat="48.10262" lon="7.0969">
        <ele>1117</ele>
        <time>2017-10-21T14:32:02.000+02:00</time>
      </trkpt>
      <trkpt lat="48.10258" lon="7.09692">
        <ele>1117.1</ele>
        <time>2017-10-21T14:32:04.000+02:00</time>
      </trkpt>
      <trkpt lat="48.10255" lon="7.09693">
        <ele>1117.2</ele>
        <time>2017-10-21T14:32:05.000+02:00</time>
      </trkpt>
      <trkpt lat="48.10251" lon="7.09693">
        <ele>1117.3</ele>
        <time>2017-10-21T14:32:06.000+02:00</time>
      </trkpt>
      <trkpt lat="48.10247" lon="7.09694">
        <ele>1117</ele>
        <time>2017-10-21T14:32:09.000+02:00</time>
      </trkpt>
      <trkpt lat="48.10244" lon="7.09695">
        <ele>1116.6</ele>
        <time>2017-10-21T14:32:11.000+02:00</time>
      </trkpt>
      <trkpt lat="48.1024" lon="7.09696">
        <ele>1116.2</ele>
        <time>2017-10-21T14:32:12.000+02:00</time>
      </trkpt>
      <trkpt lat="48.10237" lon="7.09697">
        <ele>1115.8</ele>
        <time>2017-10-21T14:32:14.000+02:00</time>
      </trkpt>
      <trkpt lat="48.10235" lon="7.09698">
        <ele>1115.5</ele>
        <time>2017-10-21T14:32:15.000+02:00</time>
      </trkpt>
      <trkpt lat="48.10233" lon="7.09701">
        <ele>1115.3</ele>
        <time>2017-10-21T14:32:16.000+02:00</time>
      </trkpt>
      <trkpt lat="48.10231" lon="7.09704">
        <ele>1114.9</ele>
        <time>2017-10-21T14:32:17.000+02:00</time>
      </trkpt>
      <trkpt lat="48.10229" lon="7.09709">
        <ele>1114.5</ele>
        <time>2017-10-21T14:32:19.000+02:00</time>
      </trkpt>
      <trkpt lat="48.10226" lon="7.09713">
        <ele>1114.1</ele>
        <time>2017-10-21T14:32:21.000+02:00</time>
      </trkpt>
      <trkpt lat="48.10222" lon="7.09717">
        <ele>1113.5</ele>
        <time>2017-10-21T14:32:23.000+02:00</time>
      </trkpt>
      <trkpt lat="48.10218" lon="7.09721">
        <ele>1112.9</ele>
        <time>2017-10-21T14:32:24.000+02:00</time>
      </trkpt>
      <trkpt lat="48.10216" lon="7.09724">
        <ele>1112.5</ele>
        <time>2017-10-21T14:32:27.000+02:00</time>
      </trkpt>
      <trkpt lat="48.10213" lon="7.09723">
        <ele>1112.2</ele>
        <time>2017-10-21T14:32:28.000+02:00</time>
      </trkpt>
      <trkpt lat="48.10211" lon="7.09725">
        <ele>1111.8</ele>
        <time>2017-10-21T14:32:29.000+02:00</time>
      </trkpt>
      <trkpt lat="48.1021" lon="7.09728">
        <ele>1111.6</ele>
        <time>2017-10-21T14:32:30.000+02:00</time>
      </trkpt>
      <trkpt lat="48.10208" lon="7.09731">
        <ele>1111.3</ele>
        <time>2017-10-21T14:32:31.000+02:00</time>
      </trkpt>
      <trkpt lat="48.10207" lon="7.09736">
        <ele>1110.9</ele>
        <time>2017-10-21T14:32:32.000+02:00</time>
      </trkpt>
      <trkpt lat="48.10205" lon="7.0974">
        <ele>1110.5</ele>
        <time>2017-10-21T14:32:34.000+02:00</time>
      </trkpt>
      <trkpt lat="48.10203" lon="7.09743">
        <ele>1110.1</ele>
        <time>2017-10-21T14:32:36.000+02:00</time>
      </trkpt>
      <trkpt lat="48.10202" lon="7.09746">
        <ele>1109.8</ele>
        <time>2017-10-21T14:32:37.000+02:00</time>
      </trkpt>
      <trkpt lat="48.10201" lon="7.09751">
        <ele>1109.5</ele>
        <time>2017-10-21T14:32:42.000+02:00</time>
      </trkpt>
      <trkpt lat="48.10201" lon="7.09755">
        <ele>1109</ele>
        <time>2017-10-21T14:32:43.000+02:00</time>
      </trkpt>
      <trkpt lat="48.10198" lon="7.09758">
        <ele>1108.4</ele>
        <time>2017-10-21T14:32:44.000+02:00</time>
      </trkpt>
      <trkpt lat="48.10195" lon="7.09761">
        <ele>1107.8</ele>
        <time>2017-10-21T14:32:45.000+02:00</time>
      </trkpt>
      <trkpt lat="48.10193" lon="7.09765">
        <ele>1107.1</ele>
        <time>2017-10-21T14:32:47.000+02:00</time>
      </trkpt>
      <trkpt lat="48.10193" lon="7.0977">
        <ele>1106.6</ele>
        <time>2017-10-21T14:32:49.000+02:00</time>
      </trkpt>
      <trkpt lat="48.10191" lon="7.09774">
        <ele>1106</ele>
        <time>2017-10-21T14:32:51.000+02:00</time>
      </trkpt>
      <trkpt lat="48.10187" lon="7.09776">
        <ele>1105.4</ele>
        <time>2017-10-21T14:32:52.000+02:00</time>
      </trkpt>
      <trkpt lat="48.10184" lon="7.09778">
        <ele>1104.7</ele>
        <time>2017-10-21T14:32:54.000+02:00</time>
      </trkpt>
      <trkpt lat="48.10181" lon="7.09782">
        <ele>1104.1</ele>
        <time>2017-10-21T14:32:55.000+02:00</time>
      </trkpt>
      <trkpt lat="48.10179" lon="7.09785">
        <ele>1103.6</ele>
        <time>2017-10-21T14:32:57.000+02:00</time>
      </trkpt>
      <trkpt lat="48.10177" lon="7.09787">
        <ele>1103.1</ele>
        <time>2017-10-21T14:32:59.000+02:00</time>
      </trkpt>
      <trkpt lat="48.10174" lon="7.0979">
        <ele>1102.5</ele>
        <time>2017-10-21T14:33:00.000+02:00</time>
      </trkpt>
      <trkpt lat="48.10171" lon="7.09791">
        <ele>1102.1</ele>
        <time>2017-10-21T14:33:01.000+02:00</time>
      </trkpt>
      <trkpt lat="48.10169" lon="7.09794">
        <ele>1101.5</ele>
        <time>2017-10-21T14:33:03.000+02:00</time>
      </trkpt>
      <trkpt lat="48.10165" lon="7.09799">
        <ele>1100.7</ele>
        <time>2017-10-21T14:33:12.000+02:00</time>
      </trkpt>
      <trkpt lat="48.10162" lon="7.09801">
        <ele>1100</ele>
        <time>2017-10-21T14:33:13.000+02:00</time>
      </trkpt>
      <trkpt lat="48.1016" lon="7.09803">
        <ele>1099.5</ele>
        <time>2017-10-21T14:33:14.000+02:00</time>
      </trkpt>
      <trkpt lat="48.10159" lon="7.09806">
        <ele>1099</ele>
        <time>2017-10-21T14:33:15.000+02:00</time>
      </trkpt>
      <trkpt lat="48.10156" lon="7.0981">
        <ele>1098.2</ele>
        <time>2017-10-21T14:33:17.000+02:00</time>
      </trkpt>
      <trkpt lat="48.10154" lon="7.09813">
        <ele>1097.6</ele>
        <time>2017-10-21T14:33:18.000+02:00</time>
      </trkpt>
      <trkpt lat="48.10152" lon="7.09817">
        <ele>1097</ele>
        <time>2017-10-21T14:33:20.000+02:00</time>
      </trkpt>
      <trkpt lat="48.10149" lon="7.09821">
        <ele>1096.1</ele>
        <time>2017-10-21T14:33:21.000+02:00</time>
      </trkpt>
      <trkpt lat="48.10146" lon="7.09823">
        <ele>1095.5</ele>
        <time>2017-10-21T14:33:23.000+02:00</time>
      </trkpt>
      <trkpt lat="48.10144" lon="7.09825">
        <ele>1094.9</ele>
        <time>2017-10-21T14:33:24.000+02:00</time>
      </trkpt>
      <trkpt lat="48.1014" lon="7.09829">
        <ele>1094</ele>
        <time>2017-10-21T14:33:26.000+02:00</time>
      </trkpt>
      <trkpt lat="48.10137" lon="7.09832">
        <ele>1093.2</ele>
        <time>2017-10-21T14:33:28.000+02:00</time>
      </trkpt>
      <trkpt lat="48.10134" lon="7.09837">
        <ele>1092.1</ele>
        <time>2017-10-21T14:33:35.000+02:00</time>
      </trkpt>
      <trkpt lat="48.10132" lon="7.0984">
        <ele>1091.2</ele>
        <time>2017-10-21T14:33:37.000+02:00</time>
      </trkpt>
      <trkpt lat="48.1013" lon="7.09845">
        <ele>1090.4</ele>
        <time>2017-10-21T14:33:39.000+02:00</time>
      </trkpt>
      <trkpt lat="48.10127" lon="7.09852">
        <ele>1089.1</ele>
        <time>2017-10-21T14:33:41.000+02:00</time>
      </trkpt>
      <trkpt lat="48.10124" lon="7.09859">
        <ele>1087.6</ele>
        <time>2017-10-21T14:33:43.000+02:00</time>
      </trkpt>
      <trkpt lat="48.1012" lon="7.09864">
        <ele>1086.3</ele>
        <time>2017-10-21T14:33:46.000+02:00</time>
      </trkpt>
      <trkpt lat="48.10117" lon="7.09868">
        <ele>1085.1</ele>
        <time>2017-10-21T14:33:48.000+02:00</time>
      </trkpt>
      <trkpt lat="48.10113" lon="7.09873">
        <ele>1083.8</ele>
        <time>2017-10-21T14:33:50.000+02:00</time>
      </trkpt>
      <trkpt lat="48.1011" lon="7.09878">
        <ele>1082.7</ele>
        <time>2017-10-21T14:33:53.000+02:00</time>
      </trkpt>
      <trkpt lat="48.10106" lon="7.0988">
        <ele>1081.9</ele>
        <time>2017-10-21T14:33:54.000+02:00</time>
      </trkpt>
      <trkpt lat="48.10104" lon="7.09882">
        <ele>1081.2</ele>
        <time>2017-10-21T14:33:56.000+02:00</time>
      </trkpt>
      <trkpt lat="48.10102" lon="7.09886">
        <ele>1080.4</ele>
        <time>2017-10-21T14:33:58.000+02:00</time>
      </trkpt>
      <trkpt lat="48.10101" lon="7.09889">
        <ele>1079.7</ele>
        <time>2017-10-21T14:34:00.000+02:00</time>
      </trkpt>
      <trkpt lat="48.101" lon="7.09892">
        <ele>1079.2</ele>
        <time>2017-10-21T14:34:01.000+02:00</time>
      </trkpt>
      <trkpt lat="48.10099" lon="7.09897">
        <ele>1078.4</ele>
        <time>2017-10-21T14:34:03.000+02:00</time>
      </trkpt>
      <trkpt lat="48.10098" lon="7.09901">
        <ele>1077.6</ele>
        <time>2017-10-21T14:34:06.000+02:00</time>
      </trkpt>
      <trkpt lat="48.10096" lon="7.09907">
        <ele>1076.6</ele>
        <time>2017-10-21T14:34:08.000+02:00</time>
      </trkpt>
      <trkpt lat="48.10095" lon="7.09912">
        <ele>1075.6</ele>
        <time>2017-10-21T14:34:10.000+02:00</time>
      </trkpt>
      <trkpt lat="48.10094" lon="7.09917">
        <ele>1074.8</ele>
        <time>2017-10-21T14:34:16.000+02:00</time>
      </trkpt>
      <trkpt lat="48.10093" lon="7.09922">
        <ele>1074</ele>
        <time>2017-10-21T14:34:17.000+02:00</time>
      </trkpt>
      <trkpt lat="48.10094" lon="7.09924">
        <ele>1073.6</ele>
        <time>2017-10-21T14:34:18.000+02:00</time>
      </trkpt>
      <trkpt lat="48.10095" lon="7.09927">
        <ele>1073.3</ele>
        <time>2017-10-21T14:34:19.000+02:00</time>
      </trkpt>
      <trkpt lat="48.10094" lon="7.09931">
        <ele>1072.6</ele>
        <time>2017-10-21T14:34:20.000+02:00</time>
      </trkpt>
      <trkpt lat="48.10094" lon="7.09935">
        <ele>1071.8</ele>
        <time>2017-10-21T14:34:21.000+02:00</time>
      </trkpt>
      <trkpt lat="48.10093" lon="7.09938">
        <ele>1071</ele>
        <time>2017-10-21T14:34:22.000+02:00</time>
      </trkpt>
      <trkpt lat="48.10093" lon="7.09942">
        <ele>1070.5</ele>
        <time>2017-10-21T14:34:23.000+02:00</time>
      </trkpt>
      <trkpt lat="48.10093" lon="7.09946">
        <ele>1069.8</ele>
        <time>2017-10-21T14:34:26.000+02:00</time>
      </trkpt>
      <trkpt lat="48.10092" lon="7.09948">
        <ele>1069.3</ele>
        <time>2017-10-21T14:34:26.000+02:00</time>
      </trkpt>
      <trkpt lat="48.10093" lon="7.09952">
        <ele>1068.9</ele>
        <time>2017-10-21T14:34:27.000+02:00</time>
      </trkpt>
      <trkpt lat="48.10094" lon="7.09953">
        <ele>1068.9</ele>
        <time>2017-10-21T14:34:28.000+02:00</time>
      </trkpt>
      <trkpt lat="48.10096" lon="7.09956">
        <ele>1068.6</ele>
        <time>2017-10-21T14:34:31.000+02:00</time>
      </trkpt>
      <trkpt lat="48.10095" lon="7.09959">
        <ele>1068</ele>
        <time>2017-10-21T14:34:31.000+02:00</time>
      </trkpt>
      <trkpt lat="48.10095" lon="7.0996">
        <ele>1067.8</ele>
        <time>2017-10-21T14:34:32.000+02:00</time>
      </trkpt>
      <trkpt lat="48.10095" lon="7.09964">
        <ele>1067.2</ele>
        <time>2017-10-21T14:34:34.000+02:00</time>
      </trkpt>
      <trkpt lat="48.10096" lon="7.09967">
        <ele>1066.7</ele>
        <time>2017-10-21T14:34:35.000+02:00</time>
      </trkpt>
      <trkpt lat="48.10096" lon="7.09969">
        <ele>1066.5</ele>
        <time>2017-10-21T14:34:35.000+02:00</time>
      </trkpt>
      <trkpt lat="48.10095" lon="7.09973">
        <ele>1065.6</ele>
        <time>2017-10-21T14:34:38.000+02:00</time>
      </trkpt>
      <trkpt lat="48.10094" lon="7.09975">
        <ele>1065.1</ele>
        <time>2017-10-21T14:34:38.000+02:00</time>
      </trkpt>
      <trkpt lat="48.10093" lon="7.09979">
        <ele>1064.4</ele>
        <time>2017-10-21T14:34:41.000+02:00</time>
      </trkpt>
      <trkpt lat="48.10093" lon="7.09981">
        <ele>1063.9</ele>
        <time>2017-10-21T14:34:43.000+02:00</time>
      </trkpt>
      <trkpt lat="48.10091" lon="7.09984">
        <ele>1063.1</ele>
        <time>2017-10-21T14:34:45.000+02:00</time>
      </trkpt>
      <trkpt lat="48.1009" lon="7.09987">
        <ele>1062.4</ele>
        <time>2017-10-21T14:34:48.000+02:00</time>
      </trkpt>
      <trkpt lat="48.10088" lon="7.0999">
        <ele>1061.4</ele>
        <time>2017-10-21T14:34:50.000+02:00</time>
      </trkpt>
      <trkpt lat="48.10085" lon="7.09995">
        <ele>1060.1</ele>
        <time>2017-10-21T14:34:55.000+02:00</time>
      </trkpt>
      <trkpt lat="48.10083" lon="7.10002">
        <ele>1058.6</ele>
        <time>2017-10-21T14:35:02.000+02:00</time>
      </trkpt>
      <trkpt lat="48.10081" lon="7.10008">
        <ele>1057.3</ele>
        <time>2017-10-21T14:35:07.000+02:00</time>
      </trkpt>
      <trkpt lat="48.10079" lon="7.10013">
        <ele>1056.2</ele>
        <time>2017-10-21T14:35:09.000+02:00</time>
      </trkpt>
      <trkpt lat="48.10075" lon="7.10017">
        <ele>1055</ele>
        <time>2017-10-21T14:35:14.000+02:00</time>
      </trkpt>
      <trkpt lat="48.10073" lon="7.10021">
        <ele>1053.8</ele>
        <time>2017-10-21T14:35:17.000+02:00</time>
      </trkpt>
      <trkpt lat="48.1007" lon="7.10025">
        <ele>1052.7</ele>
        <time>2017-10-21T14:35:19.000+02:00</time>
      </trkpt>
      <trkpt lat="48.10068" lon="7.10031">
        <ele>1051.5</ele>
        <time>2017-10-21T14:35:21.000+02:00</time>
      </trkpt>
      <trkpt lat="48.10066" lon="7.10036">
        <ele>1050.3</ele>
        <time>2017-10-21T14:35:24.000+02:00</time>
      </trkpt>
      <trkpt lat="48.10063" lon="7.1004">
        <ele>1049.4</ele>
        <time>2017-10-21T14:35:25.000+02:00</time>
      </trkpt>
      <trkpt lat="48.10061" lon="7.10042">
        <ele>1048.7</ele>
        <time>2017-10-21T14:35:27.000+02:00</time>
      </trkpt>
      <trkpt lat="48.10059" lon="7.10045">
        <ele>1048.1</ele>
        <time>2017-10-21T14:35:28.000+02:00</time>
      </trkpt>
      <trkpt lat="48.10059" lon="7.10048">
        <ele>1047.6</ele>
        <time>2017-10-21T14:35:29.000+02:00</time>
      </trkpt>
      <trkpt lat="48.10059" lon="7.10051">
        <ele>1047.1</ele>
        <time>2017-10-21T14:35:32.000+02:00</time>
      </trkpt>
      <trkpt lat="48.10058" lon="7.10054">
        <ele>1046.5</ele>
        <time>2017-10-21T14:35:32.000+02:00</time>
      </trkpt>
      <trkpt lat="48.10057" lon="7.10056">
        <ele>1046</ele>
        <time>2017-10-21T14:35:33.000+02:00</time>
      </trkpt>
      <trkpt lat="48.10055" lon="7.1006">
        <ele>1045.2</ele>
        <time>2017-10-21T14:35:34.000+02:00</time>
      </trkpt>
      <trkpt lat="48.10052" lon="7.10064">
        <ele>1044.1</ele>
        <time>2017-10-21T14:35:37.000+02:00</time>
      </trkpt>
      <trkpt lat="48.1005" lon="7.10069">
        <ele>1043.2</ele>
        <time>2017-10-21T14:35:38.000+02:00</time>
      </trkpt>
      <trkpt lat="48.10048" lon="7.10074">
        <ele>1042.2</ele>
        <time>2017-10-21T14:35:40.000+02:00</time>
      </trkpt>
      <trkpt lat="48.10046" lon="7.10078">
        <ele>1041.2</ele>
        <time>2017-10-21T14:35:42.000+02:00</time>
      </trkpt>
      <trkpt lat="48.10043" lon="7.10085">
        <ele>1040.1</ele>
        <time>2017-10-21T14:35:50.000+02:00</time>
      </trkpt>
      <trkpt lat="48.10042" lon="7.1009">
        <ele>1039.3</ele>
        <time>2017-10-21T14:35:52.000+02:00</time>
      </trkpt>
      <trkpt lat="48.10041" lon="7.10096">
        <ele>1038.5</ele>
        <time>2017-10-21T14:35:54.000+02:00</time>
      </trkpt>
      <trkpt lat="48.10039" lon="7.10103">
        <ele>1037.6</ele>
        <time>2017-10-21T14:35:56.000+02:00</time>
      </trkpt>
      <trkpt lat="48.10038" lon="7.10109">
        <ele>1036.8</ele>
        <time>2017-10-21T14:35:58.000+02:00</time>
      </trkpt>
      <trkpt lat="48.10037" lon="7.10113">
        <ele>1036.3</ele>
        <time>2017-10-21T14:35:59.000+02:00</time>
      </trkpt>
      <trkpt lat="48.10036" lon="7.10117">
        <ele>1035.7</ele>
        <time>2017-10-21T14:36:00.000+02:00</time>
      </trkpt>
      <trkpt lat="48.10036" lon="7.1012">
        <ele>1035.4</ele>
        <time>2017-10-21T14:36:02.000+02:00</time>
      </trkpt>
      <trkpt lat="48.10035" lon="7.10122">
        <ele>1035</ele>
        <time>2017-10-21T14:36:03.000+02:00</time>
      </trkpt>
      <trkpt lat="48.10035" lon="7.1012">
        <ele>1035.4</ele>
        <time>2017-10-21T14:36:04.000+02:00</time>
      </trkpt>
      <trkpt lat="48.10034" lon="7.10121">
        <ele>1035.1</ele>
        <time>2017-10-21T14:36:05.000+02:00</time>
      </trkpt>
      <trkpt lat="48.10034" lon="7.10121">
        <ele>1035</ele>
        <time>2017-10-21T14:36:05.000+02:00</time>
      </trkpt>
      <trkpt lat="48.10034" lon="7.10122">
        <ele>1034.9</ele>
        <time>2017-10-21T14:36:05.000+02:00</time>
      </trkpt>
      <trkpt lat="48.10033" lon="7.10123">
        <ele>1034.8</ele>
        <time>2017-10-21T14:36:05.000+02:00</time>
      </trkpt>
      <trkpt lat="48.10034" lon="7.10122">
        <ele>1034.9</ele>
        <time>2017-10-21T14:36:05.000+02:00</time>
      </trkpt>
      <trkpt lat="48.10033" lon="7.10123">
        <ele>1034.8</ele>
        <time>2017-10-21T14:36:06.000+02:00</time>
      </trkpt>
      <trkpt lat="48.10032" lon="7.10125">
        <ele>1034.4</ele>
        <time>2017-10-21T14:36:06.000+02:00</time>
      </trkpt>
      <trkpt lat="48.10031" lon="7.10127">
        <ele>1034.1</ele>
        <time>2017-10-21T14:36:07.000+02:00</time>
      </trkpt>
      <trkpt lat="48.1003" lon="7.10129">
        <ele>1033.7</ele>
        <time>2017-10-21T14:36:08.000+02:00</time>
      </trkpt>
      <trkpt lat="48.10028" lon="7.10131">
        <ele>1033.4</ele>
        <time>2017-10-21T14:36:10.000+02:00</time>
      </trkpt>
      <trkpt lat="48.10026" lon="7.10134">
        <ele>1032.9</ele>
        <time>2017-10-21T14:36:11.000+02:00</time>
      </trkpt>
      <trkpt lat="48.10025" lon="7.10136">
        <ele>1032.6</ele>
        <time>2017-10-21T14:36:12.000+02:00</time>
      </trkpt>
      <trkpt lat="48.10025" lon="7.1014">
        <ele>1032.1</ele>
        <time>2017-10-21T14:36:13.000+02:00</time>
      </trkpt>
      <trkpt lat="48.10023" lon="7.10144">
        <ele>1031.5</ele>
        <time>2017-10-21T14:36:15.000+02:00</time>
      </trkpt>
      <trkpt lat="48.1002" lon="7.10147">
        <ele>1031</ele>
        <time>2017-10-21T14:36:17.000+02:00</time>
      </trkpt>
      <trkpt lat="48.10018" lon="7.1015">
        <ele>1030.4</ele>
        <time>2017-10-21T14:36:19.000+02:00</time>
      </trkpt>
      <trkpt lat="48.10017" lon="7.10155">
        <ele>1029.8</ele>
        <time>2017-10-21T14:36:21.000+02:00</time>
      </trkpt>
      <trkpt lat="48.10015" lon="7.1016">
        <ele>1029.1</ele>
        <time>2017-10-21T14:36:23.000+02:00</time>
      </trkpt>
      <trkpt lat="48.10012" lon="7.10167">
        <ele>1028.2</ele>
        <time>2017-10-21T14:36:25.000+02:00</time>
      </trkpt>
      <trkpt lat="48.1001" lon="7.10173">
        <ele>1027.5</ele>
        <time>2017-10-21T14:36:31.000+02:00</time>
      </trkpt>
      <trkpt lat="48.10009" lon="7.10177">
        <ele>1027</ele>
        <time>2017-10-21T14:36:32.000+02:00</time>
      </trkpt>
      <trkpt lat="48.10009" lon="7.1018">
        <ele>1026.7</ele>
        <time>2017-10-21T14:36:33.000+02:00</time>
      </trkpt>
      <trkpt lat="48.10009" lon="7.10183">
        <ele>1026.4</ele>
        <time>2017-10-21T14:36:34.000+02:00</time>
      </trkpt>
      <trkpt lat="48.10008" lon="7.10185">
        <ele>1026.1</ele>
        <time>2017-10-21T14:36:35.000+02:00</time>
      </trkpt>
      <trkpt lat="48.10006" lon="7.10188">
        <ele>1025.7</ele>
        <time>2017-10-21T14:36:35.000+02:00</time>
      </trkpt>
      <trkpt lat="48.10006" lon="7.10192">
        <ele>1025.4</ele>
        <time>2017-10-21T14:36:36.000+02:00</time>
      </trkpt>
      <trkpt lat="48.10005" lon="7.10196">
        <ele>1024.9</ele>
        <time>2017-10-21T14:36:39.000+02:00</time>
      </trkpt>
      <trkpt lat="48.10004" lon="7.10202">
        <ele>1024.4</ele>
        <time>2017-10-21T14:36:40.000+02:00</time>
      </trkpt>
      <trkpt lat="48.10002" lon="7.10205">
        <ele>1023.9</ele>
        <time>2017-10-21T14:36:42.000+02:00</time>
      </trkpt>
      <trkpt lat="48.1" lon="7.10208">
        <ele>1023.5</ele>
        <time>2017-10-21T14:36:49.000+02:00</time>
      </trkpt>
      <trkpt lat="48.09999" lon="7.10212">
        <ele>1023</ele>
        <time>2017-10-21T14:36:51.000+02:00</time>
      </trkpt>
      <trkpt lat="48.09998" lon="7.10216">
        <ele>1022.5</ele>
        <time>2017-10-21T14:36:52.000+02:00</time>
      </trkpt>
      <trkpt lat="48.09997" lon="7.10221">
        <ele>1021.9</ele>
        <time>2017-10-21T14:36:54.000+02:00</time>
      </trkpt>
      <trkpt lat="48.09996" lon="7.10227">
        <ele>1021.1</ele>
        <time>2017-10-21T14:36:56.000+02:00</time>
      </trkpt>
      <trkpt lat="48.09994" lon="7.10234">
        <ele>1020.3</ele>
        <time>2017-10-21T14:36:58.000+02:00</time>
      </trkpt>
      <trkpt lat="48.09992" lon="7.10241">
        <ele>1019.4</ele>
        <time>2017-10-21T14:37:00.000+02:00</time>
      </trkpt>
      <trkpt lat="48.09992" lon="7.10248">
        <ele>1018.7</ele>
        <time>2017-10-21T14:37:04.000+02:00</time>
      </trkpt>
      <trkpt lat="48.0999" lon="7.10254">
        <ele>1018</ele>
        <time>2017-10-21T14:37:09.000+02:00</time>
      </trkpt>
      <trkpt lat="48.0999" lon="7.10259">
        <ele>1017.7</ele>
        <time>2017-10-21T14:37:10.000+02:00</time>
      </trkpt>
      <trkpt lat="48.09989" lon="7.10264">
        <ele>1017.1</ele>
        <time>2017-10-21T14:37:13.000+02:00</time>
      </trkpt>
      <trkpt lat="48.09989" lon="7.10269">
        <ele>1016.7</ele>
        <time>2017-10-21T14:37:15.000+02:00</time>
      </trkpt>
      <trkpt lat="48.09989" lon="7.10273">
        <ele>1016.4</ele>
        <time>2017-10-21T14:37:16.000+02:00</time>
      </trkpt>
      <trkpt lat="48.09988" lon="7.10277">
        <ele>1016.1</ele>
        <time>2017-10-21T14:37:19.000+02:00</time>
      </trkpt>
      <trkpt lat="48.09988" lon="7.10279">
        <ele>1015.8</ele>
        <time>2017-10-21T14:37:19.000+02:00</time>
      </trkpt>
      <trkpt lat="48.09987" lon="7.10282">
        <ele>1015.4</ele>
        <time>2017-10-21T14:37:20.000+02:00</time>
      </trkpt>
      <trkpt lat="48.09984" lon="7.10284">
        <ele>1014.8</ele>
        <time>2017-10-21T14:37:23.000+02:00</time>
      </trkpt>
      <trkpt lat="48.09982" lon="7.10286">
        <ele>1014.3</ele>
        <time>2017-10-21T14:37:24.000+02:00</time>
      </trkpt>
      <trkpt lat="48.09981" lon="7.10289">
        <ele>1013.8</ele>
        <time>2017-10-21T14:37:25.000+02:00</time>
      </trkpt>
      <trkpt lat="48.09979" lon="7.10293">
        <ele>1013.2</ele>
        <time>2017-10-21T14:37:27.000+02:00</time>
      </trkpt>
      <trkpt lat="48.09978" lon="7.10297">
        <ele>1012.8</ele>
        <time>2017-10-21T14:37:28.000+02:00</time>
      </trkpt>
      <trkpt lat="48.09979" lon="7.10301">
        <ele>1012.6</ele>
        <time>2017-10-21T14:37:29.000+02:00</time>
      </trkpt>
      <trkpt lat="48.09977" lon="7.10306">
        <ele>1012</ele>
        <time>2017-10-21T14:37:31.000+02:00</time>
      </trkpt>
      <trkpt lat="48.09975" lon="7.10311">
        <ele>1011.3</ele>
        <time>2017-10-21T14:37:32.000+02:00</time>
      </trkpt>
      <trkpt lat="48.09973" lon="7.10312">
        <ele>1010.8</ele>
        <time>2017-10-21T14:37:35.000+02:00</time>
      </trkpt>
      <trkpt lat="48.0997" lon="7.10315">
        <ele>1010</ele>
        <time>2017-10-21T14:37:36.000+02:00</time>
      </trkpt>
      <trkpt lat="48.09966" lon="7.1032">
        <ele>1009</ele>
        <time>2017-10-21T14:37:38.000+02:00</time>
      </trkpt>
      <trkpt lat="48.09964" lon="7.10323">
        <ele>1008.3</ele>
        <time>2017-10-21T14:37:40.000+02:00</time>
      </trkpt>
      <trkpt lat="48.09962" lon="7.10327">
        <ele>1007.8</ele>
        <time>2017-10-21T14:37:41.000+02:00</time>
      </trkpt>
      <trkpt lat="48.09961" lon="7.10329">
        <ele>1007.3</ele>
        <time>2017-10-21T14:37:42.000+02:00</time>
      </trkpt>
      <trkpt lat="48.0996" lon="7.10331">
        <ele>1006.9</ele>
        <time>2017-10-21T14:37:43.000+02:00</time>
      </trkpt>
      <trkpt lat="48.09959" lon="7.10333">
        <ele>1006.5</ele>
        <time>2017-10-21T14:37:48.000+02:00</time>
      </trkpt>
      <trkpt lat="48.09957" lon="7.10335">
        <ele>1006</ele>
        <time>2017-10-21T14:37:51.000+02:00</time>
      </trkpt>
      <trkpt lat="48.09955" lon="7.10338">
        <ele>1005.4</ele>
        <time>2017-10-21T14:37:52.000+02:00</time>
      </trkpt>
      <trkpt lat="48.09952" lon="7.1034">
        <ele>1004.7</ele>
        <time>2017-10-21T14:37:53.000+02:00</time>
      </trkpt>
      <trkpt lat="48.0995" lon="7.10343">
        <ele>1004</ele>
        <time>2017-10-21T14:37:55.000+02:00</time>
      </trkpt>
      <trkpt lat="48.09947" lon="7.10345">
        <ele>1003.2</ele>
        <time>2017-10-21T14:37:57.000+02:00</time>
      </trkpt>
      <trkpt lat="48.09945" lon="7.10348">
        <ele>1002.5</ele>
        <time>2017-10-21T14:37:58.000+02:00</time>
      </trkpt>
      <trkpt lat="48.09943" lon="7.10351">
        <ele>1001.7</ele>
        <time>2017-10-21T14:37:59.000+02:00</time>
      </trkpt>
      <trkpt lat="48.09939" lon="7.10355">
        <ele>1000.7</ele>
        <time>2017-10-21T14:38:01.000+02:00</time>
      </trkpt>
      <trkpt lat="48.09935" lon="7.10358">
        <ele>999.6</ele>
        <time>2017-10-21T14:38:03.000+02:00</time>
      </trkpt>
      <trkpt lat="48.09932" lon="7.10362">
        <ele>998.7</ele>
        <time>2017-10-21T14:38:05.000+02:00</time>
      </trkpt>
      <trkpt lat="48.0993" lon="7.10365">
        <ele>998</ele>
        <time>2017-10-21T14:38:07.000+02:00</time>
      </trkpt>
      <trkpt lat="48.09928" lon="7.10368">
        <ele>997.2</ele>
        <time>2017-10-21T14:38:08.000+02:00</time>
      </trkpt>
      <trkpt lat="48.09925" lon="7.10372">
        <ele>996.3</ele>
        <time>2017-10-21T14:38:10.000+02:00</time>
      </trkpt>
      <trkpt lat="48.09923" lon="7.10375">
        <ele>995.5</ele>
        <time>2017-10-21T14:38:12.000+02:00</time>
      </trkpt>
      <trkpt lat="48.09921" lon="7.10378">
        <ele>995</ele>
        <time>2017-10-21T14:38:13.000+02:00</time>
      </trkpt>
      <trkpt lat="48.09919" lon="7.1038">
        <ele>994.3</ele>
        <time>2017-10-21T14:38:14.000+02:00</time>
      </trkpt>
      <trkpt lat="48.09917" lon="7.10383">
        <ele>993.8</ele>
        <time>2017-10-21T14:38:17.000+02:00</time>
      </trkpt>
      <trkpt lat="48.09916" lon="7.10386">
        <ele>993.3</ele>
        <time>2017-10-21T14:38:26.000+02:00</time>
      </trkpt>
      <trkpt lat="48.09913" lon="7.10388">
        <ele>992.3</ele>
        <time>2017-10-21T14:38:28.000+02:00</time>
      </trkpt>
      <trkpt lat="48.0991" lon="7.10391">
        <ele>991.3</ele>
        <time>2017-10-21T14:38:29.000+02:00</time>
      </trkpt>
      <trkpt lat="48.09908" lon="7.10393">
        <ele>990.7</ele>
        <time>2017-10-21T14:38:30.000+02:00</time>
      </trkpt>
      <trkpt lat="48.09905" lon="7.10394">
        <ele>989.9</ele>
        <time>2017-10-21T14:38:33.000+02:00</time>
      </trkpt>
      <trkpt lat="48.09902" lon="7.10397">
        <ele>989.1</ele>
        <time>2017-10-21T14:38:34.000+02:00</time>
      </trkpt>
      <trkpt lat="48.099" lon="7.10398">
        <ele>988.6</ele>
        <time>2017-10-21T14:38:35.000+02:00</time>
      </trkpt>
      <trkpt lat="48.09898" lon="7.10401">
        <ele>987.8</ele>
        <time>2017-10-21T14:38:36.000+02:00</time>
      </trkpt>
      <trkpt lat="48.09895" lon="7.10406">
        <ele>986.7</ele>
        <time>2017-10-21T14:38:38.000+02:00</time>
      </trkpt>
      <trkpt lat="48.09892" lon="7.10411">
        <ele>985.8</ele>
        <time>2017-10-21T14:38:40.000+02:00</time>
      </trkpt>
      <trkpt lat="48.09891" lon="7.10415">
        <ele>985.2</ele>
        <time>2017-10-21T14:38:42.000+02:00</time>
      </trkpt>
      <trkpt lat="48.09889" lon="7.1042">
        <ele>984.5</ele>
        <time>2017-10-21T14:38:47.000+02:00</time>
      </trkpt>
      <trkpt lat="48.09887" lon="7.10424">
        <ele>983.7</ele>
        <time>2017-10-21T14:38:48.000+02:00</time>
      </trkpt>
      <trkpt lat="48.09885" lon="7.10428">
        <ele>983</ele>
        <time>2017-10-21T14:38:51.000+02:00</time>
      </trkpt>
      <trkpt lat="48.09885" lon="7.10432">
        <ele>982.7</ele>
        <time>2017-10-21T14:38:52.000+02:00</time>
      </trkpt>
      <trkpt lat="48.09886" lon="7.10428">
        <ele>983.2</ele>
        <time>2017-10-21T14:38:53.000+02:00</time>
      </trkpt>
      <trkpt lat="48.09886" lon="7.10431">
        <ele>983</ele>
        <time>2017-10-21T14:38:53.000+02:00</time>
      </trkpt>
      <trkpt lat="48.09887" lon="7.10431">
        <ele>983.1</ele>
        <time>2017-10-21T14:38:54.000+02:00</time>
      </trkpt>
      <trkpt lat="48.09886" lon="7.10431">
        <ele>983</ele>
        <time>2017-10-21T14:38:54.000+02:00</time>
      </trkpt>
      <trkpt lat="48.09886" lon="7.10431">
        <ele>983</ele>
        <time>2017-10-21T14:38:54.000+02:00</time>
      </trkpt>
      <trkpt lat="48.09887" lon="7.10431">
        <ele>983.1</ele>
        <time>2017-10-21T14:38:54.000+02:00</time>
      </trkpt>
      <trkpt lat="48.09887" lon="7.10432">
        <ele>983.1</ele>
        <time>2017-10-21T14:38:54.000+02:00</time>
      </trkpt>
      <trkpt lat="48.09887" lon="7.10432">
        <ele>983</ele>
        <time>2017-10-21T14:38:55.000+02:00</time>
      </trkpt>
      <trkpt lat="48.09887" lon="7.10433">
        <ele>983</ele>
        <time>2017-10-21T14:38:55.000+02:00</time>
      </trkpt>
      <trkpt lat="48.09886" lon="7.10435">
        <ele>982.7</ele>
        <time>2017-10-21T14:38:55.000+02:00</time>
      </trkpt>
      <trkpt lat="48.09886" lon="7.10437">
        <ele>982.5</ele>
        <time>2017-10-21T14:38:56.000+02:00</time>
      </trkpt>
      <trkpt lat="48.09886" lon="7.10437">
        <ele>982.5</ele>
        <time>2017-10-21T14:38:56.000+02:00</time>
      </trkpt>
      <trkpt lat="48.09886" lon="7.10436">
        <ele>982.5</ele>
        <time>2017-10-21T14:38:56.000+02:00</time>
      </trkpt>
      <trkpt lat="48.09885" lon="7.10437">
        <ele>982.4</ele>
        <time>2017-10-21T14:38:56.000+02:00</time>
      </trkpt>
      <trkpt lat="48.09885" lon="7.10438">
        <ele>982.1</ele>
        <time>2017-10-21T14:38:57.000+02:00</time>
      </trkpt>
      <trkpt lat="48.09884" lon="7.1044">
        <ele>981.9</ele>
        <time>2017-10-21T14:38:57.000+02:00</time>
      </trkpt>
      <trkpt lat="48.09883" lon="7.10443">
        <ele>981.4</ele>
        <time>2017-10-21T14:39:00.000+02:00</time>
      </trkpt>
      <trkpt lat="48.09881" lon="7.10445">
        <ele>980.9</ele>
        <time>2017-10-21T14:39:00.000+02:00</time>
      </trkpt>
      <trkpt lat="48.0988" lon="7.10447">
        <ele>980.6</ele>
        <time>2017-10-21T14:39:01.000+02:00</time>
      </trkpt>
      <trkpt lat="48.09879" lon="7.10449">
        <ele>980.3</ele>
        <time>2017-10-21T14:39:02.000+02:00</time>
      </trkpt>
      <trkpt lat="48.09878" lon="7.10451">
        <ele>980</ele>
        <time>2017-10-21T14:39:02.000+02:00</time>
      </trkpt>
      <trkpt lat="48.09877" lon="7.10452">
        <ele>979.7</ele>
        <time>2017-10-21T14:39:04.000+02:00</time>
      </trkpt>
      <trkpt lat="48.09875" lon="7.10453">
        <ele>979.4</ele>
        <time>2017-10-21T14:39:05.000+02:00</time>
      </trkpt>
      <trkpt lat="48.09874" lon="7.10455">
        <ele>979</ele>
        <time>2017-10-21T14:39:06.000+02:00</time>
      </trkpt>
      <trkpt lat="48.09873" lon="7.10458">
        <ele>978.7</ele>
        <time>2017-10-21T14:39:07.000+02:00</time>
      </trkpt>
      <trkpt lat="48.09872" lon="7.1046">
        <ele>978.4</ele>
        <time>2017-10-21T14:39:07.000+02:00</time>
      </trkpt>
      <trkpt lat="48.09872" lon="7.10461">
        <ele>978.3</ele>
        <time>2017-10-21T14:39:08.000+02:00</time>
      </trkpt>
      <trkpt lat="48.09872" lon="7.1046">
        <ele>978.4</ele>
        <time>2017-10-21T14:39:08.000+02:00</time>
      </trkpt>
      <trkpt lat="48.09871" lon="7.10462">
        <ele>978.2</ele>
        <time>2017-10-21T14:39:09.000+02:00</time>
      </trkpt>
      <trkpt lat="48.09872" lon="7.10461">
        <ele>978.2</ele>
        <time>2017-10-21T14:39:09.000+02:00</time>
      </trkpt>
      <trkpt lat="48.09871" lon="7.10463">
        <ele>978.1</ele>
        <time>2017-10-21T14:39:09.000+02:00</time>
      </trkpt>
      <trkpt lat="48.0987" lon="7.10467">
        <ele>977.6</ele>
        <time>2017-10-21T14:39:12.000+02:00</time>
      </trkpt>
      <trkpt lat="48.09868" lon="7.10472">
        <ele>977</ele>
        <time>2017-10-21T14:39:13.000+02:00</time>
      </trkpt>
      <trkpt lat="48.09864" lon="7.10479">
        <ele>976</ele>
        <time>2017-10-21T14:39:16.000+02:00</time>
      </trkpt>
      <trkpt lat="48.0986" lon="7.10485">
        <ele>975</ele>
        <time>2017-10-21T14:39:18.000+02:00</time>
      </trkpt>
      <trkpt lat="48.09854" lon="7.10492">
        <ele>974</ele>
        <time>2017-10-21T14:39:21.000+02:00</time>
      </trkpt>
      <trkpt lat="48.09849" lon="7.10498">
        <ele>972.9</ele>
        <time>2017-10-21T14:39:24.000+02:00</time>
      </trkpt>
      <trkpt lat="48.09842" lon="7.10503">
        <ele>971.8</ele>
        <time>2017-10-21T14:39:31.000+02:00</time>
      </trkpt>
      <trkpt lat="48.09835" lon="7.10508">
        <ele>970.8</ele>
        <time>2017-10-21T14:39:34.000+02:00</time>
      </trkpt>
      <trkpt lat="48.09827" lon="7.10511">
        <ele>970</ele>
        <time>2017-10-21T14:39:41.000+02:00</time>
      </trkpt>
      <trkpt lat="48.0982" lon="7.10514">
        <ele>969.2</ele>
        <time>2017-10-21T14:39:45.000+02:00</time>
      </trkpt>
      <trkpt lat="48.09811" lon="7.10516">
        <ele>968.5</ele>
        <time>2017-10-21T14:39:48.000+02:00</time>
      </trkpt>
      <trkpt lat="48.09803" lon="7.10518">
        <ele>967.8</ele>
        <time>2017-10-21T14:39:51.000+02:00</time>
      </trkpt>
      <trkpt lat="48.09795" lon="7.10519">
        <ele>967.2</ele>
        <time>2017-10-21T14:39:54.000+02:00</time>
      </trkpt>
      <trkpt lat="48.09786" lon="7.10522">
        <ele>966.6</ele>
        <time>2017-10-21T14:39:58.000+02:00</time>
      </trkpt>
      <trkpt lat="48.09779" lon="7.10524">
        <ele>966.1</ele>
        <time>2017-10-21T14:40:01.000+02:00</time>
      </trkpt>
      <trkpt lat="48.09771" lon="7.10528">
        <ele>965.7</ele>
        <time>2017-10-21T14:40:04.000+02:00</time>
      </trkpt>
      <trkpt lat="48.09764" lon="7.10533">
        <ele>965.4</ele>
        <time>2017-10-21T14:40:07.000+02:00</time>
      </trkpt>
      <trkpt lat="48.09757" lon="7.10537">
        <ele>965.1</ele>
        <time>2017-10-21T14:40:10.000+02:00</time>
      </trkpt>
      <trkpt lat="48.0975" lon="7.10541">
        <ele>965</ele>
        <time>2017-10-21T14:40:13.000+02:00</time>
      </trkpt>
      <trkpt lat="48.09744" lon="7.10544">
        <ele>965.1</ele>
        <time>2017-10-21T14:40:16.000+02:00</time>
      </trkpt>
      <trkpt lat="48.09737" lon="7.10545">
        <ele>965.2</ele>
        <time>2017-10-21T14:40:18.000+02:00</time>
      </trkpt>
      <trkpt lat="48.0973" lon="7.10545">
        <ele>965.2</ele>
        <time>2017-10-21T14:40:21.000+02:00</time>
      </trkpt>
      <trkpt lat="48.09724" lon="7.10543">
        <ele>965.1</ele>
        <time>2017-10-21T14:40:24.000+02:00</time>
      </trkpt>
      <trkpt lat="48.09718" lon="7.10539">
        <ele>964.8</ele>
        <time>2017-10-21T14:40:26.000+02:00</time>
      </trkpt>
      <trkpt lat="48.09712" lon="7.10537">
        <ele>964.5</ele>
        <time>2017-10-21T14:40:29.000+02:00</time>
      </trkpt>
      <trkpt lat="48.09706" lon="7.10534">
        <ele>964.2</ele>
        <time>2017-10-21T14:40:31.000+02:00</time>
      </trkpt>
      <trkpt lat="48.097" lon="7.10532">
        <ele>963.9</ele>
        <time>2017-10-21T14:40:34.000+02:00</time>
      </trkpt>
      <trkpt lat="48.09695" lon="7.1053">
        <ele>963.6</ele>
        <time>2017-10-21T14:40:36.000+02:00</time>
      </trkpt>
      <trkpt lat="48.09689" lon="7.10528">
        <ele>963.4</ele>
        <time>2017-10-21T14:40:38.000+02:00</time>
      </trkpt>
      <trkpt lat="48.09684" lon="7.10527">
        <ele>963.2</ele>
        <time>2017-10-21T14:40:40.000+02:00</time>
      </trkpt>
      <trkpt lat="48.09678" lon="7.10527">
        <ele>963</ele>
        <time>2017-10-21T14:40:43.000+02:00</time>
      </trkpt>
      <trkpt lat="48.09673" lon="7.10527">
        <ele>962.9</ele>
        <time>2017-10-21T14:40:45.000+02:00</time>
      </trkpt>
      <trkpt lat="48.09667" lon="7.10527">
        <ele>962.8</ele>
        <time>2017-10-21T14:40:47.000+02:00</time>
      </trkpt>
      <trkpt lat="48.09661" lon="7.10526">
        <ele>962.2</ele>
        <time>2017-10-21T14:40:52.000+02:00</time>
      </trkpt>
      <trkpt lat="48.09655" lon="7.10526">
        <ele>961.5</ele>
        <time>2017-10-21T14:40:55.000+02:00</time>
      </trkpt>
      <trkpt lat="48.09649" lon="7.10527">
        <ele>960.9</ele>
        <time>2017-10-21T14:40:57.000+02:00</time>
      </trkpt>
      <trkpt lat="48.09642" lon="7.10528">
        <ele>960.3</ele>
        <time>2017-10-21T14:41:00.000+02:00</time>
      </trkpt>
      <trkpt lat="48.09636" lon="7.10531">
        <ele>960</ele>
        <time>2017-10-21T14:41:02.000+02:00</time>
      </trkpt>
      <trkpt lat="48.09631" lon="7.10535">
        <ele>959.9</ele>
        <time>2017-10-21T14:41:05.000+02:00</time>
      </trkpt>
      <trkpt lat="48.09625" lon="7.10539">
        <ele>959.9</ele>
        <time>2017-10-21T14:41:07.000+02:00</time>
      </trkpt>
      <trkpt lat="48.09619" lon="7.10545">
        <ele>960</ele>
        <time>2017-10-21T14:41:10.000+02:00</time>
      </trkpt>
      <trkpt lat="48.09614" lon="7.1055">
        <ele>960.2</ele>
        <time>2017-10-21T14:41:13.000+02:00</time>
      </trkpt>
      <trkpt lat="48.09608" lon="7.10557">
        <ele>960.4</ele>
        <time>2017-10-21T14:41:16.000+02:00</time>
      </trkpt>
      <trkpt lat="48.09603" lon="7.10563">
        <ele>960.6</ele>
        <time>2017-10-21T14:41:18.000+02:00</time>
      </trkpt>
      <trkpt lat="48.09597" lon="7.10569">
        <ele>960.7</ele>
        <time>2017-10-21T14:41:23.000+02:00</time>
      </trkpt>
      <trkpt lat="48.09592" lon="7.10575">
        <ele>960.9</ele>
        <time>2017-10-21T14:41:26.000+02:00</time>
      </trkpt>
      <trkpt lat="48.09586" lon="7.10581">
        <ele>961</ele>
        <time>2017-10-21T14:41:28.000+02:00</time>
      </trkpt>
      <trkpt lat="48.0958" lon="7.10587">
        <ele>960.8</ele>
        <time>2017-10-21T14:41:31.000+02:00</time>
      </trkpt>
      <trkpt lat="48.09573" lon="7.10593">
        <ele>960.3</ele>
        <time>2017-10-21T14:41:34.000+02:00</time>
      </trkpt>
      <trkpt lat="48.09567" lon="7.10598">
        <ele>959.9</ele>
        <time>2017-10-21T14:41:37.000+02:00</time>
      </trkpt>
      <trkpt lat="48.09561" lon="7.10604">
        <ele>959.5</ele>
        <time>2017-10-21T14:41:40.000+02:00</time>
      </trkpt>
      <trkpt lat="48.09555" lon="7.1061">
        <ele>959.1</ele>
        <time>2017-10-21T14:41:43.000+02:00</time>
      </trkpt>
      <trkpt lat="48.09549" lon="7.10616">
        <ele>958.7</ele>
        <time>2017-10-21T14:41:46.000+02:00</time>
      </trkpt>
      <trkpt lat="48.09543" lon="7.10622">
        <ele>958.4</ele>
        <time>2017-10-21T14:41:49.000+02:00</time>
      </trkpt>
      <trkpt lat="48.09538" lon="7.10628">
        <ele>958.1</ele>
        <time>2017-10-21T14:41:51.000+02:00</time>
      </trkpt>
      <trkpt lat="48.09532" lon="7.10634">
        <ele>957.9</ele>
        <time>2017-10-21T14:41:54.000+02:00</time>
      </trkpt>
      <trkpt lat="48.09527" lon="7.10639">
        <ele>957.6</ele>
        <time>2017-10-21T14:41:57.000+02:00</time>
      </trkpt>
      <trkpt lat="48.09522" lon="7.10645">
        <ele>957.3</ele>
        <time>2017-10-21T14:41:59.000+02:00</time>
      </trkpt>
      <trkpt lat="48.09516" lon="7.1065">
        <ele>956.9</ele>
        <time>2017-10-21T14:42:02.000+02:00</time>
      </trkpt>
      <trkpt lat="48.0951" lon="7.10655">
        <ele>956.5</ele>
        <time>2017-10-21T14:42:05.000+02:00</time>
      </trkpt>
      <trkpt lat="48.09505" lon="7.10661">
        <ele>956.1</ele>
        <time>2017-10-21T14:42:07.000+02:00</time>
      </trkpt>
      <trkpt lat="48.09499" lon="7.10666">
        <ele>955.9</ele>
        <time>2017-10-21T14:42:10.000+02:00</time>
      </trkpt>
      <trkpt lat="48.09493" lon="7.10671">
        <ele>955.9</ele>
        <time>2017-10-21T14:42:13.000+02:00</time>
      </trkpt>
      <trkpt lat="48.09488" lon="7.10676">
        <ele>955.8</ele>
        <time>2017-10-21T14:42:15.000+02:00</time>
      </trkpt>
      <trkpt lat="48.09482" lon="7.1068">
        <ele>955.8</ele>
        <time>2017-10-21T14:42:18.000+02:00</time>
      </trkpt>
      <trkpt lat="48.09477" lon="7.10685">
        <ele>955.8</ele>
        <time>2017-10-21T14:42:20.000+02:00</time>
      </trkpt>
      <trkpt lat="48.09471" lon="7.1069">
        <ele>955.8</ele>
        <time>2017-10-21T14:42:23.000+02:00</time>
      </trkpt>
      <trkpt lat="48.09466" lon="7.10695">
        <ele>955.9</ele>
        <time>2017-10-21T14:42:25.000+02:00</time>
      </trkpt>
      <trkpt lat="48.09461" lon="7.107">
        <ele>956</ele>
        <time>2017-10-21T14:42:28.000+02:00</time>
      </trkpt>
      <trkpt lat="48.09456" lon="7.10705">
        <ele>956</ele>
        <time>2017-10-21T14:42:30.000+02:00</time>
      </trkpt>
      <trkpt lat="48.0945" lon="7.10709">
        <ele>956.1</ele>
        <time>2017-10-21T14:42:33.000+02:00</time>
      </trkpt>
      <trkpt lat="48.09445" lon="7.10714">
        <ele>956.3</ele>
        <time>2017-10-21T14:42:35.000+02:00</time>
      </trkpt>
      <trkpt lat="48.09439" lon="7.1072">
        <ele>956.5</ele>
        <time>2017-10-21T14:42:38.000+02:00</time>
      </trkpt>
      <trkpt lat="48.09434" lon="7.10726">
        <ele>956.7</ele>
        <time>2017-10-21T14:42:42.000+02:00</time>
      </trkpt>
      <trkpt lat="48.09429" lon="7.10732">
        <ele>957</ele>
        <time>2017-10-21T14:42:45.000+02:00</time>
      </trkpt>
      <trkpt lat="48.09424" lon="7.10737">
        <ele>957.3</ele>
        <time>2017-10-21T14:42:47.000+02:00</time>
      </trkpt>
      <trkpt lat="48.09418" lon="7.10742">
        <ele>957.5</ele>
        <time>2017-10-21T14:42:50.000+02:00</time>
      </trkpt>
      <trkpt lat="48.09413" lon="7.10747">
        <ele>957.7</ele>
        <time>2017-10-21T14:42:52.000+02:00</time>
      </trkpt>
      <trkpt lat="48.09408" lon="7.10751">
        <ele>957.8</ele>
        <time>2017-10-21T14:42:57.000+02:00</time>
      </trkpt>
      <trkpt lat="48.09403" lon="7.10756">
        <ele>957.6</ele>
        <time>2017-10-21T14:42:59.000+02:00</time>
      </trkpt>
      <trkpt lat="48.09398" lon="7.1076">
        <ele>957.4</ele>
        <time>2017-10-21T14:43:01.000+02:00</time>
      </trkpt>
      <trkpt lat="48.09393" lon="7.10764">
        <ele>957.2</ele>
        <time>2017-10-21T14:43:04.000+02:00</time>
      </trkpt>
      <trkpt lat="48.09388" lon="7.10768">
        <ele>957</ele>
        <time>2017-10-21T14:43:06.000+02:00</time>
      </trkpt>
      <trkpt lat="48.09384" lon="7.10772">
        <ele>956.9</ele>
        <time>2017-10-21T14:43:08.000+02:00</time>
      </trkpt>
      <trkpt lat="48.09379" lon="7.10776">
        <ele>956.7</ele>
        <time>2017-10-21T14:43:10.000+02:00</time>
      </trkpt>
      <trkpt lat="48.09374" lon="7.1078">
        <ele>956.6</ele>
        <time>2017-10-21T14:43:13.000+02:00</time>
      </trkpt>
      <trkpt lat="48.09369" lon="7.10784">
        <ele>956.5</ele>
        <time>2017-10-21T14:43:15.000+02:00</time>
      </trkpt>
      <trkpt lat="48.09364" lon="7.10788">
        <ele>956.4</ele>
        <time>2017-10-21T14:43:17.000+02:00</time>
      </trkpt>
      <trkpt lat="48.09358" lon="7.10792">
        <ele>956.3</ele>
        <time>2017-10-21T14:43:20.000+02:00</time>
      </trkpt>
      <trkpt lat="48.09353" lon="7.10796">
        <ele>956.2</ele>
        <time>2017-10-21T14:43:22.000+02:00</time>
      </trkpt>
      <trkpt lat="48.09348" lon="7.10801">
        <ele>956.1</ele>
        <time>2017-10-21T14:43:25.000+02:00</time>
      </trkpt>
      <trkpt lat="48.09343" lon="7.10806">
        <ele>956.1</ele>
        <time>2017-10-21T14:43:27.000+02:00</time>
      </trkpt>
      <trkpt lat="48.09338" lon="7.10811">
        <ele>956</ele>
        <time>2017-10-21T14:43:30.000+02:00</time>
      </trkpt>
      <trkpt lat="48.09332" lon="7.10816">
        <ele>956.1</ele>
        <time>2017-10-21T14:43:34.000+02:00</time>
      </trkpt>
      <trkpt lat="48.09326" lon="7.10821">
        <ele>956.4</ele>
        <time>2017-10-21T14:43:37.000+02:00</time>
      </trkpt>
      <trkpt lat="48.09321" lon="7.10827">
        <ele>956.8</ele>
        <time>2017-10-21T14:43:39.000+02:00</time>
      </trkpt>
      <trkpt lat="48.09317" lon="7.10832">
        <ele>957.2</ele>
        <time>2017-10-21T14:43:41.000+02:00</time>
      </trkpt>
      <trkpt lat="48.09313" lon="7.10837">
        <ele>957.3</ele>
        <time>2017-10-21T14:43:44.000+02:00</time>
      </trkpt>
      <trkpt lat="48.09309" lon="7.10842">
        <ele>957.2</ele>
        <time>2017-10-21T14:43:45.000+02:00</time>
      </trkpt>
      <trkpt lat="48.09306" lon="7.10847">
        <ele>957.1</ele>
        <time>2017-10-21T14:43:47.000+02:00</time>
      </trkpt>
      <trkpt lat="48.09303" lon="7.10852">
        <ele>957.1</ele>
        <time>2017-10-21T14:43:49.000+02:00</time>
      </trkpt>
      <trkpt lat="48.09299" lon="7.10857">
        <ele>957.1</ele>
        <time>2017-10-21T14:43:51.000+02:00</time>
      </trkpt>
      <trkpt lat="48.09296" lon="7.10861">
        <ele>957.2</ele>
        <time>2017-10-21T14:43:53.000+02:00</time>
      </trkpt>
      <trkpt lat="48.09292" lon="7.10864">
        <ele>957.3</ele>
        <time>2017-10-21T14:43:55.000+02:00</time>
      </trkpt>
      <trkpt lat="48.09289" lon="7.10868">
        <ele>957.3</ele>
        <time>2017-10-21T14:43:56.000+02:00</time>
      </trkpt>
      <trkpt lat="48.09287" lon="7.10872">
        <ele>957.3</ele>
        <time>2017-10-21T14:43:58.000+02:00</time>
      </trkpt>
      <trkpt lat="48.09284" lon="7.10876">
        <ele>957.4</ele>
        <time>2017-10-21T14:43:59.000+02:00</time>
      </trkpt>
      <trkpt lat="48.09282" lon="7.10879">
        <ele>957.4</ele>
        <time>2017-10-21T14:44:00.000+02:00</time>
      </trkpt>
      <trkpt lat="48.09279" lon="7.10882">
        <ele>957.5</ele>
        <time>2017-10-21T14:44:02.000+02:00</time>
      </trkpt>
      <trkpt lat="48.09276" lon="7.10885">
        <ele>957.6</ele>
        <time>2017-10-21T14:44:03.000+02:00</time>
      </trkpt>
      <trkpt lat="48.09274" lon="7.10888">
        <ele>957.8</ele>
        <time>2017-10-21T14:44:04.000+02:00</time>
      </trkpt>
      <trkpt lat="48.09271" lon="7.10891">
        <ele>957.9</ele>
        <time>2017-10-21T14:44:06.000+02:00</time>
      </trkpt>
      <trkpt lat="48.09268" lon="7.10893">
        <ele>958.1</ele>
        <time>2017-10-21T14:44:07.000+02:00</time>
      </trkpt>
      <trkpt lat="48.09265" lon="7.10896">
        <ele>958.2</ele>
        <time>2017-10-21T14:44:11.000+02:00</time>
      </trkpt>
      <trkpt lat="48.09263" lon="7.10898">
        <ele>958.4</ele>
        <time>2017-10-21T14:44:12.000+02:00</time>
      </trkpt>
      <trkpt lat="48.0926" lon="7.10901">
        <ele>958.6</ele>
        <time>2017-10-21T14:44:14.000+02:00</time>
      </trkpt>
      <trkpt lat="48.09257" lon="7.10903">
        <ele>958.8</ele>
        <time>2017-10-21T14:44:15.000+02:00</time>
      </trkpt>
      <trkpt lat="48.09255" lon="7.10906">
        <ele>958.9</ele>
        <time>2017-10-21T14:44:16.000+02:00</time>
      </trkpt>
      <trkpt lat="48.09253" lon="7.10909">
        <ele>959</ele>
        <time>2017-10-21T14:44:17.000+02:00</time>
      </trkpt>
      <trkpt lat="48.09251" lon="7.10912">
        <ele>959.1</ele>
        <time>2017-10-21T14:44:22.000+02:00</time>
      </trkpt>
      <trkpt lat="48.09249" lon="7.10915">
        <ele>959.1</ele>
        <time>2017-10-21T14:44:23.000+02:00</time>
      </trkpt>
      <trkpt lat="48.09247" lon="7.10918">
        <ele>959.1</ele>
        <time>2017-10-21T14:44:24.000+02:00</time>
      </trkpt>
      <trkpt lat="48.09245" lon="7.10921">
        <ele>959.1</ele>
        <time>2017-10-21T14:44:25.000+02:00</time>
      </trkpt>
      <trkpt lat="48.09242" lon="7.10923">
        <ele>959.2</ele>
        <time>2017-10-21T14:44:26.000+02:00</time>
      </trkpt>
      <trkpt lat="48.09239" lon="7.10925">
        <ele>959.3</ele>
        <time>2017-10-21T14:44:28.000+02:00</time>
      </trkpt>
      <trkpt lat="48.09236" lon="7.10927">
        <ele>959.4</ele>
        <time>2017-10-21T14:44:29.000+02:00</time>
      </trkpt>
      <trkpt lat="48.09234" lon="7.10929">
        <ele>959.4</ele>
        <time>2017-10-21T14:44:30.000+02:00</time>
      </trkpt>
      <trkpt lat="48.09231" lon="7.10931">
        <ele>959.5</ele>
        <time>2017-10-21T14:44:31.000+02:00</time>
      </trkpt>
      <trkpt lat="48.09229" lon="7.10933">
        <ele>959.6</ele>
        <time>2017-10-21T14:44:35.000+02:00</time>
      </trkpt>
      <trkpt lat="48.09227" lon="7.10935">
        <ele>959.6</ele>
        <time>2017-10-21T14:44:36.000+02:00</time>
      </trkpt>
      <trkpt lat="48.09225" lon="7.10938">
        <ele>959.6</ele>
        <time>2017-10-21T14:44:38.000+02:00</time>
      </trkpt>
      <trkpt lat="48.09222" lon="7.10941">
        <ele>959.6</ele>
        <time>2017-10-21T14:44:39.000+02:00</time>
      </trkpt>
      <trkpt lat="48.09219" lon="7.10945">
        <ele>959.6</ele>
        <time>2017-10-21T14:44:40.000+02:00</time>
      </trkpt>
      <trkpt lat="48.09216" lon="7.10948">
        <ele>959.7</ele>
        <time>2017-10-21T14:44:42.000+02:00</time>
      </trkpt>
      <trkpt lat="48.09212" lon="7.10952">
        <ele>959.8</ele>
        <time>2017-10-21T14:44:44.000+02:00</time>
      </trkpt>
      <trkpt lat="48.09208" lon="7.10955">
        <ele>960</ele>
        <time>2017-10-21T14:44:46.000+02:00</time>
      </trkpt>
      <trkpt lat="48.09203" lon="7.10958">
        <ele>960.3</ele>
        <time>2017-10-21T14:44:48.000+02:00</time>
      </trkpt>
      <trkpt lat="48.09199" lon="7.1096">
        <ele>960.6</ele>
        <time>2017-10-21T14:44:50.000+02:00</time>
      </trkpt>
      <trkpt lat="48.09194" lon="7.10963">
        <ele>960.9</ele>
        <time>2017-10-21T14:44:52.000+02:00</time>
      </trkpt>
      <trkpt lat="48.0919" lon="7.10967">
        <ele>961.1</ele>
        <time>2017-10-21T14:44:54.000+02:00</time>
      </trkpt>
      <trkpt lat="48.09186" lon="7.10971">
        <ele>961.3</ele>
        <time>2017-10-21T14:44:55.000+02:00</time>
      </trkpt>
      <trkpt lat="48.09182" lon="7.10974">
        <ele>961.6</ele>
        <time>2017-10-21T14:45:00.000+02:00</time>
      </trkpt>
      <trkpt lat="48.09179" lon="7.10977">
        <ele>961.8</ele>
        <time>2017-10-21T14:45:01.000+02:00</time>
      </trkpt>
      <trkpt lat="48.09175" lon="7.10981">
        <ele>962</ele>
        <time>2017-10-21T14:45:03.000+02:00</time>
      </trkpt>
      <trkpt lat="48.09171" lon="7.10985">
        <ele>962.2</ele>
        <time>2017-10-21T14:45:05.000+02:00</time>
      </trkpt>
      <trkpt lat="48.09167" lon="7.1099">
        <ele>962.5</ele>
        <time>2017-10-21T14:45:09.000+02:00</time>
      </trkpt>
      <trkpt lat="48.09162" lon="7.10994">
        <ele>962.1</ele>
        <time>2017-10-21T14:45:11.000+02:00</time>
      </trkpt>
      <trkpt lat="48.09159" lon="7.10999">
        <ele>961.8</ele>
        <time>2017-10-21T14:45:13.000+02:00</time>
      </trkpt>
      <trkpt lat="48.09155" lon="7.11003">
        <ele>961.5</ele>
        <time>2017-10-21T14:45:16.000+02:00</time>
      </trkpt>
      <trkpt lat="48.09152" lon="7.11007">
        <ele>961.2</ele>
        <time>2017-10-21T14:45:18.000+02:00</time>
      </trkpt>
      <trkpt lat="48.09149" lon="7.11011">
        <ele>960.9</ele>
        <time>2017-10-21T14:45:20.000+02:00</time>
      </trkpt>
      <trkpt lat="48.09145" lon="7.11016">
        <ele>960.6</ele>
        <time>2017-10-21T14:45:22.000+02:00</time>
      </trkpt>
      <trkpt lat="48.09142" lon="7.11021">
        <ele>960.3</ele>
        <time>2017-10-21T14:45:23.000+02:00</time>
      </trkpt>
      <trkpt lat="48.09139" lon="7.11025">
        <ele>960</ele>
        <time>2017-10-21T14:45:26.000+02:00</time>
      </trkpt>
      <trkpt lat="48.09135" lon="7.11029">
        <ele>959.7</ele>
        <time>2017-10-21T14:45:28.000+02:00</time>
      </trkpt>
      <trkpt lat="48.09132" lon="7.11034">
        <ele>959.4</ele>
        <time>2017-10-21T14:45:29.000+02:00</time>
      </trkpt>
      <trkpt lat="48.09128" lon="7.11038">
        <ele>959</ele>
        <time>2017-10-21T14:45:31.000+02:00</time>
      </trkpt>
      <trkpt lat="48.09125" lon="7.11043">
        <ele>958.7</ele>
        <time>2017-10-21T14:45:33.000+02:00</time>
      </trkpt>
      <trkpt lat="48.09123" lon="7.11048">
        <ele>958.4</ele>
        <time>2017-10-21T14:45:35.000+02:00</time>
      </trkpt>
      <trkpt lat="48.0912" lon="7.11054">
        <ele>958</ele>
        <time>2017-10-21T14:45:37.000+02:00</time>
      </trkpt>
      <trkpt lat="48.09118" lon="7.11061">
        <ele>957.7</ele>
        <time>2017-10-21T14:45:39.000+02:00</time>
      </trkpt>
      <trkpt lat="48.09115" lon="7.11067">
        <ele>957.2</ele>
        <time>2017-10-21T14:45:41.000+02:00</time>
      </trkpt>
      <trkpt lat="48.09112" lon="7.11074">
        <ele>956.8</ele>
        <time>2017-10-21T14:45:43.000+02:00</time>
      </trkpt>
      <trkpt lat="48.09109" lon="7.11081">
        <ele>956.3</ele>
        <time>2017-10-21T14:45:46.000+02:00</time>
      </trkpt>
      <trkpt lat="48.09105" lon="7.11087">
        <ele>955.9</ele>
        <time>2017-10-21T14:45:51.000+02:00</time>
      </trkpt>
      <trkpt lat="48.09102" lon="7.11092">
        <ele>955.5</ele>
        <time>2017-10-21T14:45:53.000+02:00</time>
      </trkpt>
      <trkpt lat="48.091" lon="7.11097">
        <ele>955.2</ele>
        <time>2017-10-21T14:45:54.000+02:00</time>
      </trkpt>
      <trkpt lat="48.09098" lon="7.11102">
        <ele>955</ele>
        <time>2017-10-21T14:45:56.000+02:00</time>
      </trkpt>
      <trkpt lat="48.09096" lon="7.11107">
        <ele>954.7</ele>
        <time>2017-10-21T14:45:57.000+02:00</time>
      </trkpt>
      <trkpt lat="48.09095" lon="7.11111">
        <ele>954.6</ele>
        <time>2017-10-21T14:46:00.000+02:00</time>
      </trkpt>
      <trkpt lat="48.09093" lon="7.11116">
        <ele>954.4</ele>
        <time>2017-10-21T14:46:01.000+02:00</time>
      </trkpt>
      <trkpt lat="48.09092" lon="7.11121">
        <ele>954.2</ele>
        <time>2017-10-21T14:46:02.000+02:00</time>
      </trkpt>
      <trkpt lat="48.0909" lon="7.11125">
        <ele>954</ele>
        <time>2017-10-21T14:46:04.000+02:00</time>
      </trkpt>
      <trkpt lat="48.09088" lon="7.1113">
        <ele>953.9</ele>
        <time>2017-10-21T14:46:05.000+02:00</time>
      </trkpt>
      <trkpt lat="48.09086" lon="7.11133">
        <ele>953.8</ele>
        <time>2017-10-21T14:46:06.000+02:00</time>
      </trkpt>
      <trkpt lat="48.09084" lon="7.11136">
        <ele>953.7</ele>
        <time>2017-10-21T14:46:08.000+02:00</time>
      </trkpt>
      <trkpt lat="48.09082" lon="7.11139">
        <ele>953.4</ele>
        <time>2017-10-21T14:46:13.000+02:00</time>
      </trkpt>
      <trkpt lat="48.09079" lon="7.11142">
        <ele>952.8</ele>
        <time>2017-10-21T14:46:14.000+02:00</time>
      </trkpt>
      <trkpt lat="48.09077" lon="7.11145">
        <ele>952.4</ele>
        <time>2017-10-21T14:46:15.000+02:00</time>
      </trkpt>
      <trkpt lat="48.09075" lon="7.11149">
        <ele>952</ele>
        <time>2017-10-21T14:46:16.000+02:00</time>
      </trkpt>
      <trkpt lat="48.09073" lon="7.11152">
        <ele>951.5</ele>
        <time>2017-10-21T14:46:18.000+02:00</time>
      </trkpt>
      <trkpt lat="48.09071" lon="7.11155">
        <ele>951.1</ele>
        <time>2017-10-21T14:46:19.000+02:00</time>
      </trkpt>
      <trkpt lat="48.0907" lon="7.11159">
        <ele>950.7</ele>
        <time>2017-10-21T14:46:20.000+02:00</time>
      </trkpt>
      <trkpt lat="48.09068" lon="7.11163">
        <ele>950.4</ele>
        <time>2017-10-21T14:46:21.000+02:00</time>
      </trkpt>
      <trkpt lat="48.09067" lon="7.11168">
        <ele>950</ele>
        <time>2017-10-21T14:46:23.000+02:00</time>
      </trkpt>
      <trkpt lat="48.09065" lon="7.11173">
        <ele>949.7</ele>
        <time>2017-10-21T14:46:25.000+02:00</time>
      </trkpt>
      <trkpt lat="48.09063" lon="7.11179">
        <ele>949.1</ele>
        <time>2017-10-21T14:46:27.000+02:00</time>
      </trkpt>
      <trkpt lat="48.0906" lon="7.11184">
        <ele>948.6</ele>
        <time>2017-10-21T14:46:30.000+02:00</time>
      </trkpt>
      <trkpt lat="48.09057" lon="7.11187">
        <ele>948.1</ele>
        <time>2017-10-21T14:46:31.000+02:00</time>
      </trkpt>
      <trkpt lat="48.09055" lon="7.1119">
        <ele>947.7</ele>
        <time>2017-10-21T14:46:32.000+02:00</time>
      </trkpt>
      <trkpt lat="48.09055" lon="7.11193">
        <ele>947.6</ele>
        <time>2017-10-21T14:46:33.000+02:00</time>
      </trkpt>
      <trkpt lat="48.09056" lon="7.11196">
        <ele>947.8</ele>
        <time>2017-10-21T14:46:34.000+02:00</time>
      </trkpt>
      <trkpt lat="48.09057" lon="7.11198">
        <ele>948.1</ele>
        <time>2017-10-21T14:46:35.000+02:00</time>
      </trkpt>
      <trkpt lat="48.09059" lon="7.11202">
        <ele>948.4</ele>
        <time>2017-10-21T14:46:36.000+02:00</time>
      </trkpt>
      <trkpt lat="48.09062" lon="7.11205">
        <ele>948.7</ele>
        <time>2017-10-21T14:46:37.000+02:00</time>
      </trkpt>
      <trkpt lat="48.09064" lon="7.11208">
        <ele>949.1</ele>
        <time>2017-10-21T14:46:39.000+02:00</time>
      </trkpt>
      <trkpt lat="48.09066" lon="7.11212">
        <ele>949.4</ele>
        <time>2017-10-21T14:46:40.000+02:00</time>
      </trkpt>
      <trkpt lat="48.09068" lon="7.11215">
        <ele>949.7</ele>
        <time>2017-10-21T14:46:41.000+02:00</time>
      </trkpt>
      <trkpt lat="48.0907" lon="7.11217">
        <ele>950</ele>
        <time>2017-10-21T14:46:42.000+02:00</time>
      </trkpt>
      <trkpt lat="48.09072" lon="7.11219">
        <ele>950.4</ele>
        <time>2017-10-21T14:46:46.000+02:00</time>
      </trkpt>
      <trkpt lat="48.09074" lon="7.1122">
        <ele>950.7</ele>
        <time>2017-10-21T14:46:47.000+02:00</time>
      </trkpt>
      <trkpt lat="48.09076" lon="7.1122">
        <ele>951.1</ele>
        <time>2017-10-21T14:46:48.000+02:00</time>
      </trkpt>
      <trkpt lat="48.09078" lon="7.1122">
        <ele>951.4</ele>
        <time>2017-10-21T14:46:49.000+02:00</time>
      </trkpt>
      <trkpt lat="48.0908" lon="7.1122">
        <ele>951.8</ele>
        <time>2017-10-21T14:46:50.000+02:00</time>
      </trkpt>
      <trkpt lat="48.09082" lon="7.11219">
        <ele>952.1</ele>
        <time>2017-10-21T14:46:50.000+02:00</time>
      </trkpt>
      <trkpt lat="48.09083" lon="7.11218">
        <ele>952.4</ele>
        <time>2017-10-21T14:46:51.000+02:00</time>
      </trkpt>
      <trkpt lat="48.09085" lon="7.11218">
        <ele>952.3</ele>
        <time>2017-10-21T14:46:57.000+02:00</time>
      </trkpt>
      <trkpt lat="48.09087" lon="7.11217">
        <ele>952.2</ele>
        <time>2017-10-21T14:46:58.000+02:00</time>
      </trkpt>
      <trkpt lat="48.09088" lon="7.11217">
        <ele>952.1</ele>
        <time>2017-10-21T14:46:58.000+02:00</time>
      </trkpt>
      <trkpt lat="48.09089" lon="7.11218">
        <ele>952.1</ele>
        <time>2017-10-21T14:46:59.000+02:00</time>
      </trkpt>
      <trkpt lat="48.09089" lon="7.1122">
        <ele>952</ele>
        <time>2017-10-21T14:46:59.000+02:00</time>
      </trkpt>
      <trkpt lat="48.09088" lon="7.11222">
        <ele>952</ele>
        <time>2017-10-21T14:47:00.000+02:00</time>
      </trkpt>
      <trkpt lat="48.09087" lon="7.11224">
        <ele>952.1</ele>
        <time>2017-10-21T14:47:00.000+02:00</time>
      </trkpt>
      <trkpt lat="48.09087" lon="7.11226">
        <ele>952.1</ele>
        <time>2017-10-21T14:47:01.000+02:00</time>
      </trkpt>
      <trkpt lat="48.09086" lon="7.11229">
        <ele>952.1</ele>
        <time>2017-10-21T14:47:02.000+02:00</time>
      </trkpt>
      <trkpt lat="48.09087" lon="7.11232">
        <ele>952</ele>
        <time>2017-10-21T14:47:03.000+02:00</time>
      </trkpt>
      <trkpt lat="48.09088" lon="7.11235">
        <ele>951.9</ele>
        <time>2017-10-21T14:47:04.000+02:00</time>
      </trkpt>
      <trkpt lat="48.09089" lon="7.11239">
        <ele>951.7</ele>
        <time>2017-10-21T14:47:05.000+02:00</time>
      </trkpt>
      <trkpt lat="48.09091" lon="7.11242">
        <ele>951.6</ele>
        <time>2017-10-21T14:47:06.000+02:00</time>
      </trkpt>
      <trkpt lat="48.09092" lon="7.11245">
        <ele>951.5</ele>
        <time>2017-10-21T14:47:07.000+02:00</time>
      </trkpt>
      <trkpt lat="48.09093" lon="7.11249">
        <ele>951.4</ele>
        <time>2017-10-21T14:47:08.000+02:00</time>
      </trkpt>
      <trkpt lat="48.09093" lon="7.11252">
        <ele>951.4</ele>
        <time>2017-10-21T14:47:12.000+02:00</time>
      </trkpt>
      <trkpt lat="48.09094" lon="7.11256">
        <ele>951.6</ele>
        <time>2017-10-21T14:47:13.000+02:00</time>
      </trkpt>
      <trkpt lat="48.09094" lon="7.11259">
        <ele>951.8</ele>
        <time>2017-10-21T14:47:14.000+02:00</time>
      </trkpt>
      <trkpt lat="48.09094" lon="7.11262">
        <ele>952</ele>
        <time>2017-10-21T14:47:15.000+02:00</time>
      </trkpt>
      <trkpt lat="48.09094" lon="7.11265">
        <ele>952.1</ele>
        <time>2017-10-21T14:47:16.000+02:00</time>
      </trkpt>
      <trkpt lat="48.09094" lon="7.11269">
        <ele>952.3</ele>
        <time>2017-10-21T14:47:17.000+02:00</time>
      </trkpt>
      <trkpt lat="48.09095" lon="7.11272">
        <ele>952.5</ele>
        <time>2017-10-21T14:47:17.000+02:00</time>
      </trkpt>
      <trkpt lat="48.09094" lon="7.11275">
        <ele>952.7</ele>
        <time>2017-10-21T14:47:18.000+02:00</time>
      </trkpt>
      <trkpt lat="48.09094" lon="7.11277">
        <ele>952.9</ele>
        <time>2017-10-21T14:47:19.000+02:00</time>
      </trkpt>
      <trkpt lat="48.09093" lon="7.11279">
        <ele>953</ele>
        <time>2017-10-21T14:47:19.000+02:00</time>
      </trkpt>
      <trkpt lat="48.09093" lon="7.11282">
        <ele>953.2</ele>
        <time>2017-10-21T14:47:20.000+02:00</time>
      </trkpt>
      <trkpt lat="48.09092" lon="7.11285">
        <ele>953.4</ele>
        <time>2017-10-21T14:47:21.000+02:00</time>
      </trkpt>
      <trkpt lat="48.09092" lon="7.11288">
        <ele>953.6</ele>
        <time>2017-10-21T14:47:22.000+02:00</time>
      </trkpt>
      <trkpt lat="48.09092" lon="7.11291">
        <ele>953.9</ele>
        <time>2017-10-21T14:47:23.000+02:00</time>
      </trkpt>
      <trkpt lat="48.09091" lon="7.11295">
        <ele>954.1</ele>
        <time>2017-10-21T14:47:27.000+02:00</time>
      </trkpt>
      <trkpt lat="48.09091" lon="7.11298">
        <ele>954.4</ele>
        <time>2017-10-21T14:47:28.000+02:00</time>
      </trkpt>
      <trkpt lat="48.09091" lon="7.11302">
        <ele>954.6</ele>
        <time>2017-10-21T14:47:29.000+02:00</time>
      </trkpt>
      <trkpt lat="48.0909" lon="7.11306">
        <ele>954.9</ele>
        <time>2017-10-21T14:47:30.000+02:00</time>
      </trkpt>
      <trkpt lat="48.09089" lon="7.11309">
        <ele>955.1</ele>
        <time>2017-10-21T14:47:34.000+02:00</time>
      </trkpt>
      <trkpt lat="48.09089" lon="7.11313">
        <ele>955.4</ele>
        <time>2017-10-21T14:47:35.000+02:00</time>
      </trkpt>
      <trkpt lat="48.09088" lon="7.11317">
        <ele>955.7</ele>
        <time>2017-10-21T14:47:36.000+02:00</time>
      </trkpt>
      <trkpt lat="48.09088" lon="7.11321">
        <ele>955.9</ele>
        <time>2017-10-21T14:47:41.000+02:00</time>
      </trkpt>
      <trkpt lat="48.09088" lon="7.11325">
        <ele>956.2</ele>
        <time>2017-10-21T14:47:42.000+02:00</time>
      </trkpt>
      <trkpt lat="48.09088" lon="7.1133">
        <ele>956.4</ele>
        <time>2017-10-21T14:47:46.000+02:00</time>
      </trkpt>
      <trkpt lat="48.09087" lon="7.11334">
        <ele>956.7</ele>
        <time>2017-10-21T14:47:50.000+02:00</time>
      </trkpt>
      <trkpt lat="48.09086" lon="7.11338">
        <ele>956.8</ele>
        <time>2017-10-21T14:47:51.000+02:00</time>
      </trkpt>
      <trkpt lat="48.09085" lon="7.11342">
        <ele>956.9</ele>
        <time>2017-10-21T14:47:54.000+02:00</time>
      </trkpt>
      <trkpt lat="48.09085" lon="7.11345">
        <ele>956.9</ele>
        <time>2017-10-21T14:47:55.000+02:00</time>
      </trkpt>
      <trkpt lat="48.09084" lon="7.11349">
        <ele>957</ele>
        <time>2017-10-21T14:47:56.000+02:00</time>
      </trkpt>
      <trkpt lat="48.09083" lon="7.11354">
        <ele>956.9</ele>
        <time>2017-10-21T14:48:01.000+02:00</time>
      </trkpt>
      <trkpt lat="48.09082" lon="7.11358">
        <ele>956.7</ele>
        <time>2017-10-21T14:48:02.000+02:00</time>
      </trkpt>
      <trkpt lat="48.09082" lon="7.11362">
        <ele>956.7</ele>
        <time>2017-10-21T14:48:05.000+02:00</time>
      </trkpt>
      <trkpt lat="48.09082" lon="7.11366">
        <ele>956.7</ele>
        <time>2017-10-21T14:48:06.000+02:00</time>
      </trkpt>
      <trkpt lat="48.09082" lon="7.11371">
        <ele>956.6</ele>
        <time>2017-10-21T14:48:07.000+02:00</time>
      </trkpt>
      <trkpt lat="48.09081" lon="7.11375">
        <ele>956.5</ele>
        <time>2017-10-21T14:48:08.000+02:00</time>
      </trkpt>
      <trkpt lat="48.0908" lon="7.11381">
        <ele>956.2</ele>
        <time>2017-10-21T14:48:10.000+02:00</time>
      </trkpt>
      <trkpt lat="48.09078" lon="7.11387">
        <ele>955.8</ele>
        <time>2017-10-21T14:48:12.000+02:00</time>
      </trkpt>
      <trkpt lat="48.09077" lon="7.11393">
        <ele>955.6</ele>
        <time>2017-10-21T14:48:16.000+02:00</time>
      </trkpt>
      <trkpt lat="48.09076" lon="7.11401">
        <ele>955.4</ele>
        <time>2017-10-21T14:48:18.000+02:00</time>
      </trkpt>
      <trkpt lat="48.09075" lon="7.11408">
        <ele>955.1</ele>
        <time>2017-10-21T14:48:22.000+02:00</time>
      </trkpt>
      <trkpt lat="48.09074" lon="7.11415">
        <ele>955</ele>
        <time>2017-10-21T14:48:26.000+02:00</time>
      </trkpt>
      <trkpt lat="48.09074" lon="7.11424">
        <ele>954.6</ele>
        <time>2017-10-21T14:48:29.000+02:00</time>
      </trkpt>
      <trkpt lat="48.09073" lon="7.11432">
        <ele>954.2</ele>
        <time>2017-10-21T14:48:34.000+02:00</time>
      </trkpt>
      <trkpt lat="48.09072" lon="7.1144">
        <ele>953.5</ele>
        <time>2017-10-21T14:48:36.000+02:00</time>
      </trkpt>
      <trkpt lat="48.09069" lon="7.11447">
        <ele>952.7</ele>
        <time>2017-10-21T14:48:39.000+02:00</time>
      </trkpt>
      <trkpt lat="48.09066" lon="7.11454">
        <ele>951.8</ele>
        <time>2017-10-21T14:48:41.000+02:00</time>
      </trkpt>
      <trkpt lat="48.09062" lon="7.11461">
        <ele>950.8</ele>
        <time>2017-10-21T14:48:43.000+02:00</time>
      </trkpt>
      <trkpt lat="48.09059" lon="7.11467">
        <ele>949.9</ele>
        <time>2017-10-21T14:48:45.000+02:00</time>
      </trkpt>
      <trkpt lat="48.09057" lon="7.11472">
        <ele>949.2</ele>
        <time>2017-10-21T14:48:47.000+02:00</time>
      </trkpt>
      <trkpt lat="48.09056" lon="7.11477">
        <ele>948.9</ele>
        <time>2017-10-21T14:48:48.000+02:00</time>
      </trkpt>
      <trkpt lat="48.09056" lon="7.11481">
        <ele>948.7</ele>
        <time>2017-10-21T14:48:49.000+02:00</time>
      </trkpt>
      <trkpt lat="48.09056" lon="7.11486">
        <ele>948.6</ele>
        <time>2017-10-21T14:48:51.000+02:00</time>
      </trkpt>
      <trkpt lat="48.09057" lon="7.11491">
        <ele>948.7</ele>
        <time>2017-10-21T14:48:52.000+02:00</time>
      </trkpt>
      <trkpt lat="48.09059" lon="7.11496">
        <ele>948.9</ele>
        <time>2017-10-21T14:48:56.000+02:00</time>
      </trkpt>
      <trkpt lat="48.09062" lon="7.11502">
        <ele>949.1</ele>
        <time>2017-10-21T14:49:02.000+02:00</time>
      </trkpt>
      <trkpt lat="48.09064" lon="7.11506">
        <ele>949.2</ele>
        <time>2017-10-21T14:49:06.000+02:00</time>
      </trkpt>
      <trkpt lat="48.09067" lon="7.1151">
        <ele>949.5</ele>
        <time>2017-10-21T14:49:08.000+02:00</time>
      </trkpt>
      <trkpt lat="48.0907" lon="7.11514">
        <ele>949.6</ele>
        <time>2017-10-21T14:49:09.000+02:00</time>
      </trkpt>
      <trkpt lat="48.09071" lon="7.11517">
        <ele>949.5</ele>
        <time>2017-10-21T14:49:11.000+02:00</time>
      </trkpt>
      <trkpt lat="48.09073" lon="7.11523">
        <ele>949.3</ele>
        <time>2017-10-21T14:49:13.000+02:00</time>
      </trkpt>
      <trkpt lat="48.09074" lon="7.11527">
        <ele>949.2</ele>
        <time>2017-10-21T14:49:15.000+02:00</time>
      </trkpt>
      <trkpt lat="48.09077" lon="7.1153">
        <ele>949.3</ele>
        <time>2017-10-21T14:49:16.000+02:00</time>
      </trkpt>
      <trkpt lat="48.09078" lon="7.11534">
        <ele>949.2</ele>
        <time>2017-10-21T14:49:18.000+02:00</time>
      </trkpt>
      <trkpt lat="48.0908" lon="7.11538">
        <ele>949.2</ele>
        <time>2017-10-21T14:49:20.000+02:00</time>
      </trkpt>
      <trkpt lat="48.09081" lon="7.1154">
        <ele>949.2</ele>
        <time>2017-10-21T14:49:21.000+02:00</time>
      </trkpt>
      <trkpt lat="48.09082" lon="7.11543">
        <ele>949.1</ele>
        <time>2017-10-21T14:49:22.000+02:00</time>
      </trkpt>
      <trkpt lat="48.09082" lon="7.11543">
        <ele>949.2</ele>
        <time>2017-10-21T14:49:22.000+02:00</time>
      </trkpt>
      <trkpt lat="48.09084" lon="7.11546">
        <ele>949</ele>
        <time>2017-10-21T14:49:32.000+02:00</time>
      </trkpt>
      <trkpt lat="48.09086" lon="7.11549">
        <ele>948.7</ele>
        <time>2017-10-21T14:49:33.000+02:00</time>
      </trkpt>
      <trkpt lat="48.09088" lon="7.11553">
        <ele>948.2</ele>
        <time>2017-10-21T14:49:35.000+02:00</time>
      </trkpt>
      <trkpt lat="48.09088" lon="7.11556">
        <ele>947.8</ele>
        <time>2017-10-21T14:49:36.000+02:00</time>
      </trkpt>
      <trkpt lat="48.09087" lon="7.11559">
        <ele>947.6</ele>
        <time>2017-10-21T14:49:37.000+02:00</time>
      </trkpt>
      <trkpt lat="48.09085" lon="7.1156">
        <ele>947.5</ele>
        <time>2017-10-21T14:49:37.000+02:00</time>
      </trkpt>
      <trkpt lat="48.09085" lon="7.11562">
        <ele>947.3</ele>
        <time>2017-10-21T14:49:39.000+02:00</time>
      </trkpt>
      <trkpt lat="48.09084" lon="7.11566">
        <ele>946.9</ele>
        <time>2017-10-21T14:49:40.000+02:00</time>
      </trkpt>
      <trkpt lat="48.09084" lon="7.1157">
        <ele>946.4</ele>
        <time>2017-10-21T14:49:41.000+02:00</time>
      </trkpt>
      <trkpt lat="48.09084" lon="7.11574">
        <ele>946</ele>
        <time>2017-10-21T14:49:44.000+02:00</time>
      </trkpt>
      <trkpt lat="48.09083" lon="7.11577">
        <ele>945.6</ele>
        <time>2017-10-21T14:49:47.000+02:00</time>
      </trkpt>
      <trkpt lat="48.09083" lon="7.1158">
        <ele>945.3</ele>
        <time>2017-10-21T14:49:47.000+02:00</time>
      </trkpt>
      <trkpt lat="48.09083" lon="7.11583">
        <ele>944.9</ele>
        <time>2017-10-21T14:49:51.000+02:00</time>
      </trkpt>
      <trkpt lat="48.09082" lon="7.11585">
        <ele>944.4</ele>
        <time>2017-10-21T14:49:53.000+02:00</time>
      </trkpt>
      <trkpt lat="48.09081" lon="7.11587">
        <ele>943.9</ele>
        <time>2017-10-21T14:49:56.000+02:00</time>
      </trkpt>
      <trkpt lat="48.0908" lon="7.11591">
        <ele>943.2</ele>
        <time>2017-10-21T14:49:58.000+02:00</time>
      </trkpt>
      <trkpt lat="48.09079" lon="7.11593">
        <ele>942.6</ele>
        <time>2017-10-21T14:50:01.000+02:00</time>
      </trkpt>
      <trkpt lat="48.09078" lon="7.11594">
        <ele>942.2</ele>
        <time>2017-10-21T14:50:01.000+02:00</time>
      </trkpt>
      <trkpt lat="48.09076" lon="7.11594">
        <ele>941.9</ele>
        <time>2017-10-21T14:50:03.000+02:00</time>
      </trkpt>
      <trkpt lat="48.09074" lon="7.11594">
        <ele>941.4</ele>
        <time>2017-10-21T14:50:04.000+02:00</time>
      </trkpt>
      <trkpt lat="48.09072" lon="7.11595">
        <ele>940.7</ele>
        <time>2017-10-21T14:50:07.000+02:00</time>
      </trkpt>
      <trkpt lat="48.09069" lon="7.11597">
        <ele>939.8</ele>
        <time>2017-10-21T14:50:09.000+02:00</time>
      </trkpt>
      <trkpt lat="48.09065" lon="7.11598">
        <ele>939</ele>
        <time>2017-10-21T14:50:11.000+02:00</time>
      </trkpt>
      <trkpt lat="48.09061" lon="7.11599">
        <ele>938</ele>
        <time>2017-10-21T14:50:14.000+02:00</time>
      </trkpt>
      <trkpt lat="48.09057" lon="7.11598">
        <ele>937.4</ele>
        <time>2017-10-21T14:50:16.000+02:00</time>
      </trkpt>
      <trkpt lat="48.09053" lon="7.11596">
        <ele>936.9</ele>
        <time>2017-10-21T14:50:17.000+02:00</time>
      </trkpt>
      <trkpt lat="48.09049" lon="7.11595">
        <ele>936.3</ele>
        <time>2017-10-21T14:50:20.000+02:00</time>
      </trkpt>
      <trkpt lat="48.09045" lon="7.11593">
        <ele>935.8</ele>
        <time>2017-10-21T14:50:22.000+02:00</time>
      </trkpt>
      <trkpt lat="48.09041" lon="7.1159">
        <ele>935.3</ele>
        <time>2017-10-21T14:50:24.000+02:00</time>
      </trkpt>
      <trkpt lat="48.09038" lon="7.11587">
        <ele>935.1</ele>
        <time>2017-10-21T14:50:26.000+02:00</time>
      </trkpt>
      <trkpt lat="48.09034" lon="7.11586">
        <ele>934.7</ele>
        <time>2017-10-21T14:50:27.000+02:00</time>
      </trkpt>
      <trkpt lat="48.09031" lon="7.11584">
        <ele>934.2</ele>
        <time>2017-10-21T14:50:29.000+02:00</time>
      </trkpt>
      <trkpt lat="48.09027" lon="7.11583">
        <ele>933.6</ele>
        <time>2017-10-21T14:50:42.000+02:00</time>
      </trkpt>
      <trkpt lat="48.09023" lon="7.11581">
        <ele>932.8</ele>
        <time>2017-10-21T14:50:44.000+02:00</time>
      </trkpt>
      <trkpt lat="48.09018" lon="7.11579">
        <ele>932.1</ele>
        <time>2017-10-21T14:50:46.000+02:00</time>
      </trkpt>
      <trkpt lat="48.09014" lon="7.11578">
        <ele>931.3</ele>
        <time>2017-10-21T14:50:49.000+02:00</time>
      </trkpt>
      <trkpt lat="48.09009" lon="7.11578">
        <ele>930.4</ele>
        <time>2017-10-21T14:50:51.000+02:00</time>
      </trkpt>
      <trkpt lat="48.09005" lon="7.11576">
        <ele>929.6</ele>
        <time>2017-10-21T14:50:53.000+02:00</time>
      </trkpt>
      <trkpt lat="48.09" lon="7.11576">
        <ele>928.7</ele>
        <time>2017-10-21T14:50:56.000+02:00</time>
      </trkpt>
      <trkpt lat="48.08996" lon="7.11575">
        <ele>927.6</ele>
        <time>2017-10-21T14:51:02.000+02:00</time>
      </trkpt>
      <trkpt lat="48.08991" lon="7.11574">
        <ele>926.4</ele>
        <time>2017-10-21T14:51:05.000+02:00</time>
      </trkpt>
      <trkpt lat="48.08986" lon="7.11573">
        <ele>925.2</ele>
        <time>2017-10-21T14:51:07.000+02:00</time>
      </trkpt>
      <trkpt lat="48.08982" lon="7.11573">
        <ele>924.1</ele>
        <time>2017-10-21T14:51:10.000+02:00</time>
      </trkpt>
      <trkpt lat="48.08977" lon="7.11571">
        <ele>923</ele>
        <time>2017-10-21T14:51:11.000+02:00</time>
      </trkpt>
      <trkpt lat="48.08972" lon="7.1157">
        <ele>921.8</ele>
        <time>2017-10-21T14:51:14.000+02:00</time>
      </trkpt>
      <trkpt lat="48.08967" lon="7.11568">
        <ele>920.6</ele>
        <time>2017-10-21T14:51:16.000+02:00</time>
      </trkpt>
      <trkpt lat="48.08962" lon="7.11566">
        <ele>919.4</ele>
        <time>2017-10-21T14:51:19.000+02:00</time>
      </trkpt>
      <trkpt lat="48.08958" lon="7.11565">
        <ele>918.3</ele>
        <time>2017-10-21T14:51:21.000+02:00</time>
      </trkpt>
      <trkpt lat="48.08954" lon="7.11563">
        <ele>917.3</ele>
        <time>2017-10-21T14:51:23.000+02:00</time>
      </trkpt>
      <trkpt lat="48.08951" lon="7.1156">
        <ele>916.7</ele>
        <time>2017-10-21T14:51:25.000+02:00</time>
      </trkpt>
      <trkpt lat="48.08948" lon="7.11558">
        <ele>916.1</ele>
        <time>2017-10-21T14:51:27.000+02:00</time>
      </trkpt>
      <trkpt lat="48.08945" lon="7.11555">
        <ele>915.4</ele>
        <time>2017-10-21T14:51:28.000+02:00</time>
      </trkpt>
      <trkpt lat="48.08942" lon="7.11552">
        <ele>914.8</ele>
        <time>2017-10-21T14:51:30.000+02:00</time>
      </trkpt>
      <trkpt lat="48.08939" lon="7.11549">
        <ele>914.2</ele>
        <time>2017-10-21T14:51:32.000+02:00</time>
      </trkpt>
      <trkpt lat="48.08935" lon="7.11546">
        <ele>913.4</ele>
        <time>2017-10-21T14:51:33.000+02:00</time>
      </trkpt>
      <trkpt lat="48.08933" lon="7.11545">
        <ele>912.9</ele>
        <time>2017-10-21T14:51:34.000+02:00</time>
      </trkpt>
      <trkpt lat="48.08931" lon="7.11543">
        <ele>912.5</ele>
        <time>2017-10-21T14:51:35.000+02:00</time>
      </trkpt>
      <trkpt lat="48.0893" lon="7.11542">
        <ele>912.3</ele>
        <time>2017-10-21T14:51:36.000+02:00</time>
      </trkpt>
      <trkpt lat="48.08931" lon="7.11543">
        <ele>912.3</ele>
        <time>2017-10-21T14:51:36.000+02:00</time>
      </trkpt>
      <trkpt lat="48.08929" lon="7.11541">
        <ele>912.1</ele>
        <time>2017-10-21T14:51:36.000+02:00</time>
      </trkpt>
      <trkpt lat="48.08929" lon="7.11541">
        <ele>912.1</ele>
        <time>2017-10-21T14:51:36.000+02:00</time>
      </trkpt>
      <trkpt lat="48.08929" lon="7.11541">
        <ele>912.1</ele>
        <time>2017-10-21T14:51:36.000+02:00</time>
      </trkpt>
      <trkpt lat="48.08928" lon="7.1154">
        <ele>911.9</ele>
        <time>2017-10-21T14:51:37.000+02:00</time>
      </trkpt>
      <trkpt lat="48.08929" lon="7.1154">
        <ele>912</ele>
        <time>2017-10-21T14:51:37.000+02:00</time>
      </trkpt>
      <trkpt lat="48.08927" lon="7.11539">
        <ele>911.6</ele>
        <time>2017-10-21T14:51:38.000+02:00</time>
      </trkpt>
      <trkpt lat="48.08926" lon="7.11539">
        <ele>911.2</ele>
        <time>2017-10-21T14:51:39.000+02:00</time>
      </trkpt>
      <trkpt lat="48.08923" lon="7.1154">
        <ele>910.5</ele>
        <time>2017-10-21T14:51:40.000+02:00</time>
      </trkpt>
      <trkpt lat="48.0892" lon="7.11541">
        <ele>909.6</ele>
        <time>2017-10-21T14:51:42.000+02:00</time>
      </trkpt>
      <trkpt lat="48.08917" lon="7.11541">
        <ele>908.5</ele>
        <time>2017-10-21T14:51:43.000+02:00</time>
      </trkpt>
      <trkpt lat="48.08913" lon="7.1154">
        <ele>908.1</ele>
        <time>2017-10-21T14:51:55.000+02:00</time>
      </trkpt>
      <trkpt lat="48.0891" lon="7.11538">
        <ele>907.6</ele>
        <time>2017-10-21T14:51:56.000+02:00</time>
      </trkpt>
      <trkpt lat="48.08906" lon="7.11537">
        <ele>906.9</ele>
        <time>2017-10-21T14:51:58.000+02:00</time>
      </trkpt>
      <trkpt lat="48.08901" lon="7.11536">
        <ele>906.2</ele>
        <time>2017-10-21T14:52:00.000+02:00</time>
      </trkpt>
      <trkpt lat="48.08896" lon="7.11535">
        <ele>905.4</ele>
        <time>2017-10-21T14:52:02.000+02:00</time>
      </trkpt>
      <trkpt lat="48.08891" lon="7.11534">
        <ele>904.6</ele>
        <time>2017-10-21T14:52:04.000+02:00</time>
      </trkpt>
      <trkpt lat="48.08886" lon="7.11534">
        <ele>903.7</ele>
        <time>2017-10-21T14:52:06.000+02:00</time>
      </trkpt>
      <trkpt lat="48.08881" lon="7.11534">
        <ele>902.8</ele>
        <time>2017-10-21T14:52:09.000+02:00</time>
      </trkpt>
      <trkpt lat="48.08876" lon="7.11536">
        <ele>901.9</ele>
        <time>2017-10-21T14:52:11.000+02:00</time>
      </trkpt>
      <trkpt lat="48.08871" lon="7.11538">
        <ele>900.9</ele>
        <time>2017-10-21T14:52:14.000+02:00</time>
      </trkpt>
      <trkpt lat="48.08866" lon="7.1154">
        <ele>899.9</ele>
        <time>2017-10-21T14:52:16.000+02:00</time>
      </trkpt>
      <trkpt lat="48.0886" lon="7.11544">
        <ele>899</ele>
        <time>2017-10-21T14:52:18.000+02:00</time>
      </trkpt>
      <trkpt lat="48.08855" lon="7.11548">
        <ele>898</ele>
        <time>2017-10-21T14:52:21.000+02:00</time>
      </trkpt>
      <trkpt lat="48.0884" lon="7.11563">
        <ele>895.3</ele>
        <time>2017-10-21T14:52:27.000+02:00</time>
      </trkpt>
      <trkpt lat="48.08833" lon="7.11573">
        <ele>894</ele>
        <time>2017-10-21T14:52:39.000+02:00</time>
      </trkpt>
      <trkpt lat="48.0877" lon="7.11621">
        <ele>887.7</ele>
        <time>2017-10-21T14:53:03.000+02:00</time>
      </trkpt>
      <trkpt lat="48.08757" lon="7.11667">
        <ele>889.1</ele>
        <time>2017-10-21T14:53:17.000+02:00</time>
      </trkpt>
      <trkpt lat="48.08707" lon="7.11716">
        <ele>895.3</ele>
        <time>2017-10-21T14:53:50.000+02:00</time>
      </trkpt>
      <trkpt lat="48.08697" lon="7.11724">
        <ele>896.4</ele>
        <time>2017-10-21T14:53:56.000+02:00</time>
      </trkpt>
      <trkpt lat="48.08665" lon="7.11728">
        <ele>899.3</ele>
        <time>2017-10-21T14:54:25.000+02:00</time>
      </trkpt>
      <trkpt lat="48.0865" lon="7.11734">
        <ele>902.1</ele>
        <time>2017-10-21T14:54:33.000+02:00</time>
      </trkpt>
      <trkpt lat="48.08635" lon="7.11742">
        <ele>905</ele>
        <time>2017-10-21T14:54:40.000+02:00</time>
      </trkpt>
      <trkpt lat="48.08611" lon="7.11772">
        <ele>909.5</ele>
        <time>2017-10-21T14:54:59.000+02:00</time>
      </trkpt>
      <trkpt lat="48.08601" lon="7.11789">
        <ele>911.1</ele>
        <time>2017-10-21T14:55:05.000+02:00</time>
      </trkpt>
      <trkpt lat="48.08594" lon="7.11796">
        <ele>912.1</ele>
        <time>2017-10-21T14:55:09.000+02:00</time>
      </trkpt>
      <trkpt lat="48.08516" lon="7.11844">
        <ele>923.5</ele>
        <time>2017-10-21T14:56:06.000+02:00</time>
      </trkpt>
      <trkpt lat="48.08495" lon="7.11855">
        <ele>925.9</ele>
        <time>2017-10-21T14:56:23.000+02:00</time>
      </trkpt>
      <trkpt lat="48.08474" lon="7.11862">
        <ele>925.6</ele>
        <time>2017-10-21T14:56:31.000+02:00</time>
      </trkpt>
      <trkpt lat="48.08464" lon="7.11867">
        <ele>925.6</ele>
        <time>2017-10-21T14:56:36.000+02:00</time>
      </trkpt>
      <trkpt lat="48.08429" lon="7.11912">
        <ele>927.5</ele>
        <time>2017-10-21T14:56:55.000+02:00</time>
      </trkpt>
      <trkpt lat="48.08407" lon="7.11952">
        <ele>930.8</ele>
        <time>2017-10-21T14:57:11.000+02:00</time>
      </trkpt>
      <trkpt lat="48.08383" lon="7.11986">
        <ele>933.1</ele>
        <time>2017-10-21T14:57:25.000+02:00</time>
      </trkpt>
      <trkpt lat="48.08357" lon="7.12017">
        <ele>937.1</ele>
        <time>2017-10-21T14:58:02.000+02:00</time>
      </trkpt>
      <trkpt lat="48.08334" lon="7.12041">
        <ele>941.8</ele>
        <time>2017-10-21T14:58:18.000+02:00</time>
      </trkpt>
      <trkpt lat="48.08319" lon="7.12051">
        <ele>943.3</ele>
        <time>2017-10-21T14:58:24.000+02:00</time>
      </trkpt>
      <trkpt lat="48.08305" lon="7.12057">
        <ele>943.9</ele>
        <time>2017-10-21T14:58:31.000+02:00</time>
      </trkpt>
      <trkpt lat="48.08252" lon="7.12073">
        <ele>945.1</ele>
        <time>2017-10-21T14:58:55.000+02:00</time>
      </trkpt>
      <trkpt lat="48.08235" lon="7.12081">
        <ele>945</ele>
        <time>2017-10-21T14:59:07.000+02:00</time>
      </trkpt>
      <trkpt lat="48.08165" lon="7.1214">
        <ele>945.5</ele>
        <time>2017-10-21T14:59:39.000+02:00</time>
      </trkpt>
      <trkpt lat="48.08135" lon="7.12171">
        <ele>945.1</ele>
        <time>2017-10-21T15:00:13.000+02:00</time>
      </trkpt>
      <trkpt lat="48.08117" lon="7.12186">
        <ele>943.6</ele>
        <time>2017-10-21T15:00:20.000+02:00</time>
      </trkpt>
      <trkpt lat="48.08069" lon="7.12242">
        <ele>942.7</ele>
        <time>2017-10-21T15:00:41.000+02:00</time>
      </trkpt>
      <trkpt lat="48.08043" lon="7.12281">
        <ele>941.2</ele>
        <time>2017-10-21T15:00:57.000+02:00</time>
      </trkpt>
      <trkpt lat="48.08037" lon="7.12295">
        <ele>940.8</ele>
        <time>2017-10-21T15:01:02.000+02:00</time>
      </trkpt>
      <trkpt lat="48.08031" lon="7.1232">
        <ele>940.8</ele>
        <time>2017-10-21T15:01:09.000+02:00</time>
      </trkpt>
      <trkpt lat="48.0804" lon="7.12427">
        <ele>940.7</ele>
        <time>2017-10-21T15:01:36.000+02:00</time>
      </trkpt>
      <trkpt lat="48.08047" lon="7.12474">
        <ele>938.3</ele>
        <time>2017-10-21T15:01:48.000+02:00</time>
      </trkpt>
      <trkpt lat="48.08047" lon="7.12482">
        <ele>937.8</ele>
        <time>2017-10-21T15:01:50.000+02:00</time>
      </trkpt>
      <trkpt lat="48.08043" lon="7.12496">
        <ele>936.8</ele>
        <time>2017-10-21T15:01:55.000+02:00</time>
      </trkpt>
      <trkpt lat="48.08036" lon="7.12512">
        <ele>936.3</ele>
        <time>2017-10-21T15:02:00.000+02:00</time>
      </trkpt>
      <trkpt lat="48.08" lon="7.12572">
        <ele>936.9</ele>
        <time>2017-10-21T15:02:22.000+02:00</time>
      </trkpt>
      <trkpt lat="48.07994" lon="7.12579">
        <ele>937.1</ele>
        <time>2017-10-21T15:02:25.000+02:00</time>
      </trkpt>
      <trkpt lat="48.07985" lon="7.12583">
        <ele>937.5</ele>
        <time>2017-10-21T15:02:29.000+02:00</time>
      </trkpt>
      <trkpt lat="48.07976" lon="7.12591">
        <ele>938.5</ele>
        <time>2017-10-21T15:02:46.000+02:00</time>
      </trkpt>
      <trkpt lat="48.07946" lon="7.12622">
        <ele>942.9</ele>
        <time>2017-10-21T15:03:04.000+02:00</time>
      </trkpt>
      <trkpt lat="48.07928" lon="7.12618">
        <ele>943.5</ele>
        <time>2017-10-21T15:03:11.000+02:00</time>
      </trkpt>
      <trkpt lat="48.07921" lon="7.1262">
        <ele>944.2</ele>
        <time>2017-10-21T15:03:14.000+02:00</time>
      </trkpt>
      <trkpt lat="48.07905" lon="7.1263">
        <ele>945.1</ele>
        <time>2017-10-21T15:03:22.000+02:00</time>
      </trkpt>
      <trkpt lat="48.07897" lon="7.12631">
        <ele>944.9</ele>
        <time>2017-10-21T15:03:26.000+02:00</time>
      </trkpt>
      <trkpt lat="48.07893" lon="7.12635">
        <ele>945.2</ele>
        <time>2017-10-21T15:03:27.000+02:00</time>
      </trkpt>
      <trkpt lat="48.07881" lon="7.12659">
        <ele>947.4</ele>
        <time>2017-10-21T15:03:36.000+02:00</time>
      </trkpt>
      <trkpt lat="48.07873" lon="7.12686">
        <ele>948.3</ele>
        <time>2017-10-21T15:03:53.000+02:00</time>
      </trkpt>
      <trkpt lat="48.07863" lon="7.12707">
        <ele>947.7</ele>
        <time>2017-10-21T15:03:59.000+02:00</time>
      </trkpt>
      <trkpt lat="48.07851" lon="7.12749">
        <ele>946</ele>
        <time>2017-10-21T15:04:09.000+02:00</time>
      </trkpt>
      <trkpt lat="48.07852" lon="7.12767">
        <ele>946</ele>
        <time>2017-10-21T15:04:16.000+02:00</time>
      </trkpt>
      <trkpt lat="48.07852" lon="7.12766">
        <ele>946</ele>
        <time>2017-10-21T15:04:16.000+02:00</time>
      </trkpt>
      <trkpt lat="48.07853" lon="7.12806">
        <ele>946</ele>
        <time>2017-10-21T15:04:27.000+02:00</time>
      </trkpt>
      <trkpt lat="48.07852" lon="7.12818">
        <ele>945.7</ele>
        <time>2017-10-21T15:04:31.000+02:00</time>
      </trkpt>
      <trkpt lat="48.07851" lon="7.12825">
        <ele>945.6</ele>
        <time>2017-10-21T15:04:32.000+02:00</time>
      </trkpt>
      <trkpt lat="48.07851" lon="7.12835">
        <ele>945.5</ele>
        <time>2017-10-21T15:04:35.000+02:00</time>
      </trkpt>
      <trkpt lat="48.0785" lon="7.12845">
        <ele>945.6</ele>
        <time>2017-10-21T15:04:38.000+02:00</time>
      </trkpt>
      <trkpt lat="48.07801" lon="7.12898">
        <ele>941.4</ele>
        <time>2017-10-21T15:04:59.000+02:00</time>
      </trkpt>
      <trkpt lat="48.07801" lon="7.12904">
        <ele>941.7</ele>
        <time>2017-10-21T15:05:03.000+02:00</time>
      </trkpt>
      <trkpt lat="48.07811" lon="7.12986">
        <ele>948.6</ele>
        <time>2017-10-21T15:05:35.000+02:00</time>
      </trkpt>
      <trkpt lat="48.07808" lon="7.12992">
        <ele>948.9</ele>
        <time>2017-10-21T15:05:37.000+02:00</time>
      </trkpt>
      <trkpt lat="48.07808" lon="7.12999">
        <ele>949.4</ele>
        <time>2017-10-21T15:05:39.000+02:00</time>
      </trkpt>
      <trkpt lat="48.07765" lon="7.13062">
        <ele>952.5</ele>
        <time>2017-10-21T15:06:09.000+02:00</time>
      </trkpt>
      <trkpt lat="48.07772" lon="7.13218">
        <ele>964</ele>
        <time>2017-10-21T15:07:08.000+02:00</time>
      </trkpt>
      <trkpt lat="48.07771" lon="7.13349">
        <ele>976.6</ele>
        <time>2017-10-21T15:08:12.000+02:00</time>
      </trkpt>
      <trkpt lat="48.07752" lon="7.13377">
        <ele>977.3</ele>
        <time>2017-10-21T15:08:23.000+02:00</time>
      </trkpt>
      <trkpt lat="48.07776" lon="7.1339">
        <ele>980.5</ele>
        <time>2017-10-21T15:08:34.000+02:00</time>
      </trkpt>
      <trkpt lat="48.07779" lon="7.13403">
        <ele>981.9</ele>
        <time>2017-10-21T15:08:40.000+02:00</time>
      </trkpt>
      <trkpt lat="48.07789" lon="7.13483">
        <ele>991.2</ele>
        <time>2017-10-21T15:09:18.000+02:00</time>
      </trkpt>
      <trkpt lat="48.07799" lon="7.13563">
        <ele>996</ele>
        <time>2017-10-21T15:09:47.000+02:00</time>
      </trkpt>
      <trkpt lat="48.0782" lon="7.13615">
        <ele>1002.2</ele>
        <time>2017-10-21T15:10:05.000+02:00</time>
      </trkpt>
      <trkpt lat="48.07833" lon="7.13674">
        <ele>1005.8</ele>
        <time>2017-10-21T15:10:30.000+02:00</time>
      </trkpt>
      <trkpt lat="48.07839" lon="7.13725">
        <ele>1007.2</ele>
        <time>2017-10-21T15:11:17.000+02:00</time>
      </trkpt>
      <trkpt lat="48.07832" lon="7.13832">
        <ele>1004.5</ele>
        <time>2017-10-21T15:11:43.000+02:00</time>
      </trkpt>
      <trkpt lat="48.07822" lon="7.13897">
        <ele>1003.1</ele>
        <time>2017-10-21T15:12:01.000+02:00</time>
      </trkpt>
      <trkpt lat="48.07822" lon="7.1394">
        <ele>1002.3</ele>
        <time>2017-10-21T15:12:11.000+02:00</time>
      </trkpt>
      <trkpt lat="48.07828" lon="7.13981">
        <ele>1001.5</ele>
        <time>2017-10-21T15:12:21.000+02:00</time>
      </trkpt>
      <trkpt lat="48.07842" lon="7.14025">
        <ele>1000.4</ele>
        <time>2017-10-21T15:12:58.000+02:00</time>
      </trkpt>
      <trkpt lat="48.07905" lon="7.14118">
        <ele>1004.4</ele>
        <time>2017-10-21T15:13:28.000+02:00</time>
      </trkpt>
      <trkpt lat="48.07936" lon="7.1417">
        <ele>1001.8</ele>
        <time>2017-10-21T15:13:48.000+02:00</time>
      </trkpt>
      <trkpt lat="48.07935" lon="7.14195">
        <ele>998.7</ele>
        <time>2017-10-21T15:13:53.000+02:00</time>
      </trkpt>
      <trkpt lat="48.07926" lon="7.14227">
        <ele>994.7</ele>
        <time>2017-10-21T15:14:02.000+02:00</time>
      </trkpt>
      <trkpt lat="48.07915" lon="7.14282">
        <ele>987.8</ele>
        <time>2017-10-21T15:14:34.000+02:00</time>
      </trkpt>
      <trkpt lat="48.0791" lon="7.14334">
        <ele>981.1</ele>
        <time>2017-10-21T15:14:45.000+02:00</time>
      </trkpt>
      <trkpt lat="48.07913" lon="7.14355">
        <ele>980.8</ele>
        <time>2017-10-21T15:14:51.000+02:00</time>
      </trkpt>
      <trkpt lat="48.07921" lon="7.14354">
        <ele>981.2</ele>
        <time>2017-10-21T15:14:59.000+02:00</time>
      </trkpt>
      <trkpt lat="48.07919" lon="7.14379">
        <ele>980.3</ele>
        <time>2017-10-21T15:15:05.000+02:00</time>
      </trkpt>
      <trkpt lat="48.0792" lon="7.14386">
        <ele>980.1</ele>
        <time>2017-10-21T15:15:07.000+02:00</time>
      </trkpt>
      <trkpt lat="48.07932" lon="7.14424">
        <ele>979.2</ele>
        <time>2017-10-21T15:15:17.000+02:00</time>
      </trkpt>
      <trkpt lat="48.07949" lon="7.14466">
        <ele>980.9</ele>
        <time>2017-10-21T15:15:31.000+02:00</time>
      </trkpt>
      <trkpt lat="48.0795" lon="7.14495">
        <ele>982.3</ele>
        <time>2017-10-21T15:15:40.000+02:00</time>
      </trkpt>
      <trkpt lat="48.07944" lon="7.14551">
        <ele>986.9</ele>
        <time>2017-10-21T15:16:03.000+02:00</time>
      </trkpt>
      <trkpt lat="48.07943" lon="7.14581">
        <ele>989.1</ele>
        <time>2017-10-21T15:16:12.000+02:00</time>
      </trkpt>
      <trkpt lat="48.07951" lon="7.14641">
        <ele>991.9</ele>
        <time>2017-10-21T15:16:35.000+02:00</time>
      </trkpt>
      <trkpt lat="48.07961" lon="7.14696">
        <ele>994.4</ele>
        <time>2017-10-21T15:16:56.000+02:00</time>
      </trkpt>
      <trkpt lat="48.07963" lon="7.14723">
        <ele>996.4</ele>
        <time>2017-10-21T15:17:04.000+02:00</time>
      </trkpt>
      <trkpt lat="48.0796" lon="7.14777">
        <ele>998.9</ele>
        <time>2017-10-21T15:17:22.000+02:00</time>
      </trkpt>
      <trkpt lat="48.0795" lon="7.14812">
        <ele>999.5</ele>
        <time>2017-10-21T15:17:33.000+02:00</time>
      </trkpt>
      <trkpt lat="48.0795" lon="7.14816">
        <ele>999.5</ele>
        <time>2017-10-21T15:17:34.000+02:00</time>
      </trkpt>
      <trkpt lat="48.07954" lon="7.14914">
        <ele>995.1</ele>
        <time>2017-10-21T15:17:57.000+02:00</time>
      </trkpt>
      <trkpt lat="48.07953" lon="7.14943">
        <ele>993.6</ele>
        <time>2017-10-21T15:18:05.000+02:00</time>
      </trkpt>
      <trkpt lat="48.0795" lon="7.14964">
        <ele>992.4</ele>
        <time>2017-10-21T15:18:10.000+02:00</time>
      </trkpt>
      <trkpt lat="48.07942" lon="7.14983">
        <ele>991.3</ele>
        <time>2017-10-21T15:18:15.000+02:00</time>
      </trkpt>
      <trkpt lat="48.07927" lon="7.15029">
        <ele>988.1</ele>
        <time>2017-10-21T15:18:28.000+02:00</time>
      </trkpt>
      <trkpt lat="48.07927" lon="7.1506">
        <ele>986</ele>
        <time>2017-10-21T15:18:35.000+02:00</time>
      </trkpt>
      <trkpt lat="48.07932" lon="7.15091">
        <ele>984.7</ele>
        <time>2017-10-21T15:18:43.000+02:00</time>
      </trkpt>
      <trkpt lat="48.07957" lon="7.15184">
        <ele>986.6</ele>
        <time>2017-10-21T15:19:11.000+02:00</time>
      </trkpt>
      <trkpt lat="48.0797" lon="7.15249">
        <ele>987.3</ele>
        <time>2017-10-21T15:19:29.000+02:00</time>
      </trkpt>
      <trkpt lat="48.07983" lon="7.15314">
        <ele>985</ele>
        <time>2017-10-21T15:19:45.000+02:00</time>
      </trkpt>
      <trkpt lat="48.07985" lon="7.15346">
        <ele>983.3</ele>
        <time>2017-10-21T15:19:54.000+02:00</time>
      </trkpt>
      <trkpt lat="48.07983" lon="7.1536">
        <ele>982.1</ele>
        <time>2017-10-21T15:19:57.000+02:00</time>
      </trkpt>
      <trkpt lat="48.07977" lon="7.15382">
        <ele>980.1</ele>
        <time>2017-10-21T15:20:02.000+02:00</time>
      </trkpt>
      <trkpt lat="48.07948" lon="7.15438">
        <ele>974.1</ele>
        <time>2017-10-21T15:20:20.000+02:00</time>
      </trkpt>
      <trkpt lat="48.07936" lon="7.15476">
        <ele>971.6</ele>
        <time>2017-10-21T15:20:30.000+02:00</time>
      </trkpt>
      <trkpt lat="48.07933" lon="7.15497">
        <ele>970.5</ele>
        <time>2017-10-21T15:20:36.000+02:00</time>
      </trkpt>
      <trkpt lat="48.07933" lon="7.15518">
        <ele>969.3</ele>
        <time>2017-10-21T15:20:43.000+02:00</time>
      </trkpt>
      <trkpt lat="48.07943" lon="7.15555">
        <ele>966.9</ele>
        <time>2017-10-21T15:20:52.000+02:00</time>
      </trkpt>
      <trkpt lat="48.07974" lon="7.15642">
        <ele>962.8</ele>
        <time>2017-10-21T15:21:14.000+02:00</time>
      </trkpt>
      <trkpt lat="48.07973" lon="7.15676">
        <ele>962.7</ele>
        <time>2017-10-21T15:21:23.000+02:00</time>
      </trkpt>
      <trkpt lat="48.07974" lon="7.15699">
        <ele>963.8</ele>
        <time>2017-10-21T15:21:31.000+02:00</time>
      </trkpt>
      <trkpt lat="48.0797" lon="7.15778">
        <ele>967.2</ele>
        <time>2017-10-21T15:21:55.000+02:00</time>
      </trkpt>
      <trkpt lat="48.07966" lon="7.15793">
        <ele>967.6</ele>
        <time>2017-10-21T15:21:59.000+02:00</time>
      </trkpt>
      <trkpt lat="48.07947" lon="7.1584">
        <ele>967.3</ele>
        <time>2017-10-21T15:22:15.000+02:00</time>
      </trkpt>
      <trkpt lat="48.0794" lon="7.15863">
        <ele>966.4</ele>
        <time>2017-10-21T15:22:22.000+02:00</time>
      </trkpt>
      <trkpt lat="48.07927" lon="7.15928">
        <ele>963.5</ele>
        <time>2017-10-21T15:22:37.000+02:00</time>
      </trkpt>
      <trkpt lat="48.07894" lon="7.16026">
        <ele>948.3</ele>
        <time>2017-10-21T15:23:25.000+02:00</time>
      </trkpt>
      <trkpt lat="48.07881" lon="7.16055">
        <ele>943.5</ele>
        <time>2017-10-21T15:23:33.000+02:00</time>
      </trkpt>
      <trkpt lat="48.0788" lon="7.16073">
        <ele>944.1</ele>
        <time>2017-10-21T15:23:38.000+02:00</time>
      </trkpt>
      <trkpt lat="48.07874" lon="7.16091">
        <ele>942.5</ele>
        <time>2017-10-21T15:23:47.000+02:00</time>
      </trkpt>
      <trkpt lat="48.07866" lon="7.1609">
        <ele>938.9</ele>
        <time>2017-10-21T15:23:54.000+02:00</time>
      </trkpt>
      <trkpt lat="48.07858" lon="7.16097">
        <ele>936</ele>
        <time>2017-10-21T15:23:59.000+02:00</time>
      </trkpt>
      <trkpt lat="48.07846" lon="7.16112">
        <ele>932.2</ele>
        <time>2017-10-21T15:24:04.000+02:00</time>
      </trkpt>
      <trkpt lat="48.07795" lon="7.16194">
        <ele>920.6</ele>
        <time>2017-10-21T15:24:45.000+02:00</time>
      </trkpt>
      <trkpt lat="48.07791" lon="7.16195">
        <ele>919.1</ele>
        <time>2017-10-21T15:24:47.000+02:00</time>
      </trkpt>
      <trkpt lat="48.07789" lon="7.16185">
        <ele>917.2</ele>
        <time>2017-10-21T15:24:50.000+02:00</time>
      </trkpt>
      <trkpt lat="48.07788" lon="7.16154">
        <ele>912.9</ele>
        <time>2017-10-21T15:25:09.000+02:00</time>
      </trkpt>
      <trkpt lat="48.07766" lon="7.16185">
        <ele>908.1</ele>
        <time>2017-10-21T15:25:23.000+02:00</time>
      </trkpt>
      <trkpt lat="48.07736" lon="7.1622">
        <ele>903</ele>
        <time>2017-10-21T15:26:00.000+02:00</time>
      </trkpt>
      <trkpt lat="48.07704" lon="7.16248">
        <ele>897.3</ele>
        <time>2017-10-21T15:26:13.000+02:00</time>
      </trkpt>
      <trkpt lat="48.07688" lon="7.16257">
        <ele>893.6</ele>
        <time>2017-10-21T15:26:26.000+02:00</time>
      </trkpt>
      <trkpt lat="48.07614" lon="7.16311">
        <ele>880.2</ele>
        <time>2017-10-21T15:27:05.000+02:00</time>
      </trkpt>
      <trkpt lat="48.07602" lon="7.16331">
        <ele>878.2</ele>
        <time>2017-10-21T15:27:13.000+02:00</time>
      </trkpt>
      <trkpt lat="48.07599" lon="7.16338">
        <ele>877.5</ele>
        <time>2017-10-21T15:27:17.000+02:00</time>
      </trkpt>
      <trkpt lat="48.07558" lon="7.16338">
        <ele>868.4</ele>
        <time>2017-10-21T15:27:45.000+02:00</time>
      </trkpt>
      <trkpt lat="48.07542" lon="7.16335">
        <ele>865.5</ele>
        <time>2017-10-21T15:27:51.000+02:00</time>
      </trkpt>
      <trkpt lat="48.07531" lon="7.16335">
        <ele>863.5</ele>
        <time>2017-10-21T15:27:54.000+02:00</time>
      </trkpt>
      <trkpt lat="48.07514" lon="7.16342">
        <ele>860.3</ele>
        <time>2017-10-21T15:28:02.000+02:00</time>
      </trkpt>
      <trkpt lat="48.07493" lon="7.16356">
        <ele>857.1</ele>
        <time>2017-10-21T15:28:14.000+02:00</time>
      </trkpt>
      <trkpt lat="48.07473" lon="7.16365">
        <ele>855.7</ele>
        <time>2017-10-21T15:28:21.000+02:00</time>
      </trkpt>
      <trkpt lat="48.07466" lon="7.1637">
        <ele>855.3</ele>
        <time>2017-10-21T15:28:24.000+02:00</time>
      </trkpt>
      <trkpt lat="48.07469" lon="7.1639">
        <ele>855</ele>
        <time>2017-10-21T15:28:30.000+02:00</time>
      </trkpt>
      <trkpt lat="48.07476" lon="7.16422">
        <ele>854.6</ele>
        <time>2017-10-21T15:28:38.000+02:00</time>
      </trkpt>
      <trkpt lat="48.075" lon="7.1651">
        <ele>851.6</ele>
        <time>2017-10-21T15:29:02.000+02:00</time>
      </trkpt>
      <trkpt lat="48.07533" lon="7.16586">
        <ele>852.3</ele>
        <time>2017-10-21T15:29:24.000+02:00</time>
      </trkpt>
      <trkpt lat="48.07561" lon="7.16665">
        <ele>849.6</ele>
        <time>2017-10-21T15:29:48.000+02:00</time>
      </trkpt>
      <trkpt lat="48.07573" lon="7.16694">
        <ele>847.5</ele>
        <time>2017-10-21T15:30:04.000+02:00</time>
      </trkpt>
      <trkpt lat="48.07587" lon="7.16721">
        <ele>846.8</ele>
        <time>2017-10-21T15:30:43.000+02:00</time>
      </trkpt>
      <trkpt lat="48.07607" lon="7.16776">
        <ele>846.6</ele>
        <time>2017-10-21T15:30:58.000+02:00</time>
      </trkpt>
      <trkpt lat="48.07623" lon="7.1687">
        <ele>845.1</ele>
        <time>2017-10-21T15:31:21.000+02:00</time>
      </trkpt>
      <trkpt lat="48.07632" lon="7.16946">
        <ele>844</ele>
        <time>2017-10-21T15:31:39.000+02:00</time>
      </trkpt>
      <trkpt lat="48.07641" lon="7.16995">
        <ele>843.3</ele>
        <time>2017-10-21T15:31:54.000+02:00</time>
      </trkpt>
      <trkpt lat="48.07647" lon="7.17015">
        <ele>842.8</ele>
        <time>2017-10-21T15:32:06.000+02:00</time>
      </trkpt>
      <trkpt lat="48.07669" lon="7.17074">
        <ele>841.2</ele>
        <time>2017-10-21T15:32:36.000+02:00</time>
      </trkpt>
      <trkpt lat="48.07689" lon="7.17108">
        <ele>843.4</ele>
        <time>2017-10-21T15:32:48.000+02:00</time>
      </trkpt>
      <trkpt lat="48.07692" lon="7.17147">
        <ele>838.4</ele>
        <time>2017-10-21T15:32:59.000+02:00</time>
      </trkpt>
      <trkpt lat="48.07725" lon="7.1724">
        <ele>837.1</ele>
        <time>2017-10-21T15:33:23.000+02:00</time>
      </trkpt>
      <trkpt lat="48.07758" lon="7.17333">
        <ele>838.5</ele>
        <time>2017-10-21T15:33:55.000+02:00</time>
      </trkpt>
      <trkpt lat="48.07761" lon="7.17348">
        <ele>840</ele>
        <time>2017-10-21T15:34:04.000+02:00</time>
      </trkpt>
      <trkpt lat="48.07761" lon="7.17347">
        <ele>840</ele>
        <time>2017-10-21T15:34:04.000+02:00</time>
      </trkpt>
      <trkpt lat="48.07761" lon="7.17358">
        <ele>840.2</ele>
        <time>2017-10-21T15:34:12.000+02:00</time>
      </trkpt>
      <trkpt lat="48.07757" lon="7.1737">
        <ele>838.8</ele>
        <time>2017-10-21T15:34:17.000+02:00</time>
      </trkpt>
      <trkpt lat="48.07736" lon="7.17409">
        <ele>830.9</ele>
        <time>2017-10-21T15:34:57.000+02:00</time>
      </trkpt>
      <trkpt lat="48.07724" lon="7.17454">
        <ele>831.1</ele>
        <time>2017-10-21T15:35:10.000+02:00</time>
      </trkpt>
      <trkpt lat="48.07681" lon="7.17509">
        <ele>822.7</ele>
        <time>2017-10-21T15:35:31.000+02:00</time>
      </trkpt>
      <trkpt lat="48.07663" lon="7.17546">
        <ele>821.5</ele>
        <time>2017-10-21T15:36:07.000+02:00</time>
      </trkpt>
      <trkpt lat="48.07654" lon="7.17578">
        <ele>822</ele>
        <time>2017-10-21T15:36:36.000+02:00</time>
      </trkpt>
      <trkpt lat="48.07651" lon="7.17596">
        <ele>822.3</ele>
        <time>2017-10-21T15:36:42.000+02:00</time>
      </trkpt>
      <trkpt lat="48.07646" lon="7.17668">
        <ele>825.7</ele>
        <time>2017-10-21T15:37:11.000+02:00</time>
      </trkpt>
      <trkpt lat="48.07649" lon="7.17692">
        <ele>828.3</ele>
        <time>2017-10-21T15:37:17.000+02:00</time>
      </trkpt>
      <trkpt lat="48.07645" lon="7.17725">
        <ele>828.5</ele>
        <time>2017-10-21T15:37:26.000+02:00</time>
      </trkpt>
      <trkpt lat="48.07626" lon="7.178">
        <ele>827.7</ele>
        <time>2017-10-21T15:37:50.000+02:00</time>
      </trkpt>
      <trkpt lat="48.07624" lon="7.1783">
        <ele>829.8</ele>
        <time>2017-10-21T15:37:59.000+02:00</time>
      </trkpt>
      <trkpt lat="48.07629" lon="7.17862">
        <ele>830.2</ele>
        <time>2017-10-21T15:38:09.000+02:00</time>
      </trkpt>
      <trkpt lat="48.07666" lon="7.17965">
        <ele>829.9</ele>
        <time>2017-10-21T15:38:36.000+02:00</time>
      </trkpt>
      <trkpt lat="48.07671" lon="7.17975">
        <ele>829.5</ele>
        <time>2017-10-21T15:38:57.000+02:00</time>
      </trkpt>
      <trkpt lat="48.07724" lon="7.18044">
        <ele>829.8</ele>
        <time>2017-10-21T15:39:21.000+02:00</time>
      </trkpt>
      <trkpt lat="48.0775" lon="7.18071">
        <ele>831.1</ele>
        <time>2017-10-21T15:39:47.000+02:00</time>
      </trkpt>
      <trkpt lat="48.07757" lon="7.18075">
        <ele>831.3</ele>
        <time>2017-10-21T15:39:49.000+02:00</time>
      </trkpt>
      <trkpt lat="48.07771" lon="7.18079">
        <ele>832.5</ele>
        <time>2017-10-21T15:40:02.000+02:00</time>
      </trkpt>
      <trkpt lat="48.07791" lon="7.18082">
        <ele>834.6</ele>
        <time>2017-10-21T15:40:13.000+02:00</time>
      </trkpt>
      <trkpt lat="48.07821" lon="7.18076">
        <ele>839.5</ele>
        <time>2017-10-21T15:40:27.000+02:00</time>
      </trkpt>
      <trkpt lat="48.07848" lon="7.1806">
        <ele>844.9</ele>
        <time>2017-10-21T15:40:57.000+02:00</time>
      </trkpt>
      <trkpt lat="48.07859" lon="7.18059">
        <ele>846.2</ele>
        <time>2017-10-21T15:41:02.000+02:00</time>
      </trkpt>
      <trkpt lat="48.07888" lon="7.18065">
        <ele>848.3</ele>
        <time>2017-10-21T15:41:16.000+02:00</time>
      </trkpt>
      <trkpt lat="48.07904" lon="7.18067">
        <ele>849.6</ele>
        <time>2017-10-21T15:41:23.000+02:00</time>
      </trkpt>
      <trkpt lat="48.07942" lon="7.18067">
        <ele>851.3</ele>
        <time>2017-10-21T15:41:44.000+02:00</time>
      </trkpt>
      <trkpt lat="48.0801" lon="7.18051">
        <ele>858.2</ele>
        <time>2017-10-21T15:42:22.000+02:00</time>
      </trkpt>
      <trkpt lat="48.0803" lon="7.18049">
        <ele>861.2</ele>
        <time>2017-10-21T15:42:33.000+02:00</time>
      </trkpt>
      <trkpt lat="48.08102" lon="7.18076">
        <ele>860.3</ele>
        <time>2017-10-21T15:43:10.000+02:00</time>
      </trkpt>
      <trkpt lat="48.08135" lon="7.18093">
        <ele>864.7</ele>
        <time>2017-10-21T15:43:31.000+02:00</time>
      </trkpt>
      <trkpt lat="48.08174" lon="7.18123">
        <ele>868.9</ele>
        <time>2017-10-21T15:44:48.000+02:00</time>
      </trkpt>
      <trkpt lat="48.08206" lon="7.18157">
        <ele>873</ele>
        <time>2017-10-21T15:45:05.000+02:00</time>
      </trkpt>
      <trkpt lat="48.08221" lon="7.18178">
        <ele>874.1</ele>
        <time>2017-10-21T15:45:29.000+02:00</time>
      </trkpt>
      <trkpt lat="48.08261" lon="7.18252">
        <ele>874.7</ele>
        <time>2017-10-21T15:46:03.000+02:00</time>
      </trkpt>
      <trkpt lat="48.08293" lon="7.18332">
        <ele>878.3</ele>
        <time>2017-10-21T15:46:39.000+02:00</time>
      </trkpt>
      <trkpt lat="48.08307" lon="7.18361">
        <ele>879.7</ele>
        <time>2017-10-21T15:46:52.000+02:00</time>
      </trkpt>
      <trkpt lat="48.08315" lon="7.18373">
        <ele>881.1</ele>
        <time>2017-10-21T15:46:57.000+02:00</time>
      </trkpt>
      <trkpt lat="48.0837" lon="7.18437">
        <ele>888.3</ele>
        <time>2017-10-21T15:47:45.000+02:00</time>
      </trkpt>
      <trkpt lat="48.08402" lon="7.18499">
        <ele>889.6</ele>
        <time>2017-10-21T15:48:09.000+02:00</time>
      </trkpt>
      <trkpt lat="48.08427" lon="7.18558">
        <ele>890.2</ele>
        <time>2017-10-21T15:48:30.000+02:00</time>
      </trkpt>
      <trkpt lat="48.08441" lon="7.18572">
        <ele>891.1</ele>
        <time>2017-10-21T15:48:36.000+02:00</time>
      </trkpt>
      <trkpt lat="48.08463" lon="7.18587">
        <ele>893.6</ele>
        <time>2017-10-21T15:48:46.000+02:00</time>
      </trkpt>
      <trkpt lat="48.08477" lon="7.18594">
        <ele>895.6</ele>
        <time>2017-10-21T15:48:55.000+02:00</time>
      </trkpt>
      <trkpt lat="48.08482" lon="7.18604">
        <ele>896.5</ele>
        <time>2017-10-21T15:48:59.000+02:00</time>
      </trkpt>
      <trkpt lat="48.08485" lon="7.18617">
        <ele>897.1</ele>
        <time>2017-10-21T15:49:02.000+02:00</time>
      </trkpt>
      <trkpt lat="48.08484" lon="7.18668">
        <ele>897.2</ele>
        <time>2017-10-21T15:49:18.000+02:00</time>
      </trkpt>
      <trkpt lat="48.08494" lon="7.18765">
        <ele>905</ele>
        <time>2017-10-21T15:49:49.000+02:00</time>
      </trkpt>
      <trkpt lat="48.08504" lon="7.18863">
        <ele>917.6</ele>
        <time>2017-10-21T15:51:45.000+02:00</time>
      </trkpt>
      <trkpt lat="48.08505" lon="7.18914">
        <ele>923.1</ele>
        <time>2017-10-21T15:51:56.000+02:00</time>
      </trkpt>
      <trkpt lat="48.08495" lon="7.19035">
        <ele>933.9</ele>
        <time>2017-10-21T15:52:31.000+02:00</time>
      </trkpt>
      <trkpt lat="48.08491" lon="7.19064">
        <ele>937.3</ele>
        <time>2017-10-21T15:52:52.000+02:00</time>
      </trkpt>
      <trkpt lat="48.08472" lon="7.19113">
        <ele>938.4</ele>
        <time>2017-10-21T15:53:18.000+02:00</time>
      </trkpt>
      <trkpt lat="48.08432" lon="7.19193">
        <ele>935.6</ele>
        <time>2017-10-21T15:53:47.000+02:00</time>
      </trkpt>
      <trkpt lat="48.0841" lon="7.19265">
        <ele>934.3</ele>
        <time>2017-10-21T15:54:14.000+02:00</time>
      </trkpt>
      <trkpt lat="48.0841" lon="7.19274">
        <ele>933.9</ele>
        <time>2017-10-21T15:54:21.000+02:00</time>
      </trkpt>
      <trkpt lat="48.08423" lon="7.19348">
        <ele>928.7</ele>
        <time>2017-10-21T15:54:42.000+02:00</time>
      </trkpt>
      <trkpt lat="48.08433" lon="7.1937">
        <ele>920.5</ele>
        <time>2017-10-21T15:54:59.000+02:00</time>
      </trkpt>
      <trkpt lat="48.08456" lon="7.19391">
        <ele>912.4</ele>
        <time>2017-10-21T15:55:10.000+02:00</time>
      </trkpt>
      <trkpt lat="48.08476" lon="7.19399">
        <ele>909.1</ele>
        <time>2017-10-21T15:55:17.000+02:00</time>
      </trkpt>
      <trkpt lat="48.08509" lon="7.19395">
        <ele>909</ele>
        <time>2017-10-21T15:55:32.000+02:00</time>
      </trkpt>
      <trkpt lat="48.0854" lon="7.19388">
        <ele>904.6</ele>
        <time>2017-10-21T15:55:44.000+02:00</time>
      </trkpt>
      <trkpt lat="48.08568" lon="7.19372">
        <ele>904.7</ele>
        <time>2017-10-21T15:55:57.000+02:00</time>
      </trkpt>
      <trkpt lat="48.08645" lon="7.19312">
        <ele>900.4</ele>
        <time>2017-10-21T15:56:29.000+02:00</time>
      </trkpt>
      <trkpt lat="48.08667" lon="7.19245">
        <ele>912.3</ele>
        <time>2017-10-21T15:56:56.000+02:00</time>
      </trkpt>
      <trkpt lat="48.08689" lon="7.19177">
        <ele>923.7</ele>
        <time>2017-10-21T15:57:31.000+02:00</time>
      </trkpt>
      <trkpt lat="48.08667" lon="7.19188">
        <ele>926.5</ele>
        <time>2017-10-21T15:57:41.000+02:00</time>
      </trkpt>
      <trkpt lat="48.08633" lon="7.1921">
        <ele>932.4</ele>
        <time>2017-10-21T15:58:41.000+02:00</time>
      </trkpt>
      <trkpt lat="48.08577" lon="7.19254">
        <ele>941.2</ele>
        <time>2017-10-21T15:59:17.000+02:00</time>
      </trkpt>
      <trkpt lat="48.08606" lon="7.1914">
        <ele>955.3</ele>
        <time>2017-10-21T16:00:17.000+02:00</time>
      </trkpt>
      <trkpt lat="48.08622" lon="7.19092">
        <ele>961.1</ele>
        <time>2017-10-21T16:00:33.000+02:00</time>
      </trkpt>
      <trkpt lat="48.08633" lon="7.19072">
        <ele>962.8</ele>
        <time>2017-10-21T16:01:03.000+02:00</time>
      </trkpt>
      <trkpt lat="48.08661" lon="7.19035">
        <ele>966.2</ele>
        <time>2017-10-21T16:01:20.000+02:00</time>
      </trkpt>
      <trkpt lat="48.08662" lon="7.1902">
        <ele>968.5</ele>
        <time>2017-10-21T16:01:29.000+02:00</time>
      </trkpt>
      <trkpt lat="48.08639" lon="7.19042">
        <ele>965.6</ele>
        <time>2017-10-21T16:01:38.000+02:00</time>
      </trkpt>
      <trkpt lat="48.08601" lon="7.19092">
        <ele>963.8</ele>
        <time>2017-10-21T16:01:57.000+02:00</time>
      </trkpt>
      <trkpt lat="48.08578" lon="7.19135">
        <ele>960.9</ele>
        <time>2017-10-21T16:02:09.000+02:00</time>
      </trkpt>
      <trkpt lat="48.08552" lon="7.19172">
        <ele>957.3</ele>
        <time>2017-10-21T16:02:22.000+02:00</time>
      </trkpt>
      <trkpt lat="48.0853" lon="7.19183">
        <ele>956.9</ele>
        <time>2017-10-21T16:02:31.000+02:00</time>
      </trkpt>
      <trkpt lat="48.08522" lon="7.19206">
        <ele>956.2</ele>
        <time>2017-10-21T16:02:38.000+02:00</time>
      </trkpt>
      <trkpt lat="48.08524" lon="7.19216">
        <ele>955.5</ele>
        <time>2017-10-21T16:02:41.000+02:00</time>
      </trkpt>
      <trkpt lat="48.08524" lon="7.19215">
        <ele>955.6</ele>
        <time>2017-10-21T16:02:41.000+02:00</time>
      </trkpt>
      <trkpt lat="48.08522" lon="7.19206">
        <ele>956.2</ele>
        <time>2017-10-21T16:02:43.000+02:00</time>
      </trkpt>
      <trkpt lat="48.0853" lon="7.19183">
        <ele>956.9</ele>
        <time>2017-10-21T16:02:50.000+02:00</time>
      </trkpt>
      <trkpt lat="48.0853" lon="7.19176">
        <ele>957.4</ele>
        <time>2017-10-21T16:02:55.000+02:00</time>
      </trkpt>
      <trkpt lat="48.08522" lon="7.19173">
        <ele>957.7</ele>
        <time>2017-10-21T16:02:58.000+02:00</time>
      </trkpt>
      <trkpt lat="48.08525" lon="7.19163">
        <ele>957.7</ele>
        <time>2017-10-21T16:03:02.000+02:00</time>
      </trkpt>
      <trkpt lat="48.08519" lon="7.19165">
        <ele>957.8</ele>
        <time>2017-10-21T16:03:05.000+02:00</time>
      </trkpt>
      <trkpt lat="48.08531" lon="7.19128">
        <ele>955.5</ele>
        <time>2017-10-21T16:03:15.000+02:00</time>
      </trkpt>
      <trkpt lat="48.08538" lon="7.19088">
        <ele>954.7</ele>
        <time>2017-10-21T16:03:26.000+02:00</time>
      </trkpt>
      <trkpt lat="48.0849" lon="7.19115">
        <ele>945.5</ele>
        <time>2017-10-21T16:04:03.000+02:00</time>
      </trkpt>
      <trkpt lat="48.08489" lon="7.19114">
        <ele>945</ele>
        <time>2017-10-21T16:04:05.000+02:00</time>
      </trkpt>
      <trkpt lat="48.08504" lon="7.19054">
        <ele>940.4</ele>
        <time>2017-10-21T16:04:39.000+02:00</time>
      </trkpt>
      <trkpt lat="48.08506" lon="7.19029">
        <ele>937.2</ele>
        <time>2017-10-21T16:04:45.000+02:00</time>
      </trkpt>
      <trkpt lat="48.08495" lon="7.19035">
        <ele>933.9</ele>
        <time>2017-10-21T16:05:07.000+02:00</time>
      </trkpt>
      <trkpt lat="48.08505" lon="7.18914">
        <ele>923.1</ele>
        <time>2017-10-21T16:05:37.000+02:00</time>
      </trkpt>
      <trkpt lat="48.08504" lon="7.18895">
        <ele>920.8</ele>
        <time>2017-10-21T16:05:54.000+02:00</time>
      </trkpt>
      <trkpt lat="48.08504" lon="7.18894">
        <ele>920.7</ele>
        <time>2017-10-21T16:05:56.000+02:00</time>
      </trkpt>
      <trkpt lat="48.08504" lon="7.18863">
        <ele>917.6</ele>
        <time>2017-10-21T16:06:03.000+02:00</time>
      </trkpt>
      <trkpt lat="48.08494" lon="7.18765">
        <ele>905</ele>
        <time>2017-10-21T16:07:09.000+02:00</time>
      </trkpt>
      <trkpt lat="48.08484" lon="7.18668">
        <ele>897.2</ele>
        <time>2017-10-21T16:07:32.000+02:00</time>
      </trkpt>
      <trkpt lat="48.08485" lon="7.18617">
        <ele>897.1</ele>
        <time>2017-10-21T16:07:43.000+02:00</time>
      </trkpt>
      <trkpt lat="48.08482" lon="7.18604">
        <ele>896.5</ele>
        <time>2017-10-21T16:07:47.000+02:00</time>
      </trkpt>
      <trkpt lat="48.08477" lon="7.18594">
        <ele>895.6</ele>
        <time>2017-10-21T16:07:50.000+02:00</time>
      </trkpt>
      <trkpt lat="48.0849" lon="7.18587">
        <ele>897.6</ele>
        <time>2017-10-21T16:07:59.000+02:00</time>
      </trkpt>
      <trkpt lat="48.08489" lon="7.18587">
        <ele>897.5</ele>
        <time>2017-10-21T16:08:00.000+02:00</time>
      </trkpt>
      <trkpt lat="48.08512" lon="7.18589">
        <ele>899.2</ele>
        <time>2017-10-21T16:08:17.000+02:00</time>
      </trkpt>
      <trkpt lat="48.08566" lon="7.18589">
        <ele>899</ele>
        <time>2017-10-21T16:08:38.000+02:00</time>
      </trkpt>
      <trkpt lat="48.08578" lon="7.18586">
        <ele>898.5</ele>
        <time>2017-10-21T16:08:42.000+02:00</time>
      </trkpt>
      <trkpt lat="48.08594" lon="7.18586">
        <ele>896.9</ele>
        <time>2017-10-21T16:08:48.000+02:00</time>
      </trkpt>
      <trkpt lat="48.08615" lon="7.18591">
        <ele>894.9</ele>
        <time>2017-10-21T16:08:56.000+02:00</time>
      </trkpt>
      <trkpt lat="48.08655" lon="7.18595">
        <ele>890.1</ele>
        <time>2017-10-21T16:09:11.000+02:00</time>
      </trkpt>
      <trkpt lat="48.08676" lon="7.186">
        <ele>888.6</ele>
        <time>2017-10-21T16:09:21.000+02:00</time>
      </trkpt>
      <trkpt lat="48.08692" lon="7.18607">
        <ele>888.4</ele>
        <time>2017-10-21T16:09:28.000+02:00</time>
      </trkpt>
      <trkpt lat="48.08703" lon="7.18615">
        <ele>888.9</ele>
        <time>2017-10-21T16:09:34.000+02:00</time>
      </trkpt>
      <trkpt lat="48.08738" lon="7.18615">
        <ele>885.1</ele>
        <time>2017-10-21T16:09:46.000+02:00</time>
      </trkpt>
      <trkpt lat="48.08799" lon="7.18624">
        <ele>884</ele>
        <time>2017-10-21T16:10:07.000+02:00</time>
      </trkpt>
      <trkpt lat="48.08876" lon="7.18622">
        <ele>878.8</ele>
        <time>2017-10-21T16:10:33.000+02:00</time>
      </trkpt>
      <trkpt lat="48.08909" lon="7.18626">
        <ele>876.8</ele>
        <time>2017-10-21T16:10:46.000+02:00</time>
      </trkpt>
      <trkpt lat="48.08984" lon="7.18656">
        <ele>872</ele>
        <time>2017-10-21T16:11:12.000+02:00</time>
      </trkpt>
      <trkpt lat="48.08983" lon="7.18656">
        <ele>872.2</ele>
        <time>2017-10-21T16:11:13.000+02:00</time>
      </trkpt>
      <trkpt lat="48.09007" lon="7.18667">
        <ele>869.8</ele>
        <time>2017-10-21T16:11:23.000+02:00</time>
      </trkpt>
      <trkpt lat="48.09013" lon="7.18672">
        <ele>869.5</ele>
        <time>2017-10-21T16:11:26.000+02:00</time>
      </trkpt>
      <trkpt lat="48.09024" lon="7.18686">
        <ele>869.6</ele>
        <time>2017-10-21T16:11:31.000+02:00</time>
      </trkpt>
      <trkpt lat="48.09033" lon="7.18704">
        <ele>870.4</ele>
        <time>2017-10-21T16:11:37.000+02:00</time>
      </trkpt>
      <trkpt lat="48.09056" lon="7.18759">
        <ele>872.4</ele>
        <time>2017-10-21T16:12:03.000+02:00</time>
      </trkpt>
      <trkpt lat="48.09077" lon="7.18829">
        <ele>874.3</ele>
        <time>2017-10-21T16:12:23.000+02:00</time>
      </trkpt>
      <trkpt lat="48.09097" lon="7.189">
        <ele>866.8</ele>
        <time>2017-10-21T16:12:50.000+02:00</time>
      </trkpt>
      <trkpt lat="48.09096" lon="7.18899">
        <ele>867.2</ele>
        <time>2017-10-21T16:12:50.000+02:00</time>
      </trkpt>
      <trkpt lat="48.091" lon="7.18932">
        <ele>864.5</ele>
        <time>2017-10-21T16:12:59.000+02:00</time>
      </trkpt>
      <trkpt lat="48.09088" lon="7.19059">
        <ele>859.7</ele>
        <time>2017-10-21T16:13:29.000+02:00</time>
      </trkpt>
      <trkpt lat="48.09082" lon="7.19092">
        <ele>858.2</ele>
        <time>2017-10-21T16:13:58.000+02:00</time>
      </trkpt>
      <trkpt lat="48.0907" lon="7.19176">
        <ele>849.6</ele>
        <time>2017-10-21T16:14:25.000+02:00</time>
      </trkpt>
      <trkpt lat="48.09058" lon="7.1926">
        <ele>837.3</ele>
        <time>2017-10-21T16:14:57.000+02:00</time>
      </trkpt>
      <trkpt lat="48.09059" lon="7.19272">
        <ele>834.8</ele>
        <time>2017-10-21T16:15:00.000+02:00</time>
      </trkpt>
      <trkpt lat="48.09069" lon="7.1928">
        <ele>831.5</ele>
        <time>2017-10-21T16:15:04.000+02:00</time>
      </trkpt>
      <trkpt lat="48.09068" lon="7.1928">
        <ele>831.7</ele>
        <time>2017-10-21T16:15:05.000+02:00</time>
      </trkpt>
      <trkpt lat="48.0909" lon="7.19298">
        <ele>825.3</ele>
        <time>2017-10-21T16:15:29.000+02:00</time>
      </trkpt>
      <trkpt lat="48.09077" lon="7.19323">
        <ele>822.6</ele>
        <time>2017-10-21T16:15:40.000+02:00</time>
      </trkpt>
      <trkpt lat="48.09039" lon="7.19384">
        <ele>816.9</ele>
        <time>2017-10-21T16:16:01.000+02:00</time>
      </trkpt>
      <trkpt lat="48.09032" lon="7.19401">
        <ele>814.2</ele>
        <time>2017-10-21T16:16:07.000+02:00</time>
      </trkpt>
      <trkpt lat="48.09029" lon="7.19422">
        <ele>810.5</ele>
        <time>2017-10-21T16:16:24.000+02:00</time>
      </trkpt>
      <trkpt lat="48.09028" lon="7.19463">
        <ele>804.1</ele>
        <time>2017-10-21T16:16:33.000+02:00</time>
      </trkpt>
      <trkpt lat="48.09037" lon="7.19492">
        <ele>800</ele>
        <time>2017-10-21T16:16:41.000+02:00</time>
      </trkpt>
      <trkpt lat="48.09056" lon="7.1958">
        <ele>794.6</ele>
        <time>2017-10-21T16:17:03.000+02:00</time>
      </trkpt>
      <trkpt lat="48.09066" lon="7.19612">
        <ele>792.5</ele>
        <time>2017-10-21T16:17:15.000+02:00</time>
      </trkpt>
      <trkpt lat="48.09084" lon="7.19653">
        <ele>791.8</ele>
        <time>2017-10-21T16:17:28.000+02:00</time>
      </trkpt>
      <trkpt lat="48.09092" lon="7.19681">
        <ele>789.5</ele>
        <time>2017-10-21T16:17:36.000+02:00</time>
      </trkpt>
      <trkpt lat="48.09098" lon="7.19711">
        <ele>787.6</ele>
        <time>2017-10-21T16:17:43.000+02:00</time>
      </trkpt>
      <trkpt lat="48.09105" lon="7.19769">
        <ele>785.6</ele>
        <time>2017-10-21T16:17:57.000+02:00</time>
      </trkpt>
      <trkpt lat="48.09109" lon="7.19788">
        <ele>785.8</ele>
        <time>2017-10-21T16:18:03.000+02:00</time>
      </trkpt>
      <trkpt lat="48.09129" lon="7.19846">
        <ele>787.9</ele>
        <time>2017-10-21T16:18:19.000+02:00</time>
      </trkpt>
      <trkpt lat="48.0914" lon="7.19862">
        <ele>788.8</ele>
        <time>2017-10-21T16:18:26.000+02:00</time>
      </trkpt>
      <trkpt lat="48.0915" lon="7.19885">
        <ele>789.1</ele>
        <time>2017-10-21T16:18:34.000+02:00</time>
      </trkpt>
      <trkpt lat="48.09176" lon="7.19925">
        <ele>791.1</ele>
        <time>2017-10-21T16:18:57.000+02:00</time>
      </trkpt>
      <trkpt lat="48.09192" lon="7.19963">
        <ele>793</ele>
        <time>2017-10-21T16:19:11.000+02:00</time>
      </trkpt>
      <trkpt lat="48.09196" lon="7.19979">
        <ele>793.4</ele>
        <time>2017-10-21T16:19:16.000+02:00</time>
      </trkpt>
      <trkpt lat="48.09196" lon="7.19978">
        <ele>793.4</ele>
        <time>2017-10-21T16:19:16.000+02:00</time>
      </trkpt>
      <trkpt lat="48.09216" lon="7.20047">
        <ele>796</ele>
        <time>2017-10-21T16:19:38.000+02:00</time>
      </trkpt>
      <trkpt lat="48.09235" lon="7.20117">
        <ele>797.8</ele>
        <time>2017-10-21T16:19:58.000+02:00</time>
      </trkpt>
      <trkpt lat="48.09247" lon="7.20178">
        <ele>796.4</ele>
        <time>2017-10-21T16:20:14.000+02:00</time>
      </trkpt>
      <trkpt lat="48.09257" lon="7.20256">
        <ele>788.6</ele>
        <time>2017-10-21T16:20:34.000+02:00</time>
      </trkpt>
      <trkpt lat="48.09267" lon="7.20334">
        <ele>783</ele>
        <time>2017-10-21T16:20:53.000+02:00</time>
      </trkpt>
      <trkpt lat="48.09269" lon="7.20383">
        <ele>781.4</ele>
        <time>2017-10-21T16:21:05.000+02:00</time>
      </trkpt>
      <trkpt lat="48.09286" lon="7.2047">
        <ele>781.4</ele>
        <time>2017-10-21T16:21:30.000+02:00</time>
      </trkpt>
      <trkpt lat="48.0931" lon="7.20559">
        <ele>778.2</ele>
        <time>2017-10-21T16:21:53.000+02:00</time>
      </trkpt>
      <trkpt lat="48.0931" lon="7.2058">
        <ele>777.3</ele>
        <time>2017-10-21T16:21:58.000+02:00</time>
      </trkpt>
      <trkpt lat="48.0931" lon="7.20579">
        <ele>777.3</ele>
        <time>2017-10-21T16:21:58.000+02:00</time>
      </trkpt>
      <trkpt lat="48.09299" lon="7.20611">
        <ele>777.1</ele>
        <time>2017-10-21T16:22:06.000+02:00</time>
      </trkpt>
      <trkpt lat="48.09286" lon="7.20627">
        <ele>777.1</ele>
        <time>2017-10-21T16:22:13.000+02:00</time>
      </trkpt>
      <trkpt lat="48.0927" lon="7.20638">
        <ele>777</ele>
        <time>2017-10-21T16:22:20.000+02:00</time>
      </trkpt>
      <trkpt lat="48.09248" lon="7.20643">
        <ele>777.1</ele>
        <time>2017-10-21T16:22:29.000+02:00</time>
      </trkpt>
      <trkpt lat="48.09225" lon="7.20645">
        <ele>776.8</ele>
        <time>2017-10-21T16:22:38.000+02:00</time>
      </trkpt>
      <trkpt lat="48.09203" lon="7.20645">
        <ele>776.6</ele>
        <time>2017-10-21T16:22:47.000+02:00</time>
      </trkpt>
      <trkpt lat="48.09211" lon="7.20717">
        <ele>775.2</ele>
        <time>2017-10-21T16:23:04.000+02:00</time>
      </trkpt>
      <trkpt lat="48.09215" lon="7.20731">
        <ele>775.1</ele>
        <time>2017-10-21T16:23:08.000+02:00</time>
      </trkpt>
      <trkpt lat="48.09215" lon="7.2073">
        <ele>775.1</ele>
        <time>2017-10-21T16:23:09.000+02:00</time>
      </trkpt>
      <trkpt lat="48.09216" lon="7.2075">
        <ele>775</ele>
        <time>2017-10-21T16:23:14.000+02:00</time>
      </trkpt>
      <trkpt lat="48.09231" lon="7.2078">
        <ele>773.9</ele>
        <time>2017-10-21T16:23:23.000+02:00</time>
      </trkpt>
      <trkpt lat="48.09251" lon="7.20848">
        <ele>771.6</ele>
        <time>2017-10-21T16:23:40.000+02:00</time>
      </trkpt>
      <trkpt lat="48.09255" lon="7.20885">
        <ele>770.7</ele>
        <time>2017-10-21T16:23:50.000+02:00</time>
      </trkpt>
      <trkpt lat="48.09259" lon="7.20903">
        <ele>770.3</ele>
        <time>2017-10-21T16:23:54.000+02:00</time>
      </trkpt>
      <trkpt lat="48.09255" lon="7.20928">
        <ele>769.3</ele>
        <time>2017-10-21T16:24:00.000+02:00</time>
      </trkpt>
      <trkpt lat="48.09252" lon="7.20955">
        <ele>767.7</ele>
        <time>2017-10-21T16:24:06.000+02:00</time>
      </trkpt>
      <trkpt lat="48.09283" lon="7.21007">
        <ele>764.9</ele>
        <time>2017-10-21T16:24:23.000+02:00</time>
      </trkpt>
      <trkpt lat="48.09292" lon="7.21028">
        <ele>762.7</ele>
        <time>2017-10-21T16:24:29.000+02:00</time>
      </trkpt>
      <trkpt lat="48.09299" lon="7.2106">
        <ele>759.1</ele>
        <time>2017-10-21T16:24:36.000+02:00</time>
      </trkpt>
      <trkpt lat="48.09306" lon="7.21081">
        <ele>757</ele>
        <time>2017-10-21T16:24:42.000+02:00</time>
      </trkpt>
      <trkpt lat="48.0932" lon="7.21111">
        <ele>753.5</ele>
        <time>2017-10-21T16:25:01.000+02:00</time>
      </trkpt>
      <trkpt lat="48.09332" lon="7.21143">
        <ele>750.7</ele>
        <time>2017-10-21T16:25:09.000+02:00</time>
      </trkpt>
      <trkpt lat="48.09349" lon="7.21176">
        <ele>746</ele>
        <time>2017-10-21T16:25:22.000+02:00</time>
      </trkpt>
      <trkpt lat="48.09368" lon="7.21202">
        <ele>741.4</ele>
        <time>2017-10-21T16:25:31.000+02:00</time>
      </trkpt>
      <trkpt lat="48.09385" lon="7.21218">
        <ele>739.2</ele>
        <time>2017-10-21T16:25:38.000+02:00</time>
      </trkpt>
      <trkpt lat="48.09411" lon="7.21227">
        <ele>738.8</ele>
        <time>2017-10-21T16:25:47.000+02:00</time>
      </trkpt>
      <trkpt lat="48.09439" lon="7.21227">
        <ele>740.8</ele>
        <time>2017-10-21T16:26:03.000+02:00</time>
      </trkpt>
      <trkpt lat="48.09438" lon="7.21227">
        <ele>740.7</ele>
        <time>2017-10-21T16:26:04.000+02:00</time>
      </trkpt>
      <trkpt lat="48.09446" lon="7.21233">
        <ele>740.7</ele>
        <time>2017-10-21T16:26:07.000+02:00</time>
      </trkpt>
      <trkpt lat="48.09459" lon="7.21253">
        <ele>739.6</ele>
        <time>2017-10-21T16:26:21.000+02:00</time>
      </trkpt>
      <trkpt lat="48.09472" lon="7.21281">
        <ele>736.7</ele>
        <time>2017-10-21T16:26:29.000+02:00</time>
      </trkpt>
      <trkpt lat="48.09493" lon="7.21355">
        <ele>725.9</ele>
        <time>2017-10-21T16:26:56.000+02:00</time>
      </trkpt>
      <trkpt lat="48.09502" lon="7.21423">
        <ele>712.2</ele>
        <time>2017-10-21T16:27:22.000+02:00</time>
      </trkpt>
      <trkpt lat="48.09505" lon="7.21429">
        <ele>711.6</ele>
        <time>2017-10-21T16:27:24.000+02:00</time>
      </trkpt>
      <trkpt lat="48.09543" lon="7.2148">
        <ele>708.5</ele>
        <time>2017-10-21T16:27:42.000+02:00</time>
      </trkpt>
      <trkpt lat="48.09575" lon="7.21512">
        <ele>708.6</ele>
        <time>2017-10-21T16:27:55.000+02:00</time>
      </trkpt>
      <trkpt lat="48.09501" lon="7.21514">
        <ele>699.1</ele>
        <time>2017-10-21T16:28:21.000+02:00</time>
      </trkpt>
      <trkpt lat="48.09496" lon="7.21525">
        <ele>697.4</ele>
        <time>2017-10-21T16:28:33.000+02:00</time>
      </trkpt>
      <trkpt lat="48.09492" lon="7.21545">
        <ele>695.1</ele>
        <time>2017-10-21T16:28:38.000+02:00</time>
      </trkpt>
      <trkpt lat="48.09497" lon="7.21588">
        <ele>693.3</ele>
        <time>2017-10-21T16:28:51.000+02:00</time>
      </trkpt>
      <trkpt lat="48.09497" lon="7.21587">
        <ele>693.3</ele>
        <time>2017-10-21T16:28:51.000+02:00</time>
      </trkpt>
      <trkpt lat="48.09503" lon="7.21662">
        <ele>693</ele>
        <time>2017-10-21T16:29:12.000+02:00</time>
      </trkpt>
      <trkpt lat="48.09514" lon="7.21697">
        <ele>691.8</ele>
        <time>2017-10-21T16:29:21.000+02:00</time>
      </trkpt>
      <trkpt lat="48.09525" lon="7.21721">
        <ele>691</ele>
        <time>2017-10-21T16:29:28.000+02:00</time>
      </trkpt>
      <trkpt lat="48.09523" lon="7.21775">
        <ele>688.4</ele>
        <time>2017-10-21T16:29:41.000+02:00</time>
      </trkpt>
      <trkpt lat="48.09533" lon="7.21795">
        <ele>687.4</ele>
        <time>2017-10-21T16:29:47.000+02:00</time>
      </trkpt>
      <trkpt lat="48.09551" lon="7.21821">
        <ele>686.9</ele>
        <time>2017-10-21T16:29:57.000+02:00</time>
      </trkpt>
      <trkpt lat="48.09591" lon="7.21863">
        <ele>688.2</ele>
        <time>2017-10-21T16:30:18.000+02:00</time>
      </trkpt>
      <trkpt lat="48.09606" lon="7.21883">
        <ele>688.2</ele>
        <time>2017-10-21T16:30:26.000+02:00</time>
      </trkpt>
      <trkpt lat="48.09609" lon="7.21893">
        <ele>688</ele>
        <time>2017-10-21T16:30:29.000+02:00</time>
      </trkpt>
      <trkpt lat="48.09615" lon="7.21897">
        <ele>688.1</ele>
        <time>2017-10-21T16:30:31.000+02:00</time>
      </trkpt>
      <trkpt lat="48.09626" lon="7.21898">
        <ele>688.6</ele>
        <time>2017-10-21T16:30:36.000+02:00</time>
      </trkpt>
      <trkpt lat="48.0964" lon="7.21969">
        <ele>684.1</ele>
        <time>2017-10-21T16:30:53.000+02:00</time>
      </trkpt>
      <trkpt lat="48.09639" lon="7.21997">
        <ele>681.6</ele>
        <time>2017-10-21T16:31:00.000+02:00</time>
      </trkpt>
      <trkpt lat="48.09642" lon="7.21998">
        <ele>681.7</ele>
        <time>2017-10-21T16:31:01.000+02:00</time>
      </trkpt>
      <trkpt lat="48.09644" lon="7.21992">
        <ele>682.3</ele>
        <time>2017-10-21T16:31:03.000+02:00</time>
      </trkpt>
      <trkpt lat="48.09649" lon="7.21989">
        <ele>682.9</ele>
        <time>2017-10-21T16:31:07.000+02:00</time>
      </trkpt>
      <trkpt lat="48.09663" lon="7.21997">
        <ele>683</ele>
        <time>2017-10-21T16:31:12.000+02:00</time>
      </trkpt>
      <trkpt lat="48.09673" lon="7.22008">
        <ele>681.7</ele>
        <time>2017-10-21T16:31:17.000+02:00</time>
      </trkpt>
      <trkpt lat="48.0968" lon="7.22027">
        <ele>678.4</ele>
        <time>2017-10-21T16:31:23.000+02:00</time>
      </trkpt>
      <trkpt lat="48.09688" lon="7.22057">
        <ele>673.4</ele>
        <time>2017-10-21T16:31:33.000+02:00</time>
      </trkpt>
      <trkpt lat="48.09687" lon="7.22057">
        <ele>673.2</ele>
        <time>2017-10-21T16:31:33.000+02:00</time>
      </trkpt>
      <trkpt lat="48.09701" lon="7.22094">
        <ele>666.6</ele>
        <time>2017-10-21T16:32:06.000+02:00</time>
      </trkpt>
      <trkpt lat="48.09701" lon="7.22107">
        <ele>662</ele>
        <time>2017-10-21T16:32:09.000+02:00</time>
      </trkpt>
      <trkpt lat="48.09724" lon="7.22119">
        <ele>663.2</ele>
        <time>2017-10-21T16:32:19.000+02:00</time>
      </trkpt>
      <trkpt lat="48.09733" lon="7.22128">
        <ele>662.9</ele>
        <time>2017-10-21T16:32:23.000+02:00</time>
      </trkpt>
      <trkpt lat="48.09754" lon="7.22164">
        <ele>659.9</ele>
        <time>2017-10-21T16:32:37.000+02:00</time>
      </trkpt>
      <trkpt lat="48.09774" lon="7.2225">
        <ele>655.8</ele>
        <time>2017-10-21T16:32:57.000+02:00</time>
      </trkpt>
      <trkpt lat="48.09788" lon="7.22292">
        <ele>660.7</ele>
        <time>2017-10-21T16:33:17.000+02:00</time>
      </trkpt>
      <trkpt lat="48.09782" lon="7.22314">
        <ele>657.8</ele>
        <time>2017-10-21T16:33:22.000+02:00</time>
      </trkpt>
      <trkpt lat="48.09769" lon="7.2233">
        <ele>652.1</ele>
        <time>2017-10-21T16:33:36.000+02:00</time>
      </trkpt>
      <trkpt lat="48.0976" lon="7.22353">
        <ele>649.8</ele>
        <time>2017-10-21T16:33:47.000+02:00</time>
      </trkpt>
      <trkpt lat="48.09745" lon="7.22431">
        <ele>648.3</ele>
        <time>2017-10-21T16:34:21.000+02:00</time>
      </trkpt>
      <trkpt lat="48.09741" lon="7.22491">
        <ele>646</ele>
        <time>2017-10-21T16:34:38.000+02:00</time>
      </trkpt>
      <trkpt lat="48.09754" lon="7.22544">
        <ele>652.7</ele>
        <time>2017-10-21T16:35:54.000+02:00</time>
      </trkpt>
      <trkpt lat="48.09756" lon="7.22563">
        <ele>653.6</ele>
        <time>2017-10-21T16:36:00.000+02:00</time>
      </trkpt>
      <trkpt lat="48.09754" lon="7.22628">
        <ele>657.3</ele>
        <time>2017-10-21T16:36:27.000+02:00</time>
      </trkpt>
      <trkpt lat="48.0975" lon="7.22665">
        <ele>659.8</ele>
        <time>2017-10-21T16:36:46.000+02:00</time>
      </trkpt>
      <trkpt lat="48.09712" lon="7.22731">
        <ele>655.9</ele>
        <time>2017-10-21T16:37:06.000+02:00</time>
      </trkpt>
      <trkpt lat="48.09707" lon="7.22773">
        <ele>659.9</ele>
        <time>2017-10-21T16:37:39.000+02:00</time>
      </trkpt>
      <trkpt lat="48.09677" lon="7.22811">
        <ele>654.1</ele>
        <time>2017-10-21T16:37:52.000+02:00</time>
      </trkpt>
      <trkpt lat="48.09646" lon="7.22854">
        <ele>649.5</ele>
        <time>2017-10-21T16:38:16.000+02:00</time>
      </trkpt>
      <trkpt lat="48.09639" lon="7.22879">
        <ele>648.5</ele>
        <time>2017-10-21T16:38:22.000+02:00</time>
      </trkpt>
      <trkpt lat="48.09634" lon="7.22905">
        <ele>647.9</ele>
        <time>2017-10-21T16:38:29.000+02:00</time>
      </trkpt>
      <trkpt lat="48.09642" lon="7.22928">
        <ele>647.8</ele>
        <time>2017-10-21T16:38:37.000+02:00</time>
      </trkpt>
      <trkpt lat="48.0966" lon="7.22942">
        <ele>648.6</ele>
        <time>2017-10-21T16:38:46.000+02:00</time>
      </trkpt>
      <trkpt lat="48.09702" lon="7.22959">
        <ele>650.9</ele>
        <time>2017-10-21T16:39:14.000+02:00</time>
      </trkpt>
      <trkpt lat="48.09759" lon="7.22967">
        <ele>656.2</ele>
        <time>2017-10-21T16:39:50.000+02:00</time>
      </trkpt>
      <trkpt lat="48.0979" lon="7.22982">
        <ele>655.1</ele>
        <time>2017-10-21T16:40:03.000+02:00</time>
      </trkpt>
      <trkpt lat="48.09805" lon="7.23011">
        <ele>647.8</ele>
        <time>2017-10-21T16:40:34.000+02:00</time>
      </trkpt>
      <trkpt lat="48.09814" lon="7.2302">
        <ele>646.4</ele>
        <time>2017-10-21T16:40:38.000+02:00</time>
      </trkpt>
      <trkpt lat="48.09827" lon="7.23026">
        <ele>646.8</ele>
        <time>2017-10-21T16:40:44.000+02:00</time>
      </trkpt>
      <trkpt lat="48.09844" lon="7.23045">
        <ele>644.5</ele>
        <time>2017-10-21T16:41:08.000+02:00</time>
      </trkpt>
      <trkpt lat="48.09861" lon="7.23056">
        <ele>645.2</ele>
        <time>2017-10-21T16:41:16.000+02:00</time>
      </trkpt>
      <trkpt lat="48.09875" lon="7.23057">
        <ele>647.9</ele>
        <time>2017-10-21T16:41:22.000+02:00</time>
      </trkpt>
      <trkpt lat="48.09899" lon="7.23067">
        <ele>651.5</ele>
        <time>2017-10-21T16:41:37.000+02:00</time>
      </trkpt>
      <trkpt lat="48.09913" lon="7.23088">
        <ele>652.3</ele>
        <time>2017-10-21T16:41:44.000+02:00</time>
      </trkpt>
      <trkpt lat="48.09919" lon="7.23105">
        <ele>651.1</ele>
        <time>2017-10-21T16:41:57.000+02:00</time>
      </trkpt>
      <trkpt lat="48.09919" lon="7.23114">
        <ele>649.8</ele>
        <time>2017-10-21T16:41:59.000+02:00</time>
      </trkpt>
      <trkpt lat="48.09919" lon="7.23111">
        <ele>650.3</ele>
        <time>2017-10-21T16:42:00.000+02:00</time>
      </trkpt>
      <trkpt lat="48.0992" lon="7.23156">
        <ele>644.1</ele>
        <time>2017-10-21T16:42:15.000+02:00</time>
      </trkpt>
      <trkpt lat="48.09935" lon="7.23197">
        <ele>643.1</ele>
        <time>2017-10-21T16:42:27.000+02:00</time>
      </trkpt>
      <trkpt lat="48.09945" lon="7.23217">
        <ele>644.1</ele>
        <time>2017-10-21T16:42:34.000+02:00</time>
      </trkpt>
      <trkpt lat="48.09948" lon="7.23236">
        <ele>643.8</ele>
        <time>2017-10-21T16:42:38.000+02:00</time>
      </trkpt>
      <trkpt lat="48.09948" lon="7.23252">
        <ele>643.1</ele>
        <time>2017-10-21T16:42:43.000+02:00</time>
      </trkpt>
      <trkpt lat="48.09937" lon="7.23288">
        <ele>641.7</ele>
        <time>2017-10-21T16:42:53.000+02:00</time>
      </trkpt>
      <trkpt lat="48.09951" lon="7.23281">
        <ele>645.4</ele>
        <time>2017-10-21T16:43:03.000+02:00</time>
      </trkpt>
      <trkpt lat="48.09963" lon="7.23263">
        <ele>648</ele>
        <time>2017-10-21T16:43:10.000+02:00</time>
      </trkpt>
      <trkpt lat="48.09975" lon="7.23235">
        <ele>651.1</ele>
        <time>2017-10-21T16:43:22.000+02:00</time>
      </trkpt>
      <trkpt lat="48.09984" lon="7.23222">
        <ele>653.6</ele>
        <time>2017-10-21T16:43:28.000+02:00</time>
      </trkpt>
      <trkpt lat="48.09985" lon="7.23173">
        <ele>654.3</ele>
        <time>2017-10-21T16:43:44.000+02:00</time>
      </trkpt>
      <trkpt lat="48.09977" lon="7.23124">
        <ele>655.7</ele>
        <time>2017-10-21T16:43:58.000+02:00</time>
      </trkpt>
      <trkpt lat="48.09984" lon="7.23118">
        <ele>656.9</ele>
        <time>2017-10-21T16:44:03.000+02:00</time>
      </trkpt>
      <trkpt lat="48.10008" lon="7.23113">
        <ele>659</ele>
        <time>2017-10-21T16:44:20.000+02:00</time>
      </trkpt>
      <trkpt lat="48.10032" lon="7.23201">
        <ele>659.6</ele>
        <time>2017-10-21T16:44:46.000+02:00</time>
      </trkpt>
      <trkpt lat="48.10036" lon="7.23246">
        <ele>660.9</ele>
        <time>2017-10-21T16:44:59.000+02:00</time>
      </trkpt>
      <trkpt lat="48.10033" lon="7.23278">
        <ele>662.4</ele>
        <time>2017-10-21T16:45:11.000+02:00</time>
      </trkpt>
      <trkpt lat="48.10017" lon="7.23338">
        <ele>663.9</ele>
        <time>2017-10-21T16:45:30.000+02:00</time>
      </trkpt>
      <trkpt lat="48.10013" lon="7.2337">
        <ele>663.6</ele>
        <time>2017-10-21T16:45:40.000+02:00</time>
      </trkpt>
      <trkpt lat="48.10015" lon="7.23396">
        <ele>664</ele>
        <time>2017-10-21T16:45:46.000+02:00</time>
      </trkpt>
      <trkpt lat="48.10022" lon="7.23414">
        <ele>665.1</ele>
        <time>2017-10-21T16:45:51.000+02:00</time>
      </trkpt>
      <trkpt lat="48.10034" lon="7.23434">
        <ele>665.6</ele>
        <time>2017-10-21T16:45:58.000+02:00</time>
      </trkpt>
      <trkpt lat="48.1005" lon="7.2345">
        <ele>666.6</ele>
        <time>2017-10-21T16:46:07.000+02:00</time>
      </trkpt>
      <trkpt lat="48.10066" lon="7.23463">
        <ele>667.7</ele>
        <time>2017-10-21T16:46:14.000+02:00</time>
      </trkpt>
      <trkpt lat="48.101" lon="7.23482">
        <ele>668.7</ele>
        <time>2017-10-21T16:46:33.000+02:00</time>
      </trkpt>
      <trkpt lat="48.10116" lon="7.23485">
        <ele>668.8</ele>
        <time>2017-10-21T16:46:39.000+02:00</time>
      </trkpt>
      <trkpt lat="48.10144" lon="7.23482">
        <ele>669.3</ele>
        <time>2017-10-21T16:46:51.000+02:00</time>
      </trkpt>
      <trkpt lat="48.10169" lon="7.23493">
        <ele>669.6</ele>
        <time>2017-10-21T16:47:00.000+02:00</time>
      </trkpt>
      <trkpt lat="48.10196" lon="7.23513">
        <ele>668</ele>
        <time>2017-10-21T16:47:12.000+02:00</time>
      </trkpt>
      <trkpt lat="48.10217" lon="7.23532">
        <ele>667.2</ele>
        <time>2017-10-21T16:47:22.000+02:00</time>
      </trkpt>
      <trkpt lat="48.10229" lon="7.23549">
        <ele>667.3</ele>
        <time>2017-10-21T16:47:29.000+02:00</time>
      </trkpt>
      <trkpt lat="48.1027" lon="7.23625">
        <ele>665.3</ele>
        <time>2017-10-21T16:47:51.000+02:00</time>
      </trkpt>
      <trkpt lat="48.10283" lon="7.23643">
        <ele>664.6</ele>
        <time>2017-10-21T16:47:58.000+02:00</time>
      </trkpt>
      <trkpt lat="48.10296" lon="7.23653">
        <ele>664.2</ele>
        <time>2017-10-21T16:48:03.000+02:00</time>
      </trkpt>
      <trkpt lat="48.1031" lon="7.23671">
        <ele>664.2</ele>
        <time>2017-10-21T16:48:11.000+02:00</time>
      </trkpt>
      <trkpt lat="48.10317" lon="7.23691">
        <ele>663.9</ele>
        <time>2017-10-21T16:48:17.000+02:00</time>
      </trkpt>
      <trkpt lat="48.10324" lon="7.2372">
        <ele>663.8</ele>
        <time>2017-10-21T16:48:24.000+02:00</time>
      </trkpt>
      <trkpt lat="48.10332" lon="7.23741">
        <ele>663.9</ele>
        <time>2017-10-21T16:48:31.000+02:00</time>
      </trkpt>
      <trkpt lat="48.10332" lon="7.2374">
        <ele>663.9</ele>
        <time>2017-10-21T16:48:32.000+02:00</time>
      </trkpt>
      <trkpt lat="48.10335" lon="7.23747">
        <ele>664</ele>
        <time>2017-10-21T16:48:34.000+02:00</time>
      </trkpt>
      <trkpt lat="48.10358" lon="7.23781">
        <ele>661.8</ele>
        <time>2017-10-21T16:48:45.000+02:00</time>
      </trkpt>
      <trkpt lat="48.10373" lon="7.23793">
        <ele>661.4</ele>
        <time>2017-10-21T16:48:51.000+02:00</time>
      </trkpt>
      <trkpt lat="48.10386" lon="7.23807">
        <ele>661.2</ele>
        <time>2017-10-21T16:48:57.000+02:00</time>
      </trkpt>
      <trkpt lat="48.10397" lon="7.23822">
        <ele>661.1</ele>
        <time>2017-10-21T16:49:03.000+02:00</time>
      </trkpt>
      <trkpt lat="48.10438" lon="7.23914">
        <ele>656.7</ele>
        <time>2017-10-21T16:49:29.000+02:00</time>
      </trkpt>
      <trkpt lat="48.10444" lon="7.23941">
        <ele>653.5</ele>
        <time>2017-10-21T16:49:43.000+02:00</time>
      </trkpt>
      <trkpt lat="48.10445" lon="7.23956">
        <ele>651.8</ele>
        <time>2017-10-21T16:49:47.000+02:00</time>
      </trkpt>
      <trkpt lat="48.10445" lon="7.23981">
        <ele>649.2</ele>
        <time>2017-10-21T16:49:53.000+02:00</time>
      </trkpt>
      <trkpt lat="48.10442" lon="7.23998">
        <ele>648</ele>
        <time>2017-10-21T16:49:57.000+02:00</time>
      </trkpt>
      <trkpt lat="48.10425" lon="7.2403">
        <ele>650</ele>
        <time>2017-10-21T16:50:07.000+02:00</time>
      </trkpt>
      <trkpt lat="48.10418" lon="7.24046">
        <ele>650.6</ele>
        <time>2017-10-21T16:50:11.000+02:00</time>
      </trkpt>
      <trkpt lat="48.10416" lon="7.24077">
        <ele>649.2</ele>
        <time>2017-10-21T16:50:23.000+02:00</time>
      </trkpt>
      <trkpt lat="48.10416" lon="7.2411">
        <ele>652.1</ele>
        <time>2017-10-21T16:50:32.000+02:00</time>
      </trkpt>
      <trkpt lat="48.10425" lon="7.24123">
        <ele>652.8</ele>
        <time>2017-10-21T16:50:41.000+02:00</time>
      </trkpt>
      <trkpt lat="48.10462" lon="7.24167">
        <ele>655.8</ele>
        <time>2017-10-21T16:51:15.000+02:00</time>
      </trkpt>
      <trkpt lat="48.10494" lon="7.24198">
        <ele>660.2</ele>
        <time>2017-10-21T16:51:31.000+02:00</time>
      </trkpt>
      <trkpt lat="48.10516" lon="7.24222">
        <ele>662.6</ele>
        <time>2017-10-21T16:51:41.000+02:00</time>
      </trkpt>
      <trkpt lat="48.10516" lon="7.24221">
        <ele>662.4</ele>
        <time>2017-10-21T16:51:41.000+02:00</time>
      </trkpt>
      <trkpt lat="48.1055" lon="7.2426">
        <ele>666.1</ele>
        <time>2017-10-21T16:52:31.000+02:00</time>
      </trkpt>
      <trkpt lat="48.10564" lon="7.24281">
        <ele>669.9</ele>
        <time>2017-10-21T16:52:40.000+02:00</time>
      </trkpt>
      <trkpt lat="48.10558" lon="7.24282">
        <ele>670.8</ele>
        <time>2017-10-21T16:52:44.000+02:00</time>
      </trkpt>
      <trkpt lat="48.10542" lon="7.24276">
        <ele>671.2</ele>
        <time>2017-10-21T16:52:51.000+02:00</time>
      </trkpt>
      <trkpt lat="48.10542" lon="7.24275">
        <ele>671</ele>
        <time>2017-10-21T16:52:51.000+02:00</time>
      </trkpt>
      <trkpt lat="48.10513" lon="7.24261">
        <ele>671.9</ele>
        <time>2017-10-21T16:53:03.000+02:00</time>
      </trkpt>
      <trkpt lat="48.105" lon="7.24257">
        <ele>673.2</ele>
        <time>2017-10-21T16:53:08.000+02:00</time>
      </trkpt>
      <trkpt lat="48.10494" lon="7.24257">
        <ele>672.4</ele>
        <time>2017-10-21T16:53:10.000+02:00</time>
      </trkpt>
      <trkpt lat="48.10491" lon="7.24259">
        <ele>672.4</ele>
        <time>2017-10-21T16:53:11.000+02:00</time>
      </trkpt>
      <trkpt lat="48.10517" lon="7.24287">
        <ele>676.4</ele>
        <time>2017-10-21T16:53:31.000+02:00</time>
      </trkpt>
      <trkpt lat="48.10541" lon="7.24317">
        <ele>681.1</ele>
        <time>2017-10-21T16:53:45.000+02:00</time>
      </trkpt>
      <trkpt lat="48.10549" lon="7.24321">
        <ele>681.7</ele>
        <time>2017-10-21T16:53:49.000+02:00</time>
      </trkpt>
      <trkpt lat="48.10548" lon="7.24321">
        <ele>681.8</ele>
        <time>2017-10-21T16:53:49.000+02:00</time>
      </trkpt>
      <trkpt lat="48.10567" lon="7.24332">
        <ele>684</ele>
        <time>2017-10-21T16:54:00.000+02:00</time>
      </trkpt>
      <trkpt lat="48.10581" lon="7.24346">
        <ele>686.7</ele>
        <time>2017-10-21T16:54:30.000+02:00</time>
      </trkpt>
      <trkpt lat="48.10574" lon="7.24347">
        <ele>687</ele>
        <time>2017-10-21T16:54:35.000+02:00</time>
      </trkpt>
      <trkpt lat="48.10561" lon="7.24343">
        <ele>686.3</ele>
        <time>2017-10-21T16:54:40.000+02:00</time>
      </trkpt>
      <trkpt lat="48.1056" lon="7.24343">
        <ele>686.3</ele>
        <time>2017-10-21T16:54:41.000+02:00</time>
      </trkpt>
      <trkpt lat="48.10545" lon="7.24339">
        <ele>685.8</ele>
        <time>2017-10-21T16:54:48.000+02:00</time>
      </trkpt>
      <trkpt lat="48.10538" lon="7.24343">
        <ele>686.4</ele>
        <time>2017-10-21T16:54:51.000+02:00</time>
      </trkpt>
      <trkpt lat="48.10558" lon="7.24366">
        <ele>690.2</ele>
        <time>2017-10-21T16:55:02.000+02:00</time>
      </trkpt>
      <trkpt lat="48.10578" lon="7.24386">
        <ele>695</ele>
        <time>2017-10-21T16:55:17.000+02:00</time>
      </trkpt>
      <trkpt lat="48.10602" lon="7.24419">
        <ele>699.8</ele>
        <time>2017-10-21T16:55:54.000+02:00</time>
      </trkpt>
      <trkpt lat="48.10602" lon="7.24418">
        <ele>699.7</ele>
        <time>2017-10-21T16:55:54.000+02:00</time>
      </trkpt>
      <trkpt lat="48.10646" lon="7.24481">
        <ele>704.5</ele>
        <time>2017-10-21T16:56:20.000+02:00</time>
      </trkpt>
      <trkpt lat="48.1069" lon="7.24544">
        <ele>707.5</ele>
        <time>2017-10-21T16:56:47.000+02:00</time>
      </trkpt>
      <trkpt lat="48.10705" lon="7.24557">
        <ele>708.7</ele>
        <time>2017-10-21T16:56:55.000+02:00</time>
      </trkpt>
      <trkpt lat="48.10768" lon="7.24622">
        <ele>711.5</ele>
        <time>2017-10-21T16:57:28.000+02:00</time>
      </trkpt>
      <trkpt lat="48.10766" lon="7.24628">
        <ele>711.6</ele>
        <time>2017-10-21T16:57:30.000+02:00</time>
      </trkpt>
      <trkpt lat="48.10768" lon="7.24646">
        <ele>711.3</ele>
        <time>2017-10-21T16:57:35.000+02:00</time>
      </trkpt>
      <trkpt lat="48.10776" lon="7.2467">
        <ele>710.2</ele>
        <time>2017-10-21T16:57:42.000+02:00</time>
      </trkpt>
      <trkpt lat="48.1079" lon="7.24696">
        <ele>706.1</ele>
        <time>2017-10-21T16:57:50.000+02:00</time>
      </trkpt>
      <trkpt lat="48.10788" lon="7.24702">
        <ele>705.3</ele>
        <time>2017-10-21T16:57:52.000+02:00</time>
      </trkpt>
      <trkpt lat="48.10776" lon="7.247">
        <ele>705.6</ele>
        <time>2017-10-21T16:57:57.000+02:00</time>
      </trkpt>
      <trkpt lat="48.10773" lon="7.24702">
        <ele>705.3</ele>
        <time>2017-10-21T16:57:58.000+02:00</time>
      </trkpt>
      <trkpt lat="48.10784" lon="7.24737">
        <ele>700.3</ele>
        <time>2017-10-21T16:58:07.000+02:00</time>
      </trkpt>
      <trkpt lat="48.10794" lon="7.24755">
        <ele>698.2</ele>
        <time>2017-10-21T16:58:25.000+02:00</time>
      </trkpt>
      <trkpt lat="48.10794" lon="7.24769">
        <ele>695.3</ele>
        <time>2017-10-21T16:58:29.000+02:00</time>
      </trkpt>
      <trkpt lat="48.1079" lon="7.24772">
        <ele>694.4</ele>
        <time>2017-10-21T16:58:31.000+02:00</time>
      </trkpt>
      <trkpt lat="48.10786" lon="7.24772">
        <ele>694</ele>
        <time>2017-10-21T16:58:33.000+02:00</time>
      </trkpt>
      <trkpt lat="48.1078" lon="7.24769">
        <ele>694.2</ele>
        <time>2017-10-21T16:58:35.000+02:00</time>
      </trkpt>
      <trkpt lat="48.10765" lon="7.24751">
        <ele>696.9</ele>
        <time>2017-10-21T16:58:46.000+02:00</time>
      </trkpt>
      <trkpt lat="48.10729" lon="7.24697">
        <ele>700.5</ele>
        <time>2017-10-21T16:59:09.000+02:00</time>
      </trkpt>
      <trkpt lat="48.10707" lon="7.24669">
        <ele>701.6</ele>
        <time>2017-10-21T16:59:20.000+02:00</time>
      </trkpt>
      <trkpt lat="48.1067" lon="7.24637">
        <ele>699.3</ele>
        <time>2017-10-21T16:59:50.000+02:00</time>
      </trkpt>
      <trkpt lat="48.10656" lon="7.24628">
        <ele>698.6</ele>
        <time>2017-10-21T17:00:07.000+02:00</time>
      </trkpt>
      <trkpt lat="48.10655" lon="7.24628">
        <ele>698.4</ele>
        <time>2017-10-21T17:00:08.000+02:00</time>
      </trkpt>
      <trkpt lat="48.1064" lon="7.24619">
        <ele>697.9</ele>
        <time>2017-10-21T17:00:14.000+02:00</time>
      </trkpt>
      <trkpt lat="48.10623" lon="7.24616">
        <ele>696.1</ele>
        <time>2017-10-21T17:00:20.000+02:00</time>
      </trkpt>
      <trkpt lat="48.10616" lon="7.24617">
        <ele>694.7</ele>
        <time>2017-10-21T17:00:23.000+02:00</time>
      </trkpt>
      <trkpt lat="48.10602" lon="7.24611">
        <ele>694.4</ele>
        <time>2017-10-21T17:00:30.000+02:00</time>
      </trkpt>
      <trkpt lat="48.10533" lon="7.24592">
        <ele>685.4</ele>
        <time>2017-10-21T17:01:04.000+02:00</time>
      </trkpt>
      <trkpt lat="48.10515" lon="7.24583">
        <ele>683</ele>
        <time>2017-10-21T17:01:29.000+02:00</time>
      </trkpt>
      <trkpt lat="48.10504" lon="7.24572">
        <ele>681.9</ele>
        <time>2017-10-21T17:01:35.000+02:00</time>
      </trkpt>
      <trkpt lat="48.10486" lon="7.24549">
        <ele>679.2</ele>
        <time>2017-10-21T17:02:02.000+02:00</time>
      </trkpt>
      <trkpt lat="48.10458" lon="7.24496">
        <ele>675.5</ele>
        <time>2017-10-21T17:02:22.000+02:00</time>
      </trkpt>
      <trkpt lat="48.10438" lon="7.24424">
        <ele>670.1</ele>
        <time>2017-10-21T17:02:40.000+02:00</time>
      </trkpt>
      <trkpt lat="48.10433" lon="7.24399">
        <ele>668.4</ele>
        <time>2017-10-21T17:02:47.000+02:00</time>
      </trkpt>
      <trkpt lat="48.10431" lon="7.24374">
        <ele>667.5</ele>
        <time>2017-10-21T17:02:55.000+02:00</time>
      </trkpt>
      <trkpt lat="48.10435" lon="7.24314">
        <ele>667.3</ele>
        <time>2017-10-21T17:03:08.000+02:00</time>
      </trkpt>
      <trkpt lat="48.10438" lon="7.24297">
        <ele>667.3</ele>
        <time>2017-10-21T17:03:13.000+02:00</time>
      </trkpt>
      <trkpt lat="48.10433" lon="7.24264">
        <ele>665.2</ele>
        <time>2017-10-21T17:03:21.000+02:00</time>
      </trkpt>
      <trkpt lat="48.10423" lon="7.24234">
        <ele>662.7</ele>
        <time>2017-10-21T17:03:31.000+02:00</time>
      </trkpt>
      <trkpt lat="48.10416" lon="7.24207">
        <ele>660.8</ele>
        <time>2017-10-21T17:03:53.000+02:00</time>
      </trkpt>
      <trkpt lat="48.10415" lon="7.24181">
        <ele>659.3</ele>
        <time>2017-10-21T17:04:01.000+02:00</time>
      </trkpt>
      <trkpt lat="48.10416" lon="7.2411">
        <ele>652.1</ele>
        <time>2017-10-21T17:04:19.000+02:00</time>
      </trkpt>
      <trkpt lat="48.10409" lon="7.24113">
        <ele>651.4</ele>
        <time>2017-10-21T17:04:22.000+02:00</time>
      </trkpt>
      <trkpt lat="48.10393" lon="7.24169">
        <ele>653.9</ele>
        <time>2017-10-21T17:04:44.000+02:00</time>
      </trkpt>
      <trkpt lat="48.10387" lon="7.24208">
        <ele>653</ele>
        <time>2017-10-21T17:04:53.000+02:00</time>
      </trkpt>
      <trkpt lat="48.10387" lon="7.24238">
        <ele>653.3</ele>
        <time>2017-10-21T17:05:02.000+02:00</time>
      </trkpt>
      <trkpt lat="48.10389" lon="7.24275">
        <ele>654.1</ele>
        <time>2017-10-21T17:05:12.000+02:00</time>
      </trkpt>
      <trkpt lat="48.10389" lon="7.24274">
        <ele>654.1</ele>
        <time>2017-10-21T17:05:12.000+02:00</time>
      </trkpt>
      <trkpt lat="48.10382" lon="7.24355">
        <ele>651.5</ele>
        <time>2017-10-21T17:05:32.000+02:00</time>
      </trkpt>
      <trkpt lat="48.10376" lon="7.24268">
        <ele>649.9</ele>
        <time>2017-10-21T17:05:55.000+02:00</time>
      </trkpt>
      <trkpt lat="48.10376" lon="7.24267">
        <ele>649.9</ele>
        <time>2017-10-21T17:05:55.000+02:00</time>
      </trkpt>
      <trkpt lat="48.1036" lon="7.24194">
        <ele>646.1</ele>
        <time>2017-10-21T17:06:13.000+02:00</time>
      </trkpt>
      <trkpt lat="48.10341" lon="7.24128">
        <ele>641.4</ele>
        <time>2017-10-21T17:06:30.000+02:00</time>
      </trkpt>
      <trkpt lat="48.1034" lon="7.24115">
        <ele>640.8</ele>
        <time>2017-10-21T17:06:33.000+02:00</time>
      </trkpt>
      <trkpt lat="48.10343" lon="7.241">
        <ele>640.7</ele>
        <time>2017-10-21T17:06:37.000+02:00</time>
      </trkpt>
      <trkpt lat="48.10348" lon="7.24042">
        <ele>638.7</ele>
        <time>2017-10-21T17:06:50.000+02:00</time>
      </trkpt>
      <trkpt lat="48.10347" lon="7.24021">
        <ele>637.4</ele>
        <time>2017-10-21T17:06:55.000+02:00</time>
      </trkpt>
      <trkpt lat="48.10337" lon="7.23979">
        <ele>635.1</ele>
        <time>2017-10-21T17:07:07.000+02:00</time>
      </trkpt>
      <trkpt lat="48.10336" lon="7.23979">
        <ele>634.9</ele>
        <time>2017-10-21T17:07:07.000+02:00</time>
      </trkpt>
      <trkpt lat="48.10332" lon="7.23964">
        <ele>634.8</ele>
        <time>2017-10-21T17:07:22.000+02:00</time>
      </trkpt>
      <trkpt lat="48.10332" lon="7.23948">
        <ele>635.8</ele>
        <time>2017-10-21T17:07:28.000+02:00</time>
      </trkpt>
      <trkpt lat="48.10335" lon="7.23929">
        <ele>637.7</ele>
        <time>2017-10-21T17:07:58.000+02:00</time>
      </trkpt>
      <trkpt lat="48.10334" lon="7.23918">
        <ele>638.1</ele>
        <time>2017-10-21T17:08:05.000+02:00</time>
      </trkpt>
      <trkpt lat="48.10331" lon="7.23908">
        <ele>639.6</ele>
        <time>2017-10-21T17:08:10.000+02:00</time>
      </trkpt>
      <trkpt lat="48.10313" lon="7.23885">
        <ele>642.5</ele>
        <time>2017-10-21T17:08:24.000+02:00</time>
      </trkpt>
      <trkpt lat="48.10298" lon="7.23877">
        <ele>642.5</ele>
        <time>2017-10-21T17:08:31.000+02:00</time>
      </trkpt>
      <trkpt lat="48.10288" lon="7.23874">
        <ele>642.1</ele>
        <time>2017-10-21T17:08:35.000+02:00</time>
      </trkpt>
      <trkpt lat="48.10287" lon="7.23874">
        <ele>641.9</ele>
        <time>2017-10-21T17:08:35.000+02:00</time>
      </trkpt>
      <trkpt lat="48.10276" lon="7.23871">
        <ele>641.4</ele>
        <time>2017-10-21T17:08:40.000+02:00</time>
      </trkpt>
      <trkpt lat="48.10256" lon="7.2387">
        <ele>639.3</ele>
        <time>2017-10-21T17:08:47.000+02:00</time>
      </trkpt>
      <trkpt lat="48.10248" lon="7.23867">
        <ele>639</ele>
        <time>2017-10-21T17:08:58.000+02:00</time>
      </trkpt>
      <trkpt lat="48.10231" lon="7.23854">
        <ele>638.9</ele>
        <time>2017-10-21T17:09:09.000+02:00</time>
      </trkpt>
      <trkpt lat="48.10195" lon="7.23796">
        <ele>642.4</ele>
        <time>2017-10-21T17:09:47.000+02:00</time>
      </trkpt>
      <trkpt lat="48.10158" lon="7.23739">
        <ele>648.1</ele>
        <time>2017-10-21T17:10:15.000+02:00</time>
      </trkpt>
      <trkpt lat="48.10126" lon="7.23738">
        <ele>644.6</ele>
        <time>2017-10-21T17:10:27.000+02:00</time>
      </trkpt>
      <trkpt lat="48.10112" lon="7.2374">
        <ele>642.5</ele>
        <time>2017-10-21T17:10:33.000+02:00</time>
      </trkpt>
      <trkpt lat="48.10095" lon="7.23745">
        <ele>639.5</ele>
        <time>2017-10-21T17:10:42.000+02:00</time>
      </trkpt>
      <trkpt lat="48.10069" lon="7.23757">
        <ele>631.9</ele>
        <time>2017-10-21T17:11:14.000+02:00</time>
      </trkpt>
      <trkpt lat="48.10057" lon="7.23759">
        <ele>628.9</ele>
        <time>2017-10-21T17:11:23.000+02:00</time>
      </trkpt>
      <trkpt lat="48.10049" lon="7.23756">
        <ele>628.1</ele>
        <time>2017-10-21T17:11:26.000+02:00</time>
      </trkpt>
      <trkpt lat="48.10003" lon="7.23755">
        <ele>619</ele>
        <time>2017-10-21T17:11:42.000+02:00</time>
      </trkpt>
      <trkpt lat="48.09991" lon="7.23759">
        <ele>616.3</ele>
        <time>2017-10-21T17:11:52.000+02:00</time>
      </trkpt>
      <trkpt lat="48.09983" lon="7.2376">
        <ele>614.9</ele>
        <time>2017-10-21T17:11:56.000+02:00</time>
      </trkpt>
      <trkpt lat="48.0998" lon="7.23757">
        <ele>614.7</ele>
        <time>2017-10-21T17:11:58.000+02:00</time>
      </trkpt>
      <trkpt lat="48.09966" lon="7.23731">
        <ele>615.6</ele>
        <time>2017-10-21T17:12:15.000+02:00</time>
      </trkpt>
      <trkpt lat="48.09965" lon="7.23721">
        <ele>616.8</ele>
        <time>2017-10-21T17:12:17.000+02:00</time>
      </trkpt>
      <trkpt lat="48.09968" lon="7.23702">
        <ele>620.2</ele>
        <time>2017-10-21T17:12:26.000+02:00</time>
      </trkpt>
      <trkpt lat="48.09966" lon="7.23692">
        <ele>621.2</ele>
        <time>2017-10-21T17:12:29.000+02:00</time>
      </trkpt>
      <trkpt lat="48.0996" lon="7.23685">
        <ele>620.5</ele>
        <time>2017-10-21T17:12:32.000+02:00</time>
      </trkpt>
      <trkpt lat="48.09955" lon="7.23684">
        <ele>619.3</ele>
        <time>2017-10-21T17:12:34.000+02:00</time>
      </trkpt>
      <trkpt lat="48.09955" lon="7.23671">
        <ele>620.9</ele>
        <time>2017-10-21T17:12:38.000+02:00</time>
      </trkpt>
      <trkpt lat="48.09952" lon="7.23657">
        <ele>622.2</ele>
        <time>2017-10-21T17:13:00.000+02:00</time>
      </trkpt>
      <trkpt lat="48.09935" lon="7.23615">
        <ele>624.4</ele>
        <time>2017-10-21T17:13:14.000+02:00</time>
      </trkpt>
      <trkpt lat="48.09931" lon="7.23609">
        <ele>624.3</ele>
        <time>2017-10-21T17:13:16.000+02:00</time>
      </trkpt>
      <trkpt lat="48.09943" lon="7.23661">
        <ele>618.9</ele>
        <time>2017-10-21T17:13:30.000+02:00</time>
      </trkpt>
      <trkpt lat="48.09943" lon="7.23686">
        <ele>615.8</ele>
        <time>2017-10-21T17:13:47.000+02:00</time>
      </trkpt>
      <trkpt lat="48.09914" lon="7.2373">
        <ele>604.6</ele>
        <time>2017-10-21T17:14:29.000+02:00</time>
      </trkpt>
      <trkpt lat="48.09898" lon="7.2375">
        <ele>598.2</ele>
        <time>2017-10-21T17:14:36.000+02:00</time>
      </trkpt>
      <trkpt lat="48.09884" lon="7.23764">
        <ele>594.3</ele>
        <time>2017-10-21T17:14:45.000+02:00</time>
      </trkpt>
      <trkpt lat="48.09867" lon="7.23788">
        <ele>590.2</ele>
        <time>2017-10-21T17:14:54.000+02:00</time>
      </trkpt>
      <trkpt lat="48.09857" lon="7.23797">
        <ele>587.7</ele>
        <time>2017-10-21T17:14:58.000+02:00</time>
      </trkpt>
      <trkpt lat="48.09848" lon="7.23815">
        <ele>586.1</ele>
        <time>2017-10-21T17:15:03.000+02:00</time>
      </trkpt>
      <trkpt lat="48.09842" lon="7.23831">
        <ele>585.3</ele>
        <time>2017-10-21T17:15:10.000+02:00</time>
      </trkpt>
      <trkpt lat="48.09836" lon="7.2387">
        <ele>583.2</ele>
        <time>2017-10-21T17:15:26.000+02:00</time>
      </trkpt>
      <trkpt lat="48.09837" lon="7.2393">
        <ele>581.4</ele>
        <time>2017-10-21T17:15:42.000+02:00</time>
      </trkpt>
      <trkpt lat="48.09838" lon="7.23938">
        <ele>580.9</ele>
        <time>2017-10-21T17:15:46.000+02:00</time>
      </trkpt>
      <trkpt lat="48.09836" lon="7.23942">
        <ele>580.1</ele>
        <time>2017-10-21T17:15:47.000+02:00</time>
      </trkpt>
      <trkpt lat="48.09842" lon="7.24">
        <ele>575.5</ele>
        <time>2017-10-21T17:16:07.000+02:00</time>
      </trkpt>
      <trkpt lat="48.09842" lon="7.24035">
        <ele>576.3</ele>
        <time>2017-10-21T17:16:19.000+02:00</time>
      </trkpt>
      <trkpt lat="48.09841" lon="7.24049">
        <ele>576.5</ele>
        <time>2017-10-21T17:16:24.000+02:00</time>
      </trkpt>
      <trkpt lat="48.09837" lon="7.2406">
        <ele>576.5</ele>
        <time>2017-10-21T17:16:27.000+02:00</time>
      </trkpt>
      <trkpt lat="48.09819" lon="7.24083">
        <ele>573</ele>
        <time>2017-10-21T17:16:46.000+02:00</time>
      </trkpt>
      <trkpt lat="48.0977" lon="7.24113">
        <ele>564.4</ele>
        <time>2017-10-21T17:17:05.000+02:00</time>
      </trkpt>
      <trkpt lat="48.09751" lon="7.24133">
        <ele>563.7</ele>
        <time>2017-10-21T17:17:16.000+02:00</time>
      </trkpt>
      <trkpt lat="48.09728" lon="7.2416">
        <ele>564.3</ele>
        <time>2017-10-21T17:17:40.000+02:00</time>
      </trkpt>
      <trkpt lat="48.09708" lon="7.24169">
        <ele>562.4</ele>
        <time>2017-10-21T17:18:14.000+02:00</time>
      </trkpt>
      <trkpt lat="48.09672" lon="7.24175">
        <ele>556.3</ele>
        <time>2017-10-21T17:18:33.000+02:00</time>
      </trkpt>
      <trkpt lat="48.09664" lon="7.24177">
        <ele>554.8</ele>
        <time>2017-10-21T17:18:44.000+02:00</time>
      </trkpt>
      <trkpt lat="48.09654" lon="7.24184">
        <ele>552.9</ele>
        <time>2017-10-21T17:18:49.000+02:00</time>
      </trkpt>
      <trkpt lat="48.09642" lon="7.24204">
        <ele>552.1</ele>
        <time>2017-10-21T17:18:56.000+02:00</time>
      </trkpt>
      <trkpt lat="48.09632" lon="7.24254">
        <ele>555.6</ele>
        <time>2017-10-21T17:19:33.000+02:00</time>
      </trkpt>
      <trkpt lat="48.09626" lon="7.24269">
        <ele>556</ele>
        <time>2017-10-21T17:19:37.000+02:00</time>
      </trkpt>
      <trkpt lat="48.09605" lon="7.24298">
        <ele>554.4</ele>
        <time>2017-10-21T17:19:47.000+02:00</time>
      </trkpt>
      <trkpt lat="48.09595" lon="7.2431">
        <ele>553.7</ele>
        <time>2017-10-21T17:19:52.000+02:00</time>
      </trkpt>
      <trkpt lat="48.09581" lon="7.24319">
        <ele>551.7</ele>
        <time>2017-10-21T17:20:11.000+02:00</time>
      </trkpt>
      <trkpt lat="48.09571" lon="7.24321">
        <ele>550.3</ele>
        <time>2017-10-21T17:20:15.000+02:00</time>
      </trkpt>
      <trkpt lat="48.09559" lon="7.2432">
        <ele>548</ele>
        <time>2017-10-21T17:20:21.000+02:00</time>
      </trkpt>
      <trkpt lat="48.09496" lon="7.24305">
        <ele>532</ele>
        <time>2017-10-21T17:21:00.000+02:00</time>
      </trkpt>
      <trkpt lat="48.09466" lon="7.24306">
        <ele>526.5</ele>
        <time>2017-10-21T17:21:11.000+02:00</time>
      </trkpt>
      <trkpt lat="48.09458" lon="7.2431">
        <ele>526.2</ele>
        <time>2017-10-21T17:21:15.000+02:00</time>
      </trkpt>
      <trkpt lat="48.0941" lon="7.24346">
        <ele>529.6</ele>
        <time>2017-10-21T17:21:50.000+02:00</time>
      </trkpt>
      <trkpt lat="48.09395" lon="7.24351">
        <ele>530.6</ele>
        <time>2017-10-21T17:22:00.000+02:00</time>
      </trkpt>
      <trkpt lat="48.0938" lon="7.24348">
        <ele>529.2</ele>
        <time>2017-10-21T17:22:07.000+02:00</time>
      </trkpt>
      <trkpt lat="48.09362" lon="7.24339">
        <ele>525.8</ele>
        <time>2017-10-21T17:22:14.000+02:00</time>
      </trkpt>
      <trkpt lat="48.09282" lon="7.24286">
        <ele>512.3</ele>
        <time>2017-10-21T17:22:59.000+02:00</time>
      </trkpt>
      <trkpt lat="48.09245" lon="7.24256">
        <ele>506.3</ele>
        <time>2017-10-21T17:23:15.000+02:00</time>
      </trkpt>
      <trkpt lat="48.09244" lon="7.24256">
        <ele>506.5</ele>
        <time>2017-10-21T17:23:15.000+02:00</time>
      </trkpt>
      <trkpt lat="48.09219" lon="7.24236">
        <ele>504.4</ele>
        <time>2017-10-21T17:23:31.000+02:00</time>
      </trkpt>
      <trkpt lat="48.0915" lon="7.24194">
        <ele>501</ele>
        <time>2017-10-21T17:24:01.000+02:00</time>
      </trkpt>
      <trkpt lat="48.09122" lon="7.24182">
        <ele>497.3</ele>
        <time>2017-10-21T17:24:12.000+02:00</time>
      </trkpt>
      <trkpt lat="48.09091" lon="7.24171">
        <ele>494</ele>
        <time>2017-10-21T17:24:24.000+02:00</time>
      </trkpt>
      <trkpt lat="48.09079" lon="7.24168">
        <ele>492.3</ele>
        <time>2017-10-21T17:24:31.000+02:00</time>
      </trkpt>
      <trkpt lat="48.0906" lon="7.24166">
        <ele>488.1</ele>
        <time>2017-10-21T17:24:53.000+02:00</time>
      </trkpt>
      <trkpt lat="48.09051" lon="7.24168">
        <ele>486.6</ele>
        <time>2017-10-21T17:25:13.000+02:00</time>
      </trkpt>
      <trkpt lat="48.09042" lon="7.24172">
        <ele>485.3</ele>
        <time>2017-10-21T17:25:17.000+02:00</time>
      </trkpt>
      <trkpt lat="48.09019" lon="7.24192">
        <ele>482.7</ele>
        <time>2017-10-21T17:25:26.000+02:00</time>
      </trkpt>
      <trkpt lat="48.09" lon="7.24229">
        <ele>482</ele>
        <time>2017-10-21T17:25:39.000+02:00</time>
      </trkpt>
      <trkpt lat="48.08996" lon="7.24249">
        <ele>482.5</ele>
        <time>2017-10-21T17:25:54.000+02:00</time>
      </trkpt>
      <trkpt lat="48.08996" lon="7.24332">
        <ele>482.2</ele>
        <time>2017-10-21T17:26:16.000+02:00</time>
      </trkpt>
      <trkpt lat="48.08996" lon="7.24331">
        <ele>482.2</ele>
        <time>2017-10-21T17:26:17.000+02:00</time>
      </trkpt>
      <trkpt lat="48.09006" lon="7.24385">
        <ele>480.7</ele>
        <time>2017-10-21T17:26:46.000+02:00</time>
      </trkpt>
      <trkpt lat="48.09015" lon="7.24466">
        <ele>472.2</ele>
        <time>2017-10-21T17:27:11.000+02:00</time>
      </trkpt>
      <trkpt lat="48.09019" lon="7.24476">
        <ele>472</ele>
        <time>2017-10-21T17:27:14.000+02:00</time>
      </trkpt>
      <trkpt lat="48.09039" lon="7.24503">
        <ele>475.2</ele>
        <time>2017-10-21T17:27:30.000+02:00</time>
      </trkpt>
      <trkpt lat="48.09052" lon="7.24536">
        <ele>473</ele>
        <time>2017-10-21T17:27:40.000+02:00</time>
      </trkpt>
      <trkpt lat="48.09061" lon="7.24581">
        <ele>466.6</ele>
        <time>2017-10-21T17:27:52.000+02:00</time>
      </trkpt>
      <trkpt lat="48.09063" lon="7.24637">
        <ele>463</ele>
        <time>2017-10-21T17:28:15.000+02:00</time>
      </trkpt>
      <trkpt lat="48.09057" lon="7.24709">
        <ele>455.2</ele>
        <time>2017-10-21T17:28:34.000+02:00</time>
      </trkpt>
      <trkpt lat="48.09059" lon="7.24755">
        <ele>452.5</ele>
        <time>2017-10-21T17:28:45.000+02:00</time>
      </trkpt>
      <trkpt lat="48.09071" lon="7.24779">
        <ele>452.5</ele>
        <time>2017-10-21T17:28:52.000+02:00</time>
      </trkpt>
      <trkpt lat="48.09117" lon="7.24842">
        <ele>450</ele>
        <time>2017-10-21T17:29:13.000+02:00</time>
      </trkpt>
      <trkpt lat="48.09129" lon="7.24858">
        <ele>447.4</ele>
        <time>2017-10-21T17:29:20.000+02:00</time>
      </trkpt>
      <trkpt lat="48.09135" lon="7.24863">
        <ele>447</ele>
        <time>2017-10-21T17:29:23.000+02:00</time>
      </trkpt>
      <trkpt lat="48.09167" lon="7.24877">
        <ele>448</ele>
        <time>2017-10-21T17:30:10.000+02:00</time>
      </trkpt>
      <trkpt lat="48.0917" lon="7.24882">
        <ele>447.2</ele>
        <time>2017-10-21T17:30:15.000+02:00</time>
      </trkpt>
      <trkpt lat="48.0918" lon="7.24973">
        <ele>428.1</ele>
        <time>2017-10-21T17:31:05.000+02:00</time>
      </trkpt>
      <trkpt lat="48.09192" lon="7.25023">
        <ele>422</ele>
        <time>2017-10-21T17:31:31.000+02:00</time>
      </trkpt>
      <trkpt lat="48.0922" lon="7.25112">
        <ele>411.2</ele>
        <time>2017-10-21T17:32:03.000+02:00</time>
      </trkpt>
      <trkpt lat="48.09233" lon="7.25134">
        <ele>409.2</ele>
        <time>2017-10-21T17:32:10.000+02:00</time>
      </trkpt>
      <trkpt lat="48.09252" lon="7.25156">
        <ele>407.4</ele>
        <time>2017-10-21T17:32:20.000+02:00</time>
      </trkpt>
      <trkpt lat="48.09264" lon="7.25167">
        <ele>404.4</ele>
        <time>2017-10-21T17:32:35.000+02:00</time>
      </trkpt>
      <trkpt lat="48.09294" lon="7.25181">
        <ele>401.1</ele>
        <time>2017-10-21T17:32:46.000+02:00</time>
      </trkpt>
      <trkpt lat="48.09332" lon="7.25175">
        <ele>400.7</ele>
        <time>2017-10-21T17:33:02.000+02:00</time>
      </trkpt>
      <trkpt lat="48.09337" lon="7.25176">
        <ele>401.3</ele>
        <time>2017-10-21T17:33:13.000+02:00</time>
      </trkpt>
      <trkpt lat="48.09345" lon="7.25182">
        <ele>402</ele>
        <time>2017-10-21T17:33:16.000+02:00</time>
      </trkpt>
      <trkpt lat="48.09348" lon="7.25192">
        <ele>401.1</ele>
        <time>2017-10-21T17:33:19.000+02:00</time>
      </trkpt>
      <trkpt lat="48.09353" lon="7.25245">
        <ele>394.4</ele>
        <time>2017-10-21T17:33:33.000+02:00</time>
      </trkpt>
      <trkpt lat="48.09349" lon="7.25286">
        <ele>387.8</ele>
        <time>2017-10-21T17:33:50.000+02:00</time>
      </trkpt>
      <trkpt lat="48.09342" lon="7.25319">
        <ele>381.4</ele>
        <time>2017-10-21T17:34:03.000+02:00</time>
      </trkpt>
      <trkpt lat="48.09334" lon="7.2534">
        <ele>377.8</ele>
        <time>2017-10-21T17:34:15.000+02:00</time>
      </trkpt>
      <trkpt lat="48.0933" lon="7.25348">
        <ele>378.1</ele>
        <time>2017-10-21T17:34:23.000+02:00</time>
      </trkpt>
      <trkpt lat="48.09317" lon="7.25356">
        <ele>377.3</ele>
        <time>2017-10-21T17:34:29.000+02:00</time>
      </trkpt>
      <trkpt lat="48.09267" lon="7.25378">
        <ele>371.4</ele>
        <time>2017-10-21T17:34:46.000+02:00</time>
      </trkpt>
      <trkpt lat="48.09231" lon="7.25389">
        <ele>366.2</ele>
        <time>2017-10-21T17:35:06.000+02:00</time>
      </trkpt>
      <trkpt lat="48.09172" lon="7.25402">
        <ele>357.6</ele>
        <time>2017-10-21T17:35:26.000+02:00</time>
      </trkpt>
      <trkpt lat="48.09129" lon="7.25404">
        <ele>350.7</ele>
        <time>2017-10-21T17:35:46.000+02:00</time>
      </trkpt>
      <trkpt lat="48.09094" lon="7.25403">
        <ele>345.2</ele>
        <time>2017-10-21T17:36:00.000+02:00</time>
      </trkpt>
      <trkpt lat="48.09066" lon="7.25407">
        <ele>340.8</ele>
        <time>2017-10-21T17:36:14.000+02:00</time>
      </trkpt>
      <trkpt lat="48.09041" lon="7.25422">
        <ele>337.2</ele>
        <time>2017-10-21T17:36:24.000+02:00</time>
      </trkpt>
      <trkpt lat="48.09005" lon="7.25436">
        <ele>334.2</ele>
        <time>2017-10-21T17:36:36.000+02:00</time>
      </trkpt>
      <trkpt lat="48.08979" lon="7.25449">
        <ele>332.4</ele>
        <time>2017-10-21T17:36:51.000+02:00</time>
      </trkpt>
      <trkpt lat="48.08928" lon="7.25482">
        <ele>325</ele>
        <time>2017-10-21T17:37:10.000+02:00</time>
      </trkpt>
      <trkpt lat="48.089" lon="7.25494">
        <ele>319.8</ele>
        <time>2017-10-21T17:37:26.000+02:00</time>
      </trkpt>
      <trkpt lat="48.08868" lon="7.25519">
        <ele>316.6</ele>
        <time>2017-10-21T17:37:38.000+02:00</time>
      </trkpt>
      <trkpt lat="48.08858" lon="7.25528">
        <ele>315.4</ele>
        <time>2017-10-21T17:37:43.000+02:00</time>
      </trkpt>
      <trkpt lat="48.0883" lon="7.25544">
        <ele>310.4</ele>
        <time>2017-10-21T17:38:12.000+02:00</time>
      </trkpt>
      <trkpt lat="48.0881" lon="7.25553">
        <ele>306.7</ele>
        <time>2017-10-21T17:38:19.000+02:00</time>
      </trkpt>
      <trkpt lat="48.08798" lon="7.25562">
        <ele>304.4</ele>
        <time>2017-10-21T17:38:24.000+02:00</time>
      </trkpt>
      <trkpt lat="48.08767" lon="7.25592">
        <ele>298</ele>
        <time>2017-10-21T17:38:37.000+02:00</time>
      </trkpt>
      <trkpt lat="48.08729" lon="7.25635">
        <ele>292.2</ele>
        <time>2017-10-21T17:38:59.000+02:00</time>
      </trkpt>
      <trkpt lat="48.08691" lon="7.25677">
        <ele>287.5</ele>
        <time>2017-10-21T17:39:15.000+02:00</time>
      </trkpt>
      <trkpt lat="48.08665" lon="7.25709">
        <ele>283.3</ele>
        <time>2017-10-21T17:39:34.000+02:00</time>
      </trkpt>
      <trkpt lat="48.08656" lon="7.2573">
        <ele>281.6</ele>
        <time>2017-10-21T17:39:41.000+02:00</time>
      </trkpt>
      <trkpt lat="48.08648" lon="7.25755">
        <ele>280</ele>
        <time>2017-10-21T17:39:47.000+02:00</time>
      </trkpt>
      <trkpt lat="48.08637" lon="7.25804">
        <ele>278</ele>
        <time>2017-10-21T17:39:59.000+02:00</time>
      </trkpt>
      <trkpt lat="48.0863" lon="7.25849">
        <ele>276.4</ele>
        <time>2017-10-21T17:40:10.000+02:00</time>
      </trkpt>
      <trkpt lat="48.08628" lon="7.25873">
        <ele>275.7</ele>
        <time>2017-10-21T17:40:16.000+02:00</time>
      </trkpt>
      <trkpt lat="48.08623" lon="7.25907">
        <ele>274.4</ele>
        <time>2017-10-21T17:40:25.000+02:00</time>
      </trkpt>
      <trkpt lat="48.08617" lon="7.25922">
        <ele>273.2</ele>
        <time>2017-10-21T17:40:32.000+02:00</time>
      </trkpt>
      <trkpt lat="48.08593" lon="7.25961">
        <ele>268.5</ele>
        <time>2017-10-21T17:40:45.000+02:00</time>
      </trkpt>
      <trkpt lat="48.08587" lon="7.25987">
        <ele>266.8</ele>
        <time>2017-10-21T17:40:53.000+02:00</time>
      </trkpt>
      <trkpt lat="48.08581" lon="7.26025">
        <ele>264.1</ele>
        <time>2017-10-21T17:41:05.000+02:00</time>
      </trkpt>
      <trkpt lat="48.08576" lon="7.26072">
        <ele>260.5</ele>
        <time>2017-10-21T17:41:16.000+02:00</time>
      </trkpt>
      <trkpt lat="48.08585" lon="7.26105">
        <ele>258.1</ele>
        <time>2017-10-21T17:41:26.000+02:00</time>
      </trkpt>
      <trkpt lat="48.08616" lon="7.26202">
        <ele>255.8</ele>
        <time>2017-10-21T17:41:50.000+02:00</time>
      </trkpt>
      <trkpt lat="48.0863" lon="7.26273">
        <ele>255.8</ele>
        <time>2017-10-21T17:42:08.000+02:00</time>
      </trkpt>
      <trkpt lat="48.08632" lon="7.26292">
        <ele>255.8</ele>
        <time>2017-10-21T17:42:14.000+02:00</time>
      </trkpt>
      <trkpt lat="48.0863" lon="7.26312">
        <ele>255.1</ele>
        <time>2017-10-21T17:42:19.000+02:00</time>
      </trkpt>
      <trkpt lat="48.08627" lon="7.26322">
        <ele>254.5</ele>
        <time>2017-10-21T17:42:22.000+02:00</time>
      </trkpt>
      <trkpt lat="48.08615" lon="7.26377">
        <ele>251.5</ele>
        <time>2017-10-21T17:42:35.000+02:00</time>
      </trkpt>
      <trkpt lat="48.08609" lon="7.2642">
        <ele>249.7</ele>
        <time>2017-10-21T17:42:45.000+02:00</time>
      </trkpt>
      <trkpt lat="48.08615" lon="7.26508">
        <ele>249.4</ele>
        <time>2017-10-21T17:43:09.000+02:00</time>
      </trkpt>
      <trkpt lat="48.08614" lon="7.26637">
        <ele>248.8</ele>
        <time>2017-10-21T17:43:43.000+02:00</time>
      </trkpt>
      <trkpt lat="48.0862" lon="7.26674">
        <ele>250.3</ele>
        <time>2017-10-21T17:43:56.000+02:00</time>
      </trkpt>
      <trkpt lat="48.08621" lon="7.26691">
        <ele>251.3</ele>
        <time>2017-10-21T17:44:00.000+02:00</time>
      </trkpt>
      <trkpt lat="48.08621" lon="7.26707">
        <ele>252</ele>
        <time>2017-10-21T17:44:05.000+02:00</time>
      </trkpt>
      <trkpt lat="48.08617" lon="7.26737">
        <ele>252.2</ele>
        <time>2017-10-21T17:44:13.000+02:00</time>
      </trkpt>
      <trkpt lat="48.08601" lon="7.26797">
        <ele>250.4</ele>
        <time>2017-10-21T17:44:32.000+02:00</time>
      </trkpt>
      <trkpt lat="48.08597" lon="7.26831">
        <ele>250.6</ele>
        <time>2017-10-21T17:44:41.000+02:00</time>
      </trkpt>
      <trkpt lat="48.08604" lon="7.26958">
        <ele>250.3</ele>
        <time>2017-10-21T17:45:18.000+02:00</time>
      </trkpt>
      <trkpt lat="48.08609" lon="7.27017">
        <ele>249.9</ele>
        <time>2017-10-21T17:45:31.000+02:00</time>
      </trkpt>
    </trkseg>
  </trk>
</gpx>